# Wetter Temperatur Luftdruck Luftfeuchtigkeit Sichtweite Windgeschwindigkeit Windrichtung Zeit
1 Clouds 24 1013 23 10000 2.6 110 22:28 24.01.2020
2 Clouds 23 1013 27 10000 3.1 80 21:59 24.01.2020
3 Clouds 23 1013 27 10000 2.6 90 21:40 24.01.2020
4 Clouds 23 1013 27 10000 2.6 90 21:19 24.01.2020
5 Clouds 23 1013 28 10000 2.6 90 20:44 24.01.2020
6 Clear 24 1012 29 10000 3.1 110 20:22 24.01.2020
7 Clouds 24 1012 31 10000 2.6 90 19:58 24.01.2020
8 Clouds 24 1012 31 10000 2.6 90 19:58 24.01.2020
9 Clouds 24 1012 31 10000 2.6 110 19:40 24.01.2020
10 Clouds 24 1012 31 10000 2.6 110 19:22 24.01.2020
11 Clouds 24 1012 31 10000 2.6 110 19:22 24.01.2020
12 Clouds 24 1012 33 10000 2.1 120 18:56 24.01.2020
13 Clouds 25 1013 31 10000 2.6 120 18:37 24.01.2020
14 Clouds 25 1013 31 10000 2.6 120 18:19 24.01.2020
15 Clouds 26 1013 29 10000 3.1 140 17:42 24.01.2020
16 Clouds 26 1013 29 10000 3.1 140 17:21 24.01.2020
17 Clouds 26 1013 29 10000 3.1 140 17:21 24.01.2020
18 Clouds 26 1013 29 10000 2.6 130 16:45 24.01.2020
19 Clouds 26 1013 29 10000 2.6 130 16:22 24.01.2020
20 Clouds 27 1014 28 10000 2.6 110 15:57 24.01.2020
21 Clouds 27 1014 28 10000 2.6 90 15:39 24.01.2020
22 Clouds 27 1014 28 10000 2.6 90 15:20 24.01.2020
23 Clouds 29 1014 25 10000 3.6 90 14:41 24.01.2020
24 Clouds 29 1014 25 10000 3.6 90 14:23 24.01.2020
25 Clouds 29 1014 25 10000 4.6 90 13:57 24.01.2020
26 Clouds 29 1013 25 10000 5.1 90 13:39 24.01.2020
27 Clouds 29 1013 25 10000 5.1 90 13:19 24.01.2020
28 Clouds 30 1013 25 10000 5.7 80 12:41 24.01.2020
29 Clouds 30 1013 25 10000 5.7 80 12:18 24.01.2020
30 Clouds 30 1012 25 10000 6.2 80 11:43 24.01.2020
31 Clouds 31 1011 23 10000 7.2 90 11:19 24.01.2020
32 Clouds 32 1011 24 10000 7.7 90 10:43 24.01.2020
33 Clouds 32 1011 22 10000 7.7 100 10:22 24.01.2020
34 Clouds 33 1010 22 10000 7.2 100 09:56 24.01.2020
35 Clouds 33 1010 21 10000 7.2 90 09:38 24.01.2020
36 Clouds 33 1010 21 10000 7.2 90 09:38 24.01.2020
37 Clouds 33 1010 21 10000 7.2 90 09:20 24.01.2020
38 Clouds 34 1010 21 10000 8.2 130 08:40 24.01.2020
39 Clouds 34 1010 21 10000 8.2 130 08:19 24.01.2020
40 Clear 33 1010 22 10000 8.2 90 07:50 24.01.2020
41 Clear 33 1011 22 10000 6.2 130 07:28 24.01.2020
42 Clear 32 1011 22 10000 7.7 90 06:48 24.01.2020
43 Clear 33 1011 22 10000 6.7 130 06:28 24.01.2020
44 Clear 33 1012 22 10000 8.2 90 05:58 24.01.2020
45 Clear 31 1013 23 10000 8.2 90 04:54 24.01.2020
46 Clear 30 1014 27 10000 7.7 100 02:53 24.01.2020
47 Clear 29 1014 28 10000 7.7 110 02:24 24.01.2020
48 Clouds 28 1014 30 10000 7.7 120 01:42 24.01.2020
49 Clouds 28 1014 30 10000 7.7 120 01:24 24.01.2020
50 Clouds 28 1014 28 10000 8.2 120 00:20 24.01.2020
51 Clouds 28 1014 28 10000 7.2 120 23:48 23.01.2020
52 Clouds 27 1013 30 10000 7.2 120 23:30 23.01.2020
53 Clouds 26 1013 31 10000 7.7 110 22:59 23.01.2020
54 Clouds 26 1012 31 10000 6.7 110 22:37 23.01.2020
55 Clouds 26 1012 31 10000 6.7 110 22:37 23.01.2020
56 Clouds 26 1012 31 10000 6.7 110 22:19 23.01.2020
57 Clouds 26 1012 31 10000 6.7 110 22:19 23.01.2020
58 Clouds 26 1012 31 10000 7.2 120 21:56 23.01.2020
59 Clouds 27 1011 28 10000 6.2 120 21:38 23.01.2020
60 Clouds 27 1011 28 10000 6.2 120 21:19 23.01.2020
61 Clouds 27 1011 28 10000 3.6 130 20:57 23.01.2020
62 Clouds 27 1011 28 10000 4.1 120 20:38 23.01.2020
63 Clouds 27 1011 28 10000 4.1 120 20:19 23.01.2020
64 Clouds 27 1011 28 10000 4.6 120 19:44 23.01.2020
65 Clouds 28 1011 26 10000 4.1 120 19:24 23.01.2020
66 Clouds 28 1011 26 10000 4.1 120 18:59 23.01.2020
67 Clouds 28 1011 26 10000 4.1 110 18:39 23.01.2020
68 Clouds 28 1011 26 10000 4.1 110 18:20 23.01.2020
69 Clouds 28 1011 26 10000 3.1 130 17:56 23.01.2020
70 Clouds 29 1010 25 10000 3.6 120 17:38 23.01.2020
71 Clouds 29 1010 25 10000 3.6 120 17:18 23.01.2020
72 Clouds 30 1011 23 10000 4.6 130 16:39 23.01.2020
73 Clouds 30 1011 23 10000 4.6 130 16:20 23.01.2020
74 Clouds 30 1011 23 10000 5.1 110 15:58 23.01.2020
75 Clouds 30 1011 23 10000 5.1 100 15:40 23.01.2020
76 Clouds 30 1011 23 10000 5.1 100 15:19 23.01.2020
77 Clouds 31 1011 22 10000 5.7 120 14:59 23.01.2020
78 Clouds 31 1010 22 10000 4.6 120 14:41 23.01.2020
79 Clouds 31 1010 22 10000 4.6 120 14:22 23.01.2020
80 Clouds 32 1010 21 10000 5.7 130 13:56 23.01.2020
81 Clouds 32 1009 21 10000 6.7 130 13:37 23.01.2020
82 Clouds 32 1009 21 10000 6.7 130 13:18 23.01.2020
83 Clouds 33 1009 21 10000 6.2 130 12:43 23.01.2020
84 Clouds 33 1008 19 10000 6.7 130 12:24 23.01.2020
85 Clouds 34 1007 20 10000 7.7 130 11:56 23.01.2020
86 Clouds 35 1007 19 10000 7.2 140 11:37 23.01.2020
87 Clouds 35 1007 19 10000 7.2 140 11:37 23.01.2020
88 Clouds 35 1007 19 10000 7.2 140 11:18 23.01.2020
89 Clouds 36 1006 18 10000 6.7 130 10:43 23.01.2020
90 Clouds 37 1005 16 10000 6.7 140 10:19 23.01.2020
91 Clouds 37 1005 16 10000 6.7 150 09:43 23.01.2020
92 Clouds 38 1005 15 10000 7.2 150 09:25 23.01.2020
93 Clouds 38 1005 15 10000 6.2 130 08:58 23.01.2020
94 Clouds 38 1005 15 10000 6.7 180 08:40 23.01.2020
95 Clouds 38 1005 15 10000 6.7 180 08:21 23.01.2020
96 Clouds 39 1005 15 10000 6.7 150 07:44 23.01.2020
97 Clouds 39 1005 15 10000 5.7 190 07:24 23.01.2020
98 Clouds 40 1005 13 10000 5.7 150 06:51 23.01.2020
99 Clouds 38 1006 15 10000 4.6 120 06:22 23.01.2020
100 Clouds 38 1007 16 10000 3.6 180 05:37 23.01.2020
101 Clouds 38 1007 18 10000 4.1 120 04:24 23.01.2020
102 Clouds 36 1008 22 10000 5.7 180 02:33 23.01.2020
103 Clouds 33 1008 41 10000 5.1 290 00:58 23.01.2020
104 Clouds 32 1008 43 10000 4.6 300 00:27 23.01.2020
105 Clouds 31 1008 45 10000 6.2 320 23:47 22.01.2020
106 Clouds 30 1008 48 10000 5.7 330 23:29 22.01.2020
107 Clouds 30 1007 48 10000 5.7 340 22:58 22.01.2020
108 Clouds 29 1007 51 10000 4.1 300 22:39 22.01.2020
109 Clouds 29 1007 51 10000 4.1 300 22:21 22.01.2020
110 Clouds 29 1005 51 10000 4.6 310 21:39 22.01.2020
111 Clouds 29 1005 51 10000 4.6 350 21:21 22.01.2020
112 Clouds 29 1005 51 10000 4.6 350 20:56 22.01.2020
113 Clouds 30 1005 48 10000 7.2 350 20:37 22.01.2020
114 Clouds 30 1005 48 10000 7.2 350 20:37 22.01.2020
115 Clouds 30 1005 48 10000 7.2 350 20:18 22.01.2020
116 Clouds 30 1005 48 10000 8.2 340 19:55 22.01.2020
117 Clouds 31 1005 40 10000 7.2 340 19:37 22.01.2020
118 Clouds 31 1005 40 10000 7.2 340 19:18 22.01.2020
119 Clouds 32 1005 35 10000 5.7 350 18:56 22.01.2020
120 Clouds 32 1005 33 10000 4.6 340 18:37 22.01.2020
121 Clouds 32 1005 33 10000 4.6 340 18:18 22.01.2020
122 Clouds 32 1005 33 10000 3.1 30 17:40 22.01.2020
123 Clouds 32 1005 33 10000 3.1 30 17:21 22.01.2020
124 Clouds 32 1006 33 10000 2.1 20 16:58 22.01.2020
125 Clouds 32 1006 33 10000 2.6 20 16:39 22.01.2020
126 Clouds 32 1006 33 10000 2.6 20 16:21 22.01.2020
127 Clouds 32 1006 31 10000 2.1 360 15:55 22.01.2020
128 Clouds 33 1006 29 10000 3.6 320 15:37 22.01.2020
129 Clouds 33 1006 29 10000 3.6 320 15:18 22.01.2020
130 Clouds 33 1006 29 10000 2.6 30 14:39 22.01.2020
131 Clouds 33 1006 29 10000 2.6 30 14:20 22.01.2020
132 Clouds 34 1006 30 10000 3.1 30 13:58 22.01.2020
133 Clouds 34 1006 30 10000 2.6 20 13:37 22.01.2020
134 Clouds 34 1006 30 10000 2.6 20 13:37 22.01.2020
135 Clouds 34 1006 30 10000 2.6 20 13:19 22.01.2020
136 Clouds 35 1005 28 10000 1 340 12:57 22.01.2020
137 Clouds 35 1005 28 10000 1 280 12:38 22.01.2020
138 Clouds 35 1005 28 10000 1 280 12:19 22.01.2020
139 Clouds 36 1005 26 10000 2.6 270 11:57 22.01.2020
140 Clouds 36 1005 26 10000 3.1 260 11:38 22.01.2020
141 Clouds 36 1005 26 10000 3.1 260 11:19 22.01.2020
142 Clouds 36 1004 26 10000 4.1 240 10:45 22.01.2020
143 Clouds 36 1004 26 10000 4.6 250 10:21 22.01.2020
144 Clouds 36 1004 26 10000 6.2 250 09:58 22.01.2020
145 Clouds 37 1004 25 10000 5.7 230 09:40 22.01.2020
146 Clouds 37 1004 25 10000 5.7 230 09:21 22.01.2020
147 Clouds 36 1004 26 10000 5.7 220 08:55 22.01.2020
148 Clouds 36 1004 28 10000 8.7 240 08:36 22.01.2020
149 Clouds 36 1004 28 10000 8.7 240 08:18 22.01.2020
150 Clouds 38 1004 24 10000 3.1 300 07:42 22.01.2020
151 Clouds 38 1004 24 10000 3.1 300 07:23 22.01.2020
152 Clouds 37 1005 23 10000 3.1 190 06:34 22.01.2020
153 Clouds 38 1006 22 10000 2.1 160 05:45 22.01.2020
154 Clouds 35 1009 28 10000 4.6 330 04:25 22.01.2020
155 Clouds 35 1009 32 10000 3.6 350 03:26 22.01.2020
156 Clouds 33 1009 38 10000 4.6 350 02:39 22.01.2020
157 Clear 31 1010 48 10000 6.2 350 00:47 22.01.2020
158 Clear 31 1010 48 10000 6.2 350 00:47 22.01.2020
159 Clear 29 1010 54 10000 6.2 350 00:27 22.01.2020
160 Clear 28 1010 58 10000 5.7 340 23:55 21.01.2020
161 Clear 28 1010 58 10000 6.7 340 23:37 21.01.2020
162 Clear 28 1010 58 10000 6.7 340 23:18 21.01.2020
163 Clear 27 1009 61 10000 6.2 350 22:40 21.01.2020
164 Clear 27 1009 61 10000 6.2 350 22:21 21.01.2020
165 Clear 27 1009 61 10000 6.7 350 21:57 21.01.2020
166 Clear 27 1008 57 10000 6.2 350 21:38 21.01.2020
167 Clear 27 1008 57 10000 6.2 350 21:20 21.01.2020
168 Clear 27 1008 57 10000 4.6 360 20:56 21.01.2020
169 Clear 28 1008 51 10000 4.1 350 20:37 21.01.2020
170 Clear 28 1008 51 10000 4.1 350 20:19 21.01.2020
171 Clear 28 1008 51 10000 3.6 350 19:56 21.01.2020
172 Clear 28 1008 51 10000 3.6 350 19:56 21.01.2020
173 Clear 28 1008 51 10000 4.6 340 19:38 21.01.2020
174 Clear 28 1008 51 10000 4.6 340 19:20 21.01.2020
175 Clear 28 1008 51 10000 4.6 350 18:55 21.01.2020
176 Clear 28 1008 51 10000 4.6 350 18:55 21.01.2020
177 Clear 29 1008 48 10000 4.6 350 18:37 21.01.2020
178 Clear 29 1008 48 10000 4.6 350 18:18 21.01.2020
179 Clear 29 1008 48 10000 4.1 350 17:45 21.01.2020
180 Clear 29 1008 48 10000 4.1 350 17:20 21.01.2020
181 Clear 29 1009 48 10000 4.6 360 16:59 21.01.2020
182 Clear 29 1009 48 10000 4.6 360 16:59 21.01.2020
183 Clear 30 1009 42 10000 4.6 360 16:37 21.01.2020
184 Clear 30 1009 42 10000 4.6 360 16:19 21.01.2020
185 Clear 30 1009 42 10000 6.2 10 15:42 21.01.2020
186 Clear 30 1009 42 10000 6.2 10 15:22 21.01.2020
187 Clear 31 1009 40 10000 6.7 10 14:59 21.01.2020
188 Clear 31 1009 40 10000 7.2 10 14:38 21.01.2020
189 Clouds 31 1009 40 10000 7.2 10 14:19 21.01.2020
190 Clouds 31 1008 40 10000 7.7 10 13:40 21.01.2020
191 Clouds 31 1008 40 10000 7.7 10 13:19 21.01.2020
192 Clouds 32 1008 35 10000 6.7 10 12:44 21.01.2020
193 Clouds 33 1007 33 10000 7.7 10 12:25 21.01.2020
194 Clouds 33 1007 19 10000 3.6 50 11:57 21.01.2020
195 Clouds 34 1007 20 10000 4.1 40 11:39 21.01.2020
196 Clouds 34 1007 20 10000 4.1 40 11:21 21.01.2020
197 Clouds 35 1007 19 10000 4.1 50 10:55 21.01.2020
198 Clouds 35 1006 17 10000 4.1 60 10:37 21.01.2020
199 Clouds 35 1006 17 10000 4.1 60 10:18 21.01.2020
200 Clouds 36 1006 16 10000 6.2 50 09:41 21.01.2020
201 Clouds 36 1006 16 10000 6.2 50 09:22 21.01.2020
202 Clouds 35 1006 19 10000 4.6 10 08:49 21.01.2020
203 Clouds 36 1006 18 10000 4.6 60 08:29 21.01.2020
204 Clouds 35 1007 20 10000 4.6 40 07:59 21.01.2020
205 Clear 35 1007 21 10000 4.1 20 07:39 21.01.2020
206 Clear 35 1007 21 10000 4.1 20 07:21 21.01.2020
207 Clouds 35 1007 21 10000 4.6 20 06:48 21.01.2020
208 Clear 35 1008 21 10000 6.2 350 06:25 21.01.2020
209 Clear 35 1009 20 10000 5.7 360 05:42 21.01.2020
210 Clear 34 1010 23 10000 6.2 10 04:39 21.01.2020
211 Clear 33 1011 26 10000 5.7 10 02:56 21.01.2020
212 Clouds 32 1012 25 10000 6.2 360 01:51 21.01.2020
213 Clouds 30 1012 20 10000 4.6 20 00:57 21.01.2020
214 Clouds 28 1012 23 10000 2.6 70 00:35 21.01.2020
215 Clouds 26 1012 26 10000 1.5 80 23:57 20.01.2020
216 Clouds 25 1012 27 10000 3.1 90 23:37 20.01.2020
217 Clouds 25 1012 27 10000 3.1 90 23:18 20.01.2020
218 Clouds 25 1011 27 10000 2.6 100 22:56 20.01.2020
219 Clouds 24 1011 29 10000 2.6 60 22:36 20.01.2020
220 Clouds 24 1011 29 10000 2.6 60 22:18 20.01.2020
221 Clouds 23 1011 31 10000 2.1 60 21:55 20.01.2020
222 Clouds 22 1011 30 10000 2.1 50 21:36 20.01.2020
223 Clouds 22 1011 30 10000 2.1 50 21:18 20.01.2020
224 Clouds 23 1011 28 10000 2.1 80 20:54 20.01.2020
225 Clouds 24 1010 29 10000 3.6 80 20:36 20.01.2020
226 Clear 24 1010 29 10000 3.6 80 20:18 20.01.2020
227 Clear 24 1010 29 10000 3.6 80 20:18 20.01.2020
228 Clear 24 1010 29 10000 3.6 80 20:18 20.01.2020
229 Clear 25 1010 27 10000 2.6 100 19:54 20.01.2020
230 Clear 25 1010 27 10000 2.6 100 19:54 20.01.2020
231 Clear 26 1010 26 10000 2.6 90 19:36 20.01.2020
232 Clear 26 1010 26 10000 2.6 90 19:18 20.01.2020
233 Clear 25 1010 27 10000 3.1 90 18:42 20.01.2020
234 Clear 25 1010 27 10000 3.1 90 18:21 20.01.2020
235 Clear 25 1010 25 10000 2.6 60 17:39 20.01.2020
236 Clear 25 1010 25 10000 2.6 60 17:19 20.01.2020
237 Clear 26 1011 26 10000 2.6 10 16:48 20.01.2020
238 Clear 26 1011 26 10000 3.1 100 16:26 20.01.2020
239 Clear 28 1011 21 10000 3.6 110 15:59 20.01.2020
240 Clear 29 1011 20 10000 4.1 110 15:40 20.01.2020
241 Clear 29 1011 20 10000 4.1 110 15:22 20.01.2020
242 Clear 29 1011 21 10000 4.1 100 14:59 20.01.2020
243 Clear 29 1011 20 10000 4.6 110 14:40 20.01.2020
244 Clear 29 1011 20 10000 4.6 110 14:40 20.01.2020
245 Clouds 29 1011 20 10000 4.6 110 14:21 20.01.2020
246 Clouds 30 1010 19 10000 5.7 120 13:56 20.01.2020
247 Clouds 31 1010 18 10000 5.1 120 13:38 20.01.2020
248 Clouds 31 1010 18 10000 5.1 120 13:38 20.01.2020
249 Clouds 31 1010 18 10000 5.1 120 13:18 20.01.2020
250 Clouds 32 1010 18 10000 5.1 120 12:42 20.01.2020
251 Clouds 32 1010 18 10000 5.1 120 12:23 20.01.2020
252 Clouds 33 1009 16 10000 5.1 130 11:55 20.01.2020
253 Clouds 33 1009 16 10000 5.7 130 11:36 20.01.2020
254 Clouds 33 1009 16 10000 5.7 130 11:18 20.01.2020
255 Clouds 35 1008 14 10000 4.6 140 10:41 20.01.2020
256 Clouds 35 1008 14 10000 4.6 140 10:20 20.01.2020
257 Clouds 35 1007 14 10000 3.6 50 09:41 20.01.2020
258 Clouds 35 1007 14 10000 3.6 50 09:23 20.01.2020
259 Clouds 34 1008 14 10000 3.6 30 08:55 20.01.2020
260 Clouds 36 1008 13 10000 4.6 110 08:31 20.01.2020
261 Clear 35 1008 14 10000 3.6 110 07:55 20.01.2020
262 Clear 35 1008 14 10000 3.6 110 07:55 20.01.2020
263 Clear 35 1008 13 10000 5.1 110 07:37 20.01.2020
264 Clear 35 1008 13 10000 5.1 110 07:19 20.01.2020
265 Clear 34 1009 15 10000 2.6 50 06:36 20.01.2020
266 Clear 33 1010 16 10000 4.1 100 05:56 20.01.2020
267 Clear 34 1010 15 10000 5.1 90 05:37 20.01.2020
268 Clear 34 1010 15 10000 5.1 90 05:18 20.01.2020
269 Clear 31 1011 18 10000 5.1 80 03:47 20.01.2020
270 Clear 28 1012 20 10000 6.7 90 01:58 20.01.2020
271 Clear 28 1012 20 10000 6.2 100 01:39 20.01.2020
272 Clear 28 1012 21 10000 7.2 90 00:55 20.01.2020
273 Clear 27 1012 22 10000 7.2 110 00:28 20.01.2020
274 Clear 26 1012 24 10000 7.2 110 23:56 19.01.2020
275 Clear 25 1012 25 10000 7.2 120 23:37 19.01.2020
276 Clear 25 1012 25 10000 7.2 120 23:18 19.01.2020
277 Clear 24 1012 27 10000 4.1 130 22:55 19.01.2020
278 Clear 23 1012 31 10000 3.6 140 22:36 19.01.2020
279 Clear 23 1012 31 10000 3.6 140 22:18 19.01.2020
280 Clear 23 1011 31 10000 3.1 140 21:55 19.01.2020
281 Clear 23 1011 31 10000 3.1 140 21:55 19.01.2020
282 Clear 23 1011 31 10000 4.1 120 21:37 19.01.2020
283 Clear 23 1011 31 10000 4.1 120 21:19 19.01.2020
284 Clear 23 1011 31 10000 4.1 130 20:55 19.01.2020
285 Clear 24 1011 29 10000 3.6 120 20:37 19.01.2020
286 Clouds 24 1011 29 10000 3.6 120 20:18 19.01.2020
287 Clouds 25 1010 27 10000 3.6 120 19:54 19.01.2020
288 Clouds 25 1010 29 10000 4.1 130 19:36 19.01.2020
289 Clouds 25 1010 29 10000 4.1 130 19:18 19.01.2020
290 Clouds 26 1010 27 10000 4.6 130 18:55 19.01.2020
291 Clouds 26 1010 29 10000 5.7 130 18:36 19.01.2020
292 Clouds 26 1010 29 10000 5.7 130 18:18 19.01.2020
293 Clouds 24 1010 57 10000 2.6 140 17:56 19.01.2020
294 Clouds 25 1010 53 10000 1.5 170 17:38 19.01.2020
295 Clouds 25 1010 53 10000 1.5 170 17:18 19.01.2020
296 Clouds 24 1010 57 10000 1.5 140 16:55 19.01.2020
297 Clouds 25 1010 53 10000 2.1 200 16:36 19.01.2020
298 Clouds 25 1010 53 10000 2.1 200 16:18 19.01.2020
299 Clouds 26 1010 50 10000 2.1 120 15:41 19.01.2020
300 Clouds 26 1010 50 10000 2.1 120 15:22 19.01.2020
301 Clouds 26 1010 50 10000 2.1 120 14:59 19.01.2020
302 Clouds 27 1009 47 10000 2.6 350 14:40 19.01.2020
303 Clouds 27 1009 47 10000 2.6 350 14:19 19.01.2020
304 Clouds 27 1009 47 10000 2.1 330 13:58 19.01.2020
305 Clouds 27 1009 51 10000 2.1 330 13:39 19.01.2020
306 Clouds 27 1009 51 10000 2.1 330 13:21 19.01.2020
307 Clouds 27 1009 51 10000 3.6 350 12:58 19.01.2020
308 Clouds 27 1009 51 10000 3.6 350 12:58 19.01.2020
309 Clouds 27 1009 51 10000 3.6 350 12:58 19.01.2020
310 Clouds 27 1009 51 10000 4.1 350 12:40 19.01.2020
311 Clouds 27 1009 51 10000 4.1 350 12:40 19.01.2020
312 Clouds 27 1009 51 10000 4.1 350 12:21 19.01.2020
313 Clouds 27 1008 54 10000 5.7 350 11:56 19.01.2020
314 Clouds 27 1008 54 10000 6.7 350 11:37 19.01.2020
315 Clouds 27 1008 54 10000 6.7 350 11:18 19.01.2020
316 Clouds 29 1007 54 10000 8.7 350 10:39 19.01.2020
317 Clouds 29 1007 54 10000 8.7 350 10:39 19.01.2020
318 Clouds 29 1007 54 10000 8.7 350 10:20 19.01.2020
319 Clouds 30 1006 48 10000 7.7 350 09:57 19.01.2020
320 Clouds 30 1006 48 10000 7.7 350 09:57 19.01.2020
321 Clouds 31 1006 40 10000 6.7 360 09:38 19.01.2020
322 Clouds 31 1006 40 10000 6.7 360 09:19 19.01.2020
323 Clouds 31 1006 45 10000 6.7 360 08:54 19.01.2020
324 Clouds 31 1006 43 10000 7.2 350 08:31 19.01.2020
325 Clouds 34 1006 26 10000 3.1 100 07:49 19.01.2020
326 Clouds 33 1006 29 10000 4.6 110 07:28 19.01.2020
327 Clouds 34 1007 30 10000 3.6 40 06:55 19.01.2020
328 Clouds 32 1007 33 10000 2.1 200 06:21 19.01.2020
329 Clouds 30 1010 37 10000 5.1 70 03:52 19.01.2020
330 Clouds 28 1011 48 10000 6.7 40 02:32 19.01.2020
331 Clouds 26 1011 54 10000 4.1 360 01:39 19.01.2020
332 Clouds 26 1011 54 10000 4.1 360 01:19 19.01.2020
333 Clouds 26 1011 57 10000 5.1 350 00:44 19.01.2020
334 Clouds 26 1010 65 10000 3.1 300 00:19 19.01.2020
335 Clouds 26 1010 65 10000 3.1 300 23:45 18.01.2020
336 Rain 26 1010 47 10000 2.6 240 23:24 18.01.2020
337 Rain 28 1009 23 10000 3.6 60 22:58 18.01.2020
338 Clouds 28 1008 20 10000 3.6 110 22:40 18.01.2020
339 Clouds 28 1008 20 10000 3.6 110 22:21 18.01.2020
340 Rain 28 1008 24 10000 3.1 110 21:57 18.01.2020
341 Rain 28 1008 42 10000 4.1 120 21:38 18.01.2020
342 Rain 28 1008 42 10000 4.1 120 21:20 18.01.2020
343 Rain 28 1008 51 10000 3.1 130 20:44 18.01.2020
344 Clouds 28 1008 51 10000 2.1 70 20:22 18.01.2020
345 Clouds 28 1007 51 10000 2.6 60 19:59 18.01.2020
346 Clouds 28 1007 51 10000 2.6 20 19:41 18.01.2020
347 Clouds 28 1007 51 10000 2.6 20 19:22 18.01.2020
348 Clouds 28 1007 48 10000 2.6 10 18:43 18.01.2020
349 Clouds 28 1007 48 10000 2.6 10 18:24 18.01.2020
350 Clouds 28 1007 45 10000 2.6 60 17:56 18.01.2020
351 Clouds 29 1007 45 10000 2.54 43 17:38 18.01.2020
352 Clouds 29 1007 45 10000 1.94 82 17:19 18.01.2020
353 Clouds 29 1007 45 10000 2.1 10 16:55 18.01.2020
354 Clouds 30 1008 42 10000 2.6 340 16:36 18.01.2020
355 Clouds 30 1008 42 10000 2.6 340 16:18 18.01.2020
356 Clouds 30 1009 42 10000 3.1 360 15:42 18.01.2020
357 Clouds 30 1009 42 10000 3.1 360 15:24 18.01.2020
358 Clouds 30 1008 42 10000 2.6 350 14:57 18.01.2020
359 Clouds 30 1009 42 10000 4.1 350 14:39 18.01.2020
360 Clouds 30 1009 42 10000 4.1 350 14:18 18.01.2020
361 Clouds 31 1008 38 10000 2.6 280 13:44 18.01.2020
362 Clouds 31 1008 38 10000 2.6 280 13:26 18.01.2020
363 Clouds 31 1007 38 10000 5.1 280 12:58 18.01.2020
364 Clouds 31 1007 38 10000 6.7 300 12:39 18.01.2020
365 Clouds 31 1007 38 10000 6.7 300 12:20 18.01.2020
366 Clouds 31 1007 40 10000 7.2 300 11:44 18.01.2020
367 Clouds 31 1006 40 10000 7.7 320 11:22 18.01.2020
368 Clouds 32 1006 38 10000 7.7 310 10:57 18.01.2020
369 Clouds 32 1006 40 10000 8.2 300 10:38 18.01.2020
370 Clouds 32 1006 40 10000 8.2 300 10:19 18.01.2020
371 Clouds 32 1005 38 6000 6.7 290 09:43 18.01.2020
372 Clouds 37 1003 11 10000 8.7 120 09:24 18.01.2020
373 Clouds 39 1003 12 10000 7.2 90 08:55 18.01.2020
374 Clouds 38 1003 12 10000 5.1 130 08:37 18.01.2020
375 Clouds 38 1003 12 10000 5.1 130 08:18 18.01.2020
376 Clouds 39 1003 12 10000 5.1 120 07:45 18.01.2020
377 Clouds 38 1004 13 10000 4.6 120 07:26 18.01.2020
378 Clouds 39 1004 12 10000 3.6 80 06:47 18.01.2020
379 Clouds 38 1005 13 10000 3.1 140 05:58 18.01.2020
380 Clouds 38 1006 13 10000 3.6 250 05:19 18.01.2020
381 Clear 35 1009 12 10000 3.6 100 02:53 18.01.2020
382 Clear 35 1009 12 10000 3.6 100 02:53 18.01.2020
383 Clear 33 1009 14 10000 6.2 90 01:51 18.01.2020
384 Clear 33 1009 15 10000 5.7 70 01:20 18.01.2020
385 Clear 31 1010 17 10000 4.1 80 00:36 18.01.2020
386 Clear 31 1010 17 10000 4.1 80 00:18 18.01.2020
387 Clear 28 1010 21 10000 3.6 90 23:40 17.01.2020
388 Clear 28 1010 21 10000 3.6 90 23:19 17.01.2020
389 Clear 23 1009 31 10000 0.5 10 22:44 17.01.2020
390 Clear 23 1009 31 10000 0.5 10 22:21 17.01.2020
391 Clear 23 1009 31 10000 2.1 130 21:58 17.01.2020
392 Clear 23 1009 31 10000 2.1 130 21:40 17.01.2020
393 Clear 23 1009 31 10000 2.1 130 21:22 17.01.2020
394 Clear 24 1008 29 10000 2.6 120 20:55 17.01.2020
395 Clear 24 1008 31 10000 1.5 60 20:37 17.01.2020
396 Clear 24 1008 31 10000 1.5 60 20:18 17.01.2020
397 Clear 25 1008 27 10000 2.1 50 19:54 17.01.2020
398 Clear 25 1008 29 10000 0.5 50 19:36 17.01.2020
399 Clear 25 1008 29 10000 0.5 50 19:18 17.01.2020
400 Clear 26 1008 26 10000 3.1 90 18:44 17.01.2020
401 Clear 28 1008 24 10000 3.1 110 18:26 17.01.2020
402 Clear 28 1008 24 10000 4.1 100 17:56 17.01.2020
403 Clear 29 1008 23 10000 3.6 120 17:38 17.01.2020
404 Clear 29 1008 23 10000 3.6 120 17:38 17.01.2020
405 Clear 29 1008 23 10000 3.6 120 17:19 17.01.2020
406 Clear 30 1008 22 10000 5.1 110 16:41 17.01.2020
407 Clear 30 1008 22 10000 5.1 110 16:20 17.01.2020
408 Clear 30 1009 22 10000 5.1 90 15:48 17.01.2020
409 Clear 30 1009 22 10000 4.1 90 15:27 17.01.2020
410 Clear 31 1009 20 10000 4.6 120 14:54 17.01.2020
411 Clear 32 1009 18 10000 6.2 110 14:36 17.01.2020
412 Clear 32 1009 18 10000 6.2 110 14:18 17.01.2020
413 Clear 33 1008 17 10000 4.1 130 13:39 17.01.2020
414 Clear 33 1008 17 10000 4.1 130 13:19 17.01.2020
415 Clear 33 1008 17 10000 3.6 130 12:45 17.01.2020
416 Clear 34 1008 15 10000 4.6 120 12:22 17.01.2020
417 Clear 35 1008 14 10000 4.6 140 11:40 17.01.2020
418 Clear 35 1008 14 10000 4.6 140 11:19 17.01.2020
419 Clear 36 1007 13 10000 3.6 150 10:45 17.01.2020
420 Clear 37 1007 13 10000 3.6 130 10:23 17.01.2020
421 Clear 37 1007 13 10000 4.6 150 09:59 17.01.2020
422 Clear 37 1007 13 10000 4.6 150 09:59 17.01.2020
423 Clear 38 1007 13 10000 4.6 150 09:41 17.01.2020
424 Clear 38 1007 13 10000 4.6 150 09:20 17.01.2020
425 Clear 38 1007 13 10000 4.6 150 09:20 17.01.2020
426 Clear 37 1007 13 10000 3.6 150 08:46 17.01.2020
427 Clear 38 1008 13 10000 4.1 140 08:25 17.01.2020
428 Clear 38 1008 13 10000 4.1 140 08:25 17.01.2020
429 Clear 37 1008 13 10000 4.6 140 07:56 17.01.2020
430 Clear 37 1008 13 10000 4.6 140 07:56 17.01.2020
431 Clear 37 1008 13 10000 5.7 130 07:34 17.01.2020
432 Clear 37 1008 13 10000 3.1 180 06:59 17.01.2020
433 Clear 37 1009 13 10000 3.1 230 06:41 17.01.2020
434 Clear 36 1009 13 10000 3.6 50 05:57 17.01.2020
435 Clear 33 1008 20 0 5.63 136 03:39 17.01.2020
436 Clear 33 1008 20 0 5.63 136 02:55 17.01.2020
437 Clear 29 1010 25 0 7.19 118 01:48 17.01.2020
438 Clear 29 1010 25 0 7.19 118 01:29 17.01.2020
439 Clear 28 1009 24 0 6.46 115 00:51 17.01.2020
440 Clear 28 1011 23 10000 6.7 110 00:28 17.01.2020
441 Clear 28 1011 23 10000 6.7 110 23:46 16.01.2020
442 Clear 28 1011 23 10000 6.7 110 23:46 16.01.2020
443 Clear 28 1011 23 10000 6.7 110 23:26 16.01.2020
444 Clear 28 1011 23 10000 5.7 110 22:58 16.01.2020
445 Clear 27 1011 26 10000 4.1 120 22:40 16.01.2020
446 Clear 27 1011 26 10000 4.1 120 22:20 16.01.2020
447 Clear 27 1010 26 10000 4.1 120 21:55 16.01.2020
448 Clear 27 1010 24 10000 4.1 130 21:37 16.01.2020
449 Clear 27 1010 24 10000 4.1 130 21:18 16.01.2020
450 Clear 28 1009 24 10000 5.1 130 20:41 16.01.2020
451 Clear 28 1009 24 10000 5.1 130 20:41 16.01.2020
452 Clear 28 1009 24 10000 5.1 130 20:22 16.01.2020
453 Clear 28 1009 26 10000 5.7 130 19:59 16.01.2020
454 Clear 29 1009 25 10000 5.7 120 19:41 16.01.2020
455 Clear 29 1009 25 10000 5.7 120 19:22 16.01.2020
456 Clear 29 1009 25 10000 4.6 120 18:57 16.01.2020
457 Clear 29 1009 23 10000 5.1 120 18:38 16.01.2020
458 Clear 29 1009 23 10000 5.1 120 18:20 16.01.2020
459 Clear 30 1009 22 10000 3.6 120 17:59 16.01.2020
460 Clear 30 1009 22 10000 3.6 120 17:59 16.01.2020
461 Clear 30 1009 20 10000 4.6 120 17:40 16.01.2020
462 Clear 30 1009 20 10000 4.6 120 17:40 16.01.2020
463 Clear 30 1009 20 10000 4.6 120 17:20 16.01.2020
464 Clear 30 1010 20 10000 3.6 120 16:42 16.01.2020
465 Clear 30 1010 20 10000 3.6 120 16:24 16.01.2020
466 Clear 31 1010 18 10000 3.6 100 15:59 16.01.2020
467 Clear 32 1010 17 10000 4.1 110 15:39 16.01.2020
468 Clear 32 1010 17 10000 4.1 110 15:20 16.01.2020
469 Clear 32 1010 18 10000 4.6 110 14:45 16.01.2020
470 Clear 33 1010 17 10000 5.1 120 14:24 16.01.2020
471 Clear 33 1009 16 10000 5.7 130 13:56 16.01.2020
472 Clear 34 1009 14 10000 4.6 130 13:37 16.01.2020
473 Clear 34 1009 14 10000 4.6 130 13:19 16.01.2020
474 Clear 35 1009 14 10000 4.6 130 12:42 16.01.2020
475 Clear 35 1009 14 10000 4.6 130 12:22 16.01.2020
476 Clear 36 1009 12 10000 4.6 130 11:43 16.01.2020
477 Clear 36 1009 12 10000 4.6 130 11:43 16.01.2020
478 Clear 36 1009 12 10000 5.1 140 11:24 16.01.2020
479 Clear 37 1008 12 10000 5.7 150 10:59 16.01.2020
480 Clear 38 1008 10 10000 4.6 110 10:38 16.01.2020
481 Clear 38 1008 10 10000 4.6 110 10:20 16.01.2020
482 Clear 38 1008 11 10000 4.6 170 09:56 16.01.2020
483 Clear 39 1007 10 10000 4.6 130 09:37 16.01.2020
484 Clear 39 1007 10 10000 4.6 130 09:18 16.01.2020
485 Clear 39 1008 10 10000 4.6 180 08:44 16.01.2020
486 Clear 39 1008 10 10000 4.6 180 08:23 16.01.2020
487 Clouds 39 1008 10 10000 4.1 130 07:43 16.01.2020
488 Clouds 38 1008 9 10000 5.1 120 07:25 16.01.2020
489 Clouds 38 1008 9 10000 4.1 170 06:56 16.01.2020
490 Clouds 39 1009 9 10000 5.1 90 06:37 16.01.2020
491 Clouds 38 1009 13 10000 3.6 130 05:56 16.01.2020
492 Clouds 37 1009 13 10000 4.1 150 05:30 16.01.2020
493 Clouds 36 1010 11 10000 5.1 120 04:37 16.01.2020
494 Clouds 36 1010 11 10000 5.1 120 04:37 16.01.2020
495 Clouds 35 1011 11 10000 7.2 130 03:27 16.01.2020
496 Clouds 33 1012 11 10000 6.2 120 02:29 16.01.2020
497 Clouds 31 1012 12 10000 7.7 120 00:45 16.01.2020
498 Clouds 32 1012 13 10000 8.2 110 00:24 16.01.2020
499 Clouds 30 1012 13 10000 6.7 110 23:48 15.01.2020
500 Clouds 30 1012 11 10000 4.1 120 23:22 15.01.2020
501 Clouds 30 1011 11 10000 5.7 110 22:57 15.01.2020
502 Clouds 29 1011 12 10000 3.6 110 22:39 15.01.2020
503 Clouds 29 1011 12 10000 3.6 110 22:19 15.01.2020
504 Clouds 28 1011 12 10000 2.1 90 21:57 15.01.2020
505 Clouds 29 1011 11 10000 3.1 130 21:37 15.01.2020
506 Clouds 29 1011 11 10000 3.1 130 21:19 15.01.2020
507 Clouds 29 1010 11 10000 3.1 120 20:56 15.01.2020
508 Clouds 30 1010 10 10000 5.7 120 20:38 15.01.2020
509 Clouds 30 1010 10 10000 5.7 120 20:19 15.01.2020
510 Clear 30 1010 13 10000 3.6 100 19:54 15.01.2020
511 Clear 28 1009 20 10000 2.1 110 19:36 15.01.2020
512 Clear 28 1009 20 10000 2.1 110 19:18 15.01.2020
513 Clear 28 1009 20 10000 2.1 110 19:18 15.01.2020
514 Clear 29 1009 17 10000 2.6 130 18:56 15.01.2020
515 Clear 29 1009 18 10000 2.6 130 18:37 15.01.2020
516 Clear 29 1009 18 10000 2.6 130 18:37 15.01.2020
517 Clear 29 1009 18 10000 2.6 130 18:19 15.01.2020
518 Clear 30 1009 17 10000 4.1 130 17:55 15.01.2020
519 Clear 29 1008 16 10000 2.6 130 17:36 15.01.2020
520 Clear 29 1008 16 10000 2.6 130 17:18 15.01.2020
521 Clear 31 1008 15 10000 2.6 100 16:40 15.01.2020
522 Clear 31 1008 15 10000 2.6 100 16:21 15.01.2020
523 Clear 31 1008 14 10000 2.6 110 15:56 15.01.2020
524 Clear 33 1008 13 10000 3.1 110 15:38 15.01.2020
525 Clear 33 1008 13 10000 3.1 110 15:18 15.01.2020
526 Clear 33 1008 13 10000 3.1 120 14:42 15.01.2020
527 Clouds 33 1008 13 10000 3.1 120 14:19 15.01.2020
528 Clouds 35 1008 11 10000 3.6 130 13:46 15.01.2020
529 Clouds 36 1008 11 10000 3.6 110 13:26 15.01.2020
530 Clear 36 1008 11 10000 4.6 140 12:59 15.01.2020
531 Clear 37 1008 11 10000 3.6 130 12:39 15.01.2020
532 Clear 37 1008 11 10000 3.6 130 12:19 15.01.2020
533 Clear 38 1007 11 10000 4.6 140 11:56 15.01.2020
534 Clear 39 1007 10 10000 4.6 160 11:37 15.01.2020
535 Clear 39 1007 10 10000 4.6 160 11:19 15.01.2020
536 Clear 40 1007 10 10000 4.1 200 10:42 15.01.2020
537 Clear 40 1007 10 10000 4.1 200 10:24 15.01.2020
538 Clear 41 1007 9 10000 5.7 170 09:42 15.01.2020
539 Clear 41 1007 9 10000 5.7 170 09:23 15.01.2020
540 Clear 41 1007 9 10000 4.1 150 08:56 15.01.2020
541 Clear 41 1007 9 10000 6.7 160 08:37 15.01.2020
542 Clouds 41 1007 9 10000 6.7 160 08:19 15.01.2020
543 Clouds 42 1007 8 10000 3.1 220 07:50 15.01.2020
544 Clouds 41 1007 9 10000 4.1 100 07:30 15.01.2020
545 Clouds 41 1008 9 10000 3.6 170 06:44 15.01.2020
546 Clouds 41 1008 9 10000 3.1 230 06:18 15.01.2020
547 Clouds 40 1009 8 10000 3.6 160 04:34 15.01.2020
548 Clouds 38 1011 11 10000 5.1 60 02:30 15.01.2020
549 Clouds 37 1011 13 10000 4.1 50 01:25 15.01.2020
550 Clouds 36 1011 9 10000 4.1 40 00:45 15.01.2020
551 Clouds 35 1011 12 10000 5.1 50 00:26 15.01.2020
552 Clouds 33 1011 12 10000 4.08 104 23:47 14.01.2020
553 Clouds 29 1011 20 10000 1.5 310 23:29 14.01.2020
554 Clouds 27 1011 22 10000 2.6 280 22:59 14.01.2020
555 Clouds 27 1010 21 10000 2.1 330 22:40 14.01.2020
556 Clouds 27 1010 21 10000 2.1 330 22:19 14.01.2020
557 Clouds 27 1010 22 10000 2.52 118 21:58 14.01.2020
558 Clouds 27 1010 21 10000 1.5 340 21:39 14.01.2020
559 Clouds 27 1010 21 10000 1.5 340 21:20 14.01.2020
560 Clouds 27 1009 21 10000 2.52 118 20:56 14.01.2020
561 Clouds 29 1009 18 10000 2.52 118 20:38 14.01.2020
562 Clouds 29 1009 18 10000 4.3 92 20:19 14.01.2020
563 Clouds 29 1009 18 10000 4.3 92 19:55 14.01.2020
564 Clouds 29 1009 18 10000 4.3 92 19:37 14.01.2020
565 Clouds 29 1009 18 10000 4.3 92 19:18 14.01.2020
566 Clouds 30 1009 17 10000 1.5 270 18:41 14.01.2020
567 Clouds 30 1009 17 10000 1.5 270 18:20 14.01.2020
568 Clouds 30 1009 17 10000 1.5 270 17:58 14.01.2020
569 Clouds 31 1009 16 10000 4.3 92 17:37 14.01.2020
570 Clear 31 1009 16 10000 4.78 103 17:18 14.01.2020
571 Clear 31 1009 15 10000 1 70 16:44 14.01.2020
572 Clear 32 1009 13 10000 1.5 130 16:23 14.01.2020
573 Clear 33 1009 14 10000 2.6 130 15:58 14.01.2020
574 Clear 33 1010 14 10000 2.1 90 15:40 14.01.2020
575 Clear 33 1010 14 10000 2.1 90 15:19 14.01.2020
576 Clear 34 1010 12 10000 4.1 130 14:45 14.01.2020
577 Clouds 34 1010 12 10000 4.1 130 14:21 14.01.2020
578 Clouds 34 1009 13 10000 4.6 130 13:57 14.01.2020
579 Clouds 34 1009 13 10000 3.6 120 13:39 14.01.2020
580 Clouds 34 1009 13 10000 3.6 120 13:19 14.01.2020
581 Clouds 36 1009 11 10000 4.1 130 12:42 14.01.2020
582 Clouds 36 1009 11 10000 4.1 130 12:22 14.01.2020
583 Clouds 37 1008 12 10000 5.7 140 11:56 14.01.2020
584 Clouds 38 1008 10 10000 7.2 130 11:36 14.01.2020
585 Clouds 38 1008 10 10000 7.2 130 11:18 14.01.2020
586 Clouds 39 1007 11 10000 6.2 130 10:40 14.01.2020
587 Clouds 39 1007 11 10000 6.2 130 10:20 14.01.2020
588 Clouds 40 1007 11 10000 6.2 120 09:58 14.01.2020
589 Clouds 41 1007 9 10000 6.7 150 09:40 14.01.2020
590 Clouds 41 1007 9 10000 6.7 150 09:21 14.01.2020
591 Clouds 41 1007 9 10000 5.7 100 08:48 14.01.2020
592 Clouds 41 1007 10 10000 5.7 150 08:26 14.01.2020
593 Clouds 41 1008 9 10000 3.1 230 07:56 14.01.2020
594 Clouds 41 1008 9 10000 5.7 180 07:37 14.01.2020
595 Clouds 40 1009 10 10000 3.1 240 06:57 14.01.2020
596 Clouds 40 1009 10 10000 3.6 210 06:39 14.01.2020
597 Clouds 40 1009 10 10000 3.6 210 06:39 14.01.2020
598 Clouds 39 1010 10 10000 3.1 220 05:33 14.01.2020
599 Clouds 39 1011 10 10000 2.6 120 04:22 14.01.2020
600 Clouds 38 1011 9 10000 2.6 140 03:35 14.01.2020
601 Clouds 37 1012 13 10000 2.6 130 02:26 14.01.2020
602 Clear 35 1013 9 10000 4.6 80 01:18 14.01.2020
603 Clear 33 1013 11 10000 5.7 50 00:38 14.01.2020
604 Clear 32 1013 11 10000 4.6 90 23:59 13.01.2020
605 Clear 31 1013 12 10000 4.6 100 23:37 13.01.2020
606 Clear 31 1013 12 10000 4.6 100 23:18 13.01.2020
607 Clear 26 1012 21 10000 2.1 90 22:45 13.01.2020
608 Clear 26 1012 21 10000 2.1 90 22:22 13.01.2020
609 Clear 26 1011 21 10000 3.1 90 21:58 13.01.2020
610 Clear 26 1011 21 10000 3.1 90 21:58 13.01.2020
611 Clear 27 1011 21 10000 2.6 90 21:39 13.01.2020
612 Clear 27 1011 21 10000 2.6 90 21:19 13.01.2020
613 Clear 27 1011 15 10000 2.6 90 20:59 13.01.2020
614 Clear 29 1011 13 10000 3.6 90 20:41 13.01.2020
615 Clouds 29 1011 13 10000 3.6 90 20:22 13.01.2020
616 Clouds 30 1011 13 10000 4.1 80 19:59 13.01.2020
617 Clouds 30 1010 13 10000 5.1 80 19:40 13.01.2020
618 Clouds 30 1010 13 10000 5.1 80 19:20 13.01.2020
619 Clouds 31 1010 12 10000 4.6 80 18:56 13.01.2020
620 Clouds 31 1010 12 10000 3.6 80 18:37 13.01.2020
621 Clouds 31 1010 12 10000 3.6 80 18:19 13.01.2020
622 Clouds 32 1010 13 10000 4.1 110 17:44 13.01.2020
623 Clouds 32 1010 13 10000 4.1 110 17:25 13.01.2020
624 Clouds 32 1010 13 10000 4.1 110 16:58 13.01.2020
625 Clouds 29 1009 18 0 4.47 93 16:38 13.01.2020
626 Clouds 29 1009 18 0 4.47 93 16:20 13.01.2020
627 Clouds 29 1009 18 0 4.47 93 15:54 13.01.2020
628 Clouds 29 1009 18 0 4.47 93 15:36 13.01.2020
629 Clouds 29 1009 18 0 4.47 93 15:18 13.01.2020
630 Clouds 29 1009 18 0 4.47 93 14:40 13.01.2020
631 Clouds 31 1008 17 0 5.55 110 14:22 13.01.2020
632 Clouds 31 1008 17 0 5.55 110 13:55 13.01.2020
633 Clouds 31 1008 17 0 5.55 110 13:37 13.01.2020
634 Clouds 31 1008 15 0 5.97 114 13:19 13.01.2020
635 Clouds 37 1009 13 10000 5.7 140 12:43 13.01.2020
636 Clouds 37 1009 13 10000 5.7 140 12:23 13.01.2020
637 Clouds 37 1009 13 10000 5.7 140 12:23 13.01.2020
638 Clouds 37 1009 13 10000 5.7 140 11:58 13.01.2020
639 Clouds 38 1008 11 10000 5.1 140 11:38 13.01.2020
640 Clouds 38 1008 11 10000 5.1 140 11:19 13.01.2020
641 Clouds 38 1008 13 10000 4.6 160 10:56 13.01.2020
642 Clouds 39 1008 12 10000 3.1 150 10:37 13.01.2020
643 Clouds 39 1008 12 10000 3.1 150 10:19 13.01.2020
644 Clouds 39 1007 12 10000 4.6 230 09:43 13.01.2020
645 Clouds 39 1007 12 10000 4.6 230 09:24 13.01.2020
646 Clouds 41 1007 12 10000 3.1 130 08:57 13.01.2020
647 Clouds 40 1007 11 10000 3.6 140 08:37 13.01.2020
648 Clouds 40 1007 11 10000 3.1 80 08:18 13.01.2020
649 Clouds 39 1007 11 10000 4.6 200 07:43 13.01.2020
650 Clouds 39 1007 11 10000 4.6 200 07:24 13.01.2020
651 Clouds 40 1008 11 10000 3.1 100 06:37 13.01.2020
652 Clouds 39 1009 11 10000 3.1 100 05:37 13.01.2020
653 Clouds 39 1009 11 10000 3.1 100 05:37 13.01.2020
654 Clouds 38 1009 11 10000 2.6 310 04:56 13.01.2020
655 Clouds 35 1011 13 10000 3.6 70 03:38 13.01.2020
656 Clouds 35 1011 11 10000 4.6 50 02:49 13.01.2020
657 Clouds 34 1011 14 10000 5.7 50 02:30 13.01.2020
658 Clouds 34 1011 14 10000 5.7 50 02:30 13.01.2020
659 Clouds 32 1012 14 10000 4.6 60 01:33 13.01.2020
660 Clouds 31 1012 12 10000 5.7 60 00:44 13.01.2020
661 Clouds 30 1012 13 10000 3.6 70 00:26 13.01.2020
662 Clouds 29 1012 14 10000 3.6 100 23:57 12.01.2020
663 Clouds 29 1012 14 10000 3.6 100 23:57 12.01.2020
664 Clouds 28 1012 17 10000 3.52 123 23:39 12.01.2020
665 Clouds 28 1012 17 10000 7.85 120 23:21 12.01.2020
666 Clouds 25 1011 23 10000 7.85 120 22:43 12.01.2020
667 Clouds 25 1011 23 10000 7.85 120 22:43 12.01.2020
668 Clouds 25 1011 23 10000 7.85 120 22:25 12.01.2020
669 Clouds 26 1011 21 10000 7.85 120 21:59 12.01.2020
670 Clouds 25 1011 23 10000 2.1 170 21:40 12.01.2020
671 Clouds 25 1011 23 10000 2.1 170 21:20 12.01.2020
672 Clouds 26 1010 21 10000 2.6 150 20:58 12.01.2020
673 Clouds 26 1010 22 10000 2.6 170 20:39 12.01.2020
674 Clouds 26 1010 22 10000 2.6 170 20:21 12.01.2020
675 Clouds 27 1010 21 10000 2.6 150 19:56 12.01.2020
676 Clouds 27 1010 21 10000 2.6 150 19:56 12.01.2020
677 Clouds 28 1010 20 10000 3.1 160 19:38 12.01.2020
678 Clouds 28 1010 20 10000 3.1 160 19:19 12.01.2020
679 Clouds 28 1010 20 10000 3.1 160 19:19 12.01.2020
680 Clouds 28 1010 18 10000 2.6 140 18:58 12.01.2020
681 Clouds 28 1010 18 10000 2.6 140 18:58 12.01.2020
682 Clouds 28 1010 20 10000 3.1 140 18:40 12.01.2020
683 Clouds 28 1010 20 10000 3.1 140 18:40 12.01.2020
684 Clouds 28 1010 20 10000 3.1 140 18:21 12.01.2020
685 Clouds 28 1010 20 10000 3.1 140 17:57 12.01.2020
686 Clouds 28 1010 21 10000 3.6 120 17:38 12.01.2020
687 Clouds 28 1010 21 10000 3.6 120 17:19 12.01.2020
688 Clouds 29 1010 20 10000 2.6 130 16:55 12.01.2020
689 Clouds 28 1011 23 10000 2.6 140 16:37 12.01.2020
690 Clouds 28 1011 23 10000 2.6 140 16:18 12.01.2020
691 Clouds 30 1011 20 10000 3.6 120 15:42 12.01.2020
692 Clouds 30 1011 20 10000 3.6 120 15:24 12.01.2020
693 Clouds 30 1011 20 10000 3.1 130 14:57 12.01.2020
694 Clouds 31 1011 18 10000 4.1 110 14:38 12.01.2020
695 Clouds 31 1011 18 10000 4.1 110 14:19 12.01.2020
696 Clouds 32 1011 18 10000 5.1 130 13:43 12.01.2020
697 Clouds 32 1011 18 10000 5.1 130 13:24 12.01.2020
698 Clouds 32 1011 18 10000 4.6 130 12:58 12.01.2020
699 Clouds 33 1010 18 10000 6.2 130 12:39 12.01.2020
700 Clouds 33 1010 18 10000 6.2 130 12:20 12.01.2020
701 Clouds 33 1010 18 10000 6.2 120 11:58 12.01.2020
702 Clouds 33 1010 18 10000 5.7 130 11:38 12.01.2020
703 Clouds 33 1010 18 10000 5.7 130 11:19 12.01.2020
704 Clouds 35 1009 17 10000 6.7 110 10:41 12.01.2020
705 Clouds 35 1009 17 10000 6.7 110 10:41 12.01.2020
706 Clouds 35 1009 17 10000 6.7 110 10:22 12.01.2020
707 Clouds 35 1009 16 10000 7.2 110 09:57 12.01.2020
708 Clouds 35 1009 16 10000 6.7 110 09:38 12.01.2020
709 Clouds 35 1009 16 10000 6.7 110 09:18 12.01.2020
710 Clouds 35 1009 16 10000 7.2 110 08:44 12.01.2020
711 Clouds 35 1009 16 10000 6.7 100 08:20 12.01.2020
712 Clouds 36 1009 15 10000 7.7 90 07:40 12.01.2020
713 Clouds 36 1009 15 10000 7.7 90 07:22 12.01.2020
714 Clouds 36 1010 16 10000 5.7 100 06:43 12.01.2020
715 Clouds 37 1010 17 10000 7.7 90 06:24 12.01.2020
716 Clouds 35 1011 17 10000 8.7 80 05:24 12.01.2020
717 Clouds 32 1012 19 10000 6.2 130 03:55 12.01.2020
718 Clouds 32 1013 19 10000 5.1 130 03:22 12.01.2020
719 Clouds 29 1014 23 10000 6.2 120 02:33 12.01.2020
720 Clouds 28 1014 24 10000 5.7 110 01:43 12.01.2020
721 Clouds 26 1014 27 10000 4.6 90 01:22 12.01.2020
722 Clouds 26 1015 29 10000 5.1 120 00:40 12.01.2020
723 Clouds 26 1015 29 10000 5.1 120 00:40 12.01.2020
724 Clouds 26 1015 29 10000 5.1 120 00:20 12.01.2020
725 Clouds 24 1015 36 10000 4.1 140 23:42 11.01.2020
726 Clouds 24 1015 36 10000 4.1 140 23:19 11.01.2020
727 Clouds 23 1015 40 10000 4.1 140 22:57 11.01.2020
728 Clouds 23 1015 43 10000 4.1 150 22:39 11.01.2020
729 Clouds 23 1015 43 10000 4.1 150 22:20 11.01.2020
730 Clouds 23 1014 43 10000 4.6 140 21:55 11.01.2020
731 Clouds 23 1014 46 10000 4.6 150 21:37 11.01.2020
732 Clouds 23 1014 46 10000 4.6 150 21:18 11.01.2020
733 Clouds 23 1014 43 10000 4.6 150 20:40 11.01.2020
734 Clouds 23 1014 43 10000 4.6 150 20:22 11.01.2020
735 Clouds 23 1014 43 10000 5.1 150 19:58 11.01.2020
736 Clouds 23 1014 43 10000 5.1 150 19:38 11.01.2020
737 Clouds 23 1014 43 10000 5.1 150 19:38 11.01.2020
738 Clouds 23 1014 43 10000 5.1 150 19:20 11.01.2020
739 Clouds 24 1014 41 10000 5.1 150 18:57 11.01.2020
740 Clouds 24 1014 41 10000 4.6 150 18:37 11.01.2020
741 Clouds 24 1014 41 10000 4.6 150 18:19 11.01.2020
742 Clouds 24 1014 41 10000 4.6 150 17:57 11.01.2020
743 Clouds 24 1015 41 10000 5.1 140 17:39 11.01.2020
744 Clouds 24 1015 41 10000 5.1 140 17:19 11.01.2020
745 Clouds 25 1015 38 10000 6.7 140 16:44 11.01.2020
746 Clouds 25 1015 38 10000 6.7 140 16:25 11.01.2020
747 Clouds 25 1015 38 10000 6.7 150 15:57 11.01.2020
748 Clouds 26 1015 34 10000 7.7 150 15:39 11.01.2020
749 Clouds 26 1015 34 10000 7.7 150 15:20 11.01.2020
750 Clouds 28 1015 30 10000 6.7 130 14:47 11.01.2020
751 Clouds 28 1015 30 10000 8.7 130 14:26 11.01.2020
752 Clouds 29 1015 26 9000 7.7 130 13:59 11.01.2020
753 Clouds 29 1014 28 9000 7.7 120 13:38 11.01.2020
754 Clouds 29 1014 28 9000 7.7 120 13:20 11.01.2020
755 Clouds 30 1014 27 9000 7.7 120 12:56 11.01.2020
756 Clouds 30 1014 27 7000 8.2 130 12:37 11.01.2020
757 Clouds 30 1014 27 7000 8.2 130 12:19 11.01.2020
758 Clouds 30 1014 27 6000 7.2 130 11:45 11.01.2020
759 Clouds 31 1013 27 6000 7.2 130 11:24 11.01.2020
760 Clouds 31 1013 25 4700 7.7 130 10:50 11.01.2020
761 Clouds 32 1012 25 4200 7.7 140 10:30 11.01.2020
762 Clouds 32 1012 25 4100 7.2 140 09:44 11.01.2020
763 Clouds 33 1012 24 3800 6.7 140 09:21 11.01.2020
764 Clouds 33 1012 24 3800 6.7 140 09:21 11.01.2020
765 Clouds 33 1012 22 3600 7.2 140 08:59 11.01.2020
766 Clouds 33 1012 22 3400 8.2 130 08:40 11.01.2020
767 Clouds 33 1012 22 3400 8.2 130 08:19 11.01.2020
768 Clouds 33 1012 22 3700 8.2 160 07:43 11.01.2020
769 Clouds 33 1012 22 3800 6.7 150 07:24 11.01.2020
770 Clouds 33 1012 22 3500 6.7 130 06:43 11.01.2020
771 Clouds 32 1013 24 3400 5.7 140 05:30 11.01.2020
772 Clouds 30 1014 27 3600 6.7 160 04:42 11.01.2020
773 Clouds 30 1014 27 3600 6.7 160 04:24 11.01.2020
774 Clouds 28 1014 32 4400 7.7 110 02:48 11.01.2020
775 Clouds 27 1015 34 10000 7.2 140 01:47 11.01.2020
776 Clouds 26 1015 41 10000 5.7 130 01:27 11.01.2020
777 Clouds 26 1015 41 10000 5.7 130 01:27 11.01.2020
778 Clouds 25 1015 44 10000 7.2 150 00:52 11.01.2020
779 Clouds 25 1015 47 10000 7.2 150 00:25 11.01.2020
780 Clouds 25 1015 50 10000 6.7 150 23:58 10.01.2020
781 Clouds 25 1015 50 10000 6.2 150 23:39 10.01.2020
782 Clouds 25 1015 50 10000 6.2 150 23:39 10.01.2020
783 Clouds 25 1015 50 10000 6.2 150 23:20 10.01.2020
784 Clouds 24 1014 53 10000 7.7 150 22:41 10.01.2020
785 Clouds 24 1014 53 10000 7.7 150 22:22 10.01.2020
786 Clouds 25 1014 50 10000 7.2 150 21:59 10.01.2020
787 Clouds 25 1013 50 10000 7.7 150 21:41 10.01.2020
788 Clouds 25 1013 50 10000 7.7 150 21:20 10.01.2020
789 Clouds 26 1013 47 8000 6.7 150 20:57 10.01.2020
790 Clouds 26 1013 47 4900 7.7 140 20:38 10.01.2020
791 Clouds 26 1013 47 4900 7.7 140 20:19 10.01.2020
792 Clouds 27 1013 44 2600 7.2 150 19:40 10.01.2020
793 Clouds 27 1013 44 2600 7.2 150 19:21 10.01.2020
794 Clouds 27 1013 47 2200 7.7 150 18:55 10.01.2020
795 Clouds 28 1013 45 1700 7.2 150 18:37 10.01.2020
796 Clouds 28 1013 45 1700 7.2 150 18:18 10.01.2020
797 Clouds 28 1013 45 1500 7.7 150 17:56 10.01.2020
798 Clouds 29 1013 42 1500 8.2 150 17:37 10.01.2020
799 Clouds 29 1013 42 1500 8.2 150 17:19 10.01.2020
800 Clouds 31 1012 38 600 11.3 160 16:41 10.01.2020
801 Clouds 31 1012 38 600 11.3 160 16:21 10.01.2020
802 Clouds 32 1012 35 600 11.3 160 15:56 10.01.2020
803 Clouds 32 1012 35 600 11.3 160 15:56 10.01.2020
804 Clouds 32 1011 38 200 13.4 160 15:37 10.01.2020
805 Clouds 32 1011 38 200 13.4 160 15:19 10.01.2020
806 Clouds 35 1010 28 350 13.4 170 14:57 10.01.2020
807 Clouds 36 1010 26 6000 5.1 220 14:39 10.01.2020
808 Clouds 36 1010 26 6000 5.1 220 14:19 10.01.2020
809 Clouds 37 1009 22 10000 3.6 220 13:54 10.01.2020
810 Clouds 37 1008 22 10000 5.7 220 13:36 10.01.2020
811 Clouds 37 1008 22 10000 5.7 220 13:18 10.01.2020
812 Clouds 38 1008 21 10000 2.6 150 12:54 10.01.2020
813 Clouds 38 1008 18 10000 4.6 90 12:36 10.01.2020
814 Clouds 38 1008 18 10000 4.6 90 12:18 10.01.2020
815 Clouds 40 1007 16 10000 5.1 60 11:42 10.01.2020
816 Clouds 40 1007 16 10000 5.1 60 11:42 10.01.2020
817 Clouds 40 1007 16 10000 5.1 60 11:21 10.01.2020
818 Clouds 40 1006 15 10000 6.2 50 10:59 10.01.2020
819 Clouds 41 1006 14 10000 6.7 90 10:38 10.01.2020
820 Clouds 41 1006 14 10000 6.7 90 10:19 10.01.2020
821 Clouds 41 1006 14 10000 4.6 130 09:46 10.01.2020
822 Clouds 41 1006 14 10000 4.6 100 09:26 10.01.2020
823 Clouds 42 1006 14 10000 5.1 130 08:57 10.01.2020
824 Clouds 41 1006 14 10000 3.1 360 08:37 10.01.2020
825 Clouds 41 1006 14 10000 3.1 360 08:18 10.01.2020
826 Clouds 41 1006 15 10000 4.6 130 07:41 10.01.2020
827 Clouds 41 1006 15 10000 4.6 130 07:21 10.01.2020
828 Clouds 41 1007 15 10000 4.1 170 06:41 10.01.2020
829 Clouds 41 1007 15 10000 4.1 170 06:23 10.01.2020
830 Clouds 40 1008 19 10000 3.1 240 05:19 10.01.2020
831 Clouds 39 1009 21 10000 3.1 50 03:32 10.01.2020
832 Clouds 38 1009 22 10000 5.7 320 02:52 10.01.2020
833 Clouds 37 1010 25 10000 5.7 310 02:20 10.01.2020
834 Clouds 36 1010 26 10000 5.7 320 01:32 10.01.2020
835 Clouds 36 1010 28 10000 5.7 330 00:51 10.01.2020
836 Clouds 35 1010 30 10000 6.7 320 00:33 10.01.2020
837 Clouds 34 1010 30 10000 6.7 330 23:57 09.01.2020
838 Clouds 34 1010 30 10000 6.7 330 23:57 09.01.2020
839 Clouds 34 1010 30 10000 6.7 340 23:36 09.01.2020
840 Clouds 34 1010 30 10000 6.7 340 23:18 09.01.2020
841 Clouds 33 1010 29 10000 5.7 350 22:56 09.01.2020
842 Clouds 32 1009 29 10000 5.7 350 22:37 09.01.2020
843 Clouds 32 1009 29 10000 5.7 350 22:18 09.01.2020
844 Clouds 31 1009 31 10000 3.6 330 21:54 09.01.2020
845 Clouds 32 1008 29 10000 4.1 360 21:36 09.01.2020
846 Clouds 33 1008 27 10000 4.1 360 21:18 09.01.2020
847 Clouds 32 1008 29 10000 4.1 360 21:18 09.01.2020
848 Clouds 33 1008 27 10000 4.1 360 20:54 09.01.2020
849 Clouds 33 1007 27 10000 4.1 360 20:36 09.01.2020
850 Clouds 33 1007 27 10000 4.1 360 20:18 09.01.2020
851 Clouds 34 1007 24 10000 4.6 20 19:39 09.01.2020
852 Clouds 34 1007 24 10000 4.6 20 19:20 09.01.2020
853 Clouds 34 1007 26 10000 4.1 30 18:57 09.01.2020
854 Clouds 34 1007 24 10000 3.6 30 18:39 09.01.2020
855 Clouds 34 1007 24 10000 3.6 30 18:20 09.01.2020
856 Clouds 34 1007 24 10000 4.6 40 17:41 09.01.2020
857 Clouds 34 1007 24 10000 4.6 40 17:41 09.01.2020
858 Clouds 35 1007 21 10000 4.1 40 17:19 09.01.2020
859 Clouds 33 1008 24 10000 3.6 50 16:58 09.01.2020
860 Clouds 33 1008 22 10000 3.1 40 16:39 09.01.2020
861 Clouds 33 1008 22 10000 3.1 40 16:20 09.01.2020
862 Clouds 33 1008 22 10000 2.6 50 15:43 09.01.2020
863 Clouds 34 1008 21 10000 3.1 50 15:22 09.01.2020
864 Clouds 34 1008 20 10000 2.6 40 14:58 09.01.2020
865 Clouds 36 1008 18 10000 3.6 50 14:39 09.01.2020
866 Clouds 36 1008 18 10000 3.6 50 14:19 09.01.2020
867 Clouds 35 1007 19 10000 3.6 50 13:55 09.01.2020
868 Clouds 35 1007 19 10000 3.1 50 13:37 09.01.2020
869 Clouds 35 1007 19 10000 3.1 50 13:18 09.01.2020
870 Clouds 35 1007 19 10000 2.6 60 12:42 09.01.2020
871 Clouds 36 1006 18 10000 3.1 60 12:24 09.01.2020
872 Clouds 37 1006 16 10000 3.1 60 11:59 09.01.2020
873 Clouds 37 1006 16 10000 3.1 60 11:41 09.01.2020
874 Clouds 38 1006 15 10000 3.6 70 11:23 09.01.2020
875 Clouds 39 1006 14 10000 4.6 60 10:57 09.01.2020
876 Clouds 39 1005 14 10000 5.7 70 10:39 09.01.2020
877 Clouds 39 1005 14 10000 5.7 70 10:20 09.01.2020
878 Clouds 40 1005 14 10000 4.6 80 09:41 09.01.2020
879 Clouds 40 1005 14 10000 4.6 50 09:41 09.01.2020
880 Clouds 40 1005 14 10000 4.6 80 09:41 09.01.2020
881 Clouds 40 1005 14 10000 4.6 80 09:23 09.01.2020
882 Clouds 41 1005 14 10000 7.2 50 08:56 09.01.2020
883 Clouds 42 1005 14 10000 6.7 70 08:38 09.01.2020
884 Clouds 42 1005 14 10000 6.7 70 08:19 09.01.2020
885 Clouds 41 1005 13 10000 4.1 20 07:45 09.01.2020
886 Clouds 40 1006 15 10000 8.7 100 07:27 09.01.2020
887 Clouds 40 1006 15 10000 6.7 30 06:39 09.01.2020
888 Clouds 40 1006 15 10000 6.7 30 06:21 09.01.2020
889 Clouds 40 1007 16 10000 7.2 30 05:50 09.01.2020
890 Clouds 41 1008 14 10000 5.7 80 04:46 09.01.2020
891 Clouds 40 1009 19 10000 7.7 20 03:55 09.01.2020
892 Clouds 39 1009 20 10000 7.7 20 03:26 09.01.2020
893 Clouds 37 1010 23 10000 8.7 30 02:31 09.01.2020
894 Clouds 37 1010 23 10000 7.7 20 01:40 09.01.2020
895 Clouds 36 1010 23 10000 5.1 10 00:44 09.01.2020
896 Clouds 35 1010 26 10000 5.7 20 00:22 09.01.2020
897 Clouds 34 1010 26 10000 5.1 30 23:56 08.01.2020
898 Clouds 33 1010 22 10000 2.1 50 23:37 08.01.2020
899 Clouds 33 1010 22 10000 2.1 50 23:19 08.01.2020
900 Clouds 28 1009 28 10000 3.1 70 22:39 08.01.2020
901 Clouds 28 1009 28 10000 3.1 70 22:21 08.01.2020
902 Clouds 28 1009 28 10000 3.1 70 22:21 08.01.2020
903 Clouds 27 1009 30 10000 3.1 70 21:58 08.01.2020
904 Clouds 28 1009 28 10000 2.6 80 21:39 08.01.2020
905 Clouds 28 1009 28 10000 2.6 80 21:20 08.01.2020
906 Clouds 29 1009 26 10000 2.6 90 20:58 08.01.2020
907 Clouds 29 1009 28 10000 3.6 80 20:39 08.01.2020
908 Clouds 29 1009 28 10000 3.6 80 20:20 08.01.2020
909 Clouds 28 1008 30 10000 3.1 80 19:56 08.01.2020
910 Clouds 28 1008 30 10000 3.1 80 19:56 08.01.2020
911 Clouds 28 1009 30 10000 2.6 50 19:37 08.01.2020
912 Clouds 28 1009 30 10000 2.6 50 19:19 08.01.2020
913 Clouds 28 1009 30 10000 2.6 50 19:19 08.01.2020
914 Clouds 28 1009 32 10000 2.1 80 18:55 08.01.2020
915 Clouds 29 1009 28 10000 1.5 90 18:37 08.01.2020
916 Clouds 29 1009 28 10000 1.5 90 18:18 08.01.2020
917 Clouds 29 1008 30 10000 2.6 100 17:48 08.01.2020
918 Clouds 30 1008 27 10000 2.6 80 17:24 08.01.2020
919 Clouds 30 1009 27 10000 2.6 100 16:58 08.01.2020
920 Clouds 31 1009 25 10000 2.6 100 16:39 08.01.2020
921 Clouds 31 1009 25 10000 2.6 100 16:19 08.01.2020
922 Clouds 30 1009 27 10000 2.6 110 15:59 08.01.2020
923 Clouds 31 1010 23 10000 2.1 90 15:40 08.01.2020
924 Clouds 31 1010 23 10000 2.1 90 15:20 08.01.2020
925 Clouds 32 1010 24 10000 2.1 60 14:56 08.01.2020
926 Clouds 32 1010 22 10000 2.6 110 14:38 08.01.2020
927 Clouds 32 1010 22 10000 2.6 110 14:19 08.01.2020
928 Clouds 34 1009 20 10000 3.1 130 13:39 08.01.2020
929 Clouds 34 1009 20 10000 3.1 130 13:19 08.01.2020
930 Clouds 36 1009 18 10000 4.1 130 12:42 08.01.2020
931 Clouds 36 1009 18 10000 4.1 130 12:19 08.01.2020
932 Clouds 36 1008 16 10000 4.6 120 11:55 08.01.2020
933 Clouds 37 1008 14 10000 5.7 130 11:37 08.01.2020
934 Clouds 37 1008 14 10000 5.7 130 11:18 08.01.2020
935 Clouds 38 1008 15 10000 5.7 120 10:54 08.01.2020
936 Clouds 38 1008 14 10000 5.7 120 10:36 08.01.2020
937 Clouds 38 1008 14 10000 5.7 120 10:18 08.01.2020
938 Clouds 39 1007 14 10000 4.1 130 09:41 08.01.2020
939 Clouds 39 1007 14 10000 4.1 130 09:19 08.01.2020
940 Clouds 39 1007 14 10000 5.1 120 08:56 08.01.2020
941 Clouds 39 1007 13 10000 3.6 100 08:37 08.01.2020
942 Clouds 39 1007 13 10000 3.6 100 08:18 08.01.2020
943 Clouds 40 1007 13 10000 3.6 100 07:47 08.01.2020
944 Clouds 40 1008 13 10000 3.6 70 07:29 08.01.2020
945 Clouds 39 1008 15 10000 7.2 110 06:44 08.01.2020
946 Clouds 39 1009 14 10000 4.1 70 05:59 08.01.2020
947 Clouds 39 1009 15 10000 5.7 90 05:38 08.01.2020
948 Clouds 38 1010 17 10000 4.6 70 04:54 08.01.2020
949 Clouds 36 1011 20 10000 7.2 80 03:33 08.01.2020
950 Clouds 35 1012 23 10000 7.7 80 02:44 08.01.2020
951 Clouds 34 1012 24 10000 7.7 120 02:19 08.01.2020
952 Clouds 33 1012 26 10000 6.7 80 01:40 08.01.2020
953 Clouds 31 1013 29 10000 4.6 90 00:54 08.01.2020
954 Clouds 30 1013 30 10000 4.1 110 00:26 08.01.2020
955 Clouds 28 1013 37 9000 4.1 100 23:47 07.01.2020
956 Clouds 28 1012 37 9000 3.1 70 23:22 07.01.2020
957 Clouds 25 1012 50 8000 2.1 50 22:58 07.01.2020
958 Clouds 24 1012 53 8000 3.6 90 22:39 07.01.2020
959 Clouds 24 1012 53 8000 3.6 90 22:19 07.01.2020
960 Clouds 24 1011 53 8000 2.6 100 21:54 07.01.2020
961 Clouds 25 1011 47 8000 2.6 120 21:36 07.01.2020
962 Clouds 25 1011 47 8000 2.6 120 21:36 07.01.2020
963 Clouds 25 1011 47 8000 2.6 120 21:18 07.01.2020
964 Clouds 27 1011 42 8000 2.6 110 20:41 07.01.2020
965 Clouds 27 1011 42 8000 2.6 110 20:41 07.01.2020
966 Clouds 27 1011 42 8000 2.6 110 20:22 07.01.2020
967 Clouds 27 1010 39 8000 2.6 100 19:59 07.01.2020
968 Clouds 27 1010 39 8000 1.5 100 19:38 07.01.2020
969 Clouds 27 1010 39 8000 1.5 100 19:19 07.01.2020
970 Clouds 27 1010 39 8000 2.6 120 18:56 07.01.2020
971 Clouds 28 1011 37 8000 2.6 110 18:38 07.01.2020
972 Clouds 28 1011 37 8000 2.6 110 18:18 07.01.2020
973 Clouds 28 1011 37 8000 2.6 100 17:56 07.01.2020
974 Clouds 28 1011 37 7000 2.6 130 17:37 07.01.2020
975 Clouds 28 1011 37 7000 2.6 130 17:18 07.01.2020
976 Clouds 28 1011 37 7000 2.1 110 16:55 07.01.2020
977 Clouds 28 1011 37 7000 2.6 110 16:37 07.01.2020
978 Clouds 28 1011 37 7000 2.6 110 16:18 07.01.2020
979 Clouds 29 1012 35 6000 2.6 110 15:43 07.01.2020
980 Clouds 29 1012 35 6000 2.1 110 15:24 07.01.2020
981 Clouds 29 1012 35 6000 2.1 110 15:24 07.01.2020
982 Clouds 30 1012 30 6000 2.6 120 14:58 07.01.2020
983 Clouds 30 1012 30 6000 2.6 120 14:58 07.01.2020
984 Clouds 30 1012 30 6000 2.6 120 14:40 07.01.2020
985 Clouds 30 1012 30 6000 2.6 140 14:21 07.01.2020
986 Clouds 31 1012 29 6000 2.6 130 13:46 07.01.2020
987 Clouds 31 1012 29 6000 3.6 130 13:21 07.01.2020
988 Clouds 32 1011 25 6000 4.6 130 12:56 07.01.2020
989 Clouds 32 1011 27 6000 4.6 130 12:38 07.01.2020
990 Clouds 32 1011 27 6000 4.6 130 12:19 07.01.2020
991 Clouds 33 1011 26 6000 4.6 130 11:41 07.01.2020
992 Clouds 33 1010 24 6000 4.6 120 11:23 07.01.2020
993 Clouds 33 1010 22 8000 5.7 120 10:57 07.01.2020
994 Clouds 33 1010 22 8000 5.7 120 10:57 07.01.2020
995 Clouds 34 1010 23 7000 5.7 120 10:39 07.01.2020
996 Clouds 34 1010 23 7000 5.7 120 10:39 07.01.2020
997 Clouds 34 1010 23 7000 5.7 120 10:21 07.01.2020
998 Clouds 34 1009 23 9000 5.1 140 09:39 07.01.2020
999 Clouds 34 1009 23 9000 5.1 140 09:21 07.01.2020
1000 Clouds 34 1009 23 9000 5.1 140 09:21 07.01.2020
1001 Clouds 34 1009 23 9000 5.1 140 09:21 07.01.2020
1002 Clouds 34 1009 24 9000 5.7 120 08:59 07.01.2020
1003 Clouds 34 1009 24 9000 5.7 120 08:41 07.01.2020
1004 Clouds 35 1009 21 10000 5.1 110 08:18 07.01.2020
1005 Clouds 34 1010 24 10000 5.7 90 07:42 07.01.2020
1006 Clouds 34 1010 24 10000 5.7 90 07:18 07.01.2020
1007 Clouds 34 1010 24 10000 5.7 110 06:36 07.01.2020
1008 Clouds 34 1011 24 10000 6.7 110 05:59 07.01.2020
1009 Clouds 34 1011 24 10000 5.7 110 05:40 07.01.2020
1010 Clouds 32 1012 29 10000 5.1 70 03:46 07.01.2020
1011 Clouds 32 1013 29 10000 4.1 150 03:24 07.01.2020
1012 Clouds 29 1013 35 10000 4.6 80 02:19 07.01.2020
1013 Clouds 28 1014 39 10000 6.2 90 01:40 07.01.2020
1014 Clouds 27 1014 42 10000 4.6 90 00:57 07.01.2020
1015 Clouds 25 1014 47 10000 3.6 110 00:21 07.01.2020
1016 Clouds 24 1014 53 10000 2.1 100 23:57 06.01.2020
1017 Clouds 24 1014 53 10000 2.1 120 23:37 06.01.2020
1018 Clouds 24 1014 53 10000 2.1 120 23:19 06.01.2020
1019 Clouds 23 1013 56 10000 7.85 120 22:44 06.01.2020
1020 Clouds 23 1013 56 10000 7.85 120 22:44 06.01.2020
1021 Clouds 22 1013 64 10000 7.85 120 22:24 06.01.2020
1022 Clouds 21 1013 64 10000 7.85 120 21:58 06.01.2020
1023 Clouds 21 1012 64 10000 7.85 120 21:39 06.01.2020
1024 Clouds 21 1012 64 10000 7.85 120 21:20 06.01.2020
1025 Clouds 21 1012 64 10000 7.85 120 21:20 06.01.2020
1026 Clouds 21 1012 64 10000 7.85 120 20:57 06.01.2020
1027 Clouds 22 1012 60 10000 2.1 180 20:39 06.01.2020
1028 Clouds 22 1012 60 10000 2.1 180 20:20 06.01.2020
1029 Clouds 22 1012 60 10000 2.6 150 19:57 06.01.2020
1030 Clouds 22 1012 60 10000 2.1 140 19:38 06.01.2020
1031 Clouds 22 1012 60 10000 2.1 140 19:20 06.01.2020
1032 Clouds 23 1012 56 10000 2.1 160 18:48 06.01.2020
1033 Clouds 23 1012 56 10000 2.1 160 18:48 06.01.2020
1034 Clouds 23 1012 56 10000 2.1 160 18:23 06.01.2020
1035 Clouds 23 1012 56 10000 2.1 160 17:59 06.01.2020
1036 Clouds 23 1012 56 10000 2.1 150 17:38 06.01.2020
1037 Clouds 23 1012 56 10000 2.1 150 17:18 06.01.2020
1038 Clouds 24 1013 50 10000 2.1 130 16:46 06.01.2020
1039 Clouds 24 1013 50 10000 2.1 130 16:46 06.01.2020
1040 Clouds 24 1013 50 10000 0.5 90 16:27 06.01.2020
1041 Clouds 24 1014 53 10000 1 40 15:59 06.01.2020
1042 Clouds 24 1014 50 10000 1.5 70 15:39 06.01.2020
1043 Clouds 24 1014 50 10000 1.5 70 15:19 06.01.2020
1044 Clouds 24 1014 50 10000 2.1 70 14:58 06.01.2020
1045 Clouds 24 1014 50 10000 2.6 70 14:39 06.01.2020
1046 Clouds 24 1014 50 10000 2.6 70 14:19 06.01.2020
1047 Clouds 24 1014 47 10000 2.6 70 13:54 06.01.2020
1048 Clouds 24 1014 47 10000 3.1 90 13:36 06.01.2020
1049 Clouds 24 1014 47 10000 3.1 90 13:18 06.01.2020
1050 Clouds 25 1014 44 10000 3.6 120 12:41 06.01.2020
1051 Clouds 25 1014 44 10000 3.6 130 12:20 06.01.2020
1052 Clouds 25 1014 44 10000 4.1 130 11:57 06.01.2020
1053 Clouds 25 1013 44 10000 3.6 130 11:38 06.01.2020
1054 Clouds 25 1013 44 10000 3.6 130 11:38 06.01.2020
1055 Clouds 25 1013 44 10000 3.6 130 11:20 06.01.2020
1056 Clouds 26 1013 39 10000 4.6 130 10:43 06.01.2020
1057 Clouds 26 1013 39 10000 4.6 130 10:43 06.01.2020
1058 Clouds 26 1013 41 10000 4.6 140 10:24 06.01.2020
1059 Clouds 27 1012 36 10000 4.6 120 09:42 06.01.2020
1060 Clouds 27 1012 36 9000 4.1 140 09:24 06.01.2020
1061 Clouds 27 1012 36 9000 4.1 130 08:58 06.01.2020
1062 Clouds 27 1012 39 9000 3.6 130 08:40 06.01.2020
1063 Clouds 27 1012 39 9000 3.6 130 08:21 06.01.2020
1064 Clouds 26 1012 44 10000 3.1 120 07:48 06.01.2020
1065 Clouds 25 1013 47 10000 2.6 150 07:21 06.01.2020
1066 Clouds 25 1013 47 10000 2.6 150 07:21 06.01.2020
1067 Clouds 25 1013 50 10000 2.1 130 06:41 06.01.2020
1068 Clouds 24 1014 50 10000 3.6 110 05:51 06.01.2020
1069 Clouds 24 1014 53 10000 2.6 90 05:29 06.01.2020
1070 Clouds 23 1014 56 10000 3.6 150 04:25 06.01.2020
1071 Clouds 22 1015 60 10000 3.6 150 03:52 06.01.2020
1072 Clouds 20 1015 72 10000 3.6 150 02:32 06.01.2020
1073 Clouds 20 1016 72 10000 4.6 180 01:55 06.01.2020
1074 Clouds 20 1016 72 10000 4.1 180 01:32 06.01.2020
1075 Clouds 20 1016 77 10000 4.1 190 00:48 06.01.2020
1076 Clouds 20 1016 72 10000 4.6 180 00:29 06.01.2020
1077 Clouds 19 1016 82 10000 4.1 190 23:59 05.01.2020
1078 Clouds 19 1016 82 10000 4.1 190 23:40 05.01.2020
1079 Clouds 19 1016 82 10000 4.1 190 23:21 05.01.2020
1080 Clouds 19 1015 82 10000 3.6 180 22:40 05.01.2020
1081 Clouds 19 1015 82 10000 3.6 180 22:21 05.01.2020
1082 Clouds 19 1014 82 10000 3.1 190 21:58 05.01.2020
1083 Clouds 19 1014 77 10000 3.6 140 21:40 05.01.2020
1084 Clouds 19 1014 77 10000 3.6 140 21:20 05.01.2020
1085 Clouds 19 1014 77 10000 3.1 170 20:58 05.01.2020
1086 Clouds 19 1014 77 10000 3.6 150 20:39 05.01.2020
1087 Clouds 19 1014 77 10000 3.6 150 20:19 05.01.2020
1088 Clouds 19 1014 77 10000 4.1 150 19:58 05.01.2020
1089 Clouds 19 1014 77 10000 4.1 170 19:39 05.01.2020
1090 Clouds 19 1014 77 10000 4.1 170 19:20 05.01.2020
1091 Clouds 20 1014 72 10000 4.6 180 18:56 05.01.2020
1092 Clouds 20 1014 72 10000 4.1 160 18:37 05.01.2020
1093 Clouds 20 1014 72 10000 4.1 160 18:19 05.01.2020
1094 Clouds 20 1014 72 10000 4.1 170 17:58 05.01.2020
1095 Clouds 20 1014 72 10000 4.1 180 17:38 05.01.2020
1096 Clouds 20 1014 72 10000 4.1 180 17:19 05.01.2020
1097 Clouds 21 1014 64 10000 3.6 170 16:56 05.01.2020
1098 Clouds 21 1015 64 10000 4.1 170 16:38 05.01.2020
1099 Clouds 21 1015 64 10000 4.1 170 16:19 05.01.2020
1100 Clouds 21 1015 64 10000 4.1 170 16:19 05.01.2020
1101 Clouds 22 1015 60 10000 3.6 160 15:38 05.01.2020
1102 Clouds 22 1015 60 10000 3.6 160 15:20 05.01.2020
1103 Clouds 22 1016 60 10000 4.1 160 14:55 05.01.2020
1104 Clouds 22 1016 60 10000 4.1 160 14:55 05.01.2020
1105 Clouds 22 1015 60 10000 5.1 170 14:37 05.01.2020
1106 Clouds 22 1015 60 10000 5.1 170 14:19 05.01.2020
1107 Clouds 22 1015 60 10000 5.1 170 13:56 05.01.2020
1108 Clouds 23 1015 56 10000 6.2 170 13:37 05.01.2020
1109 Clouds 23 1015 56 10000 6.2 170 13:18 05.01.2020
1110 Clouds 23 1015 56 10000 6.2 170 13:18 05.01.2020
1111 Clouds 24 1015 50 10000 7.7 170 12:55 05.01.2020
1112 Clouds 24 1015 50 10000 7.2 170 12:37 05.01.2020
1113 Clouds 24 1015 50 10000 7.2 170 12:18 05.01.2020
1114 Clouds 25 1014 44 10000 6.7 170 11:43 05.01.2020
1115 Clouds 25 1014 44 10000 6.7 170 11:43 05.01.2020
1116 Clouds 25 1014 44 10000 6.7 170 11:43 05.01.2020
1117 Clouds 26 1014 41 10000 7.2 170 11:20 05.01.2020
1118 Clouds 26 1013 39 10000 7.2 180 10:58 05.01.2020
1119 Clouds 27 1013 36 10000 6.7 170 10:39 05.01.2020
1120 Clouds 27 1013 36 10000 6.7 170 10:39 05.01.2020
1121 Clouds 27 1013 36 10000 6.7 170 10:39 05.01.2020
1122 Clouds 27 1013 36 10000 6.7 170 10:39 05.01.2020
1123 Clouds 27 1013 36 10000 6.7 170 10:39 05.01.2020
1124 Clouds 27 1013 36 10000 6.7 170 10:19 05.01.2020
1125 Clouds 28 1013 37 10000 6.2 180 09:42 05.01.2020
1126 Clouds 28 1012 37 10000 6.7 190 09:22 05.01.2020
1127 Clouds 28 1012 37 10000 7.7 190 08:50 05.01.2020
1128 Clouds 29 1012 35 10000 7.2 170 08:30 05.01.2020
1129 Clouds 29 1012 37 10000 6.7 170 07:56 05.01.2020
1130 Clouds 29 1012 37 10000 5.1 150 07:37 05.01.2020
1131 Clouds 29 1012 37 10000 5.1 150 07:19 05.01.2020
1132 Clouds 29 1013 37 10000 5.7 130 05:59 05.01.2020
1133 Clouds 28 1014 45 10000 4.6 120 05:33 05.01.2020
1134 Clouds 28 1014 45 10000 4.6 120 05:33 05.01.2020
1135 Clouds 27 1014 44 10000 5.7 120 04:43 05.01.2020
1136 Clouds 27 1015 44 10000 5.7 120 04:18 05.01.2020
1137 Clouds 27 1015 44 10000 5.7 120 04:18 05.01.2020
1138 Clouds 27 1015 44 10000 5.7 120 04:18 05.01.2020
1139 Clouds 24 1016 57 10000 4.6 150 02:46 05.01.2020
1140 Clouds 23 1016 64 10000 5.1 150 02:24 05.01.2020
1141 Clouds 22 1016 64 10000 4.6 160 01:48 05.01.2020
1142 Clouds 21 1016 73 10000 4.1 180 01:19 05.01.2020
1143 Clouds 21 1016 73 10000 4.6 180 00:41 05.01.2020
1144 Clouds 21 1016 73 10000 4.6 180 00:23 05.01.2020
1145 Clouds 20 1016 72 10000 4.6 180 23:59 04.01.2020
1146 Clouds 20 1016 72 10000 4.6 180 23:59 04.01.2020
1147 Clouds 20 1016 77 10000 4.6 190 23:39 04.01.2020
1148 Clouds 20 1016 77 10000 4.6 190 23:19 04.01.2020
1149 Clouds 19 1015 82 10000 4.6 180 22:40 04.01.2020
1150 Clouds 19 1015 82 10000 4.6 180 22:40 04.01.2020
1151 Clouds 19 1015 82 10000 4.6 180 22:21 04.01.2020
1152 Clouds 20 1015 77 10000 3.1 170 21:57 04.01.2020
1153 Clouds 20 1015 77 10000 3.1 170 21:57 04.01.2020
1154 Clouds 20 1015 77 10000 3.1 170 21:57 04.01.2020
1155 Clouds 20 1015 77 10000 4.1 160 21:39 04.01.2020
1156 Clouds 20 1015 77 10000 4.1 160 21:20 04.01.2020
1157 Clouds 20 1015 77 10000 4.1 160 21:20 04.01.2020
1158 Clouds 20 1014 77 10000 4.6 170 20:58 04.01.2020
1159 Clouds 20 1014 77 10000 5.1 170 20:39 04.01.2020
1160 Clouds 20 1014 77 10000 5.1 170 20:39 04.01.2020
1161 Clouds 20 1014 77 10000 5.1 170 20:21 04.01.2020
1162 Clouds 20 1014 77 10000 3.1 180 19:56 04.01.2020
1163 Clouds 20 1014 82 9000 3.1 190 19:37 04.01.2020
1164 Clouds 20 1014 82 9000 3.1 190 19:18 04.01.2020
1165 Clouds 20 1014 77 10000 3.1 210 18:54 04.01.2020
1166 Clouds 20 1014 77 8000 3.6 200 18:36 04.01.2020
1167 Clouds 20 1014 77 8000 3.6 200 18:18 04.01.2020
1168 Clouds 20 1014 82 5000 5.1 210 17:40 04.01.2020
1169 Clouds 20 1014 82 5000 5.1 210 17:22 04.01.2020
1170 Rain 20 1015 82 5000 4.6 200 16:55 04.01.2020
1171 Rain 20 1015 82 5000 4.6 200 16:55 04.01.2020
1172 Rain 20 1015 82 4600 5.1 200 16:36 04.01.2020
1173 Rain 20 1015 82 4600 5.1 200 16:36 04.01.2020
1174 Rain 20 1015 82 4600 5.1 200 16:18 04.01.2020
1175 Clouds 21 1015 77 4100 6.7 210 15:42 04.01.2020
1176 Clouds 21 1015 77 2900 7.7 200 15:20 04.01.2020
1177 Rain 21 1015 83 2600 6.7 200 14:59 04.01.2020
1178 Rain 21 1015 83 2600 6.7 200 14:59 04.01.2020
1179 Rain 21 1015 83 2600 6.7 200 14:59 04.01.2020
1180 Rain 22 1015 78 1900 8.2 210 14:40 04.01.2020
1181 Rain 22 1015 78 1900 8.2 210 14:40 04.01.2020
1182 Rain 22 1015 78 1900 8.2 210 14:20 04.01.2020
1183 Rain 22 1014 78 2300 8.7 210 13:58 04.01.2020
1184 Rain 23 1013 83 2800 10.3 220 13:37 04.01.2020
1185 Rain 23 1013 83 2800 10.3 220 13:19 04.01.2020
1186 Rain 23 1013 88 1800 14.9 250 12:42 04.01.2020
1187 Clouds 35 1010 24 10000 3.6 60 12:20 04.01.2020
1188 Clouds 35 1010 24 10000 3.6 60 12:20 04.01.2020
1189 Clouds 35 1007 23 10000 5.1 190 11:59 04.01.2020
1190 Clouds 35 1007 23 10000 6.2 180 11:41 04.01.2020
1191 Clouds 35 1007 23 10000 6.2 180 11:20 04.01.2020
1192 Clouds 35 1006 24 10000 6.7 190 10:59 04.01.2020
1193 Clouds 36 1006 23 10000 5.7 190 10:38 04.01.2020
1194 Clouds 36 1006 23 10000 5.7 190 10:19 04.01.2020
1195 Clouds 35 1006 28 10000 4.6 220 09:43 04.01.2020
1196 Clouds 35 1006 28 10000 4.6 220 09:43 04.01.2020
1197 Clouds 35 1006 28 10000 4.6 220 09:25 04.01.2020
1198 Clouds 34 1006 30 10000 6.7 230 08:47 04.01.2020
1199 Clouds 33 1006 33 10000 8.7 260 08:28 04.01.2020
1200 Rain 33 1006 33 5000 7.7 290 07:52 04.01.2020
1201 Rain 33 1006 33 5000 7.7 290 07:52 04.01.2020
1202 Rain 36 1007 23 10000 4.1 360 07:33 04.01.2020
1203 Clouds 38 1007 18 10000 3.1 160 06:43 04.01.2020
1204 Clouds 39 1007 18 10000 4.1 150 05:52 04.01.2020
1205 Clouds 37 1008 19 10000 3.1 170 04:48 04.01.2020
1206 Clouds 36 1009 22 10000 4.1 100 04:28 04.01.2020
1207 Clouds 35 1010 24 8000 4.6 130 03:20 04.01.2020
1208 Clouds 34 1011 26 8000 4.6 170 02:38 04.01.2020
1209 Clouds 34 1011 26 8000 4.6 170 02:18 04.01.2020
1210 Clouds 32 1011 29 8000 5.1 140 01:32 04.01.2020
1211 Clouds 32 1011 29 8000 5.1 140 01:32 04.01.2020
1212 Clouds 32 1012 29 8000 5.7 120 00:58 04.01.2020
1213 Clouds 32 1012 33 10000 6.2 150 00:29 04.01.2020
1214 Clouds 31 1011 35 10000 6.2 150 23:53 03.01.2020
1215 Clouds 29 1011 48 10000 3.6 170 23:28 03.01.2020
1216 Clouds 29 1011 48 10000 3.1 240 22:55 03.01.2020
1217 Clouds 28 1011 48 10000 2.1 260 22:37 03.01.2020
1218 Clouds 28 1011 48 10000 2.1 260 22:18 03.01.2020
1219 Clouds 28 1010 48 10000 1.5 230 21:56 03.01.2020
1220 Clouds 28 1009 48 10000 3.6 270 21:37 03.01.2020
1221 Clouds 28 1009 48 10000 3.6 270 21:18 03.01.2020
1222 Clouds 28 1009 48 10000 3.6 260 20:54 03.01.2020
1223 Clouds 28 1009 48 10000 2.6 240 20:36 03.01.2020
1224 Clouds 28 1009 48 10000 2.6 240 20:18 03.01.2020
1225 Clouds 29 1009 45 10000 2.52 302 19:41 03.01.2020
1226 Clouds 29 1009 45 10000 3.6 30 19:23 03.01.2020
1227 Clouds 29 1008 45 10000 3.6 70 18:47 03.01.2020
1228 Clouds 30 1007 40 10000 7.7 230 18:27 03.01.2020
1229 Rain 29 1008 48 10000 8.7 230 17:58 03.01.2020
1230 Rain 29 1009 51 10000 7.7 230 17:40 03.01.2020
1231 Rain 29 1009 51 10000 7.7 230 17:21 03.01.2020
1232 Rain 29 1009 51 10000 7.7 230 17:21 03.01.2020
1233 Clouds 31 1010 38 10000 4.6 70 16:44 03.01.2020
1234 Clear 30 1009 42 10000 3.1 200 16:25 03.01.2020
1235 Clear 31 1009 40 10000 3.1 240 15:59 03.01.2020
1236 Rain 30 1009 51 10000 3.6 190 15:41 03.01.2020
1237 Rain 30 1009 51 10000 3.6 190 15:19 03.01.2020
1238 Clear 34 1009 30 10000 4.6 150 14:39 03.01.2020
1239 Clouds 34 1009 30 10000 4.6 150 14:20 03.01.2020
1240 Clouds 35 1008 26 10000 6.7 200 13:57 03.01.2020
1241 Clouds 35 1008 24 10000 6.2 200 13:38 03.01.2020
1242 Clouds 35 1008 24 10000 6.2 200 13:20 03.01.2020
1243 Clouds 36 1007 22 10000 6.2 230 12:41 03.01.2020
1244 Clouds 37 1007 14 10000 2.1 190 12:22 03.01.2020
1245 Clouds 37 1006 14 10000 3.6 220 11:53 03.01.2020
1246 Clouds 39 1005 13 10000 4.1 290 11:34 03.01.2020
1247 Clouds 40 1005 11 10000 3.69 313 10:58 03.01.2020
1248 Clouds 40 1005 11 10000 2.6 260 10:39 03.01.2020
1249 Clouds 40 1005 11 10000 2.6 260 10:21 03.01.2020
1250 Clouds 40 1005 11 10000 3.6 290 09:54 03.01.2020
1251 Clouds 40 1005 11 10000 9.3 360 09:36 03.01.2020
1252 Clouds 40 1005 11 10000 9.3 360 09:18 03.01.2020
1253 Clouds 41 1005 11 10000 2.6 290 08:44 03.01.2020
1254 Clouds 41 1005 12 10000 4.1 350 08:21 03.01.2020
1255 Clouds 41 1005 12 10000 5.7 330 07:42 03.01.2020
1256 Clouds 40 1005 11 10000 5.7 10 07:19 03.01.2020
1257 Clouds 41 1006 12 10000 3.1 310 06:57 03.01.2020
1258 Clouds 41 1006 12 10000 5.1 290 06:37 03.01.2020
1259 Clouds 41 1006 12 10000 5.1 290 06:18 03.01.2020
1260 Clouds 43 1008 11 10000 6.7 350 04:42 03.01.2020
1261 Clouds 40 1010 13 10000 8.2 340 03:34 03.01.2020
1262 Clouds 40 1010 13 10000 7.7 350 02:47 03.01.2020
1263 Clear 39 1011 15 10000 7.7 360 01:47 03.01.2020
1264 Clear 37 1011 18 10000 6.2 10 00:57 03.01.2020
1265 Clear 35 1011 17 10000 4.6 10 00:33 03.01.2020
1266 Clear 35 1011 13 10000 3.6 40 23:58 02.01.2020
1267 Clear 34 1011 15 10000 3.6 30 23:39 02.01.2020
1268 Clear 34 1011 15 10000 3.6 30 23:19 02.01.2020
1269 Clear 32 1011 20 10000 3.1 50 22:58 02.01.2020
1270 Clear 32 1011 20 10000 3.1 50 22:58 02.01.2020
1271 Clear 30 1011 20 10000 2.6 70 22:39 02.01.2020
1272 Clear 30 1011 20 10000 2.6 70 22:19 02.01.2020
1273 Clear 29 1011 20 10000 2.6 40 21:54 02.01.2020
1274 Clear 29 1011 20 10000 3.1 60 21:36 02.01.2020
1275 Clear 29 1011 20 10000 3.1 60 21:36 02.01.2020
1276 Clear 29 1011 20 10000 3.1 60 21:18 02.01.2020
1277 Clear 32 1010 20 10000 3.6 60 20:40 02.01.2020
1278 Clear 32 1010 17 10000 3.6 60 20:21 02.01.2020
1279 Clear 32 1010 13 10000 3.1 30 19:56 02.01.2020
1280 Clear 31 1010 14 10000 1.5 350 19:38 02.01.2020
1281 Clear 31 1010 14 10000 1.5 350 19:19 02.01.2020
1282 Clear 30 1010 15 10000 3.1 350 18:58 02.01.2020
1283 Clear 32 1009 13 10000 4.6 100 18:40 02.01.2020
1284 Clear 32 1009 13 10000 4.6 100 18:22 02.01.2020
1285 Clear 32 1010 13 10000 4.1 70 17:57 02.01.2020
1286 Clear 31 1010 14 10000 3.1 80 17:37 02.01.2020
1287 Clear 31 1010 14 10000 3.1 80 17:19 02.01.2020
1288 Clear 31 1010 14 10000 3.1 60 16:57 02.01.2020
1289 Clear 31 1010 14 10000 3.1 80 16:38 02.01.2020
1290 Clear 31 1010 14 10000 3.1 80 16:20 02.01.2020
1291 Clear 32 1011 13 10000 3.1 90 15:45 02.01.2020
1292 Clear 33 1011 14 10000 3.1 110 15:24 02.01.2020
1293 Clear 33 1011 14 10000 3.1 110 14:59 02.01.2020
1294 Clear 34 1011 13 10000 3.6 90 14:39 02.01.2020
1295 Clear 34 1011 13 10000 3.6 90 14:39 02.01.2020
1296 Clouds 34 1011 13 10000 2.6 100 14:21 02.01.2020
1297 Clouds 34 1011 13 10000 2.6 100 13:58 02.01.2020
1298 Clouds 35 1010 13 10000 3.6 110 13:40 02.01.2020
1299 Clouds 35 1010 13 10000 3.6 110 13:19 02.01.2020
1300 Clouds 36 1010 11 10000 3.1 110 12:43 02.01.2020
1301 Clouds 38 1010 12 10000 4.6 110 12:23 02.01.2020
1302 Clouds 39 1009 11 10000 4.6 100 11:42 02.01.2020
1303 Clouds 39 1009 11 10000 4.6 100 11:23 02.01.2020
1304 Clouds 40 1009 11 10000 5.1 120 10:56 02.01.2020
1305 Clouds 40 1009 11 10000 4.1 110 10:36 02.01.2020
1306 Clouds 40 1009 11 10000 4.1 110 10:18 02.01.2020
1307 Clouds 41 1009 10 10000 6.2 120 09:41 02.01.2020
1308 Clouds 41 1009 11 10000 3.6 140 09:21 02.01.2020
1309 Clouds 40 1009 11 10000 3.1 250 08:41 02.01.2020
1310 Clouds 41 1010 10 10000 4.6 150 08:22 02.01.2020
1311 Clouds 41 1010 9 10000 2.1 50 07:47 02.01.2020
1312 Clouds 42 1010 9 10000 4.1 170 07:27 02.01.2020
1313 Clouds 41 1011 10 10000 3.6 190 06:43 02.01.2020
1314 Clouds 41 1012 10 10000 3.1 80 05:42 02.01.2020
1315 Clear 40 1014 11 10000 3.6 100 04:36 02.01.2020
1316 Clear 39 1014 10 10000 3.6 30 03:54 02.01.2020
1317 Clear 37 1016 11 10000 3.6 350 02:21 02.01.2020
1318 Clear 35 1016 11 10000 3.6 30 01:57 02.01.2020
1319 Clear 35 1017 16 10000 4.1 60 01:26 02.01.2020
1320 Clear 34 1017 10 10000 4.1 70 00:49 02.01.2020
1321 Clear 33 1017 14 10000 4.6 70 00:26 02.01.2020
1322 Clear 33 1017 14 10000 4.6 70 00:26 02.01.2020
1323 Clear 32 1017 14 10000 3.6 50 23:43 01.01.2020
1324 Clear 32 1017 14 10000 3.6 50 23:43 01.01.2020
1325 Clear 30 1017 13 10000 3.6 60 23:23 01.01.2020
1326 Clear 25 1016 17 10000 1.5 150 22:39 01.01.2020
1327 Clear 25 1016 17 10000 1.5 150 22:21 01.01.2020
1328 Clear 24 1015 19 10000 2.6 170 21:58 01.01.2020
1329 Clear 24 1015 19 10000 2.6 170 21:40 01.01.2020
1330 Clear 25 1015 17 10000 2.1 120 21:20 01.01.2020
1331 Clear 25 1015 17 10000 2.1 120 21:20 01.01.2020
1332 Clear 25 1015 17 10000 5.85 91 20:58 01.01.2020
1333 Clear 25 1014 17 10000 2.1 90 20:38 01.01.2020
1334 Clouds 25 1014 17 10000 2.1 90 20:20 01.01.2020
1335 Clouds 25 1014 17 10000 2.1 90 20:20 01.01.2020
1336 Clouds 25 1014 16 10000 0.5 10 19:57 01.01.2020
1337 Clouds 26 1014 16 10000 2.1 80 19:38 01.01.2020
1338 Clouds 26 1014 16 10000 2.1 80 19:20 01.01.2020
1339 Clouds 28 1014 15 10000 2.1 70 18:57 01.01.2020
1340 Clouds 29 1014 14 10000 2.6 120 18:37 01.01.2020
1341 Clouds 29 1014 14 10000 2.6 120 18:19 01.01.2020
1342 Clouds 30 1014 13 10000 3.6 100 17:57 01.01.2020
1343 Clouds 30 1014 16 10000 4.6 90 17:39 01.01.2020
1344 Clouds 30 1014 19 10000 4.6 90 17:19 01.01.2020
1345 Clouds 31 1015 19 10000 4.1 110 16:56 01.01.2020
1346 Clouds 32 1015 13 10000 4.6 110 16:37 01.01.2020
1347 Clouds 32 1015 13 10000 4.6 110 16:19 01.01.2020
1348 Clouds 32 1015 13 10000 4.6 110 16:19 01.01.2020
1349 Clouds 32 1015 14 10000 4.6 110 15:54 01.01.2020
1350 Clouds 33 1015 15 10000 4.6 110 15:36 01.01.2020
1351 Clouds 33 1015 15 10000 4.6 110 15:18 01.01.2020
1352 Clouds 33 1015 15 10000 4.1 130 14:41 01.01.2020
1353 Clouds 33 1015 15 10000 4.1 130 14:22 01.01.2020
1354 Clouds 34 1014 15 10000 4.1 120 13:56 01.01.2020
1355 Clouds 34 1014 14 10000 4.6 120 13:37 01.01.2020
1356 Clouds 34 1014 14 10000 4.6 120 13:19 01.01.2020
1357 Clouds 35 1014 13 10000 4.1 130 12:57 01.01.2020
1358 Clouds 35 1013 14 10000 4.1 130 12:39 01.01.2020
1359 Clouds 35 1013 14 10000 4.1 130 12:19 01.01.2020
1360 Clouds 35 1013 14 10000 4.1 130 12:19 01.01.2020
1361 Clouds 36 1013 13 10000 5.7 120 11:56 01.01.2020
1362 Clouds 36 1012 13 10000 5.1 130 11:37 01.01.2020
1363 Clouds 36 1012 13 10000 5.1 130 11:18 01.01.2020
1364 Clouds 37 1012 13 10000 5.7 130 10:41 01.01.2020
1365 Clouds 38 1011 13 10000 5.7 140 10:21 01.01.2020
1366 Clouds 38 1011 13 10000 6.2 140 09:59 01.01.2020
1367 Clouds 38 1011 13 10000 6.2 110 09:38 01.01.2020
1368 Clouds 38 1011 13 10000 6.2 110 09:19 01.01.2020
1369 Clouds 40 1011 12 10000 6.7 140 08:56 01.01.2020
1370 Clouds 39 1011 12 10000 3.6 170 08:37 01.01.2020
1371 Clouds 39 1011 12 10000 3.6 170 08:19 01.01.2020
1372 Clouds 39 1011 12 10000 4.1 110 07:54 01.01.2020
1373 Clouds 39 1012 13 10000 5.1 120 07:36 01.01.2020
1374 Clouds 39 1012 13 10000 5.1 120 06:45 01.01.2020
1375 Clouds 39 1012 13 10000 5.1 110 06:21 01.01.2020
1376 Clear 37 1014 14 10000 5.1 100 05:22 01.01.2020
1377 Clear 36 1014 14 10000 3.1 150 03:46 01.01.2020
1378 Clear 36 1015 13 10000 4.6 170 03:23 01.01.2020
1379 Clear 36 1015 13 10000 4.6 170 03:23 01.01.2020
1380 Clear 35 1015 14 10000 3.1 120 02:57 01.01.2020
1381 Clear 33 1015 16 10000 3.6 150 02:36 01.01.2020
1382 Clouds 33 1016 17 10000 4.1 120 01:57 01.01.2020
1383 Clouds 32 1016 18 10000 3.6 110 01:38 01.01.2020
1384 Clouds 32 1016 18 10000 3.6 110 01:20 01.01.2020
1385 Clouds 31 1016 16 10000 3.6 100 00:44 01.01.2020
1386 Clouds 31 1016 16 10000 3.6 100 00:44 01.01.2020
1387 Clouds 31 1016 18 10000 5.1 120 00:25 01.01.2020
1388 Clouds 29 1016 20 10000 4.6 120 23:41 31.12.2019
1389 Clouds 28 1016 23 10000 3.6 100 23:21 31.12.2019
1390 Clouds 26 1015 27 10000 5.9 115 22:57 31.12.2019
1391 Clouds 24 1015 31 10000 1 220 22:39 31.12.2019
1392 Clouds 24 1015 31 10000 1 220 22:20 31.12.2019
1393 Clouds 23 1015 33 10000 2.1 240 21:57 31.12.2019
1394 Clouds 24 1014 31 10000 2.6 140 21:39 31.12.2019
1395 Clouds 24 1014 31 10000 2.6 140 21:20 31.12.2019
1396 Clouds 25 1014 31 10000 0.5 130 20:55 31.12.2019
1397 Clouds 25 1013 31 10000 2.6 130 20:37 31.12.2019
1398 Clear 25 1013 31 10000 2.6 130 20:18 31.12.2019
1399 Clear 25 1013 31 10000 2.6 100 19:43 31.12.2019
1400 Clear 25 1013 31 10000 2.6 160 19:24 31.12.2019
1401 Clear 25 1013 29 10000 6.11 114 18:59 31.12.2019
1402 Clear 26 1013 29 10000 6.11 114 18:40 31.12.2019
1403 Clear 26 1013 29 10000 6.11 114 18:20 31.12.2019
1404 Clear 27 1013 28 10000 0.5 150 17:57 31.12.2019
1405 Clear 28 1013 26 10000 2.6 120 17:38 31.12.2019
1406 Clear 28 1013 26 10000 2.6 120 17:19 31.12.2019
1407 Clear 28 1013 26 10000 2.6 120 17:19 31.12.2019
1408 Clear 29 1013 25 10000 3.6 110 16:57 31.12.2019
1409 Clear 29 1013 25 10000 3.6 110 16:57 31.12.2019
1410 Clear 30 1013 23 10000 5.1 110 16:38 31.12.2019
1411 Clear 30 1013 23 10000 5.1 110 16:19 31.12.2019
1412 -273 0 0 0 0 0 15:57 31.12.2019
1413 Clear 30 1013 23 10000 4.6 110 15:39 31.12.2019
1414 Clear 30 1013 23 10000 4.6 110 15:21 31.12.2019
1415 Clear 31 1013 22 10000 4.6 120 14:58 31.12.2019
1416 Clear 31 1013 23 10000 5.1 120 14:39 31.12.2019
1417 Clear 31 1013 23 10000 5.1 120 14:19 31.12.2019
1418 Clear 32 1013 22 10000 5.1 130 13:58 31.12.2019
1419 Clear 33 1012 22 10000 6.7 130 13:40 31.12.2019
1420 Clear 33 1012 22 10000 6.7 130 13:21 31.12.2019
1421 Clear 33 1012 22 10000 5.7 130 12:58 31.12.2019
1422 Clear 34 1011 21 10000 5.1 130 12:40 31.12.2019
1423 Clear 34 1011 21 10000 5.1 130 12:20 31.12.2019
1424 Clear 35 1011 20 10000 5.7 130 11:56 31.12.2019
1425 Clear 35 1010 21 10000 5.7 140 11:38 31.12.2019
1426 Clear 35 1010 21 10000 5.7 140 11:20 31.12.2019
1427 Clear 36 1010 20 10000 6.2 140 10:58 31.12.2019
1428 Clear 37 1009 19 10000 5.7 140 10:38 31.12.2019
1429 Clear 37 1009 19 10000 5.7 140 10:20 31.12.2019
1430 Clear 38 1009 17 10000 5.1 130 09:59 31.12.2019
1431 Clear 38 1009 17 10000 6.2 110 09:39 31.12.2019
1432 Clear 38 1009 17 10000 6.2 110 09:20 31.12.2019
1433 Clear 38 1009 17 10000 3.6 120 08:57 31.12.2019
1434 Clear 38 1009 17 10000 5.7 130 08:37 31.12.2019
1435 Clear 38 1009 17 10000 5.7 130 08:19 31.12.2019
1436 Clear 38 1010 18 10000 5.7 170 07:43 31.12.2019
1437 Clear 38 1010 18 10000 4.1 150 07:20 31.12.2019
1438 Clear 38 1011 19 10000 4.6 140 06:50 31.12.2019
1439 Clear 37 1011 20 10000 4.6 120 05:57 31.12.2019
1440 Clear 35 1012 24 10000 4.6 120 04:28 31.12.2019
1441 Clear 33 1013 29 10000 4.6 110 03:28 31.12.2019
1442 Clear 32 1013 31 10000 6.2 110 02:54 31.12.2019
1443 Clear 32 1013 31 10000 6.2 110 02:54 31.12.2019
1444 Clear 32 1013 31 10000 6.2 110 02:54 31.12.2019
1445 Clouds 31 1013 40 10000 6.2 150 01:58 31.12.2019
1446 Clouds 32 1013 35 10000 6.7 160 01:40 31.12.2019
1447 Clear 32 1013 35 10000 6.7 160 01:22 31.12.2019
1448 Clear 29 1012 51 10000 3.6 270 00:45 31.12.2019
1449 Clear 29 1012 51 10000 3.6 270 00:22 31.12.2019
1450 Clear 27 1012 61 10000 3.1 280 23:56 30.12.2019
1451 Clear 26 1012 65 10000 3.1 290 23:38 30.12.2019
1452 Clear 26 1012 65 10000 3.1 290 23:19 30.12.2019
1453 Clear 25 1012 73 10000 2.6 330 22:57 30.12.2019
1454 Clear 25 1012 73 10000 2.6 330 22:57 30.12.2019
1455 Clear 24 1012 83 10000 2.1 210 22:38 30.12.2019
1456 Clear 24 1012 83 10000 2.1 210 22:19 30.12.2019
1457 Clear 24 1011 78 10000 0.5 150 21:56 30.12.2019
1458 Clear 24 1011 78 10000 3.1 280 21:38 30.12.2019
1459 Clear 24 1011 78 10000 3.1 280 21:18 30.12.2019
1460 Clear 25 1010 69 10000 2.6 270 20:56 30.12.2019
1461 Clear 25 1010 69 10000 2.6 270 20:56 30.12.2019
1462 Clear 25 1011 69 10000 3.6 270 20:38 30.12.2019
1463 Rain 25 1011 69 10000 3.6 270 20:19 30.12.2019
1464 Clouds 26 1010 61 10000 2.1 270 19:56 30.12.2019
1465 Rain 26 1011 65 10000 6.7 30 19:37 30.12.2019
1466 Rain 26 1011 65 10000 6.7 30 19:37 30.12.2019
1467 Rain 26 1011 65 10000 6.7 30 19:18 30.12.2019
1468 Rain 26 1011 65 10000 0.5 60 18:56 30.12.2019
1469 Clouds 27 1011 54 10000 3.6 350 18:37 30.12.2019
1470 Clouds 27 1011 54 10000 3.6 350 18:19 30.12.2019
1471 Rain 28 1011 48 10000 3.6 340 17:54 30.12.2019
1472 Rain 27 1012 57 10000 3.6 280 17:36 30.12.2019
1473 Rain 27 1012 57 10000 3.6 280 17:18 30.12.2019
1474 Clouds 27 1012 57 6000 8.2 190 16:41 30.12.2019
1475 Clouds 27 1012 57 6000 8.2 190 16:41 30.12.2019
1476 Clouds 27 1012 57 6000 8.2 190 16:21 30.12.2019
1477 Clouds 29 1012 51 10000 9.8 200 15:58 30.12.2019
1478 Clouds 27 1010 61 10000 1.5 10 15:39 30.12.2019
1479 Clouds 27 1010 61 10000 1.5 10 15:20 30.12.2019
1480 Clouds 27 1010 61 10000 1.5 10 15:20 30.12.2019
1481 Clouds 27 1010 61 10000 1.5 10 15:20 30.12.2019
1482 Rain 28 1010 54 10000 4.6 330 14:56 30.12.2019
1483 Rain 28 1010 58 10000 8.2 340 14:38 30.12.2019
1484 Rain 28 1010 58 10000 8.2 340 14:18 30.12.2019
1485 Rain 30 1010 45 10000 8.7 340 13:43 30.12.2019
1486 Rain 30 1010 45 10000 8.7 340 13:24 30.12.2019
1487 Clouds 30 1010 48 10000 6.2 360 12:59 30.12.2019
1488 Clouds 30 1010 48 10000 6.2 360 12:41 30.12.2019
1489 Clouds 29 1010 54 10000 1 20 12:19 30.12.2019
1490 Rain 29 1010 62 10000 4.1 360 11:58 30.12.2019
1491 Rain 30 1009 48 10000 4.6 360 11:39 30.12.2019
1492 Rain 30 1009 48 10000 4.6 360 11:18 30.12.2019
1493 Clouds 29 1009 58 10000 4.1 360 10:43 30.12.2019
1494 Rain 31 1008 48 10000 7.2 350 10:21 30.12.2019
1495 Clouds 36 1008 25 10000 5.7 40 09:55 30.12.2019
1496 Clouds 37 1007 22 10000 7.7 70 09:37 30.12.2019
1497 Clouds 37 1007 22 10000 7.7 70 09:19 30.12.2019
1498 Rain 38 1007 21 10000 8.2 30 08:46 30.12.2019
1499 Rain 42 1007 13 10000 4.1 180 08:23 30.12.2019
1500 Clouds 42 1007 13 10000 5.7 230 07:55 30.12.2019
1501 Rain 42 1007 13 10000 2.1 320 07:33 30.12.2019
1502 Rain 42 1008 13 10000 6.2 250 06:51 30.12.2019
1503 Clouds 41 1009 13 10000 4.6 320 04:50 30.12.2019
1504 Clouds 40 1010 16 10000 4.1 280 03:52 30.12.2019
1505 Clouds 38 1011 19 10000 3.1 270 02:47 30.12.2019
1506 Clouds 38 1011 18 10000 3.6 340 02:29 30.12.2019
1507 Clouds 36 1012 20 10000 2.6 220 01:47 30.12.2019
1508 Clouds 36 1012 22 10000 3.1 210 01:19 30.12.2019
1509 Clouds 35 1012 23 10000 3.1 200 00:42 30.12.2019
1510 Clouds 32 1012 31 10000 3.1 250 23:59 29.12.2019
1511 Clouds 31 1012 33 10000 2.6 250 23:38 29.12.2019
1512 Clouds 29 1011 35 10000 2.6 240 23:20 29.12.2019
1513 Clouds 29 1011 35 10000 2.6 240 22:41 29.12.2019
1514 -273 0 0 0 0 0 22:22 29.12.2019
1515 Clouds 27 1011 34 10000 0.5 180 21:57 29.12.2019
1516 Clouds 27 1010 39 10000 2.1 90 21:39 29.12.2019
1517 Clouds 27 1010 39 10000 2.1 90 21:20 29.12.2019
1518 Clouds 27 1010 36 10000 0.5 50 20:57 29.12.2019
1519 Clouds 28 1009 37 10000 1.5 50 20:38 29.12.2019
1520 Clouds 28 1009 37 10000 1.5 50 20:20 29.12.2019
1521 Clouds 28 1010 34 10000 0.5 360 19:58 29.12.2019
1522 Clouds 29 1010 32 10000 4.38 316 19:39 29.12.2019
1523 Clouds 29 1010 32 10000 4.38 316 19:20 29.12.2019
1524 Clouds 30 1010 33 10000 4.38 316 18:55 29.12.2019
1525 Clouds 31 1010 31 10000 2.6 330 18:37 29.12.2019
1526 Clouds 31 1010 31 10000 2.6 330 18:19 29.12.2019
1527 Clouds 31 1010 31 10000 2.6 330 18:19 29.12.2019
1528 Clouds 31 1010 31 10000 3.1 310 17:56 29.12.2019
1529 Clouds 31 1010 31 10000 3.6 270 17:38 29.12.2019
1530 Clouds 31 1010 31 10000 3.6 270 17:38 29.12.2019
1531 Clouds 31 1010 31 10000 3.6 270 17:19 29.12.2019
1532 Clouds 31 1011 33 10000 4.6 280 16:56 29.12.2019
1533 Clouds 31 1011 33 10000 6.7 270 16:36 29.12.2019
1534 Clouds 31 1011 33 10000 6.7 270 16:36 29.12.2019
1535 Clouds 31 1011 33 10000 6.7 270 16:18 29.12.2019
1536 Clouds 32 1011 29 10000 7.7 270 15:56 29.12.2019
1537 Clouds 33 1011 26 5000 7.2 290 15:38 29.12.2019
1538 Clouds 33 1011 26 5000 7.2 290 15:19 29.12.2019
1539 Clouds 32 1010 18 10000 2.6 60 14:55 29.12.2019
1540 Clouds 34 1010 16 10000 2.6 70 14:37 29.12.2019
1541 Clouds 34 1010 16 10000 2.6 70 14:37 29.12.2019
1542 Clouds 34 1010 16 10000 2.6 70 14:18 29.12.2019
1543 Clouds 34 1010 16 10000 2.6 70 14:18 29.12.2019
1544 Clouds 34 1010 16 10000 3.6 80 13:55 29.12.2019
1545 Clouds 35 1010 14 10000 3.1 70 13:37 29.12.2019
1546 Clouds 35 1010 14 10000 3.1 70 13:18 29.12.2019
1547 Clouds 35 1009 14 10000 3.1 70 12:42 29.12.2019
1548 Clouds 37 1009 13 10000 3.6 70 12:24 29.12.2019
1549 Clouds 38 1009 13 10000 4.6 90 11:55 29.12.2019
1550 Clouds 39 1009 11 10000 4.6 80 11:37 29.12.2019
1551 Clouds 39 1009 11 10000 4.6 80 11:19 29.12.2019
1552 Clouds 39 1008 12 10000 4.1 90 10:41 29.12.2019
1553 Clouds 40 1008 11 10000 4.1 100 10:21 29.12.2019
1554 Clouds 40 1008 11 10000 5.1 80 09:54 29.12.2019
1555 Clouds 41 1008 11 10000 5.7 60 09:36 29.12.2019
1556 Clouds 41 1008 11 10000 5.7 60 09:18 29.12.2019
1557 Clouds 42 1008 11 10000 3.6 50 08:46 29.12.2019
1558 Clouds 42 1009 9 10000 5.7 110 08:24 29.12.2019
1559 Clouds 42 1009 11 10000 4.1 20 07:54 29.12.2019
1560 Clouds 42 1009 11 10000 4.1 20 07:54 29.12.2019
1561 Clouds 41 1009 11 10000 3.6 80 07:27 29.12.2019
1562 Clouds 41 1010 12 10000 3.1 340 06:53 29.12.2019
1563 Clouds 40 1010 11 10000 3.6 360 06:23 29.12.2019
1564 Clouds 41 1010 12 10000 3.6 160 05:48 29.12.2019
1565 Clear 40 1011 11 10000 4.25 88 04:34 29.12.2019
1566 Clear 40 1012 12 10000 6.7 350 03:40 29.12.2019
1567 Clear 40 1012 12 10000 6.7 350 03:19 29.12.2019
1568 Clear 39 1013 12 10000 3.6 350 02:19 29.12.2019
1569 Clear 37 1014 13 10000 6.7 10 01:31 29.12.2019
1570 Clear 36 1014 15 10000 7.2 10 00:51 29.12.2019
1571 Clear 36 1013 16 10000 5.7 360 00:27 29.12.2019
1572 Clear 35 1014 17 10000 3.6 360 23:56 28.12.2019
1573 Clear 33 1014 22 10000 2.6 40 23:37 28.12.2019
1574 Clear 33 1014 22 10000 2.6 40 23:18 28.12.2019
1575 Clear 28 1013 34 10000 6.15 34 22:38 28.12.2019
1576 Clear 28 1013 34 10000 6.15 34 22:38 28.12.2019
1577 Clear 28 1013 34 10000 6.15 34 22:19 28.12.2019
1578 Clear 26 1013 36 10000 2.1 100 21:57 28.12.2019
1579 Clear 26 1012 36 10000 2.1 90 21:38 28.12.2019
1580 Clear 26 1012 36 10000 2.1 90 21:38 28.12.2019
1581 Clear 26 1012 36 10000 2.1 90 21:20 28.12.2019
1582 Clear 27 1012 34 10000 1.5 110 20:55 28.12.2019
1583 Clear 27 1012 34 10000 1.5 110 20:55 28.12.2019
1584 Clear 27 1011 32 10000 6.15 34 20:36 28.12.2019
1585 Clear 27 1011 32 10000 5.37 56 20:18 28.12.2019
1586 Clouds 27 1011 34 10000 4 65 19:54 28.12.2019
1587 Clouds 28 1011 32 10000 1.5 30 19:36 28.12.2019
1588 Clouds 28 1011 32 10000 1.5 30 19:18 28.12.2019
1589 Clouds 29 1011 32 10000 2.1 80 18:42 28.12.2019
1590 Clouds 28 1011 34 10000 2.1 60 18:20 28.12.2019
1591 Clouds 29 1011 30 10000 2.1 90 17:59 28.12.2019
1592 Clouds 30 1011 30 10000 4 65 17:40 28.12.2019
1593 Clear 30 1011 30 10000 4.08 66 17:21 28.12.2019
1594 Clear 30 1011 30 10000 4.08 66 16:51 28.12.2019
1595 Clear 31 1011 29 10000 2.6 10 16:27 28.12.2019
1596 Clear 31 1011 29 10000 2.6 30 15:58 28.12.2019
1597 Clear 32 1012 27 10000 2.6 30 15:39 28.12.2019
1598 Clear 32 1012 27 10000 2.6 30 15:21 28.12.2019
1599 Clear 32 1012 27 10000 2.6 30 15:21 28.12.2019
1600 Clear 32 1012 27 10000 2.6 30 15:21 28.12.2019
1601 Clear 32 1012 27 10000 1 50 14:47 28.12.2019
1602 Clear 32 1012 27 10000 3.1 50 14:25 28.12.2019
1603 Clouds 33 1012 26 10000 2.6 50 13:58 28.12.2019
1604 Clouds 33 1012 27 10000 3.1 40 13:39 28.12.2019
1605 Clouds 33 1012 27 10000 3.1 40 13:20 28.12.2019
1606 Clouds 34 1011 26 10000 3.1 40 12:55 28.12.2019
1607 Clouds 35 1011 23 10000 3.6 50 12:36 28.12.2019
1608 Clouds 35 1011 23 10000 3.6 50 12:18 28.12.2019
1609 Clouds 36 1010 22 10000 7.7 60 11:39 28.12.2019
1610 Clouds 36 1010 22 10000 7.7 60 11:21 28.12.2019
1611 Clouds 36 1010 23 10000 8.2 60 10:46 28.12.2019
1612 Clouds 37 1009 22 10000 8.7 60 10:23 28.12.2019
1613 Clouds 37 1009 22 10000 9.8 80 09:59 28.12.2019
1614 Clouds 40 1008 19 10000 11.3 80 09:41 28.12.2019
1615 Clouds 40 1008 19 10000 11.3 80 09:23 28.12.2019
1616 Clouds 41 1008 12 10000 3.6 70 08:45 28.12.2019
1617 Clouds 41 1008 12 10000 5.7 170 08:27 28.12.2019
1618 Clouds 41 1008 12 10000 5.1 130 07:59 28.12.2019
1619 Clouds 40 1009 14 10000 2.1 100 07:39 28.12.2019
1620 Clouds 40 1009 12 10000 6.2 130 06:50 28.12.2019
1621 Clouds 40 1010 13 10000 2.6 110 05:31 28.12.2019
1622 Clouds 40 1011 15 10000 3.6 130 03:47 28.12.2019
1623 Clouds 39 1012 18 10000 3.6 20 02:49 28.12.2019
1624 Clear 38 1012 21 10000 6.2 10 02:19 28.12.2019
1625 Clear 37 1012 23 10000 6.2 360 01:50 28.12.2019
1626 Clear 36 1012 25 10000 7.7 360 01:20 28.12.2019
1627 Clear 35 1012 28 10000 6.7 360 00:41 28.12.2019
1628 Clear 35 1012 30 10000 7.2 10 00:23 28.12.2019
1629 Clear 34 1012 30 10000 6.2 360 23:45 27.12.2019
1630 Clear 33 1012 31 10000 5.7 360 23:20 27.12.2019
1631 Clear 31 1011 25 10000 8.4 20 22:58 27.12.2019
1632 Clear 28 1011 26 10000 8.4 20 22:39 27.12.2019
1633 Clear 28 1011 26 10000 8.4 20 22:20 27.12.2019
1634 Clear 27 1011 26 10000 8.4 20 21:58 27.12.2019
1635 Clear 28 1010 24 10000 8.4 20 21:38 27.12.2019
1636 Clear 28 1010 24 10000 8.4 20 21:19 27.12.2019
1637 Clear 28 1010 23 10000 1.5 150 20:42 27.12.2019
1638 Clear 28 1009 24 10000 3.1 150 20:23 27.12.2019
1639 Clear 30 1009 28 10000 2.1 80 19:54 27.12.2019
1640 Clear 30 1009 30 10000 2.6 50 19:36 27.12.2019
1641 Clear 30 1009 30 10000 2.6 50 19:18 27.12.2019
1642 Clear 29 1009 21 10000 3.1 50 18:40 27.12.2019
1643 Clear 29 1009 21 10000 3.1 50 18:22 27.12.2019
1644 Clear 29 1009 18 10000 2.6 120 17:58 27.12.2019
1645 Clear 29 1009 18 10000 1 360 17:40 27.12.2019
1646 Clouds 29 1009 18 10000 1 360 17:19 27.12.2019
1647 Clouds 30 1009 19 10000 2.1 100 16:59 27.12.2019
1648 Clouds 30 1010 19 10000 2.6 120 16:39 27.12.2019
1649 Clouds 30 1010 19 10000 2.6 120 16:20 27.12.2019
1650 Clouds 33 1010 17 10000 2.6 100 15:45 27.12.2019
1651 Clouds 32 1010 17 10000 2.6 100 15:23 27.12.2019
1652 Clouds 33 1010 17 10000 2.6 80 14:58 27.12.2019
1653 Clouds 33 1010 16 10000 3.1 70 14:40 27.12.2019
1654 Clouds 33 1010 16 10000 3.1 70 14:21 27.12.2019
1655 Clouds 35 1010 14 10000 3.1 110 13:57 27.12.2019
1656 Clouds 36 1009 13 10000 3.6 120 13:38 27.12.2019
1657 Clouds 36 1009 13 10000 3.6 120 13:38 27.12.2019
1658 Clear 36 1009 13 10000 3.6 120 13:20 27.12.2019
1659 Clear 37 1009 13 10000 3.6 120 12:42 27.12.2019
1660 Clear 37 1009 13 10000 4.6 120 12:23 27.12.2019
1661 Clear 38 1009 13 10000 5.1 120 11:46 27.12.2019
1662 Clear 39 1008 11 10000 5.1 110 11:27 27.12.2019
1663 Clear 39 1008 12 10000 7.2 130 10:59 27.12.2019
1664 Clear 40 1008 11 10000 5.7 130 10:40 27.12.2019
1665 Clear 40 1008 11 10000 5.7 130 10:22 27.12.2019
1666 Clear 41 1007 11 10000 7.7 90 09:46 27.12.2019
1667 Clear 41 1007 11 10000 7.2 150 09:22 27.12.2019
1668 Clear 42 1007 9 10000 7.7 140 08:59 27.12.2019
1669 Clear 42 1007 9 10000 7.7 140 08:59 27.12.2019
1670 Clear 41 1007 10 10000 6.7 140 08:38 27.12.2019
1671 Clear 42 1007 9 10000 6.2 130 07:53 27.12.2019
1672 Clear 42 1007 9 10000 6.7 140 07:34 27.12.2019
1673 Clear 41 1008 10 10000 5.7 120 06:39 27.12.2019
1674 Clear 41 1009 9 10000 4.6 70 05:52 27.12.2019
1675 Clear 40 1011 9 10000 5.1 130 03:47 27.12.2019
1676 Clear 38 1011 10 10000 5.7 90 02:25 27.12.2019
1677 Clouds 38 1011 10 10000 7.2 80 01:42 27.12.2019
1678 Clouds 36 1012 12 10000 6.2 80 01:20 27.12.2019
1679 Clouds 36 1012 11 10000 6.2 90 00:46 27.12.2019
1680 Clouds 34 1012 14 10000 4.6 90 00:24 27.12.2019
1681 Clouds 31 1012 12 10000 2.1 120 23:42 26.12.2019
1682 Clouds 31 1012 12 10000 2.1 120 23:24 26.12.2019
1683 Clouds 28 1012 15 10000 0.5 300 22:58 26.12.2019
1684 Clouds 25 1012 16 10000 4.17 107 22:37 26.12.2019
1685 Clouds 25 1012 16 10000 4.17 107 22:18 26.12.2019
1686 Clouds 24 1011 16 10000 4.17 107 21:39 26.12.2019
1687 Clouds 24 1011 16 10000 4.17 107 21:21 26.12.2019
1688 Clouds 24 1011 19 10000 1.5 290 20:47 26.12.2019
1689 Clouds 24 1011 19 10000 1.5 210 20:24 26.12.2019
1690 Clear 26 1011 16 10000 1.5 250 19:59 26.12.2019
1691 Clear 26 1011 16 10000 1.5 250 19:40 26.12.2019
1692 Clear 26 1011 16 10000 2.1 290 19:22 26.12.2019
1693 Clear 26 1011 16 10000 2.1 300 18:59 26.12.2019
1694 Clear 27 1011 15 10000 1.5 170 18:40 26.12.2019
1695 Clear 27 1011 15 10000 1.5 170 18:20 26.12.2019
1696 Clear 28 1011 15 10000 5.07 100 17:58 26.12.2019
1697 Clear 29 1011 13 10000 1 20 17:40 26.12.2019
1698 Clear 29 1011 13 10000 1 20 17:19 26.12.2019
1699 Clear 30 1011 13 10000 2.1 100 16:46 26.12.2019
1700 Clear 32 1011 15 10000 3.1 120 16:26 26.12.2019
1701 Clear 33 1012 15 10000 4.1 120 15:56 26.12.2019
1702 Clear 34 1012 15 10000 4.1 110 15:38 26.12.2019
1703 Clear 34 1012 15 10000 4.1 110 15:18 26.12.2019
1704 Clear 34 1012 15 10000 4.1 110 15:18 26.12.2019
1705 Clear 34 1012 12 10000 4.1 110 14:41 26.12.2019
1706 Clear 34 1012 12 10000 4.6 120 14:23 26.12.2019
1707 Clear 35 1012 11 10000 4.6 120 13:45 26.12.2019
1708 Clouds 35 1011 11 10000 3.6 130 13:24 26.12.2019
1709 Clouds 36 1011 11 10000 4.1 130 12:59 26.12.2019
1710 Clouds 36 1011 11 10000 4.1 130 12:59 26.12.2019
1711 Clouds 36 1011 11 10000 4.1 130 12:40 26.12.2019
1712 Clouds 36 1011 11 10000 4.1 130 12:21 26.12.2019
1713 Clouds 38 1011 9 10000 4.6 130 11:58 26.12.2019
1714 Clouds 38 1011 9 10000 4.6 130 11:58 26.12.2019
1715 Clouds 38 1010 9 10000 5.1 130 11:40 26.12.2019
1716 Clear 38 1010 9 10000 5.1 130 11:20 26.12.2019
1717 Clear 39 1010 10 10000 5.7 130 10:49 26.12.2019
1718 Clear 40 1010 8 10000 4.1 130 10:20 26.12.2019
1719 Clear 40 1010 8 10000 4.1 110 09:53 26.12.2019
1720 Clear 40 1010 8 10000 5.7 120 09:32 26.12.2019
1721 Clear 41 1009 9 10000 7.2 140 08:57 26.12.2019
1722 Clear 42 1010 8 10000 6.7 130 08:38 26.12.2019
1723 Clear 42 1010 8 10000 6.7 130 08:20 26.12.2019
1724 Clear 41 1010 9 10000 4.6 120 07:31 26.12.2019
1725 Clear 41 1010 9 10000 4.6 190 06:56 26.12.2019
1726 Clear 41 1011 9 10000 5.7 150 06:33 26.12.2019
1727 Clear 41 1011 9 10000 3.6 130 05:49 26.12.2019
1728 Clear 40 1012 7 10000 3.6 110 04:59 26.12.2019
1729 Clear 39 1013 8 10000 3.6 140 04:32 26.12.2019
1730 Clear 39 1013 9 10000 7.7 100 03:19 26.12.2019
1731 Clear 39 1013 9 10000 7.7 100 02:40 26.12.2019
1732 Clouds 38 1014 10 10000 7.7 70 02:19 26.12.2019
1733 Clouds 37 1014 9 10000 7.2 80 01:41 26.12.2019
1734 Clouds 37 1014 9 10000 7.2 80 01:22 26.12.2019
1735 Clouds 36 1014 8 10000 6.7 70 00:41 26.12.2019
1736 Clouds 36 1015 8 10000 7.2 50 00:22 26.12.2019
1737 Clouds 33 1015 10 10000 4.1 70 23:42 25.12.2019
1738 Clouds 33 1015 19 10000 4.1 70 23:21 25.12.2019
1739 Clouds 32 1014 19 10000 4.1 40 22:59 25.12.2019
1740 Clouds 32 1014 19 10000 4.1 40 22:40 25.12.2019
1741 Clouds 29 1014 16 10000 2.6 60 22:22 25.12.2019
1742 Clouds 28 1013 19 10000 2.1 100 21:59 25.12.2019
1743 Clouds 28 1013 19 10000 2.1 100 21:40 25.12.2019
1744 Clouds 29 1013 16 10000 2.6 100 21:21 25.12.2019
1745 Clouds 28 1013 17 10000 2.6 80 20:57 25.12.2019
1746 Clouds 29 1012 16 10000 2.1 70 20:39 25.12.2019
1747 Clear 29 1012 16 10000 2.1 70 20:18 25.12.2019
1748 Clear 29 1012 16 10000 2.1 70 20:18 25.12.2019
1749 Clear 29 1012 16 10000 2.1 70 20:18 25.12.2019
1750 Clear 29 1012 19 10000 1.5 90 19:43 25.12.2019
1751 Clear 29 1012 19 10000 1.5 90 19:43 25.12.2019
1752 Clear 30 1012 15 10000 2.1 90 19:25 25.12.2019
1753 Clear 31 1012 19 10000 2.1 70 18:59 25.12.2019
1754 Clear 32 1012 19 10000 3.1 100 18:38 25.12.2019
1755 Clear 32 1012 19 10000 3.1 100 18:38 25.12.2019
1756 Clear 32 1012 19 10000 3.1 100 18:19 25.12.2019
1757 Clear 34 1012 19 10000 6.2 100 17:42 25.12.2019
1758 Clear 34 1012 16 10000 6.2 100 17:20 25.12.2019
1759 Clear 34 1012 12 10000 8.7 100 16:59 25.12.2019
1760 Clear 34 1012 12 10000 8.7 110 16:38 25.12.2019
1761 Clear 34 1012 12 10000 8.7 110 16:19 25.12.2019
1762 Clouds 35 1012 16 10000 9.3 110 15:57 25.12.2019
1763 Clouds 36 1012 11 8000 10.3 110 15:39 25.12.2019
1764 Clouds 36 1012 11 8000 10.3 110 15:20 25.12.2019
1765 Clouds 37 1012 10 8000 9.8 110 14:57 25.12.2019
1766 Clouds 38 1012 10 9000 10.8 120 14:39 25.12.2019
1767 Clouds 38 1012 10 9000 10.8 120 14:20 25.12.2019
1768 Clouds 38 1011 11 10000 7.2 120 13:45 25.12.2019
1769 Clouds 39 1011 10 10000 8.7 120 13:21 25.12.2019
1770 Clouds 39 1010 10 10000 8.2 120 12:57 25.12.2019
1771 Clouds 40 1009 10 10000 6.2 130 12:38 25.12.2019
1772 Clouds 40 1009 10 10000 6.2 130 12:19 25.12.2019
1773 Clouds 40 1009 10 10000 6.7 130 11:43 25.12.2019
1774 Clouds 41 1009 9 10000 7.7 120 11:22 25.12.2019
1775 Clouds 42 1008 9 10000 7.2 130 10:59 25.12.2019
1776 Clouds 43 1008 8 10000 7.7 130 10:37 25.12.2019
1777 Clouds 43 1008 8 10000 7.7 130 10:19 25.12.2019
1778 Clouds 44 1008 7 10000 6.7 120 09:44 25.12.2019
1779 Clouds 44 1007 7 10000 6.7 140 09:26 25.12.2019
1780 Clouds 44 1007 8 10000 4.6 160 08:46 25.12.2019
1781 Clouds 45 1007 7 10000 6.2 100 08:26 25.12.2019
1782 Clouds 45 1007 7 10000 4.6 90 07:48 25.12.2019
1783 Clouds 45 1007 7 10000 5.7 120 07:29 25.12.2019
1784 Clouds 45 1008 7 10000 4.1 160 06:49 25.12.2019
1785 Clouds 44 1008 7 10000 5.7 120 06:22 25.12.2019
1786 Clouds 44 1009 8 10000 3.6 10 04:50 25.12.2019
1787 Clouds 43 1010 8 10000 2.6 270 04:26 25.12.2019
1788 Clouds 43 1010 8 10000 2.1 360 03:58 25.12.2019
1789 Clouds 43 1010 8 10000 2.1 360 03:40 25.12.2019
1790 Clouds 42 1011 9 10000 3.6 10 02:39 25.12.2019
1791 Clear 41 1012 9 10000 4.1 80 01:58 25.12.2019
1792 Clear 40 1012 10 10000 5.1 90 01:25 25.12.2019
1793 Clear 39 1012 10 10000 5.7 100 00:48 25.12.2019
1794 Clear 38 1012 9 10000 5.1 100 00:28 25.12.2019
1795 Clear 37 1012 11 10000 5.1 110 23:55 24.12.2019
1796 Clear 35 1011 12 10000 3.1 120 23:37 24.12.2019
1797 Clear 35 1011 12 10000 3.1 120 23:19 24.12.2019
1798 Clear 31 1011 21 10000 2.1 10 22:39 24.12.2019
1799 Clear 31 1011 21 10000 2.1 10 22:20 24.12.2019
1800 Clear 30 1011 13 10000 2.6 50 21:42 24.12.2019
1801 Clear 30 1010 21 10000 5.7 160 21:22 24.12.2019
1802 Clear 30 1010 21 10000 5.7 160 21:22 24.12.2019
1803 Clear 28 1009 15 10000 1.5 230 20:45 24.12.2019
1804 Clear 28 1009 14 10000 4.19 315 20:24 24.12.2019
1805 Clear 28 1009 14 10000 1.5 210 19:57 24.12.2019
1806 Clear 29 1009 14 10000 1 140 19:39 24.12.2019
1807 Clear 29 1009 14 10000 1 140 19:19 24.12.2019
1808 Clear 29 1009 14 10000 3.56 340 18:42 24.12.2019
1809 Clear 31 1009 21 10000 1.5 360 18:23 24.12.2019
1810 Clear 31 1009 12 10000 2.6 340 17:50 24.12.2019
1811 Clear 32 1010 21 10000 2.6 340 17:24 24.12.2019
1812 Clear 32 1010 11 10000 4.31 2 16:59 24.12.2019
1813 Clear 32 1010 11 10000 4.31 2 16:41 24.12.2019
1814 Clear 32 1011 11 10000 1.5 270 16:23 24.12.2019
1815 Clear 32 1011 11 10000 1.5 270 16:23 24.12.2019
1816 Clear 32 1011 11 10000 1.5 270 16:22 24.12.2019
1817 Clear 32 1011 11 10000 1.5 350 15:58 24.12.2019
1818 Clear 34 1011 17 10000 2.6 30 15:39 24.12.2019
1819 Clear 34 1011 17 10000 2.6 30 15:20 24.12.2019
1820 Clear 35 1011 17 10000 2.1 60 14:59 24.12.2019
1821 Clear 35 1011 17 10000 2.1 60 14:59 24.12.2019
1822 Clear 35 1011 17 10000 2.1 60 14:41 24.12.2019
1823 Clouds 34 1011 10 10000 2.1 130 14:22 24.12.2019
1824 Clouds 35 1011 13 10000 2.1 150 13:57 24.12.2019
1825 Clouds 36 1011 9 10000 2.6 150 13:39 24.12.2019
1826 Clouds 36 1011 9 10000 2.6 150 13:20 24.12.2019
1827 Clouds 37 1011 16 10000 3.1 140 12:58 24.12.2019
1828 Clouds 38 1010 16 10000 3.1 150 12:38 24.12.2019
1829 Clouds 38 1010 16 10000 3.1 150 12:19 24.12.2019
1830 Clouds 40 1010 7 10000 3.1 140 11:58 24.12.2019
1831 Clouds 41 1010 16 10000 4.1 130 11:38 24.12.2019
1832 Clouds 41 1010 16 10000 4.1 130 11:38 24.12.2019
1833 Clouds 41 1010 7 10000 4.1 130 11:20 24.12.2019
1834 Clouds 42 1009 6 10000 5.7 140 10:57 24.12.2019
1835 Clouds 43 1009 7 10000 5.7 130 10:38 24.12.2019
1836 Clouds 43 1009 7 10000 5.7 130 10:20 24.12.2019
1837 Clouds 44 1009 7 10000 7.2 130 09:58 24.12.2019
1838 Clouds 44 1009 7 10000 7.2 130 09:40 24.12.2019
1839 Clouds 44 1008 7 10000 7.2 110 09:21 24.12.2019
1840 Clouds 45 1008 6 10000 4.1 180 08:47 24.12.2019
1841 Clouds 45 1008 5 10000 6.7 110 08:24 24.12.2019
1842 Clouds 45 1008 5 10000 3.6 120 07:59 24.12.2019
1843 Clouds 45 1009 5 10000 6.2 110 07:39 24.12.2019
1844 Clouds 45 1009 5 10000 6.2 110 07:21 24.12.2019
1845 Clouds 45 1009 6 10000 7.7 90 06:40 24.12.2019
1846 Clouds 45 1009 6 10000 7.7 90 06:19 24.12.2019
1847 Clouds 45 1010 6 10000 5.7 130 05:51 24.12.2019
1848 Clear 44 1010 5 10000 6.7 60 05:19 24.12.2019
1849 Clear 43 1011 8 10000 4.6 110 04:21 24.12.2019
1850 Clear 43 1011 8 10000 3.6 70 03:46 24.12.2019
1851 Clear 43 1012 8 10000 6.7 80 02:29 24.12.2019
1852 Clear 41 1013 8 10000 7.7 80 01:54 24.12.2019
1853 Clear 40 1013 8 10000 7.7 90 01:26 24.12.2019
1854 Clear 39 1013 10 10000 7.7 60 00:58 24.12.2019
1855 Clear 38 1013 11 10000 5.1 90 00:39 24.12.2019
1856 Clear 38 1013 11 10000 5.1 90 00:19 24.12.2019
1857 Clear 37 1013 11 10000 3.1 120 23:42 23.12.2019
1858 Clear 37 1013 11 10000 3.1 120 23:42 23.12.2019
1859 Clear 33 1013 13 10000 8.44 75 23:24 23.12.2019
1860 Clear 31 1013 15 10000 4.63 77 22:57 23.12.2019
1861 Clear 29 1013 16 10000 4.63 77 22:38 23.12.2019
1862 Clear 29 1013 16 10000 4.63 77 22:19 23.12.2019
1863 Clear 27 1013 18 10000 1 40 21:56 23.12.2019
1864 Clear 27 1012 15 10000 4.63 77 21:36 23.12.2019
1865 Clear 27 1012 15 10000 4.63 77 21:18 23.12.2019
1866 Clear 27 1012 18 10000 4.63 77 20:57 23.12.2019
1867 Clear 26 1012 15 10000 4.63 77 20:39 23.12.2019
1868 Clear 26 1012 15 10000 5.41 87 20:18 23.12.2019
1869 Clear 26 1012 16 10000 0.5 360 19:56 23.12.2019
1870 Clear 27 1011 14 10000 1.5 300 19:38 23.12.2019
1871 Clear 27 1011 14 10000 1.5 300 19:19 23.12.2019
1872 Clear 28 1012 15 10000 2.1 350 18:58 23.12.2019
1873 Clear 28 1012 15 10000 2.1 350 18:58 23.12.2019
1874 Clear 27 1012 13 10000 5.21 90 18:38 23.12.2019
1875 Clear 27 1012 13 10000 5.21 90 18:20 23.12.2019
1876 Clear 28 1012 14 10000 5.21 90 17:56 23.12.2019
1877 Clear 29 1012 14 10000 2.1 340 17:37 23.12.2019
1878 Clouds 29 1012 14 10000 2.1 340 17:19 23.12.2019
1879 Clouds 29 1012 13 10000 0.5 280 16:54 23.12.2019
1880 Clouds 29 1012 12 10000 1.5 220 16:36 23.12.2019
1881 Clouds 29 1012 12 10000 1.5 220 16:18 23.12.2019
1882 Clouds 30 1013 12 10000 1 360 15:55 23.12.2019
1883 Clouds 31 1013 11 10000 2.1 120 15:36 23.12.2019
1884 Clouds 31 1013 11 10000 2.1 120 15:18 23.12.2019
1885 Clouds 33 1013 14 10000 3.1 80 14:42 23.12.2019
1886 Clear 33 1013 12 10000 2.6 70 14:24 23.12.2019
1887 Clear 35 1013 12 10000 2.6 90 13:59 23.12.2019
1888 Clear 35 1013 12 10000 2.6 90 13:59 23.12.2019
1889 Clear 35 1013 12 10000 2.6 90 13:40 23.12.2019
1890 Clouds 35 1012 10 10000 3.1 140 13:22 23.12.2019
1891 Clouds 37 1012 9 10000 3.1 110 12:58 23.12.2019
1892 Clouds 38 1012 8 10000 3.6 110 12:39 23.12.2019
1893 Clouds 38 1012 8 10000 3.6 110 12:20 23.12.2019
1894 Clouds 38 1011 8 10000 3.1 90 11:45 23.12.2019
1895 Clouds 40 1011 7 10000 3.6 100 11:26 23.12.2019
1896 Clouds 41 1011 6 10000 4.6 100 10:59 23.12.2019
1897 Clouds 41 1011 6 10000 4.6 100 10:41 23.12.2019
1898 Clouds 42 1010 6 10000 6.2 100 10:21 23.12.2019
1899 Clouds 42 1010 6 10000 5.1 100 09:59 23.12.2019
1900 Clouds 43 1010 6 10000 7.7 90 09:40 23.12.2019
1901 Clouds 43 1010 6 10000 7.7 90 09:21 23.12.2019
1902 Clouds 43 1010 8 10000 5.1 100 08:58 23.12.2019
1903 Clouds 43 1010 8 10000 6.7 60 08:40 23.12.2019
1904 Clear 43 1010 7 10000 6.7 60 08:22 23.12.2019
1905 Clear 43 1010 7 10000 4.6 110 07:47 23.12.2019
1906 Clear 43 1010 7 10000 3.6 120 07:20 23.12.2019
1907 Clear 44 1011 7 10000 7.7 50 06:57 23.12.2019
1908 Clear 43 1011 7 10000 6.7 50 06:26 23.12.2019
1909 Clear 42 1011 8 10000 3.6 350 05:56 23.12.2019
1910 Clear 43 1012 7 10000 8.2 50 05:29 23.12.2019
1911 Clear 42 1013 8 10000 5.7 100 04:31 23.12.2019
1912 Clear 41 1013 8 10000 7.7 40 03:24 23.12.2019
1913 Dust 41 1014 9 10000 7.7 90 02:41 23.12.2019
1914 Dust 41 1014 9 10000 7.7 90 02:19 23.12.2019
1915 Clear 40 1014 8 10000 4.1 40 01:42 23.12.2019
1916 Clear 39 1015 10 10000 2.6 350 01:20 23.12.2019
1917 Clear 37 1015 11 10000 1.5 230 00:43 23.12.2019
1918 Clear 35 1015 10 10000 6.18 57 00:22 23.12.2019
1919 Clear 30 1014 13 10000 1 270 23:39 22.12.2019
1920 Clear 30 1014 13 10000 1 270 23:21 22.12.2019
1921 Clear 27 1014 18 10000 2.1 250 22:58 22.12.2019
1922 Clear 24 1014 19 10000 2.6 240 22:39 22.12.2019
1923 Clear 24 1014 19 10000 2.6 240 22:19 22.12.2019
1924 Clear 24 1014 18 10000 2.6 300 21:57 22.12.2019
1925 Clear 24 1013 19 10000 2.1 280 21:39 22.12.2019
1926 Clear 24 1013 19 10000 2.1 280 21:21 22.12.2019
1927 Clear 24 1013 19 10000 3.1 290 20:57 22.12.2019
1928 Clear 24 1013 17 10000 2.1 290 20:38 22.12.2019
1929 Clear 24 1013 17 10000 2.1 290 20:18 22.12.2019
1930 Clear 25 1013 18 10000 2.1 250 19:55 22.12.2019
1931 Clear 25 1013 18 10000 2.1 250 19:55 22.12.2019
1932 Clear 25 1012 16 10000 2.6 230 19:37 22.12.2019
1933 Clear 25 1012 16 10000 2.6 230 19:18 22.12.2019
1934 Clear 27 1012 13 10000 5 47 18:40 22.12.2019
1935 Clear 27 1012 13 10000 5 47 18:22 22.12.2019
1936 Clear 27 1013 13 10000 5 47 17:55 22.12.2019
1937 Clear 28 1013 13 10000 2.1 90 17:37 22.12.2019
1938 Clear 28 1013 13 10000 2.1 90 17:18 22.12.2019
1939 Clear 29 1013 13 10000 2.6 60 16:56 22.12.2019
1940 Clear 30 1013 12 10000 2.6 60 16:37 22.12.2019
1941 Clear 30 1013 12 10000 2.6 60 16:19 22.12.2019
1942 Clear 31 1013 11 10000 3.1 70 15:55 22.12.2019
1943 Clear 31 1013 11 10000 2.6 60 15:36 22.12.2019
1944 Clear 31 1013 11 10000 2.6 60 15:18 22.12.2019
1945 Clear 32 1013 11 10000 2.6 60 14:39 22.12.2019
1946 Clear 32 1013 11 10000 2.6 60 14:20 22.12.2019
1947 Clear 33 1013 10 10000 3.6 90 13:57 22.12.2019
1948 Clear 34 1012 10 10000 3.6 90 13:38 22.12.2019
1949 Clear 34 1012 10 10000 3.6 90 13:20 22.12.2019
1950 Clear 35 1012 9 10000 3.6 80 12:57 22.12.2019
1951 Clear 36 1012 8 10000 4.6 90 12:39 22.12.2019
1952 Clear 36 1012 8 10000 4.6 90 12:20 22.12.2019
1953 Clear 38 1011 8 10000 5.1 90 11:59 22.12.2019
1954 Clear 38 1011 11 10000 6.2 90 11:39 22.12.2019
1955 Clear 38 1011 8 10000 6.2 90 11:20 22.12.2019
1956 Clear 39 1010 9 10000 5.7 90 10:58 22.12.2019
1957 Clear 40 1010 8 10000 7.2 90 10:40 22.12.2019
1958 Clear 40 1010 8 10000 7.2 90 10:20 22.12.2019
1959 Clear 41 1010 9 10000 7.2 100 09:58 22.12.2019
1960 Clear 41 1010 8 10000 6.7 90 09:40 22.12.2019
1961 Clear 41 1010 8 10000 6.7 90 09:21 22.12.2019
1962 Clear 41 1010 9 10000 7.7 60 08:45 22.12.2019
1963 Clear 42 1010 8 10000 6.7 70 08:23 22.12.2019
1964 Clear 42 1010 8 10000 8.7 90 07:50 22.12.2019
1965 Clear 42 1010 9 10000 7.7 110 07:22 22.12.2019
1966 Clear 42 1010 9 10000 11.8 90 06:57 22.12.2019
1967 Clear 42 1010 9 10000 7.7 110 06:27 22.12.2019
1968 Clear 42 1011 9 10000 8.2 120 05:43 22.12.2019
1969 Clear 42 1011 9 10000 8.7 80 05:21 22.12.2019
1970 Clear 41 1012 9 10000 9.3 100 04:27 22.12.2019
1971 Clear 40 1013 10 10000 6.7 90 03:24 22.12.2019
1972 Clear 39 1013 10 10000 5.1 140 02:34 22.12.2019
1973 Clear 38 1014 11 10000 4.6 60 01:32 22.12.2019
1974 Clear 37 1014 11 10000 4.6 50 00:57 22.12.2019
1975 Clear 34 1014 12 10000 1.5 110 00:38 22.12.2019
1976 Clear 34 1014 12 10000 1.5 110 00:20 22.12.2019
1977 Clear 29 1014 20 10000 1.5 210 23:41 21.12.2019
1978 Clear 29 1014 20 10000 1.5 210 23:22 21.12.2019
1979 Clear 27 1014 21 10000 5.78 40 22:57 21.12.2019
1980 Clear 25 1013 22 10000 5.78 40 22:39 21.12.2019
1981 Clear 25 1013 22 10000 5.78 40 22:18 21.12.2019
1982 Clear 25 1013 22 10000 5.78 40 22:18 21.12.2019
1983 Clear 24 1013 22 10000 5.78 40 21:55 21.12.2019
1984 Clear 25 1013 20 10000 1 20 21:36 21.12.2019
1985 Clear 25 1013 20 10000 1 20 21:18 21.12.2019
1986 Clear 25 1012 17 10000 2.1 120 20:57 21.12.2019
1987 Clear 25 1012 17 10000 5.9 42 20:37 21.12.2019
1988 Clear 25 1012 16 10000 5.67 53 20:19 21.12.2019
1989 Clear 26 1012 16 10000 5.67 53 19:55 21.12.2019
1990 Clear 26 1012 16 10000 5.67 53 19:36 21.12.2019
1991 Clear 26 1012 16 10000 5.67 53 19:18 21.12.2019
1992 Clear 26 1011 16 10000 5.67 53 18:41 21.12.2019
1993 Clear 27 1011 15 10000 5.67 53 18:23 21.12.2019
1994 Clear 27 1011 15 10000 5.67 53 18:23 21.12.2019
1995 Clear 28 1011 15 10000 5.67 53 17:56 21.12.2019
1996 Clear 29 1012 14 10000 1.5 10 17:38 21.12.2019
1997 Clear 29 1012 14 10000 1.5 10 17:20 21.12.2019
1998 Clear 29 1011 13 10000 2.6 60 16:57 21.12.2019
1999 Clear 31 1012 12 10000 4.1 80 16:38 21.12.2019
2000 Clear 31 1012 12 10000 4.1 80 16:18 21.12.2019
2001 Clear 31 1012 13 10000 4.6 90 15:55 21.12.2019
2002 Clear 31 1012 13 10000 4.6 100 15:37 21.12.2019
2003 Clear 31 1012 13 10000 4.6 100 15:18 21.12.2019
2004 Clear 32 1012 13 10000 3.6 100 14:41 21.12.2019
2005 Clear 33 1012 12 10000 3.1 90 14:23 21.12.2019
2006 Clear 34 1012 12 10000 3.6 90 13:58 21.12.2019
2007 Clear 34 1012 12 10000 3.6 90 13:58 21.12.2019
2008 Clear 34 1012 12 10000 3.1 80 13:39 21.12.2019
2009 Clear 34 1012 12 10000 3.1 80 13:19 21.12.2019
2010 Clear 35 1011 12 10000 3.1 100 12:56 21.12.2019
2011 Clear 37 1011 11 10000 4.1 100 12:38 21.12.2019
2012 Clear 37 1011 11 10000 4.1 100 12:19 21.12.2019
2013 Clear 37 1011 11 10000 4.6 90 11:46 21.12.2019
2014 Clear 39 1010 10 10000 4.6 90 11:27 21.12.2019
2015 Clear 40 1010 10 10000 6.7 90 10:58 21.12.2019
2016 Clear 41 1009 9 10000 6.7 100 10:39 21.12.2019
2017 Clear 41 1009 9 10000 6.7 100 10:21 21.12.2019
2018 Clear 41 1009 9 10000 6.7 110 09:57 21.12.2019
2019 Clear 42 1009 8 10000 7.2 90 09:39 21.12.2019
2020 Clear 42 1009 8 10000 7.2 90 09:39 21.12.2019
2021 Clear 42 1009 8 10000 7.2 90 09:19 21.12.2019
2022 Clear 42 1009 8 10000 5.7 100 08:46 21.12.2019
2023 Clear 42 1009 8 10000 6.7 70 08:26 21.12.2019
2024 Clear 42 1009 9 10000 6.7 90 07:47 21.12.2019
2025 Clear 42 1009 9 10000 6.7 110 07:23 21.12.2019
2026 Clear 41 1009 10 10000 9.8 110 06:47 21.12.2019
2027 Clear 42 1010 9 10000 8.7 70 06:28 21.12.2019
2028 Clear 42 1010 9 10000 8.7 110 05:58 21.12.2019
2029 Clear 41 1011 11 10000 8.2 100 04:59 21.12.2019
2030 Clear 41 1012 11 10000 8.7 110 04:33 21.12.2019
2031 Clear 40 1012 11 10000 6.7 100 03:56 21.12.2019
2032 Clouds 39 1013 14 10000 6.2 60 02:19 21.12.2019
2033 Clouds 37 1014 14 10000 5.7 110 01:41 21.12.2019
2034 Clouds 37 1014 14 10000 5.7 110 01:23 21.12.2019
2035 Clear 36 1014 19 10000 6.7 130 00:39 21.12.2019
2036 Clear 36 1014 19 10000 6.7 130 00:19 21.12.2019
2037 Clear 34 1013 23 10000 4.1 110 23:38 20.12.2019
2038 Clear 34 1013 23 10000 4.1 110 23:19 20.12.2019
2039 Clear 31 1013 27 10000 2.1 150 22:57 20.12.2019
2040 Clear 28 1013 34 10000 2.1 180 22:36 20.12.2019
2041 Clear 28 1013 34 10000 2.1 180 22:18 20.12.2019
2042 Clear 27 1012 39 10000 3.6 190 21:40 20.12.2019
2043 Clear 27 1011 32 10000 2.6 110 21:20 20.12.2019
2044 Clear 28 1011 32 10000 2.6 70 20:56 20.12.2019
2045 Clear 29 1010 30 10000 2.6 30 20:36 20.12.2019
2046 Clouds 29 1010 30 10000 2.6 30 20:18 20.12.2019
2047 Clouds 29 1010 30 10000 2.1 50 19:42 20.12.2019
2048 Clouds 29 1010 30 10000 2.1 60 19:20 20.12.2019
2049 Clouds 29 1010 30 10000 2.6 30 18:58 20.12.2019
2050 Clouds 29 1010 30 10000 0.5 10 18:38 20.12.2019
2051 Clouds 29 1010 30 10000 0.5 10 18:20 20.12.2019
2052 Clouds 31 1011 29 10000 2.6 360 17:54 20.12.2019
2053 Clouds 31 1011 29 10000 2.6 360 17:36 20.12.2019
2054 Clouds 31 1011 29 10000 2.6 360 17:18 20.12.2019
2055 Clouds 32 1011 27 10000 2.6 130 16:40 20.12.2019
2056 Clouds 32 1011 27 10000 2.6 130 16:20 20.12.2019
2057 Clouds 33 1012 26 10000 3.6 130 15:57 20.12.2019
2058 Clouds 34 1012 23 10000 6.2 160 15:39 20.12.2019
2059 Clouds 34 1012 23 10000 6.2 160 15:20 20.12.2019
2060 Clouds 33 1011 27 10000 8.7 170 14:58 20.12.2019
2061 Clouds 34 1011 21 10000 2.1 350 14:39 20.12.2019
2062 Rain 34 1011 21 10000 2.1 350 14:21 20.12.2019
2063 Rain 35 1009 19 10000 6.2 350 13:42 20.12.2019
2064 Rain 35 1009 19 10000 6.2 350 13:21 20.12.2019
2065 Rain 35 1009 21 10000 9.3 350 12:59 20.12.2019
2066 Rain 37 1010 16 10000 7.7 350 12:41 20.12.2019
2067 Rain 37 1010 16 10000 7.7 350 12:19 20.12.2019
2068 Rain 36 1009 14 10000 2.6 20 11:59 20.12.2019
2069 Rain 36 1009 16 10000 2.1 90 11:39 20.12.2019
2070 Rain 36 1009 16 10000 2.1 90 11:20 20.12.2019
2071 Rain 38 1008 13 10000 2.6 120 10:59 20.12.2019
2072 Clouds 38 1008 13 10000 2.1 290 10:41 20.12.2019
2073 Clouds 38 1008 13 10000 2.1 290 10:20 20.12.2019
2074 Rain 38 1008 13 10000 8.2 360 09:55 20.12.2019
2075 Rain 36 1010 18 10000 7.7 340 09:37 20.12.2019
2076 Rain 36 1010 18 10000 7.7 340 09:19 20.12.2019
2077 Clouds 38 1009 15 10000 10.8 60 08:42 20.12.2019
2078 Clouds 38 1009 15 10000 10.8 60 08:22 20.12.2019
2079 Clouds 39 1008 14 6000 11.8 130 07:58 20.12.2019
2080 Clouds 40 1008 12 10000 6.2 60 07:40 20.12.2019
2081 Clouds 40 1008 12 10000 6.2 60 07:19 20.12.2019
2082 Clouds 41 1007 12 10000 7.2 10 06:51 20.12.2019
2083 Clouds 42 1008 11 10000 4.6 30 06:31 20.12.2019
2084 Clouds 43 1008 10 10000 5.7 60 05:53 20.12.2019
2085 Clouds 44 1008 11 10000 4.6 70 05:34 20.12.2019
2086 Clouds 43 1009 10 10000 5.1 280 04:30 20.12.2019
2087 Clouds 42 1010 13 10000 3.6 290 03:29 20.12.2019
2088 Clouds 41 1011 12 10000 1.5 340 02:41 20.12.2019
2089 Clouds 40 1011 12 10000 2.6 350 01:44 20.12.2019
2090 Clouds 40 1012 12 10000 2.1 350 01:18 20.12.2019
2091 Clouds 37 1012 13 10000 2.6 10 00:41 20.12.2019
2092 Clouds 37 1012 13 10000 2.6 10 00:20 20.12.2019
2093 Clouds 36 1011 14 10000 4.1 60 23:43 19.12.2019
2094 Clouds 36 1011 14 10000 4.1 60 23:24 19.12.2019
2095 Clear 35 1011 16 10000 4.1 70 22:56 19.12.2019
2096 Clear 31 1010 20 10000 1.5 250 22:36 19.12.2019
2097 Clear 31 1010 20 10000 1.5 250 22:18 19.12.2019
2098 Clear 30 1009 20 10000 3.1 30 21:42 19.12.2019
2099 Clear 30 1009 20 10000 3.1 30 21:42 19.12.2019
2100 Clear 30 1009 20 10000 3.1 30 21:20 19.12.2019
2101 Clear 31 1009 19 10000 3.1 10 20:59 19.12.2019
2102 Clear 32 1009 19 10000 4.6 10 20:39 19.12.2019
2103 Clouds 32 1009 19 10000 4.6 10 20:21 19.12.2019
2104 Clouds 32 1009 19 10000 4.1 360 19:59 19.12.2019
2105 Clouds 32 1008 18 10000 3.6 360 19:40 19.12.2019
2106 Clouds 32 1008 18 10000 3.6 360 19:20 19.12.2019
2107 Clouds 30 1008 20 10000 2.6 10 18:59 19.12.2019
2108 Clouds 31 1008 18 10000 2.1 350 18:40 19.12.2019
2109 Clouds 31 1008 18 10000 2.1 350 18:40 19.12.2019
2110 Clouds 31 1008 18 10000 2.1 350 18:20 19.12.2019
2111 Clouds 33 1008 17 10000 3.1 320 17:56 19.12.2019
2112 Clouds 34 1009 17 10000 2.1 340 17:38 19.12.2019
2113 Clouds 34 1009 17 10000 2.1 340 17:18 19.12.2019
2114 Clouds 34 1009 16 10000 2.6 340 16:56 19.12.2019
2115 Clouds 34 1009 16 10000 2.6 340 16:56 19.12.2019
2116 Clouds 34 1009 15 10000 4.6 330 16:38 19.12.2019
2117 Clouds 34 1009 15 10000 4.6 330 16:19 19.12.2019
2118 Clouds 35 1009 14 10000 4.1 350 15:58 19.12.2019
2119 Clouds 35 1010 14 10000 3.6 340 15:38 19.12.2019
2120 Clouds 35 1010 14 10000 3.6 340 15:19 19.12.2019
2121 Clouds 36 1010 12 10000 3.1 350 14:57 19.12.2019
2122 Clouds 37 1010 12 10000 3.6 30 14:38 19.12.2019
2123 Clouds 38 1010 10 10000 4.6 20 14:18 19.12.2019
2124 Clouds 37 1009 19 10000 4.1 90 13:39 19.12.2019
2125 Clouds 37 1009 22 10000 4.1 90 13:20 19.12.2019
2126 Clouds 38 1009 9 10000 3.1 70 12:58 19.12.2019
2127 Clouds 38 1009 22 10000 2.6 60 12:40 19.12.2019
2128 Clouds 38 1009 22 10000 2.6 60 12:19 19.12.2019
2129 Clouds 38 1009 22 10000 2.6 60 12:19 19.12.2019
2130 Clouds 40 1008 7 10000 3.6 120 11:59 19.12.2019
2131 Clouds 41 1008 22 10000 2.1 50 11:40 19.12.2019
2132 Clouds 42 1008 6 10000 2.6 360 11:18 19.12.2019
2133 Clouds 42 1008 6 10000 2.6 360 10:58 19.12.2019
2134 Clouds 42 1008 6 10000 2.6 360 10:58 19.12.2019
2135 Clouds 42 1007 6 10000 6.2 350 10:38 19.12.2019
2136 Clouds 42 1007 6 10000 6.2 350 10:20 19.12.2019
2137 Clouds 43 1007 6 10000 4.1 150 09:56 19.12.2019
2138 Clouds 43 1007 6 10000 3.1 60 09:37 19.12.2019
2139 Clouds 43 1007 6 10000 3.1 60 09:18 19.12.2019
2140 Clouds 43 1007 6 10000 4.6 110 08:55 19.12.2019
2141 Clouds 44 1007 5 10000 4.1 110 08:36 19.12.2019
2142 Clouds 44 1007 5 10000 4.1 110 08:18 19.12.2019
2143 Clouds 44 1007 6 10000 6.7 90 07:40 19.12.2019
2144 Clouds 44 1007 6 10000 6.7 90 07:22 19.12.2019
2145 Clouds 44 1007 5 10000 4.1 140 06:52 19.12.2019
2146 Clouds 44 1007 5 10000 4.1 140 06:52 19.12.2019
2147 Clouds 44 1008 5 10000 4.1 130 06:33 19.12.2019
2148 Clouds 43 1008 6 10000 3.6 190 05:59 19.12.2019
2149 Clouds 44 1008 5 10000 4.1 180 05:41 19.12.2019
2150 Clouds 44 1008 5 10000 4.1 180 05:18 19.12.2019
2151 Clouds 42 1010 6 10000 2.6 20 03:46 19.12.2019
2152 Clouds 41 1011 9 10000 4.6 20 02:25 19.12.2019
2153 Clouds 39 1011 11 10000 3.6 20 01:24 19.12.2019
2154 Clouds 34 1011 18 10000 1.5 360 00:45 19.12.2019
2155 Clouds 34 1011 18 10000 1.5 360 00:25 19.12.2019
2156 Clouds 33 1011 18 10000 0.5 360 23:59 18.12.2019
2157 Clouds 31 1011 20 10000 2.1 210 23:41 18.12.2019
2158 Clouds 31 1011 20 10000 2.1 210 23:19 18.12.2019
2159 Clouds 29 1011 23 10000 1 260 22:56 18.12.2019
2160 Clouds 26 1010 27 10000 2.6 350 22:37 18.12.2019
2161 Clouds 26 1010 27 10000 2.6 350 22:19 18.12.2019
2162 Clouds 26 1010 27 10000 2.82 87 21:57 18.12.2019
2163 Clouds 27 1009 28 10000 1.5 260 21:39 18.12.2019
2164 Clouds 27 1009 28 10000 1.5 260 21:19 18.12.2019
2165 Clouds 26 1009 26 10000 2.1 240 20:55 18.12.2019
2166 Clouds 28 1009 24 10000 2.1 30 20:37 18.12.2019
2167 Clouds 28 1009 24 10000 2.1 30 20:19 18.12.2019
2168 Clear 30 1009 22 10000 3.6 350 19:55 18.12.2019
2169 Clear 29 1009 23 10000 3.6 350 19:37 18.12.2019
2170 Clear 29 1009 23 10000 3.6 350 19:18 18.12.2019
2171 Clear 29 1009 23 10000 3.6 350 19:18 18.12.2019
2172 Clear 30 1009 22 10000 2.1 30 18:44 18.12.2019
2173 Clear 30 1009 22 10000 2.1 30 18:25 18.12.2019
2174 Clear 32 1009 21 10000 2.1 20 17:57 18.12.2019
2175 Clear 31 1010 20 10000 3.1 350 17:39 18.12.2019
2176 Clear 31 1010 20 10000 3.1 350 17:19 18.12.2019
2177 Clear 31 1010 20 10000 3.1 350 17:19 18.12.2019
2178 Clear 31 1010 22 10000 2.6 10 16:56 18.12.2019
2179 Clear 32 1010 22 10000 2.1 360 16:38 18.12.2019
2180 Clear 32 1010 22 10000 2.1 360 16:20 18.12.2019
2181 Clear 33 1010 19 10000 1 260 15:55 18.12.2019
2182 Clear 33 1010 18 10000 1.5 310 15:37 18.12.2019
2183 Clear 33 1010 18 10000 1.5 310 15:18 18.12.2019
2184 Clear 36 1010 16 10000 2.6 350 14:40 18.12.2019
2185 Clouds 36 1010 16 10000 2.6 350 14:21 18.12.2019
2186 Clouds 37 1010 14 10000 3.1 320 13:57 18.12.2019
2187 Clouds 38 1010 14 10000 5.1 340 13:38 18.12.2019
2188 Clouds 38 1010 14 10000 5.1 340 13:19 18.12.2019
2189 Clouds 37 1010 10 10000 3.6 10 12:57 18.12.2019
2190 Clouds 38 1009 8 10000 3.1 140 12:38 18.12.2019
2191 Clouds 38 1009 8 10000 3.1 140 12:19 18.12.2019
2192 Clouds 39 1009 8 10000 3.6 150 11:55 18.12.2019
2193 Clouds 39 1009 8 10000 3.6 150 11:55 18.12.2019
2194 Clouds 40 1009 7 10000 3.1 130 11:37 18.12.2019
2195 Clouds 40 1009 7 10000 3.1 130 11:18 18.12.2019
2196 Clouds 41 1008 6 10000 4.1 130 10:55 18.12.2019
2197 Clouds 41 1008 7 10000 4.1 110 10:37 18.12.2019
2198 Clouds 41 1008 7 10000 4.1 110 10:19 18.12.2019
2199 Clouds 42 1008 6 10000 3.1 70 09:43 18.12.2019
2200 Clouds 42 1008 6 10000 3.1 70 09:18 18.12.2019
2201 Clouds 42 1008 6 10000 5.1 80 08:40 18.12.2019
2202 Clouds 42 1008 6 10000 5.1 80 08:21 18.12.2019
2203 Clouds 43 1008 9 10000 6.7 40 07:43 18.12.2019
2204 Clouds 44 1008 5 10000 4.6 140 07:23 18.12.2019
2205 Clouds 43 1008 6 10000 6.2 90 06:55 18.12.2019
2206 Clouds 43 1009 9 10000 3.1 20 06:27 18.12.2019
2207 Clouds 44 1009 9 10000 5.1 90 05:47 18.12.2019
2208 Clouds 43 1010 10 10000 8.2 70 04:52 18.12.2019
2209 Clouds 41 1012 7 10000 9.8 60 02:55 18.12.2019
2210 Clouds 41 1012 6 10000 9.8 70 02:36 18.12.2019
2211 Clouds 41 1012 6 10000 9.8 70 02:18 18.12.2019
2212 Clouds 41 1012 14 10000 9.3 60 01:40 18.12.2019
2213 Clouds 41 1012 11 10000 9.3 60 01:21 18.12.2019
2214 Clouds 38 1012 8 10000 9.3 60 00:40 18.12.2019
2215 Clouds 38 1012 8 10000 9.3 60 00:22 18.12.2019
2216 Clouds 37 1012 9 10000 8.2 70 23:56 17.12.2019
2217 Clouds 36 1012 8 10000 5.7 80 23:37 17.12.2019
2218 Clouds 36 1012 8 10000 5.7 80 23:18 17.12.2019
2219 Clouds 36 1012 8 10000 5.7 80 23:18 17.12.2019
2220 Clouds 33 1012 11 10000 4.6 80 22:55 17.12.2019
2221 Clouds 30 1011 12 10000 3.6 80 22:37 17.12.2019
2222 Clouds 30 1011 12 10000 3.6 80 22:18 17.12.2019
2223 Clouds 24 1011 14 10000 0.5 140 21:55 17.12.2019
2224 Clouds 24 1011 14 10000 0.5 140 21:55 17.12.2019
2225 Clouds 24 1011 14 10000 0.5 140 21:55 17.12.2019
2226 Clouds 22 1011 14 10000 1 220 21:36 17.12.2019
2227 Clouds 22 1011 14 10000 1 220 21:18 17.12.2019
2228 Clouds 23 1011 12 10000 6.24 87 20:55 17.12.2019
2229 Clouds 25 1010 13 10000 6.24 87 20:37 17.12.2019
2230 Clouds 25 1010 13 10000 5.07 106 20:18 17.12.2019
2231 Clouds 25 1010 13 10000 5.07 106 19:41 17.12.2019
2232 Clouds 25 1010 13 10000 5.07 106 19:20 17.12.2019
2233 Clouds 25 1010 13 10000 1 270 18:58 17.12.2019
2234 Clouds 25 1010 13 10000 5.07 106 18:40 17.12.2019
2235 Clouds 25 1010 13 10000 5.07 106 18:21 17.12.2019
2236 Clouds 27 1010 11 10000 5.07 106 17:58 17.12.2019
2237 Clouds 27 1010 11 10000 2.1 300 17:39 17.12.2019
2238 Clouds 27 1010 11 10000 2.1 300 17:19 17.12.2019
2239 Clouds 27 1011 10 10000 5.78 90 16:56 17.12.2019
2240 Clouds 29 1011 9 10000 5.78 90 16:37 17.12.2019
2241 Clouds 29 1011 9 10000 5.78 90 16:18 17.12.2019
2242 Clouds 29 1011 9 10000 0.5 30 15:55 17.12.2019
2243 Clouds 32 1011 9 10000 2.6 50 15:36 17.12.2019
2244 Clouds 32 1011 9 10000 2.6 50 15:18 17.12.2019
2245 Clouds 31 1011 10 10000 2.6 50 14:54 17.12.2019
2246 Clouds 32 1011 8 10000 3.1 130 14:36 17.12.2019
2247 Clouds 32 1011 8 10000 3.1 130 14:36 17.12.2019
2248 Clouds 32 1011 8 10000 3.1 130 14:18 17.12.2019
2249 Clouds 32 1011 8 10000 3.6 140 13:54 17.12.2019
2250 Clouds 33 1011 7 10000 3.1 150 13:36 17.12.2019
2251 Clouds 33 1011 7 10000 3.1 150 13:18 17.12.2019
2252 Clouds 35 1010 8 10000 3.6 150 12:39 17.12.2019
2253 Clouds 35 1010 8 10000 3.6 150 12:19 17.12.2019
2254 Clouds 36 1010 7 10000 3.6 150 11:59 17.12.2019
2255 Clouds 38 1010 5 10000 3.6 150 11:37 17.12.2019
2256 Clouds 40 1009 5 10000 3.6 120 11:19 17.12.2019
2257 Clouds 40 1009 5 10000 3.6 120 10:58 17.12.2019
2258 Clouds 41 1009 5 10000 3.6 110 10:39 17.12.2019
2259 Clouds 41 1009 5 10000 3.6 110 10:20 17.12.2019
2260 Clouds 41 1009 5 10000 3.6 120 09:58 17.12.2019
2261 Clouds 41 1009 5 10000 3.6 120 09:40 17.12.2019
2262 Clouds 41 1009 5 10000 3.6 120 09:19 17.12.2019
2263 Clouds 41 1008 5 10000 4.6 100 08:55 17.12.2019
2264 Clouds 41 1008 5 10000 4.6 170 08:36 17.12.2019
2265 Clouds 41 1008 5 10000 4.6 170 08:18 17.12.2019
2266 Clouds 42 1009 4 10000 5.1 140 07:42 17.12.2019
2267 Clouds 42 1009 4 10000 5.1 140 07:23 17.12.2019
2268 Clouds 42 1009 6 10000 3.6 90 06:53 17.12.2019
2269 Clouds 43 1009 6 10000 6.2 110 06:32 17.12.2019
2270 Clouds 41 1010 5 10000 2.6 110 05:50 17.12.2019
2271 Clouds 41 1010 5 10000 2.6 110 05:50 17.12.2019
2272 Clouds 41 1010 5 10000 2.6 110 05:31 17.12.2019
2273 Clouds 40 1011 6 10000 4.1 130 04:00 17.12.2019
2274 Clouds 40 1012 7 10000 6.7 100 02:26 17.12.2019
2275 Clouds 37 1013 9 10000 7.7 90 01:22 17.12.2019
2276 Clouds 36 1013 8 10000 7.7 80 00:48 17.12.2019
2277 Clouds 35 1013 8 10000 3.1 90 00:22 17.12.2019
2278 Clouds 31 1013 10 10000 6.19 95 23:58 16.12.2019
2279 Clouds 29 1013 10 10000 1.5 300 23:40 16.12.2019
2280 Clouds 26 1013 12 10000 1.5 270 23:18 16.12.2019
2281 Clouds 26 1013 12 10000 1.5 270 22:54 16.12.2019
2282 Clouds 22 1013 14 10000 1.5 290 22:36 16.12.2019
2283 Clouds 22 1013 14 10000 1.5 290 22:18 16.12.2019
2284 Clouds 21 1012 15 10000 2.1 310 21:54 16.12.2019
2285 Clouds 20 1012 16 10000 2.6 310 21:36 16.12.2019
2286 Clouds 20 1012 16 10000 2.6 310 21:36 16.12.2019
2287 Clouds 20 1012 16 10000 2.6 310 21:18 16.12.2019
2288 Clouds 21 1011 15 10000 2.1 300 20:55 16.12.2019
2289 Clouds 22 1011 14 10000 2.1 300 20:37 16.12.2019
2290 Clouds 22 1011 14 10000 2.1 300 20:18 16.12.2019
2291 Clear 22 1011 14 10000 2.1 300 20:18 16.12.2019
2292 Clouds 21 1011 15 10000 2.1 290 19:54 16.12.2019
2293 Clouds 23 1011 13 10000 2.1 320 19:36 16.12.2019
2294 Clouds 23 1011 13 10000 2.1 320 19:18 16.12.2019
2295 Clouds 23 1011 13 10000 1.5 340 18:42 16.12.2019
2296 Clouds 23 1011 13 10000 4.09 96 18:20 16.12.2019
2297 Clouds 23 1011 13 10000 4.09 96 18:20 16.12.2019
2298 Clouds 23 1011 13 10000 4.09 96 17:59 16.12.2019
2299 Clouds 24 1011 14 10000 1.5 330 17:40 16.12.2019
2300 Clouds 24 1011 14 10000 1.5 330 17:40 16.12.2019
2301 Clouds 24 1011 14 10000 1.5 330 17:21 16.12.2019
2302 Clouds 25 1011 12 10000 1.5 350 16:58 16.12.2019
2303 Clouds 26 1011 13 10000 1.5 360 16:39 16.12.2019
2304 Clouds 26 1011 13 10000 1.5 360 16:20 16.12.2019
2305 Clouds 27 1012 11 10000 1.5 360 15:59 16.12.2019
2306 Clouds 27 1012 10 10000 1.5 10 15:39 16.12.2019
2307 Clouds 27 1012 10 10000 1.5 10 15:21 16.12.2019
2308 Clouds 29 1012 10 10000 2.1 90 14:57 16.12.2019
2309 Clouds 29 1012 9 10000 0.5 140 14:37 16.12.2019
2310 Clouds 29 1012 9 10000 0.5 140 14:37 16.12.2019
2311 Clouds 29 1012 9 10000 0.5 140 14:37 16.12.2019
2312 Clouds 29 1012 9 10000 0.5 140 14:19 16.12.2019
2313 Clouds 30 1012 9 10000 2.1 160 13:56 16.12.2019
2314 Clouds 31 1011 9 10000 3.1 150 13:38 16.12.2019
2315 Clouds 31 1011 9 10000 3.1 150 13:19 16.12.2019
2316 Clouds 32 1011 8 10000 3.6 160 12:58 16.12.2019
2317 Clouds 33 1011 9 10000 3.6 150 12:39 16.12.2019
2318 Clouds 33 1011 9 10000 3.6 150 12:19 16.12.2019
2319 Clouds 34 1010 7 10000 3.6 150 11:58 16.12.2019
2320 Clouds 36 1010 7 10000 3.6 140 11:40 16.12.2019
2321 Clouds 36 1010 7 10000 3.6 140 11:20 16.12.2019
2322 Clouds 38 1010 6 10000 4.1 140 10:57 16.12.2019
2323 Clouds 38 1009 7 10000 4.1 110 10:38 16.12.2019
2324 Clouds 38 1009 7 10000 4.1 110 10:19 16.12.2019
2325 Clouds 39 1009 6 10000 4.1 130 09:45 16.12.2019
2326 Clouds 39 1009 6 10000 5.7 130 09:27 16.12.2019
2327 Clouds 39 1009 6 10000 4.6 180 08:41 16.12.2019
2328 Clear 39 1009 6 10000 4.6 180 08:21 16.12.2019
2329 Clear 39 1009 6 10000 4.6 130 07:59 16.12.2019
2330 Clear 40 1009 4 10000 2.6 80 07:41 16.12.2019
2331 Clear 40 1009 4 10000 2.6 80 07:20 16.12.2019
2332 Clear 39 1010 6 10000 4.1 190 06:41 16.12.2019
2333 Clear 39 1010 6 10000 4.1 190 06:22 16.12.2019
2334 Clear 38 1011 5 10000 5.1 130 05:47 16.12.2019
2335 Clear 38 1011 5 10000 5.1 130 05:29 16.12.2019
2336 Clear 37 1013 6 10000 4.1 70 03:41 16.12.2019
2337 Clear 35 1013 8 10000 3.6 30 01:57 16.12.2019
2338 Clear 34 1014 9 10000 3.1 40 01:39 16.12.2019
2339 Clear 33 1014 9 10000 3.1 50 00:41 16.12.2019
2340 Clear 33 1014 9 10000 3.1 50 00:23 16.12.2019
2341 Clear 29 1014 9 10000 5.38 77 23:58 15.12.2019
2342 Clear 26 1013 9 10000 5.38 77 23:37 15.12.2019
2343 Clear 24 1013 9 10000 3.5 61 23:19 15.12.2019
2344 Clear 24 1013 9 10000 3.5 61 22:54 15.12.2019
2345 Clear 20 1012 12 10000 2.1 80 22:36 15.12.2019
2346 Clear 20 1012 12 10000 2.1 80 22:18 15.12.2019
2347 Clear 20 1012 12 10000 2.1 80 22:18 15.12.2019
2348 Clear 17 1012 12 10000 3.1 100 21:54 15.12.2019
2349 Clear 17 1012 13 10000 2.1 170 21:36 15.12.2019
2350 Clear 17 1012 13 10000 2.1 170 21:18 15.12.2019
2351 Clear 18 1011 12 10000 1.5 290 20:54 15.12.2019
2352 Clear 19 1011 13 10000 0.5 130 20:36 15.12.2019
2353 Clear 19 1011 13 10000 0.5 130 20:18 15.12.2019
2354 Clear 19 1011 12 10000 4.07 78 19:54 15.12.2019
2355 Clear 19 1011 12 10000 4.07 78 19:54 15.12.2019
2356 Clear 19 1011 12 10000 4.3 79 19:36 15.12.2019
2357 Clear 19 1011 12 10000 4.3 79 19:18 15.12.2019
2358 Clear 19 1011 12 10000 4.07 78 18:54 15.12.2019
2359 Clear 19 1011 12 10000 2.6 120 18:36 15.12.2019
2360 Clear 22 1011 10 10000 2.6 130 18:18 15.12.2019
2361 Clear 22 1011 10 10000 2.6 130 17:54 15.12.2019
2362 Clear 21 1011 10 10000 4.07 78 17:36 15.12.2019
2363 Clear 21 1011 10 10000 5.24 95 17:18 15.12.2019
2364 Clear 22 1012 10 10000 5.41 93 16:42 15.12.2019
2365 Clear 22 1012 10 10000 5.41 93 16:22 15.12.2019
2366 Clear 23 1012 11 10000 5.41 93 15:57 15.12.2019
2367 Clear 23 1012 11 10000 5.41 93 15:38 15.12.2019
2368 Clear 23 1012 11 10000 5.24 95 15:19 15.12.2019
2369 Clear 23 1012 11 10000 5.41 93 15:19 15.12.2019
2370 Clear 24 1012 9 10000 2.6 90 14:56 15.12.2019
2371 Clear 25 1012 9 10000 2.6 90 14:37 15.12.2019
2372 Clouds 25 1012 9 10000 2.6 90 14:19 15.12.2019
2373 Clouds 27 1012 9 10000 2.1 80 13:58 15.12.2019
2374 Clouds 28 1012 8 10000 2.6 130 13:38 15.12.2019
2375 Clouds 28 1012 8 10000 2.6 130 13:19 15.12.2019
2376 Clouds 29 1012 8 10000 2.6 120 12:57 15.12.2019
2377 Clouds 30 1011 7 10000 2.6 130 12:39 15.12.2019
2378 Clouds 30 1011 7 10000 2.6 130 12:39 15.12.2019
2379 Clouds 30 1011 7 10000 2.6 130 12:20 15.12.2019
2380 Clouds 31 1011 6 10000 3.6 130 11:56 15.12.2019
2381 Clouds 34 1011 5 10000 3.6 120 11:36 15.12.2019
2382 Clouds 35 1011 5 10000 3.6 130 11:18 15.12.2019
2383 Clouds 35 1011 5 10000 3.6 130 10:55 15.12.2019
2384 Clouds 36 1010 4 10000 3.1 160 10:36 15.12.2019
2385 Clouds 36 1010 4 10000 3.1 160 10:18 15.12.2019
2386 Clouds 37 1010 4 10000 5.7 170 09:40 15.12.2019
2387 Clouds 37 1010 4 10000 5.7 170 09:20 15.12.2019
2388 Clouds 38 1010 4 10000 4.6 140 08:58 15.12.2019
2389 Clouds 37 1010 4 10000 3.6 200 08:39 15.12.2019
2390 Clear 37 1010 4 10000 3.6 200 08:20 15.12.2019
2391 Clear 37 1010 4 10000 3.1 110 07:56 15.12.2019
2392 Clear 37 1010 4 10000 6.7 190 07:34 15.12.2019
2393 Clear 37 1011 4 10000 4.1 210 06:44 15.12.2019
2394 Clear 37 1011 6 10000 5.7 130 06:19 15.12.2019
2395 Clear 36 1012 6 10000 6.2 120 05:26 15.12.2019
2396 Clear 36 1012 6 10000 3.6 120 04:47 15.12.2019
2397 Clear 35 1013 6 10000 6.2 130 03:22 15.12.2019
2398 Clear 33 1014 8 10000 5.1 120 02:33 15.12.2019
2399 Clear 32 1014 8 10000 5.1 100 01:46 15.12.2019
2400 Clear 32 1014 8 10000 5.1 80 01:28 15.12.2019
2401 Clear 31 1015 9 10000 6.2 90 00:54 15.12.2019
2402 Clear 30 1015 9 10000 5.7 70 00:35 15.12.2019
2403 Clear 28 1015 10 10000 4.1 90 23:58 14.12.2019
2404 Clear 28 1015 10 10000 4.1 90 23:58 14.12.2019
2405 Clear 25 1015 12 10000 4.92 88 23:39 14.12.2019
2406 Clear 22 1014 14 10000 3.53 72 23:19 14.12.2019
2407 Clear 22 1014 14 10000 3.53 72 22:57 14.12.2019
2408 Clear 19 1014 19 10000 3.53 72 22:39 14.12.2019
2409 Clear 19 1014 19 10000 3.53 72 22:39 14.12.2019
2410 Clear 19 1014 19 10000 3.53 72 22:20 14.12.2019
2411 Clear 17 1014 20 10000 3.53 72 21:55 14.12.2019
2412 Clear 17 1014 20 10000 3.53 72 21:55 14.12.2019
2413 Clear 16 1014 23 10000 3.53 72 21:37 14.12.2019
2414 Clear 16 1014 23 10000 3.53 72 21:18 14.12.2019
2415 Clear 17 1013 20 10000 2.1 290 20:54 14.12.2019
2416 Clear 17 1013 20 10000 2.1 310 20:36 14.12.2019
2417 Clear 17 1013 20 10000 2.1 310 20:18 14.12.2019
2418 Clear 18 1013 17 10000 2.6 300 19:40 14.12.2019
2419 Clear 18 1013 17 10000 2.6 300 19:21 14.12.2019
2420 Clear 19 1013 17 10000 2.1 270 18:57 14.12.2019
2421 Clear 19 1013 16 10000 2.1 270 18:39 14.12.2019
2422 Clear 19 1013 16 10000 2.1 270 18:21 14.12.2019
2423 Clear 20 1013 16 10000 3.31 71 17:57 14.12.2019
2424 Clear 20 1013 16 10000 3.31 71 17:38 14.12.2019
2425 Clear 20 1013 16 10000 3.68 75 17:20 14.12.2019
2426 Clear 21 1013 15 10000 3.68 75 16:41 14.12.2019
2427 Clear 21 1013 15 10000 3.68 75 16:19 14.12.2019
2428 Clear 23 1014 12 10000 2.1 110 15:55 14.12.2019
2429 Clear 24 1014 13 10000 2.1 90 15:36 14.12.2019
2430 Clear 24 1014 13 10000 2.1 90 15:18 14.12.2019
2431 Clear 25 1014 12 10000 2.6 80 14:40 14.12.2019
2432 Clear 25 1014 12 10000 2.6 80 14:22 14.12.2019
2433 Clear 26 1014 10 10000 3.1 100 13:59 14.12.2019
2434 Clear 28 1014 10 10000 3.1 110 13:41 14.12.2019
2435 Clear 28 1014 10 10000 3.1 110 13:41 14.12.2019
2436 Clear 28 1014 10 10000 3.1 110 13:19 14.12.2019
2437 Clear 29 1014 9 10000 3.6 120 12:56 14.12.2019
2438 Clear 29 1014 9 10000 2.6 110 12:37 14.12.2019
2439 Clear 29 1014 9 10000 2.6 110 12:19 14.12.2019
2440 Clear 30 1014 9 10000 3.1 130 11:56 14.12.2019
2441 Clear 31 1013 9 10000 3.1 130 11:37 14.12.2019
2442 Clear 32 1013 8 10000 4.1 120 11:18 14.12.2019
2443 Clear 32 1013 8 10000 4.1 120 10:56 14.12.2019
2444 Clear 33 1013 9 10000 4.1 170 10:38 14.12.2019
2445 Clear 33 1013 9 10000 4.1 170 10:19 14.12.2019
2446 Clear 33 1013 9 10000 3.6 120 09:43 14.12.2019
2447 Clear 34 1013 9 10000 3.6 150 09:21 14.12.2019
2448 Clear 33 1013 10 10000 3.6 100 08:56 14.12.2019
2449 Clear 33 1013 10 10000 3.6 100 08:56 14.12.2019
2450 Clear 34 1013 10 10000 5.1 40 08:37 14.12.2019
2451 Clouds 34 1013 10 10000 5.1 40 08:18 14.12.2019
2452 Clouds 33 1014 17 10000 3.6 60 07:40 14.12.2019
2453 Clouds 33 1014 17 10000 3.6 60 07:40 14.12.2019
2454 Clouds 33 1014 13 10000 4.6 130 07:20 14.12.2019
2455 Clouds 33 1014 13 10000 4.6 100 06:45 14.12.2019
2456 Clouds 33 1014 13 10000 4.6 100 06:22 14.12.2019
2457 Clouds 31 1016 14 10000 4.6 60 05:35 14.12.2019
2458 Clouds 29 1017 14 10000 7.2 110 03:34 14.12.2019
2459 Clouds 29 1018 15 10000 7.2 80 02:23 14.12.2019
2460 Clouds 28 1018 15 10000 8.2 80 01:44 14.12.2019
2461 Clouds 27 1018 18 10000 4.1 110 00:58 14.12.2019
2462 Clouds 26 1018 22 10000 3.6 100 00:40 14.12.2019
2463 Clouds 26 1018 22 10000 3.6 100 00:19 14.12.2019
2464 Clouds 24 1017 31 10000 3.6 120 23:41 13.12.2019
2465 Clouds 24 1017 31 10000 3.6 120 23:19 13.12.2019
2466 Clouds 24 1017 29 10000 3.6 110 22:56 13.12.2019
2467 Clouds 23 1017 31 10000 2.1 80 22:37 13.12.2019
2468 Clouds 23 1017 31 10000 2.1 80 22:18 13.12.2019
2469 Clouds 24 1017 29 10000 2.1 160 21:42 13.12.2019
2470 Clouds 23 1017 31 10000 2.1 170 21:21 13.12.2019
2471 Clouds 24 1016 27 10000 1.5 160 20:58 13.12.2019
2472 Clouds 24 1016 27 10000 2.6 130 20:39 13.12.2019
2473 Clouds 24 1016 27 10000 2.6 130 20:19 13.12.2019
2474 Clouds 24 1016 27 10000 2.6 130 19:56 13.12.2019
2475 Clouds 24 1016 27 10000 1.5 150 19:38 13.12.2019
2476 Clouds 24 1016 27 10000 1.5 150 19:18 13.12.2019
2477 Clouds 25 1016 25 10000 2.1 140 18:42 13.12.2019
2478 Clouds 25 1016 25 10000 2.1 140 18:42 13.12.2019
2479 Clouds 25 1016 25 10000 2.1 140 18:20 13.12.2019
2480 Clouds 25 1016 25 10000 1.5 160 17:59 13.12.2019
2481 Clouds 25 1016 23 10000 2.1 150 17:39 13.12.2019
2482 Clouds 25 1016 23 10000 2.1 150 17:18 13.12.2019
2483 Clouds 25 1016 23 10000 2.1 150 17:18 13.12.2019
2484 Clouds 25 1017 25 10000 3.1 140 16:56 13.12.2019
2485 Clouds 25 1017 23 10000 4.6 130 16:38 13.12.2019
2486 Clouds 25 1017 23 10000 4.6 130 16:19 13.12.2019
2487 Clouds 26 1017 24 10000 2.6 150 15:42 13.12.2019
2488 Clouds 26 1017 24 10000 2.6 150 15:42 13.12.2019
2489 Clouds 26 1017 24 10000 2.6 150 15:21 13.12.2019
2490 Clouds 26 1017 24 10000 3.1 130 14:57 13.12.2019
2491 Clouds 26 1017 24 10000 3.1 120 14:37 13.12.2019
2492 Clouds 26 1017 24 10000 3.1 120 14:19 13.12.2019
2493 Clouds 27 1017 22 10000 4.1 150 13:43 13.12.2019
2494 Clouds 27 1017 22 10000 4.1 150 13:24 13.12.2019
2495 Clouds 27 1017 22 10000 4.1 150 13:24 13.12.2019
2496 Clouds 27 1017 22 10000 5.1 150 12:57 13.12.2019
2497 Clouds 28 1017 23 10000 4.6 140 12:39 13.12.2019
2498 Clouds 28 1017 23 10000 4.6 140 12:18 13.12.2019
2499 Clouds 28 1017 24 10000 5.7 150 11:43 13.12.2019
2500 Clouds 28 1017 24 10000 5.7 150 11:25 13.12.2019
2501 Clouds 29 1016 23 10000 6.7 160 10:56 13.12.2019
2502 Clouds 30 1016 22 10000 6.2 150 10:38 13.12.2019
2503 Clouds 30 1016 22 10000 6.2 150 10:20 13.12.2019
2504 Clouds 31 1015 20 10000 7.2 160 09:42 13.12.2019
2505 Clouds 31 1015 20 10000 7.2 160 09:21 13.12.2019
2506 Clouds 32 1015 21 10000 7.2 130 08:45 13.12.2019
2507 Clouds 32 1015 21 10000 7.2 130 08:27 13.12.2019
2508 Clouds 33 1015 19 10000 6.2 130 07:50 13.12.2019
2509 Clouds 33 1015 18 10000 7.2 120 07:26 13.12.2019
2510 Clouds 33 1015 18 10000 7.2 130 06:57 13.12.2019
2511 Clouds 33 1016 19 10000 7.2 130 06:31 13.12.2019
2512 Clouds 32 1016 22 10000 8.2 110 05:51 13.12.2019
2513 Clouds 32 1016 22 10000 6.7 150 05:31 13.12.2019
2514 Clouds 32 1017 22 10000 7.7 120 04:54 13.12.2019
2515 Clouds 30 1017 23 10000 6.2 140 03:52 13.12.2019
2516 Clouds 28 1018 30 10000 6.7 130 02:35 13.12.2019
2517 Clouds 27 1019 32 10000 6.7 130 01:51 13.12.2019
2518 Clouds 26 1019 34 10000 7.2 130 01:25 13.12.2019
2519 Clouds 26 1018 31 10000 7.2 120 00:46 13.12.2019
2520 Clouds 25 1019 33 10000 7.7 110 00:24 13.12.2019
2521 Clouds 24 1018 36 10000 7.2 130 23:42 12.12.2019
2522 Clouds 24 1018 36 10000 7.2 130 23:24 12.12.2019
2523 Clouds 24 1018 33 10000 5.1 130 22:56 12.12.2019
2524 Clouds 24 1017 33 10000 4.6 120 22:38 12.12.2019
2525 Clouds 24 1017 33 10000 4.6 120 22:38 12.12.2019
2526 Clouds 24 1017 33 10000 4.6 120 22:19 12.12.2019
2527 Clouds 24 1017 31 10000 4.1 130 21:55 12.12.2019
2528 Rain 24 1016 31 10000 8.2 130 21:37 12.12.2019
2529 Rain 24 1016 31 10000 8.2 130 21:19 12.12.2019
2530 Clouds 24 1017 31 10000 6.2 90 20:58 12.12.2019
2531 Clouds 24 1017 31 10000 3.6 110 20:39 12.12.2019
2532 Clouds 24 1017 31 10000 3.6 110 20:21 12.12.2019
2533 Clouds 24 1017 31 10000 7.2 110 19:55 12.12.2019
2534 Clouds 24 1017 31 10000 7.2 130 19:37 12.12.2019
2535 Clouds 24 1017 31 10000 7.2 130 19:18 12.12.2019
2536 Clouds 25 1017 29 10000 5.7 140 18:55 12.12.2019
2537 Clouds 25 1018 29 10000 5.7 130 18:36 12.12.2019
2538 Clouds 25 1018 27 10000 6.7 140 18:18 12.12.2019
2539 Clouds 25 1018 27 10000 6.7 140 17:55 12.12.2019
2540 Clouds 25 1018 27 10000 6.7 140 17:55 12.12.2019
2541 Clouds 26 1018 26 10000 5.7 150 17:37 12.12.2019
2542 Clouds 26 1018 26 10000 5.7 150 17:18 12.12.2019
2543 Clouds 26 1019 26 10000 7.2 150 16:42 12.12.2019
2544 Clouds 26 1019 26 10000 7.2 150 16:21 12.12.2019
2545 Clouds 27 1019 26 10000 8.2 160 15:59 12.12.2019
2546 Clouds 27 1019 24 10000 7.2 150 15:41 12.12.2019
2547 Clouds 27 1019 24 10000 7.2 150 15:19 12.12.2019
2548 Clouds 27 1019 24 10000 9.3 150 14:57 12.12.2019
2549 Clouds 28 1019 21 5000 9.8 150 14:36 12.12.2019
2550 Clouds 28 1019 21 5000 9.8 150 14:18 12.12.2019
2551 Clouds 29 1018 20 3200 8.7 150 13:54 12.12.2019
2552 Clouds 29 1018 20 1900 10.8 150 13:36 12.12.2019
2553 Clouds 29 1018 20 1900 10.8 150 13:18 12.12.2019
2554 Clouds 31 1016 16 3500 9.3 140 12:41 12.12.2019
2555 Clouds 31 1016 16 3500 9.3 140 12:22 12.12.2019
2556 Clouds 32 1016 13 3700 9.3 140 11:59 12.12.2019
2557 Clouds 32 1015 19 1500 10.8 140 11:40 12.12.2019
2558 Clouds 32 1015 11 1500 10.8 140 11:21 12.12.2019
2559 Clouds 33 1014 13 4100 10.3 140 10:58 12.12.2019
2560 Clouds 34 1013 13 1800 11.3 150 10:40 12.12.2019
2561 Clouds 34 1013 13 1800 11.3 150 10:21 12.12.2019
2562 Clouds 34 1013 13 1800 11.3 150 10:21 12.12.2019
2563 Clouds 35 1012 11 4100 8.7 140 09:56 12.12.2019
2564 Clouds 35 1012 12 1500 9.8 150 09:38 12.12.2019
2565 Clouds 35 1012 12 1500 9.8 150 09:19 12.12.2019
2566 Clouds 35 1012 12 1500 9.8 150 09:19 12.12.2019
2567 Clouds 37 1011 11 3700 11.3 140 08:46 12.12.2019
2568 Clouds 38 1011 9 6000 9.3 140 08:28 12.12.2019
2569 Clouds 39 1011 9 10000 9.3 140 07:50 12.12.2019
2570 Clouds 39 1011 9 5000 9.8 150 07:28 12.12.2019
2571 Clouds 40 1011 8 10000 7.7 120 06:57 12.12.2019
2572 Clouds 39 1011 9 10000 7.7 140 06:36 12.12.2019
2573 Clouds 38 1012 9 10000 7.2 150 05:49 12.12.2019
2574 Clear 38 1012 9 10000 6.7 140 05:25 12.12.2019
2575 Clear 38 1012 9 10000 7.2 140 04:28 12.12.2019
2576 Clear 35 1013 12 10000 6.7 130 02:41 12.12.2019
2577 Clear 35 1013 12 10000 6.7 130 02:22 12.12.2019
2578 Clear 35 1013 12 10000 7.2 140 01:54 12.12.2019
2579 Clear 35 1013 11 10000 6.7 130 01:35 12.12.2019
2580 Clear 35 1013 12 10000 6.7 120 00:48 12.12.2019
2581 Clear 33 1013 13 10000 6.7 90 00:21 12.12.2019
2582 Clear 33 1013 14 10000 6.7 100 23:54 11.12.2019
2583 Clear 32 1013 13 10000 7.7 100 23:36 11.12.2019
2584 Clear 32 1013 13 10000 7.7 100 23:18 11.12.2019
2585 Clear 31 1013 14 10000 5.1 90 22:55 11.12.2019
2586 Clear 30 1013 15 10000 3.6 110 22:36 11.12.2019
2587 Clear 30 1013 15 10000 3.6 110 22:36 11.12.2019
2588 Clear 29 1012 17 10000 5.1 110 22:18 11.12.2019
2589 Clear 29 1012 17 10000 5.1 110 21:39 11.12.2019
2590 Clear 29 1012 17 10000 5.1 110 21:39 11.12.2019
2591 Clear 29 1012 17 10000 5.1 110 21:20 11.12.2019
2592 Clear 30 1012 16 10000 5.7 110 20:58 11.12.2019
2593 Clear 30 1011 16 10000 5.7 110 20:39 11.12.2019
2594 Clouds 30 1011 16 10000 5.7 110 20:19 11.12.2019
2595 Clouds 30 1011 16 10000 5.7 110 20:19 11.12.2019
2596 Clouds 30 1011 16 10000 6.7 120 19:59 11.12.2019
2597 Clouds 31 1011 15 10000 6.2 120 19:40 11.12.2019
2598 Clouds 31 1011 15 10000 6.2 120 19:40 11.12.2019
2599 Clouds 31 1011 15 10000 6.2 120 19:21 11.12.2019
2600 Clouds 31 1011 15 10000 6.7 120 18:57 11.12.2019
2601 Clouds 32 1011 14 10000 6.7 120 18:38 11.12.2019
2602 Clouds 32 1011 14 10000 6.7 120 18:18 11.12.2019
2603 Clouds 32 1011 23 10000 5.1 130 17:55 11.12.2019
2604 Clouds 33 1011 23 10000 7.7 120 17:36 11.12.2019
2605 Clouds 32 1011 13 10000 3.6 140 17:18 11.12.2019
2606 Clouds 32 1011 13 10000 3.6 140 16:55 11.12.2019
2607 Clouds 32 1011 13 10000 3.6 140 16:55 11.12.2019
2608 Clouds 31 1011 22 10000 0.5 60 16:36 11.12.2019
2609 Clouds 31 1011 22 10000 0.5 60 16:18 11.12.2019
2610 Clouds 32 1011 13 10000 0.5 40 15:41 11.12.2019
2611 Clouds 32 1011 13 10000 0.5 40 15:23 11.12.2019
2612 Clouds 32 1011 13 10000 0.5 40 15:23 11.12.2019
2613 Clouds 32 1012 22 10000 3.6 90 14:57 11.12.2019
2614 Clouds 32 1012 22 10000 3.6 90 14:57 11.12.2019
2615 Clouds 32 1012 22 10000 3.6 90 14:57 11.12.2019
2616 Clouds 33 1011 13 10000 3.1 350 14:39 11.12.2019
2617 Clouds 33 1011 13 10000 3.1 350 14:20 11.12.2019
2618 Clouds 33 1011 13 10000 2.6 350 13:56 11.12.2019
2619 Clouds 34 1011 18 10000 2.6 350 13:38 11.12.2019
2620 Clouds 35 1011 11 10000 1 20 13:19 11.12.2019
2621 Clouds 35 1011 11 10000 1 20 12:56 11.12.2019
2622 Clouds 35 1011 11 10000 1 10 12:38 11.12.2019
2623 Clouds 35 1011 11 10000 1 10 12:19 11.12.2019
2624 Clouds 35 1011 11 10000 1 10 12:19 11.12.2019
2625 Clouds 36 1010 11 10000 2.6 10 11:57 11.12.2019
2626 Clouds 36 1010 20 10000 2.6 360 11:38 11.12.2019
2627 Clouds 38 1010 9 10000 3.6 30 11:18 11.12.2019
2628 Clouds 39 1010 17 10000 4.1 60 10:45 11.12.2019
2629 Clouds 39 1010 17 10000 4.1 60 10:27 11.12.2019
2630 Clouds 40 1010 7 10000 5.1 60 09:59 11.12.2019
2631 Clouds 40 1010 8 10000 6.7 20 09:39 11.12.2019
2632 Clouds 40 1010 8 10000 6.7 20 09:39 11.12.2019
2633 Clouds 40 1010 8 10000 6.7 20 09:39 11.12.2019
2634 Clouds 40 1010 8 10000 6.7 20 09:20 11.12.2019
2635 Clouds 40 1010 8 10000 6.2 30 08:57 11.12.2019
2636 Clouds 40 1010 8 10000 9.8 20 08:38 11.12.2019
2637 Clouds 40 1010 8 10000 9.8 20 08:19 11.12.2019
2638 Clouds 41 1010 10 10000 5.7 340 07:46 11.12.2019
2639 Clouds 41 1010 10 10000 6.2 330 07:26 11.12.2019
2640 Clouds 40 1010 8 10000 3.6 360 06:57 11.12.2019
2641 Clouds 40 1010 10 10000 5.7 350 06:37 11.12.2019
2642 Clouds 40 1011 7 10000 2.1 110 06:18 11.12.2019
2643 Clouds 41 1011 10 10000 4.1 360 05:41 11.12.2019
2644 Clouds 40 1011 8 10000 2.1 330 05:18 11.12.2019
2645 Dust 41 1012 9 10000 2.6 40 03:50 11.12.2019
2646 Clouds 39 1013 9 10000 2.6 230 02:49 11.12.2019
2647 Clear 36 1014 8 10000 3.6 80 01:23 11.12.2019
2648 Clear 35 1014 8 10000 3.6 100 00:46 11.12.2019
2649 Clear 34 1014 9 10000 3.1 110 00:21 11.12.2019
2650 Clear 33 1014 10 10000 3.1 130 23:47 10.12.2019
2651 Clear 31 1014 11 10000 2.6 20 23:28 10.12.2019
2652 Clear 28 1014 18 10000 2.6 320 22:57 10.12.2019
2653 Clear 24 1013 27 10000 2.1 230 22:39 10.12.2019
2654 Clear 24 1013 27 10000 2.1 230 22:21 10.12.2019
2655 Clouds 23 1013 28 10000 2.7 79 21:55 10.12.2019
2656 Clouds 23 1013 28 10000 2.7 79 21:55 10.12.2019
2657 Clouds 24 1013 23 10000 2.7 79 21:37 10.12.2019
2658 Clouds 24 1013 23 10000 2.7 79 21:19 10.12.2019
2659 Clouds 24 1012 23 10000 1.5 190 20:57 10.12.2019
2660 Clear 24 1012 22 10000 1.5 130 20:37 10.12.2019
2661 Clear 24 1012 22 10000 1.5 130 20:37 10.12.2019
2662 Clouds 24 1012 22 10000 1.5 130 20:19 10.12.2019
2663 Clouds 24 1012 22 10000 1.5 130 20:19 10.12.2019
2664 Clouds 25 1012 22 10000 2.1 130 19:54 10.12.2019
2665 Clouds 24 1012 25 10000 2.79 170 19:36 10.12.2019
2666 Clouds 24 1012 25 10000 2.79 170 19:18 10.12.2019
2667 Clouds 25 1012 22 10000 2.79 170 18:39 10.12.2019
2668 Clouds 25 1012 22 10000 2.79 170 18:39 10.12.2019
2669 Clouds 25 1012 22 10000 2.79 170 18:20 10.12.2019
2670 Clouds 26 1012 21 10000 2.79 170 17:57 10.12.2019
2671 Clouds 26 1012 24 10000 2.79 170 17:39 10.12.2019
2672 Clouds 26 1012 24 10000 4.5 321 17:19 10.12.2019
2673 Clouds 28 1013 20 10000 4.5 321 16:43 10.12.2019
2674 Clouds 28 1013 20 10000 4.5 321 16:20 10.12.2019
2675 Clouds 29 1013 17 10000 0.5 10 15:58 10.12.2019
2676 Clouds 30 1013 17 10000 4.5 321 15:37 10.12.2019
2677 Clouds 30 1013 17 10000 4.5 321 15:18 10.12.2019
2678 Clouds 30 1013 17 10000 4.5 321 15:18 10.12.2019
2679 Clouds 30 1013 17 10000 4.5 321 15:18 10.12.2019
2680 Clouds 30 1013 17 10000 1.5 290 14:55 10.12.2019
2681 Clouds 32 1013 17 10000 2.6 160 14:36 10.12.2019
2682 Clouds 32 1013 17 10000 2.6 160 14:18 10.12.2019
2683 Clouds 32 1013 14 10000 2.6 160 13:56 10.12.2019
2684 Clouds 32 1013 14 10000 2.6 160 13:56 10.12.2019
2685 Clouds 32 1013 14 10000 2.6 160 13:56 10.12.2019
2686 Clouds 33 1013 15 10000 2.6 190 13:37 10.12.2019
2687 Clouds 34 1012 13 10000 1.5 360 13:18 10.12.2019
2688 Clouds 36 1012 12 10000 2.6 240 12:40 10.12.2019
2689 Clouds 36 1012 12 10000 2.6 240 12:40 10.12.2019
2690 Clouds 36 1012 12 10000 2.6 240 12:21 10.12.2019
2691 Clouds 38 1011 9 10000 5.7 10 11:42 10.12.2019
2692 Clouds 38 1011 9 10000 5.7 10 11:23 10.12.2019
2693 Clouds 39 1011 10 10000 4.6 70 10:56 10.12.2019
2694 Clouds 40 1011 8 10000 5.7 110 10:37 10.12.2019
2695 Clouds 40 1011 8 10000 5.7 110 10:19 10.12.2019
2696 Clouds 40 1010 15 10000 6.7 110 09:55 10.12.2019
2697 Clouds 41 1010 15 10000 4.1 130 09:37 10.12.2019
2698 Clouds 41 1010 15 10000 4.1 130 09:18 10.12.2019
2699 Clouds 41 1010 7 10000 5.7 130 08:43 10.12.2019
2700 Clouds 41 1010 7 10000 5.7 130 08:23 10.12.2019
2701 Clouds 41 1010 7 10000 4.6 100 07:58 10.12.2019
2702 Clouds 42 1010 6 10000 3.1 90 07:40 10.12.2019
2703 Clouds 42 1010 6 10000 3.1 90 07:22 10.12.2019
2704 Clouds 42 1011 8 10000 5.7 90 06:46 10.12.2019
2705 Clouds 42 1011 9 10000 2.6 130 06:19 10.12.2019
2706 Clouds 40 1012 10 10000 5.1 130 05:53 10.12.2019
2707 Clear 40 1013 11 10000 4.1 150 04:52 10.12.2019
2708 Clear 38 1014 12 10000 3.1 300 03:36 10.12.2019
2709 Clear 35 1015 12 10000 2.6 120 02:44 10.12.2019
2710 Clear 34 1015 14 10000 3.6 150 01:44 10.12.2019
2711 Clear 34 1016 14 10000 4.1 100 01:20 10.12.2019
2712 Clear 31 1016 16 10000 4.1 110 00:41 10.12.2019
2713 Clear 31 1016 16 10000 4.1 110 00:20 10.12.2019
2714 Clear 30 1015 19 10000 6.7 120 23:41 09.12.2019
2715 Clear 30 1015 19 10000 6.7 120 23:41 09.12.2019
2716 Clear 30 1015 19 10000 6.7 120 23:22 09.12.2019
2717 Clear 28 1015 18 10000 2.1 160 22:58 09.12.2019
2718 Clear 25 1015 14 10000 1.5 190 22:39 09.12.2019
2719 Clear 25 1015 14 10000 1.5 190 22:19 09.12.2019
2720 Clear 24 1015 16 10000 2.1 120 21:56 09.12.2019
2721 Clear 24 1014 14 10000 2.1 70 21:38 09.12.2019
2722 Clear 24 1014 14 10000 2.1 70 21:18 09.12.2019
2723 Clear 25 1014 13 10000 2.6 60 20:56 09.12.2019
2724 Clear 25 1013 13 10000 2.6 350 20:38 09.12.2019
2725 Clear 25 1013 13 10000 2.6 350 20:19 09.12.2019
2726 Clear 25 1013 10 10000 0.5 340 19:55 09.12.2019
2727 Clear 25 1013 9 10000 3.73 62 19:37 09.12.2019
2728 Clear 25 1013 9 10000 3.73 62 19:19 09.12.2019
2729 Clear 26 1013 9 10000 1.5 100 18:55 09.12.2019
2730 Clear 26 1012 9 10000 2.1 130 18:37 09.12.2019
2731 Clear 26 1012 9 10000 2.1 130 18:18 09.12.2019
2732 Clear 25 1012 9 10000 3.1 340 17:56 09.12.2019
2733 Clear 25 1012 8 10000 3.1 150 17:37 09.12.2019
2734 Clear 25 1012 8 10000 3.1 150 17:19 09.12.2019
2735 Clear 25 1012 9 10000 2.1 210 16:55 09.12.2019
2736 Clear 25 1012 9 10000 4.71 94 16:36 09.12.2019
2737 Clear 25 1012 9 10000 4.71 94 16:18 09.12.2019
2738 Clear 26 1012 7 10000 1 320 15:55 09.12.2019
2739 Clear 26 1012 8 10000 2.1 280 15:36 09.12.2019
2740 Clear 26 1012 8 10000 2.1 280 15:36 09.12.2019
2741 Clear 26 1012 8 10000 2.1 280 15:18 09.12.2019
2742 Clear 29 1012 7 10000 4.71 94 14:42 09.12.2019
2743 Clear 29 1012 7 10000 5.56 132 14:19 09.12.2019
2744 Clear 30 1012 7 10000 1 300 13:57 09.12.2019
2745 Clear 31 1012 5 10000 2.1 140 13:38 09.12.2019
2746 Clear 31 1012 5 10000 2.1 140 13:19 09.12.2019
2747 Clear 33 1012 6 10000 3.1 120 12:56 09.12.2019
2748 Clear 35 1012 5 10000 3.6 130 12:37 09.12.2019
2749 Clear 35 1012 5 10000 3.6 130 12:19 09.12.2019
2750 Clear 36 1012 5 10000 3.6 140 11:55 09.12.2019
2751 Clear 38 1011 5 10000 5.1 140 11:36 09.12.2019
2752 Clear 38 1011 5 10000 5.1 140 11:18 09.12.2019
2753 Clear 40 1010 4 10000 6.2 130 10:40 09.12.2019
2754 Clear 40 1010 4 10000 6.2 130 10:20 09.12.2019
2755 Clear 41 1010 4 10000 6.7 130 09:56 09.12.2019
2756 Clear 42 1010 3 10000 6.7 150 09:38 09.12.2019
2757 Clear 42 1010 3 10000 6.7 150 09:20 09.12.2019
2758 Clear 42 1010 4 10000 3.1 50 08:42 09.12.2019
2759 Clear 42 1010 4 10000 3.1 50 08:24 09.12.2019
2760 Clear 42 1010 4 10000 5.7 160 07:53 09.12.2019
2761 Clear 42 1010 4 10000 6.7 110 07:34 09.12.2019
2762 Clear 42 1010 4 10000 5.1 140 06:59 09.12.2019
2763 Clear 41 1011 4 10000 3.1 170 06:37 09.12.2019
2764 Clear 41 1011 4 10000 3.1 170 06:19 09.12.2019
2765 Clear 41 1011 4 10000 5.1 190 05:25 09.12.2019
2766 Clear 41 1012 4 10000 3.1 260 04:29 09.12.2019
2767 Clear 40 1013 3 10000 3.6 10 03:18 09.12.2019
2768 Clear 39 1013 5 10000 4.1 60 01:48 09.12.2019
2769 Clear 38 1014 5 10000 4.1 70 01:28 09.12.2019
2770 Clear 36 1014 6 10000 3.6 120 00:39 09.12.2019
2771 Clear 36 1014 6 10000 3.6 120 00:19 09.12.2019
2772 Clear 32 1013 7 10000 3.1 90 23:39 08.12.2019
2773 Clear 32 1013 7 10000 3.1 90 23:20 08.12.2019
2774 Clear 28 1013 8 10000 3.6 110 22:56 08.12.2019
2775 Clear 23 1012 11 10000 1.5 100 22:38 08.12.2019
2776 Clear 23 1012 11 10000 1.5 100 22:18 08.12.2019
2777 Clear 23 1012 11 10000 6.81 27 21:57 08.12.2019
2778 Clear 23 1012 11 10000 0.5 20 21:38 08.12.2019
2779 Clear 23 1012 11 10000 0.5 20 21:19 08.12.2019
2780 Clear 25 1011 9 10000 2.1 350 20:56 08.12.2019
2781 Clear 22 1011 10 10000 3.1 40 20:37 08.12.2019
2782 Clear 22 1011 10 10000 3.1 40 20:19 08.12.2019
2783 Clear 25 1011 10 10000 6.18 18 19:55 08.12.2019
2784 Clear 25 1011 9 10000 2.6 60 19:37 08.12.2019
2785 Clear 25 1011 9 10000 2.6 60 19:19 08.12.2019
2786 Clear 26 1011 9 10000 3.1 60 18:55 08.12.2019
2787 Clear 27 1011 9 10000 3.1 60 18:36 08.12.2019
2788 Clear 27 1011 9 10000 3.1 60 18:36 08.12.2019
2789 Clear 27 1011 9 10000 3.1 60 18:18 08.12.2019
2790 Clear 27 1011 10 10000 3.6 80 17:55 08.12.2019
2791 Clear 27 1011 10 10000 3.1 70 17:36 08.12.2019
2792 Clear 27 1011 10 10000 3.1 70 17:18 08.12.2019
2793 Clear 28 1011 8 10000 3.1 70 16:55 08.12.2019
2794 Clear 29 1012 9 10000 4.6 70 16:37 08.12.2019
2795 Clear 29 1012 9 10000 4.6 70 16:18 08.12.2019
2796 Clear 30 1012 9 10000 3.6 60 15:38 08.12.2019
2797 Clear 30 1012 9 10000 3.6 60 15:19 08.12.2019
2798 Clear 31 1012 8 10000 3.6 70 14:57 08.12.2019
2799 Clear 32 1012 7 10000 3.6 70 14:38 08.12.2019
2800 Clear 32 1012 7 10000 3.6 70 14:20 08.12.2019
2801 Clear 31 1012 8 10000 3.6 80 13:42 08.12.2019
2802 Clear 31 1012 8 10000 3.6 80 13:23 08.12.2019
2803 Clear 32 1012 8 10000 3.6 100 12:59 08.12.2019
2804 Clear 35 1011 6 10000 4.6 100 12:41 08.12.2019
2805 Clear 35 1011 6 10000 4.6 100 12:41 08.12.2019
2806 Clear 35 1011 6 10000 4.6 100 12:22 08.12.2019
2807 Clear 36 1011 6 10000 4.6 100 11:59 08.12.2019
2808 Clear 38 1011 5 10000 4.1 110 11:38 08.12.2019
2809 Clear 38 1011 5 10000 4.1 110 11:19 08.12.2019
2810 Clear 39 1011 6 10000 4.6 120 10:57 08.12.2019
2811 Clear 40 1010 4 10000 4.6 140 10:38 08.12.2019
2812 Clear 40 1010 4 10000 4.6 140 10:19 08.12.2019
2813 Clear 41 1010 5 10000 6.2 110 09:55 08.12.2019
2814 Clear 41 1010 5 10000 3.6 100 09:37 08.12.2019
2815 Clear 41 1010 5 10000 3.6 100 09:18 08.12.2019
2816 Clear 41 1010 5 10000 5.7 110 08:43 08.12.2019
2817 Clear 41 1010 5 10000 5.7 110 08:23 08.12.2019
2818 Clear 41 1010 5 10000 3.6 110 07:57 08.12.2019
2819 Clear 41 1010 5 10000 6.2 120 07:39 08.12.2019
2820 Clear 41 1010 5 10000 6.2 120 07:18 08.12.2019
2821 Clear 41 1010 5 10000 6.2 120 06:41 08.12.2019
2822 Clear 41 1010 5 10000 6.2 120 06:21 08.12.2019
2823 Clear 40 1011 6 10000 4.1 110 05:26 08.12.2019
2824 Clear 41 1011 5 10000 2.1 220 04:54 08.12.2019
2825 Clear 40 1013 6 10000 5.1 350 03:40 08.12.2019
2826 Clear 39 1013 7 10000 5.1 70 02:46 08.12.2019
2827 Clear 39 1013 7 10000 5.7 20 02:27 08.12.2019
2828 Clear 37 1014 7 10000 4.6 50 01:41 08.12.2019
2829 Clear 36 1014 7 10000 7.2 60 00:56 08.12.2019
2830 Clear 36 1014 7 10000 7.2 60 00:56 08.12.2019
2831 Clear 35 1014 8 10000 7.2 60 00:36 08.12.2019
2832 Clear 34 1014 9 10000 6.2 60 00:18 08.12.2019
2833 Clear 32 1014 10 10000 5.7 50 23:39 07.12.2019
2834 Clear 32 1014 10 10000 5.7 50 23:20 07.12.2019
2835 Clear 32 1014 10 10000 5.7 50 23:20 07.12.2019
2836 Clear 31 1014 10 10000 4.1 50 22:56 07.12.2019
2837 Clear 26 1013 12 10000 1.5 70 22:37 07.12.2019
2838 Clear 26 1013 12 10000 1.5 70 22:19 07.12.2019
2839 Clear 22 1013 13 10000 1 60 21:55 07.12.2019
2840 Clear 21 1013 13 10000 0.5 170 21:37 07.12.2019
2841 Clear 21 1013 13 10000 0.5 170 21:19 07.12.2019
2842 Clear 26 1012 11 10000 2.6 70 20:40 07.12.2019
2843 Clear 26 1012 11 10000 2.6 70 20:20 07.12.2019
2844 Clear 26 1012 11 10000 5.1 40 19:58 07.12.2019
2845 Clear 23 1012 13 10000 2.1 10 19:39 07.12.2019
2846 Clear 23 1012 13 10000 2.1 10 19:21 07.12.2019
2847 Clear 23 1012 13 10000 1.5 10 18:59 07.12.2019
2848 Clear 23 1012 13 10000 2.6 70 18:40 07.12.2019
2849 Clear 23 1012 13 10000 2.6 70 18:18 07.12.2019
2850 Clear 25 1012 11 10000 4.41 58 17:56 07.12.2019
2851 Clear 24 1012 12 10000 2.6 90 17:37 07.12.2019
2852 Clear 24 1012 12 10000 2.6 90 17:19 07.12.2019
2853 Clear 27 1012 10 10000 3.6 80 16:56 07.12.2019
2854 Clear 27 1013 10 10000 3.1 80 16:36 07.12.2019
2855 Clear 27 1013 10 10000 3.1 80 16:18 07.12.2019
2856 Clear 28 1013 10 10000 3.6 70 15:41 07.12.2019
2857 Clear 28 1013 10 10000 3.6 70 15:23 07.12.2019
2858 Clear 28 1013 10 10000 3.6 70 14:56 07.12.2019
2859 Clear 29 1013 9 10000 3.1 70 14:38 07.12.2019
2860 Clear 29 1013 9 10000 3.1 70 14:18 07.12.2019
2861 Clear 31 1013 8 10000 3.6 90 13:40 07.12.2019
2862 Clear 31 1013 8 10000 3.6 90 13:20 07.12.2019
2863 Clear 33 1013 7 10000 3.6 110 12:55 07.12.2019
2864 Clear 34 1012 7 10000 3.6 120 12:37 07.12.2019
2865 Clear 34 1012 7 10000 3.6 120 12:19 07.12.2019
2866 Clear 36 1011 7 10000 4.1 120 11:42 07.12.2019
2867 Clear 36 1011 7 10000 4.1 120 11:24 07.12.2019
2868 Clear 37 1011 6 10000 4.1 130 10:59 07.12.2019
2869 Clear 38 1011 5 10000 6.2 130 10:37 07.12.2019
2870 Clear 38 1011 5 10000 6.2 130 10:19 07.12.2019
2871 Clear 40 1010 4 10000 5.1 40 09:40 07.12.2019
2872 Clear 40 1010 4 10000 5.1 40 09:21 07.12.2019
2873 Clear 39 1010 5 10000 2.6 100 08:47 07.12.2019
2874 Clear 40 1010 4 10000 7.2 100 08:25 07.12.2019
2875 Clear 40 1010 4 10000 5.1 120 07:54 07.12.2019
2876 Clear 40 1011 4 10000 5.1 140 07:30 07.12.2019
2877 Clear 40 1011 4 10000 3.6 200 06:55 07.12.2019
2878 Clear 40 1011 4 10000 4.6 150 06:28 07.12.2019
2879 Clear 40 1012 5 10000 3.6 60 05:50 07.12.2019
2880 Clear 39 1013 6 10000 3.1 20 04:49 07.12.2019
2881 Clear 39 1013 6 10000 3.1 250 03:53 07.12.2019
2882 Clear 37 1014 7 10000 3.6 40 02:50 07.12.2019
2883 Clear 37 1014 7 10000 5.1 60 02:19 07.12.2019
2884 Clear 37 1015 6 10000 5.7 70 01:30 07.12.2019
2885 Clear 34 1015 7 10000 5.7 40 00:43 07.12.2019
2886 Clear 34 1015 7 10000 5.7 40 00:19 07.12.2019
2887 Clear 32 1015 8 10000 3.6 70 23:45 06.12.2019
2888 Clear 28 1015 11 10000 7.04 68 23:23 06.12.2019
2889 Clear 24 1015 13 10000 6.1 57 22:58 06.12.2019
2890 Clear 24 1015 13 10000 6.1 57 22:58 06.12.2019
2891 Clear 21 1015 14 10000 6.1 57 22:37 06.12.2019
2892 Clear 21 1015 14 10000 6.1 57 22:18 06.12.2019
2893 Clear 20 1014 15 10000 1.5 160 21:41 06.12.2019
2894 Clear 20 1014 15 10000 1.5 160 21:21 06.12.2019
2895 Clear 20 1013 14 10000 2.6 130 20:59 06.12.2019
2896 Clear 22 1013 13 10000 2.6 90 20:41 06.12.2019
2897 Clear 22 1013 13 10000 2.6 90 20:21 06.12.2019
2898 Clear 22 1013 13 10000 2.6 90 19:54 06.12.2019
2899 Clear 22 1013 14 10000 2.1 120 19:36 06.12.2019
2900 Clear 22 1013 14 10000 2.1 120 19:18 06.12.2019
2901 Clear 21 1012 14 10000 2.6 120 18:44 06.12.2019
2902 Clear 22 1012 12 10000 2.1 130 18:23 06.12.2019
2903 Clear 26 1012 11 10000 2.1 90 17:58 06.12.2019
2904 Clear 26 1013 10 10000 2.6 50 17:40 06.12.2019
2905 Clear 26 1013 10 10000 2.6 50 17:40 06.12.2019
2906 Clear 26 1013 10 10000 2.6 50 17:22 06.12.2019
2907 Clear 28 1013 10 10000 3.6 40 16:58 06.12.2019
2908 Clear 27 1013 10 10000 3.1 50 16:39 06.12.2019
2909 Clear 27 1013 10 10000 3.1 50 16:21 06.12.2019
2910 Clear 25 1014 12 10000 3.1 40 15:41 06.12.2019
2911 Clear 25 1014 12 10000 3.1 40 15:23 06.12.2019
2912 Clear 26 1014 11 10000 1.5 40 14:58 06.12.2019
2913 Clear 26 1015 10 10000 2.6 50 14:40 06.12.2019
2914 Clear 26 1015 10 10000 2.6 50 14:20 06.12.2019
2915 Clear 28 1015 10 10000 2.1 70 13:55 06.12.2019
2916 Clear 29 1014 9 10000 2.6 90 13:37 06.12.2019
2917 Clear 29 1014 9 10000 2.6 90 13:19 06.12.2019
2918 Clear 32 1014 8 10000 3.1 110 12:39 06.12.2019
2919 Clear 32 1014 8 10000 3.1 110 12:21 06.12.2019
2920 Clear 34 1013 7 10000 3.6 130 11:43 06.12.2019
2921 Clear 34 1013 7 10000 3.6 130 11:23 06.12.2019
2922 Clear 35 1013 6 10000 5.1 130 10:57 06.12.2019
2923 Clear 36 1012 7 10000 5.7 100 10:38 06.12.2019
2924 Clear 36 1012 7 10000 5.7 100 10:20 06.12.2019
2925 Clear 37 1012 7 10000 6.2 150 09:56 06.12.2019
2926 Clear 37 1012 7 10000 5.7 150 09:37 06.12.2019
2927 Clear 37 1012 7 10000 5.7 150 09:19 06.12.2019
2928 Clear 37 1012 7 10000 5.7 150 09:19 06.12.2019
2929 Clear 38 1012 6 10000 5.1 120 08:43 06.12.2019
2930 Clear 38 1012 5 10000 6.7 140 08:25 06.12.2019
2931 Clear 38 1012 5 10000 6.7 140 07:42 06.12.2019
2932 Clear 38 1012 5 10000 6.7 140 07:22 06.12.2019
2933 Clear 38 1012 5 10000 5.1 110 06:53 06.12.2019
2934 Clear 38 1013 5 10000 6.7 150 06:25 06.12.2019
2935 Clear 39 1013 6 10000 6.2 130 05:51 06.12.2019
2936 Clear 37 1014 5 10000 6.7 100 03:50 06.12.2019
2937 Clear 35 1015 6 10000 4.6 110 01:46 06.12.2019
2938 Clear 32 1016 8 10000 3.1 80 00:56 06.12.2019
2939 Clear 31 1016 8 10000 6.21 94 00:24 06.12.2019
2940 Clear 28 1016 8 10000 6.21 94 23:52 05.12.2019
2941 Clear 25 1015 10 10000 2.1 310 23:21 05.12.2019
2942 Clear 21 1015 12 10000 0.5 150 22:59 05.12.2019
2943 Clear 19 1015 13 10000 2.1 200 22:39 05.12.2019
2944 Clear 19 1015 13 10000 2.1 200 22:39 05.12.2019
2945 Clear 19 1015 13 10000 2.1 200 22:20 05.12.2019
2946 Clear 18 1014 15 10000 1 250 21:58 05.12.2019
2947 Clear 18 1014 15 10000 2.1 260 21:40 05.12.2019
2948 Clear 18 1014 15 10000 2.1 260 21:21 05.12.2019
2949 Clear 18 1013 13 10000 2.6 300 20:57 05.12.2019
2950 Clear 18 1013 13 10000 2.6 290 20:38 05.12.2019
2951 Clouds 18 1013 13 10000 2.6 290 20:19 05.12.2019
2952 Clouds 18 1013 13 10000 3.1 290 19:43 05.12.2019
2953 Clouds 18 1013 13 10000 2.6 290 19:25 05.12.2019
2954 Clouds 18 1013 12 10000 4.06 67 18:59 05.12.2019
2955 Clouds 19 1013 13 10000 1 320 18:39 05.12.2019
2956 Clouds 19 1013 13 10000 1 320 18:20 05.12.2019
2957 Clouds 20 1013 12 10000 4.06 67 17:55 05.12.2019
2958 Clouds 20 1013 12 10000 4.06 67 17:37 05.12.2019
2959 Clouds 20 1013 12 10000 5.56 80 17:18 05.12.2019
2960 Clouds 25 1014 9 10000 2.6 110 16:40 05.12.2019
2961 Clouds 25 1014 9 10000 2.6 110 16:40 05.12.2019
2962 Clouds 25 1014 9 10000 2.6 110 16:22 05.12.2019
2963 Clouds 26 1014 9 10000 3.6 90 15:59 05.12.2019
2964 Clouds 26 1014 9 10000 3.6 100 15:40 05.12.2019
2965 Clouds 26 1014 9 10000 3.6 100 15:21 05.12.2019
2966 Clouds 26 1014 9 10000 2.6 100 14:57 05.12.2019
2967 Clouds 26 1014 9 10000 3.1 80 14:38 05.12.2019
2968 Clouds 26 1014 9 10000 3.1 80 14:20 05.12.2019
2969 Clouds 26 1014 9 10000 3.6 70 13:58 05.12.2019
2970 Clouds 28 1014 8 10000 2.1 60 13:40 05.12.2019
2971 Clouds 28 1014 8 10000 2.1 60 13:21 05.12.2019
2972 Clouds 29 1014 7 10000 3.1 100 12:59 05.12.2019
2973 Clouds 31 1014 8 10000 3.6 120 12:40 05.12.2019
2974 Clouds 31 1014 8 10000 3.6 120 12:21 05.12.2019
2975 Clouds 33 1013 6 10000 3.6 130 11:41 05.12.2019
2976 Clear 33 1013 6 10000 3.6 130 11:22 05.12.2019
2977 Clear 34 1013 7 10000 5.1 140 10:59 05.12.2019
2978 Clear 34 1013 7 10000 5.1 140 10:41 05.12.2019
2979 Clear 35 1013 6 10000 4.1 140 10:19 05.12.2019
2980 Clear 35 1013 6 10000 4.1 140 10:19 05.12.2019
2981 Clear 36 1012 6 10000 6.7 170 09:57 05.12.2019
2982 Clear 37 1012 5 10000 7.2 160 09:38 05.12.2019
2983 Clear 37 1012 5 10000 7.2 160 09:20 05.12.2019
2984 Clear 37 1012 5 10000 7.2 160 09:20 05.12.2019
2985 Clear 36 1012 6 10000 5.1 150 08:56 05.12.2019
2986 Clear 37 1012 5 10000 4.6 160 08:37 05.12.2019
2987 Clear 37 1012 5 10000 4.6 160 08:18 05.12.2019
2988 Clear 37 1012 5 10000 4.6 160 08:18 05.12.2019
2989 Clear 36 1013 7 10000 6.2 130 07:41 05.12.2019
2990 Clear 36 1013 7 10000 6.2 130 07:22 05.12.2019
2991 Clear 38 1013 6 10000 5.7 130 06:48 05.12.2019
2992 Clear 37 1013 5 10000 5.1 200 06:24 05.12.2019
2993 Clear 37 1014 6 10000 5.7 110 05:54 05.12.2019
2994 Clear 36 1014 7 10000 3.6 160 05:24 05.12.2019
2995 Clear 35 1015 6 10000 2.6 140 04:40 05.12.2019
2996 Clear 35 1016 6 10000 6.2 110 03:35 05.12.2019
2997 Clear 34 1016 7 10000 4.6 50 02:42 05.12.2019
2998 Clear 34 1016 7 10000 5.1 70 02:22 05.12.2019
2999 Clear 33 1017 7 10000 3.6 10 01:51 05.12.2019
3000 Clear 32 1017 8 10000 5.1 60 01:23 05.12.2019
3001 Clear 31 1017 8 10000 4.6 70 00:44 05.12.2019
3002 Clear 30 1017 8 10000 4.1 50 00:20 05.12.2019
3003 Clear 27 1017 10 10000 4.76 87 23:46 04.12.2019
3004 Clear 24 1017 12 10000 4.28 44 23:22 04.12.2019
3005 Clear 21 1017 14 10000 4.28 44 22:59 04.12.2019
3006 Clear 18 1016 17 10000 4.28 44 22:38 04.12.2019
3007 Clear 18 1016 17 10000 4.28 44 22:19 04.12.2019
3008 Clear 15 1016 21 10000 4.28 44 21:57 04.12.2019
3009 Clear 15 1015 19 10000 4.28 44 21:38 04.12.2019
3010 Clear 15 1015 19 10000 4.28 44 21:19 04.12.2019
3011 Clear 16 1015 18 10000 2.6 300 20:56 04.12.2019
3012 Clear 16 1015 18 10000 2.1 260 20:38 04.12.2019
3013 Clouds 16 1015 18 10000 2.1 260 20:20 04.12.2019
3014 Clouds 17 1015 17 10000 1.5 200 19:42 04.12.2019
3015 Clouds 17 1014 17 10000 2.1 260 19:24 04.12.2019
3016 Clouds 18 1014 16 10000 4.34 75 18:59 04.12.2019
3017 Clouds 18 1014 16 10000 4.34 75 18:41 04.12.2019
3018 Clouds 18 1015 18 10000 1 350 18:22 04.12.2019
3019 Clouds 18 1015 18 10000 1 350 18:22 04.12.2019
3020 Clouds 18 1015 17 10000 1 10 17:58 04.12.2019
3021 Clouds 19 1015 15 10000 4.34 75 17:39 04.12.2019
3022 Clouds 19 1015 15 10000 4.72 84 17:19 04.12.2019
3023 Clouds 20 1016 14 10000 0.5 190 16:54 04.12.2019
3024 Clouds 20 1016 13 10000 4.72 84 16:36 04.12.2019
3025 Clouds 20 1016 13 10000 4.72 84 16:18 04.12.2019
3026 Clouds 21 1016 13 10000 4.72 84 15:42 04.12.2019
3027 Clouds 22 1016 13 10000 4.72 84 15:21 04.12.2019
3028 Clouds 22 1016 12 10000 2.1 110 15:00 04.12.2019
3029 Clouds 22 1016 12 10000 2.1 110 14:41 04.12.2019
3030 Clouds 24 1016 12 10000 2.6 100 14:21 04.12.2019
3031 Clouds 25 1016 11 10000 2.6 110 13:56 04.12.2019
3032 Clouds 26 1016 10 10000 3.1 120 13:36 04.12.2019
3033 Clouds 26 1016 10 10000 3.1 120 13:18 04.12.2019
3034 Clouds 27 1016 10 10000 3.1 130 12:42 04.12.2019
3035 Clouds 28 1016 10 10000 3.6 120 12:23 04.12.2019
3036 Clouds 29 1015 9 10000 3.6 130 11:44 04.12.2019
3037 Clouds 29 1015 9 10000 3.6 130 11:44 04.12.2019
3038 Clouds 31 1015 8 10000 3.6 130 11:26 04.12.2019
3039 Clear 32 1015 8 10000 4.1 130 10:58 04.12.2019
3040 Clear 33 1014 8 10000 4.6 140 10:40 04.12.2019
3041 Clear 33 1014 8 10000 4.6 140 10:22 04.12.2019
3042 Clear 34 1014 7 10000 3.1 150 09:44 04.12.2019
3043 Clear 34 1014 7 10000 4.1 190 09:24 04.12.2019
3044 Clear 34 1014 7 10000 3.6 130 08:54 04.12.2019
3045 Clear 35 1014 8 10000 5.7 220 08:36 04.12.2019
3046 Clear 35 1014 8 10000 5.7 220 08:18 04.12.2019
3047 Clear 34 1014 7 10000 3.1 220 07:41 04.12.2019
3048 Clear 34 1014 7 10000 3.1 220 07:22 04.12.2019
3049 Clear 35 1015 8 10000 5.7 160 06:33 04.12.2019
3050 Clear 35 1015 10 10000 6.2 130 05:47 04.12.2019
3051 Clear 33 1016 11 10000 4.6 120 04:39 04.12.2019
3052 Clear 32 1017 11 10000 4.6 150 03:53 04.12.2019
3053 Clear 30 1018 16 10000 6.7 140 02:19 04.12.2019
3054 Clear 28 1018 18 10000 7.7 80 00:50 04.12.2019
3055 Clear 27 1018 19 10000 7.2 90 00:22 04.12.2019
3056 Clear 26 1018 21 10000 7.2 90 23:56 03.12.2019
3057 Clear 25 1018 22 10000 7.7 90 23:37 03.12.2019
3058 Clear 25 1018 22 10000 7.7 90 23:18 03.12.2019
3059 Clear 22 1018 31 10000 4.6 110 22:39 03.12.2019
3060 Clear 22 1018 31 10000 4.6 110 22:18 03.12.2019
3061 Clear 21 1017 31 10000 4.6 110 21:57 03.12.2019
3062 Clear 21 1016 31 10000 4.6 120 21:37 03.12.2019
3063 Clear 21 1016 31 10000 4.6 120 21:18 03.12.2019
3064 Clear 19 1016 25 10000 4.6 130 20:54 03.12.2019
3065 Clear 19 1016 25 10000 4.1 130 20:36 03.12.2019
3066 Clear 19 1016 25 10000 4.1 130 20:18 03.12.2019
3067 Clear 20 1016 24 10000 4.6 120 19:54 03.12.2019
3068 Clear 20 1016 24 10000 4.6 120 19:54 03.12.2019
3069 Clear 18 1016 25 10000 3.1 140 19:36 03.12.2019
3070 Clear 18 1016 25 10000 3.1 140 19:18 03.12.2019
3071 Clear 19 1016 25 10000 2.6 120 18:55 03.12.2019
3072 Clear 20 1016 22 10000 2.6 100 18:36 03.12.2019
3073 Clear 20 1016 22 10000 2.6 100 18:18 03.12.2019
3074 Clear 20 1016 24 10000 2.1 90 17:40 03.12.2019
3075 Clear 20 1016 24 10000 2.1 90 17:19 03.12.2019
3076 Clear 21 1016 22 10000 2.6 120 16:59 03.12.2019
3077 Clear 21 1017 22 10000 2.6 80 16:39 03.12.2019
3078 Clear 21 1017 22 10000 2.6 80 16:21 03.12.2019
3079 Clear 22 1017 21 10000 3.1 90 15:58 03.12.2019
3080 Clear 22 1017 21 10000 2.6 80 15:38 03.12.2019
3081 Clear 22 1017 21 10000 2.6 80 15:19 03.12.2019
3082 Clear 24 1017 19 10000 3.1 60 14:44 03.12.2019
3083 Clear 25 1017 17 10000 3.1 110 14:21 03.12.2019
3084 Clear 26 1017 16 10000 3.1 110 13:59 03.12.2019
3085 Clear 26 1016 16 10000 3.6 130 13:38 03.12.2019
3086 Clear 26 1016 16 10000 3.6 130 13:19 03.12.2019
3087 -273 0 0 0 0 0 12:56 03.12.2019
3088 Clear 28 1016 15 10000 3.6 140 12:36 03.12.2019
3089 Clear 28 1016 15 10000 3.6 140 12:18 03.12.2019
3090 Clear 29 1016 14 10000 3.6 130 11:55 03.12.2019
3091 Clear 29 1016 14 10000 3.6 130 11:54 03.12.2019
3092 Clear 30 1015 13 10000 4.6 140 11:36 03.12.2019
3093 Clear 30 1015 13 10000 4.6 140 11:18 03.12.2019
3094 Clear 31 1015 14 10000 4.6 150 10:42 03.12.2019
3095 Clear 31 1014 14 10000 6.2 110 10:21 03.12.2019
3096 Clear 32 1014 14 10000 5.1 140 09:57 03.12.2019
3097 Clear 32 1014 14 10000 4.6 190 09:39 03.12.2019
3098 Clear 32 1014 14 10000 4.6 190 09:20 03.12.2019
3099 Clear 33 1014 14 10000 5.7 190 08:41 03.12.2019
3100 Clear 33 1014 13 10000 4.6 150 08:41 03.12.2019
3101 Clear 33 1014 14 10000 5.7 190 08:22 03.12.2019
3102 Clear 33 1014 13 10000 6.2 160 07:57 03.12.2019
3103 Clear 32 1014 13 10000 4.1 160 07:39 03.12.2019
3104 Clear 32 1014 13 10000 4.1 160 07:20 03.12.2019
3105 Clear 32 1014 13 10000 4.6 150 06:23 03.12.2019
3106 Clear 32 1014 14 10000 8.2 170 05:58 03.12.2019
3107 Clear 31 1015 18 10000 5.7 180 04:49 03.12.2019
3108 Clear 30 1016 23 10000 5.7 160 03:38 03.12.2019
3109 Clear 30 1016 23 10000 5.7 160 03:18 03.12.2019
3110 Clear 29 1017 25 10000 5.7 160 02:45 03.12.2019
3111 Clear 28 1017 26 10000 5.7 150 02:25 03.12.2019
3112 Clear 28 1017 26 10000 5.7 160 01:42 03.12.2019
3113 Clear 27 1017 28 10000 6.7 140 01:23 03.12.2019
3114 Clear 27 1018 30 10000 6.2 140 00:54 03.12.2019
3115 Clear 25 1017 31 10000 7.2 140 00:36 03.12.2019
3116 Clear 25 1017 31 10000 7.2 140 00:18 03.12.2019
3117 Clear 25 1017 31 10000 7.7 140 23:41 02.12.2019
3118 Clear 25 1017 33 10000 6.7 130 23:19 02.12.2019
3119 Clear 25 1017 33 10000 6.7 130 23:19 02.12.2019
3120 Clear 21 1017 43 10000 3.6 150 22:41 02.12.2019
3121 Clear 21 1017 43 10000 3.6 150 22:22 02.12.2019
3122 Clear 19 1016 45 10000 3.6 160 21:58 02.12.2019
3123 Clear 18 1016 45 10000 4.1 190 21:37 02.12.2019
3124 Clear 18 1016 45 10000 4.1 190 21:37 02.12.2019
3125 Clear 18 1016 45 10000 4.1 190 21:18 02.12.2019
3126 Clear 18 1016 45 10000 2.1 190 20:56 02.12.2019
3127 Clear 19 1016 45 10000 5.61 144 20:38 02.12.2019
3128 Clear 19 1016 45 10000 5.21 126 20:19 02.12.2019
3129 Clear 19 1016 45 10000 5.21 126 20:19 02.12.2019
3130 Clear 21 1015 40 10000 2.6 130 19:42 02.12.2019
3131 Clear 22 1015 40 10000 3.6 120 19:22 02.12.2019
3132 Clear 23 1015 38 10000 4.1 120 18:59 02.12.2019
3133 Clear 23 1015 35 10000 4.6 100 18:39 02.12.2019
3134 Clear 23 1015 35 10000 4.6 100 18:19 02.12.2019
3135 Clear 23 1015 33 10000 4.1 120 17:57 02.12.2019
3136 Clear 23 1015 33 10000 4.1 120 17:39 02.12.2019
3137 Clear 23 1015 33 10000 4.1 120 17:19 02.12.2019
3138 Clear 23 1015 31 10000 2.6 90 16:40 02.12.2019
3139 Clear 23 1015 31 10000 2.6 90 16:19 02.12.2019
3140 Clear 23 1015 31 10000 2.6 60 15:58 02.12.2019
3141 Clear 24 1015 29 10000 2.6 110 15:39 02.12.2019
3142 Clear 24 1015 29 10000 2.6 110 15:39 02.12.2019
3143 Clear 24 1015 29 10000 2.6 110 15:21 02.12.2019
3144 Clear 24 1015 29 10000 2.6 100 14:56 02.12.2019
3145 Clear 25 1015 25 10000 3.1 120 14:37 02.12.2019
3146 Clear 25 1015 25 10000 3.1 120 14:19 02.12.2019
3147 Clear 26 1015 24 10000 3.1 140 13:56 02.12.2019
3148 Clear 27 1014 24 10000 3.6 130 13:38 02.12.2019
3149 Clear 27 1014 24 10000 3.6 130 13:19 02.12.2019
3150 Clear 28 1014 21 10000 3.6 150 12:42 02.12.2019
3151 Clear 28 1013 21 10000 3.6 140 12:21 02.12.2019
3152 Clear 29 1013 20 10000 3.6 150 11:58 02.12.2019
3153 Clear 30 1013 19 10000 4.1 150 11:38 02.12.2019
3154 Clear 30 1013 19 10000 4.1 150 11:19 02.12.2019
3155 Clear 30 1012 19 10000 3.6 160 10:57 02.12.2019
3156 Clear 30 1012 19 10000 3.6 160 10:57 02.12.2019
3157 Clear 31 1012 18 10000 4.6 180 10:39 02.12.2019
3158 Clear 31 1012 18 10000 4.6 180 10:21 02.12.2019
3159 Clear 31 1012 18 10000 4.6 180 10:21 02.12.2019
3160 Clear 32 1012 17 10000 6.2 170 09:55 02.12.2019
3161 Clear 32 1012 15 10000 4.1 200 09:37 02.12.2019
3162 Clear 32 1012 15 10000 4.1 200 09:18 02.12.2019
3163 Clear 32 1011 17 10000 4.1 210 08:41 02.12.2019
3164 Clear 32 1011 17 10000 4.1 210 08:23 02.12.2019
3165 Clear 32 1012 17 10000 7.7 140 07:59 02.12.2019
3166 Clear 31 1012 18 10000 4.6 180 07:37 02.12.2019
3167 Clear 31 1012 18 10000 4.6 180 07:18 02.12.2019
3168 Clear 30 1013 19 10000 6.2 180 06:39 02.12.2019
3169 Clear 31 1013 19 10000 5.7 180 05:43 02.12.2019
3170 Clear 30 1014 19 10000 5.1 150 04:59 02.12.2019
3171 Clear 28 1015 24 10000 5.7 180 03:19 02.12.2019
3172 Clear 28 1015 26 10000 6.2 200 02:45 02.12.2019
3173 Clear 26 1016 29 10000 6.2 190 01:45 02.12.2019
3174 Clear 25 1016 31 10000 6.7 180 01:18 02.12.2019
3175 Clear 24 1016 33 10000 6.2 170 00:33 02.12.2019
3176 Clear 24 1016 33 10000 6.2 170 23:57 01.12.2019
3177 Clear 24 1016 33 10000 6.2 170 23:57 01.12.2019
3178 Clear 22 1016 33 10000 4.6 170 23:39 01.12.2019
3179 Clear 22 1016 33 10000 4.6 170 23:20 01.12.2019
3180 Clear 20 1016 30 10000 2.6 240 22:56 01.12.2019
3181 Clear 19 1016 29 10000 2.1 230 22:38 01.12.2019
3182 Clear 19 1016 29 10000 2.1 230 22:18 01.12.2019
3183 Clear 16 1015 31 10000 2.1 270 21:56 01.12.2019
3184 Clear 16 1015 57 10000 2.6 280 21:38 01.12.2019
3185 Clear 16 1015 57 10000 2.6 280 21:38 01.12.2019
3186 Clear 16 1015 57 10000 2.6 280 21:19 01.12.2019
3187 Clear 17 1015 29 10000 2.6 290 20:56 01.12.2019
3188 Clear 16 1015 29 10000 2.6 300 20:37 01.12.2019
3189 Clear 16 1015 29 10000 2.6 300 20:19 01.12.2019
3190 Clear 16 1014 29 10000 3.1 260 19:55 01.12.2019
3191 Clear 17 1014 25 10000 2.6 260 19:36 01.12.2019
3192 Clear 17 1014 25 10000 2.6 260 19:36 01.12.2019
3193 Clear 17 1014 25 10000 2.6 260 19:18 01.12.2019
3194 Clear 17 1014 25 10000 2.6 260 19:18 01.12.2019
3195 Clear 17 1014 27 10000 2.6 290 18:55 01.12.2019
3196 Clear 17 1014 27 10000 2.6 290 18:55 01.12.2019
3197 Clear 17 1015 25 10000 2.6 310 18:36 01.12.2019
3198 Clear 17 1015 25 10000 2.6 310 18:18 01.12.2019
3199 Clear 18 1015 25 10000 1 300 17:55 01.12.2019
3200 Clear 17 1015 25 10000 5.18 174 17:37 01.12.2019
3201 Clear 17 1015 25 10000 5.18 174 17:37 01.12.2019
3202 Clear 17 1015 25 10000 3.99 157 17:19 01.12.2019
3203 Clear 19 1015 22 10000 2.1 230 16:42 01.12.2019
3204 Clear 19 1015 22 10000 2.1 230 16:23 01.12.2019
3205 Clear 20 1015 20 10000 1.5 210 15:51 01.12.2019
3206 Clear 20 1015 20 10000 1.5 190 15:33 01.12.2019
3207 Clear 20 1015 20 10000 1.5 190 15:33 01.12.2019
3208 Clear 20 1015 20 10000 1.5 190 15:33 01.12.2019
3209 Clear 19 1015 20 10000 2.1 180 14:58 01.12.2019
3210 Clear 19 1015 20 10000 2.1 180 14:58 01.12.2019
3211 Clear 19 1015 20 10000 2.1 180 14:58 01.12.2019
3212 Clear 20 1015 19 10000 2.6 170 14:37 01.12.2019
3213 Clear 20 1015 19 10000 2.6 170 14:18 01.12.2019
3214 Clear 22 1015 17 10000 2.1 180 13:40 01.12.2019
3215 Clear 22 1015 17 10000 2.1 180 13:21 01.12.2019
3216 Clear 23 1015 16 10000 2.1 210 12:46 01.12.2019
3217 Clear 24 1014 16 10000 2.1 190 12:18 01.12.2019
3218 Clear 24 1014 16 10000 2.1 190 12:18 01.12.2019
3219 Clear 24 1014 16 10000 2.1 190 12:18 01.12.2019
3220 Clear 24 1014 16 10000 2.1 190 12:18 01.12.2019
3221 Clear 24 1014 16 10000 2.1 190 12:18 01.12.2019
3222 Clear 25 1014 14 10000 2.6 170 11:43 01.12.2019
3223 Clear 25 1014 14 10000 2.6 170 11:43 01.12.2019
3224 Clear 26 1014 13 10000 4.1 190 11:43 01.12.2019
3225 Clear 26 1014 13 10000 4.1 190 11:43 01.12.2019
3226 Clear 26 1014 13 10000 4.1 190 11:24 01.12.2019
3227 Clear 26 1014 13 10000 4.1 190 11:24 01.12.2019
3228 Clear 27 1014 12 10000 4.6 170 10:45 01.12.2019
3229 Clear 28 1014 12 10000 4.6 180 10:22 01.12.2019
3230 Clear 29 1014 11 10000 5.7 190 09:59 01.12.2019
3231 Clear 29 1014 11 10000 4.6 190 09:40 01.12.2019
3232 Clear 29 1014 11 10000 4.6 190 09:20 01.12.2019
3233 Clear 29 1014 12 10000 5.1 230 08:48 01.12.2019
3234 Clear 29 1014 12 10000 4.6 170 08:20 01.12.2019
3235 Clear 29 1014 13 10000 4.6 190 07:52 01.12.2019
3236 Clear 28 1014 13 10000 4.1 220 07:31 01.12.2019
3237 Clear 29 1014 14 10000 5.1 190 06:57 01.12.2019
3238 Clear 29 1015 14 10000 4.6 190 06:35 01.12.2019
3239 Clear 28 1015 15 10000 4.6 170 05:49 01.12.2019
3240 Clear 27 1016 18 10000 5.1 230 04:51 01.12.2019
3241 Clear 25 1017 22 10000 4.6 180 03:23 01.12.2019
3242 Clear 24 1018 25 10000 5.1 130 02:36 01.12.2019
3243 Clear 24 1018 25 10000 5.1 130 02:18 01.12.2019
3244 Clear 23 1018 27 10000 4.6 150 01:51 01.12.2019
3245 Clear 22 1018 28 10000 5.7 120 01:24 01.12.2019
3246 Clear 21 1018 30 10000 5.7 140 00:41 01.12.2019
3247 Clear 21 1018 30 10000 5.7 140 00:23 01.12.2019
3248 Clear 18 1018 42 10000 2.6 170 23:42 30.11.2019
3249 Clear 18 1018 42 10000 2.6 170 23:23 30.11.2019
3250 Clear 17 1018 45 10000 2.6 220 22:50 30.11.2019
3251 Clear 15 1017 54 10000 1.5 260 22:30 30.11.2019
3252 Clear 13 1017 62 10000 2.1 280 21:59 30.11.2019
3253 Clear 13 1017 62 10000 2.1 280 21:41 30.11.2019
3254 Clear 13 1017 62 10000 2.1 280 21:41 30.11.2019
3255 Clear 13 1017 62 10000 2.1 280 21:23 30.11.2019
3256 Clear 13 1016 62 10000 2.1 310 20:55 30.11.2019
3257 Clear 14 1016 62 10000 1 250 20:37 30.11.2019
3258 Clear 14 1016 62 10000 1 250 20:19 30.11.2019
3259 Clear 14 1016 58 10000 2.1 230 19:55 30.11.2019
3260 Clear 15 1016 58 10000 1.5 210 19:37 30.11.2019
3261 Clear 15 1016 58 10000 1.5 210 19:18 30.11.2019
3262 Clear 15 1016 58 10000 1.5 210 19:18 30.11.2019
3263 Clear 15 1016 58 10000 2.6 220 18:56 30.11.2019
3264 Clear 15 1016 58 10000 7.13 151 18:37 30.11.2019
3265 Clear 15 1016 58 10000 7.13 151 18:37 30.11.2019
3266 Clear 15 1016 58 10000 7.13 151 18:18 30.11.2019
3267 Clear 16 1016 55 10000 2.1 210 17:56 30.11.2019
3268 Clear 16 1016 55 10000 2.1 210 17:56 30.11.2019
3269 Clear 16 1017 55 10000 1.5 170 17:37 30.11.2019
3270 Clear 16 1017 55 10000 1.5 170 17:19 30.11.2019
3271 Clouds 17 1017 51 10000 1.5 130 16:42 30.11.2019
3272 Clouds 18 1017 48 10000 3.6 160 16:23 30.11.2019
3273 Clouds 18 1017 48 10000 4.1 160 15:58 30.11.2019
3274 Clear 18 1018 48 10000 5.7 160 15:40 30.11.2019
3275 Clear 18 1018 48 10000 5.7 160 15:19 30.11.2019
3276 Clear 18 1018 48 10000 5.7 160 15:19 30.11.2019
3277 Clouds 19 1018 42 10000 6.2 170 14:56 30.11.2019
3278 Clear 20 1017 42 10000 6.7 160 14:37 30.11.2019
3279 Clear 20 1017 42 10000 6.7 160 14:18 30.11.2019
3280 Clouds 21 1017 40 10000 5.1 150 13:56 30.11.2019
3281 Clouds 21 1017 37 10000 5.7 150 13:36 30.11.2019
3282 Clouds 21 1017 37 10000 5.7 150 13:18 30.11.2019
3283 Clouds 21 1017 37 10000 5.7 150 13:18 30.11.2019
3284 Clouds 22 1017 35 10000 5.1 150 12:42 30.11.2019
3285 Clouds 23 1016 33 10000 4.6 150 12:24 30.11.2019
3286 Clouds 23 1016 35 10000 5.1 160 11:43 30.11.2019
3287 Clear 23 1015 35 10000 4.6 140 11:20 30.11.2019
3288 Clouds 24 1015 33 10000 4.6 140 10:56 30.11.2019
3289 Clouds 24 1015 33 10000 4.6 140 10:38 30.11.2019
3290 Clouds 24 1015 33 10000 4.6 140 10:19 30.11.2019
3291 Clouds 24 1016 36 10000 4.6 130 09:46 30.11.2019
3292 Clouds 24 1016 36 10000 4.6 130 09:27 30.11.2019
3293 Clouds 24 1015 36 10000 5.1 130 08:44 30.11.2019
3294 Clouds 25 1016 36 10000 6.2 170 08:22 30.11.2019
3295 Clouds 24 1016 38 10000 6.7 170 07:58 30.11.2019
3296 Clouds 24 1016 41 10000 6.2 160 07:39 30.11.2019
3297 Clouds 24 1016 41 10000 6.2 160 07:20 30.11.2019
3298 Rain 24 1016 50 10000 8.7 180 06:30 30.11.2019
3299 Rain 25 1017 41 10000 7.2 200 05:53 30.11.2019
3300 Clouds 26 1017 34 10000 8.2 190 03:53 30.11.2019
3301 Dust 28 1017 30 7000 8.7 170 02:47 30.11.2019
3302 Dust 27 1017 32 10000 8.7 190 02:22 30.11.2019
3303 Dust 25 1018 31 7000 9.3 180 01:25 30.11.2019
3304 Clouds 26 1017 29 10000 8.2 140 00:51 30.11.2019
3305 Clouds 26 1016 27 10000 8.2 160 00:32 30.11.2019
3306 Clouds 26 1016 27 10000 8.2 130 00:00 30.11.2019
3307 Clouds 26 1016 26 10000 7.2 150 23:41 29.11.2019
3308 Clouds 26 1016 26 10000 7.2 150 23:22 29.11.2019
3309 Clouds 26 1015 26 10000 8.2 140 22:46 29.11.2019
3310 Clouds 26 1015 27 10000 6.2 140 22:26 29.11.2019
3311 Clouds 27 1014 26 10000 6.7 150 21:45 29.11.2019
3312 Clouds 27 1013 26 10000 6.2 140 21:25 29.11.2019
3313 Clouds 28 1013 26 10000 5.1 160 20:58 29.11.2019
3314 Clouds 29 1013 25 10000 6.2 140 20:38 29.11.2019
3315 Clouds 29 1013 25 10000 6.2 140 20:19 29.11.2019
3316 Clouds 29 1012 26 10000 5.7 180 19:58 29.11.2019
3317 Clouds 29 1012 25 10000 5.1 200 19:39 29.11.2019
3318 Clouds 29 1012 25 10000 5.1 200 19:19 29.11.2019
3319 Clouds 30 1012 23 10000 3.1 220 18:55 29.11.2019
3320 Clouds 30 1012 25 10000 2.6 210 18:37 29.11.2019
3321 Clouds 30 1012 25 10000 2.6 210 18:37 29.11.2019
3322 Clouds 30 1012 25 10000 2.6 210 18:37 29.11.2019
3323 Clouds 30 1012 25 10000 2.6 210 18:19 29.11.2019
3324 Clouds 30 1012 22 10000 2.6 160 17:43 29.11.2019
3325 Clouds 30 1011 22 10000 4.1 170 17:24 29.11.2019
3326 Clouds 31 1011 20 10000 5.1 170 16:56 29.11.2019
3327 Clouds 31 1012 20 10000 5.1 180 16:37 29.11.2019
3328 Clouds 31 1012 20 10000 5.1 180 16:18 29.11.2019
3329 Clouds 31 1012 19 10000 3.6 170 15:40 29.11.2019
3330 Clouds 31 1012 19 10000 2.1 160 15:22 29.11.2019
3331 Clouds 32 1012 18 10000 2.6 220 14:55 29.11.2019
3332 Clouds 33 1012 16 10000 3.6 240 14:37 29.11.2019
3333 Clouds 33 1012 16 10000 3.6 240 14:18 29.11.2019
3334 Clouds 33 1011 15 10000 3.6 140 13:40 29.11.2019
3335 Clouds 33 1011 15 10000 3.6 140 13:20 29.11.2019
3336 Clouds 34 1011 15 10000 4.6 150 12:56 29.11.2019
3337 Clouds 34 1011 16 10000 4.6 170 12:37 29.11.2019
3338 Clouds 34 1011 16 10000 4.6 170 12:19 29.11.2019
3339 Clouds 35 1010 14 10000 4.6 150 11:41 29.11.2019
3340 Clouds 35 1010 14 10000 5.7 160 11:19 29.11.2019
3341 Clouds 36 1009 12 10000 5.7 170 10:59 29.11.2019
3342 Clouds 36 1009 12 10000 5.7 170 10:59 29.11.2019
3343 Clouds 37 1009 12 10000 4.1 170 10:39 29.11.2019
3344 Clouds 37 1009 12 10000 4.1 170 10:21 29.11.2019
3345 Clouds 37 1008 11 10000 4.1 270 09:59 29.11.2019
3346 Clouds 38 1008 11 10000 4.6 280 09:40 29.11.2019
3347 Clouds 38 1008 11 10000 4.6 280 09:22 29.11.2019
3348 Clouds 38 1008 9 10000 3.6 310 08:57 29.11.2019
3349 Clouds 39 1008 10 10000 2.1 350 08:37 29.11.2019
3350 Clouds 39 1008 10 10000 2.1 350 08:19 29.11.2019
3351 Clouds 38 1008 9 10000 4.1 280 07:42 29.11.2019
3352 Clouds 39 1008 10 10000 3.1 230 07:23 29.11.2019
3353 Clouds 37 1009 11 10000 3.1 240 06:55 29.11.2019
3354 Clouds 38 1009 11 10000 1 310 06:36 29.11.2019
3355 Clouds 38 1009 12 10000 4.6 250 05:47 29.11.2019
3356 Clouds 38 1010 12 10000 6.7 230 05:23 29.11.2019
3357 Clear 36 1011 11 10000 2.6 320 03:43 29.11.2019
3358 Clear 36 1012 9 10000 4.6 30 03:19 29.11.2019
3359 Clear 34 1013 10 10000 4.1 20 02:25 29.11.2019
3360 Clouds 32 1013 10 10000 4.1 70 01:49 29.11.2019
3361 Clouds 31 1014 10 10000 4.6 60 01:23 29.11.2019
3362 Clouds 30 1014 10 10000 4.6 90 00:41 29.11.2019
3363 Clouds 28 1014 12 10000 4.6 80 00:20 29.11.2019
3364 Clouds 27 1014 12 10000 4.6 80 23:44 28.11.2019
3365 Rain 26 1014 13 10000 4.1 90 23:21 28.11.2019
3366 Rain 26 1014 13 10000 4.1 90 23:21 28.11.2019
3367 Rain 25 1014 14 10000 4.6 80 22:57 28.11.2019
3368 Rain 24 1014 15 10000 4.1 80 22:37 28.11.2019
3369 Rain 24 1014 15 10000 4.1 80 22:19 28.11.2019
3370 Rain 23 1013 13 10000 5.1 80 21:55 28.11.2019
3371 Rain 23 1013 12 10000 4.6 80 21:36 28.11.2019
3372 Rain 23 1013 12 10000 4.6 80 21:18 28.11.2019
3373 Rain 24 1013 12 10000 4.6 80 20:42 28.11.2019
3374 Clouds 24 1013 12 10000 4.1 70 20:22 28.11.2019
3375 Clear 24 1013 12 10000 5.7 90 19:58 28.11.2019
3376 Clear 25 1013 11 10000 5.1 90 19:40 28.11.2019
3377 Clear 25 1013 11 10000 5.1 90 19:22 28.11.2019
3378 Clear 25 1013 11 10000 6.2 90 18:59 28.11.2019
3379 Clouds 26 1013 10 10000 7.2 90 18:39 28.11.2019
3380 Clouds 26 1013 10 10000 7.2 90 18:18 28.11.2019
3381 Clouds 26 1013 11 10000 5.1 90 17:59 28.11.2019
3382 Clouds 26 1013 12 10000 7.2 90 17:41 28.11.2019
3383 Clouds 26 1013 12 10000 7.2 90 17:21 28.11.2019
3384 Clouds 27 1013 11 10000 7.2 100 16:56 28.11.2019
3385 Clouds 27 1013 11 10000 7.2 100 16:56 28.11.2019
3386 Clouds 27 1013 11 10000 7.2 100 16:55 28.11.2019
3387 Rain 27 1013 13 10000 8.2 100 16:37 28.11.2019
3388 Rain 27 1013 13 10000 8.2 100 16:18 28.11.2019
3389 Clouds 27 1014 15 10000 5.7 120 15:41 28.11.2019
3390 Rain 27 1014 30 10000 2.1 40 15:20 28.11.2019
3391 Clouds 27 1014 14 10000 3.1 40 14:58 28.11.2019
3392 Clouds 27 1014 14 10000 3.1 40 14:58 28.11.2019
3393 Clouds 27 1014 14 10000 3.6 50 14:40 28.11.2019
3394 Clouds 27 1014 14 10000 3.6 50 14:20 28.11.2019
3395 Clouds 28 1014 14 10000 2.6 110 13:55 28.11.2019
3396 Clouds 29 1014 13 10000 3.1 120 13:37 28.11.2019
3397 Clouds 29 1014 13 10000 3.1 120 13:19 28.11.2019
3398 Clouds 28 1013 14 10000 3.1 130 12:41 28.11.2019
3399 Clouds 30 1013 12 10000 3.1 130 12:22 28.11.2019
3400 Clouds 30 1013 12 10000 4.1 100 11:56 28.11.2019
3401 Clouds 31 1013 12 10000 4.1 110 11:38 28.11.2019
3402 Clouds 31 1013 12 10000 4.1 110 11:19 28.11.2019
3403 Clouds 31 1012 19 10000 5.1 30 10:42 28.11.2019
3404 Clouds 31 1012 19 10000 5.1 30 10:22 28.11.2019
3405 Clouds 33 1012 10 10000 6.7 70 09:58 28.11.2019
3406 Clouds 33 1011 11 10000 4.6 110 09:40 28.11.2019
3407 Clouds 33 1011 11 10000 4.6 110 09:20 28.11.2019
3408 Clouds 33 1011 11 10000 6.7 110 08:44 28.11.2019
3409 Clouds 34 1011 9 10000 6.7 100 08:22 28.11.2019
3410 Clouds 34 1011 10 10000 5.7 90 07:58 28.11.2019
3411 Clouds 33 1011 13 10000 5.1 130 07:39 28.11.2019
3412 Clouds 33 1011 13 10000 5.1 130 07:21 28.11.2019
3413 Clouds 33 1011 14 10000 5.7 90 06:41 28.11.2019
3414 Clouds 33 1012 14 10000 8.2 50 05:58 28.11.2019
3415 Clouds 32 1012 15 10000 8.2 90 05:40 28.11.2019
3416 Rain 31 1013 15 10000 7.7 100 04:51 28.11.2019
3417 Dust 32 1015 14 10000 10.8 40 02:32 28.11.2019
3418 Rain 29 1015 12 10000 7.2 90 01:25 28.11.2019
3419 Clouds 29 1015 11 10000 6.7 70 00:42 28.11.2019
3420 Clouds 28 1015 12 10000 6.2 70 00:19 28.11.2019
3421 Clouds 27 1014 12 10000 5.7 80 23:39 27.11.2019
3422 Clouds 27 1014 12 10000 5.7 80 23:21 27.11.2019
3423 Rain 25 1014 16 10000 4.1 90 22:56 27.11.2019
3424 Clouds 25 1014 14 10000 3.6 100 22:38 27.11.2019
3425 Clouds 25 1014 14 10000 3.6 100 22:19 27.11.2019
3426 Clouds 25 1014 14 10000 1.5 340 21:56 27.11.2019
3427 Clouds 25 1013 14 10000 1.5 40 21:37 27.11.2019
3428 Clouds 25 1013 14 10000 1.5 40 21:18 27.11.2019
3429 Clouds 26 1013 12 10000 2.6 70 20:56 27.11.2019
3430 Clouds 26 1012 12 10000 4.1 120 20:37 27.11.2019
3431 Clouds 26 1012 12 10000 4.1 120 20:19 27.11.2019
3432 Clouds 26 1013 13 10000 3.6 130 19:55 27.11.2019
3433 Clouds 27 1013 11 10000 2.1 110 19:37 27.11.2019
3434 Clouds 27 1013 11 10000 2.1 110 19:18 27.11.2019
3435 Clouds 27 1013 11 10000 2.6 130 18:55 27.11.2019
3436 Clouds 27 1013 11 10000 4.1 110 18:36 27.11.2019
3437 Clouds 28 1013 12 10000 4.1 110 18:18 27.11.2019
3438 Clouds 27 1013 11 10000 4.1 110 18:18 27.11.2019
3439 Clouds 28 1013 12 10000 3.6 120 17:41 27.11.2019
3440 Clouds 28 1013 12 10000 3.6 120 17:23 27.11.2019
3441 Clouds 28 1013 12 10000 3.6 120 17:23 27.11.2019
3442 -273 0 0 0 0 0 17:23 27.11.2019
3443 -273 0 0 0 0 0 17:23 27.11.2019
3444 Clouds 28 1013 13 10000 4.1 120 16:58 27.11.2019
3445 Clouds 28 1013 13 10000 4.1 120 16:58 27.11.2019
3446 Clouds 28 1013 13 10000 3.1 120 16:40 27.11.2019
3447 Clouds 28 1013 13 10000 3.1 120 16:40 27.11.2019
3448 Clouds 28 1013 13 10000 3.1 120 16:21 27.11.2019
3449 Clouds 28 1013 13 10000 3.1 120 16:21 27.11.2019
3450 Clouds 29 1013 12 10000 3.6 100 15:58 27.11.2019
3451 Clouds 29 1013 12 10000 3.6 100 15:58 27.11.2019
3452 Clouds 29 1013 12 10000 3.1 120 15:40 27.11.2019
3453 Clouds 29 1013 12 10000 3.1 120 15:21 27.11.2019
3454 Clouds 30 1014 11 10000 4.1 110 14:59 27.11.2019
3455 Clouds 30 1013 11 10000 4.1 140 14:41 27.11.2019
3456 Clouds 30 1013 11 10000 4.1 140 14:23 27.11.2019
3457 Clouds 30 1013 12 10000 4.6 130 13:58 27.11.2019
3458 Clouds 31 1012 10 10000 5.1 130 13:39 27.11.2019
3459 Clouds 31 1012 10 10000 5.1 130 13:19 27.11.2019
3460 Clouds 31 1012 10 10000 5.1 130 12:59 27.11.2019
3461 Clouds 31 1012 10 10000 5.7 130 12:40 27.11.2019
3462 Clouds 32 1011 11 10000 5.7 130 12:19 27.11.2019
3463 Clouds 32 1011 11 10000 6.2 130 11:39 27.11.2019
3464 Clouds 32 1011 11 10000 6.2 130 11:39 27.11.2019
3465 Clouds 33 1011 10 10000 6.7 140 11:19 27.11.2019
3466 Clouds 33 1011 10 10000 6.7 140 10:59 27.11.2019
3467 Clouds 34 1011 9 10000 5.1 130 10:41 27.11.2019
3468 Clouds 34 1011 9 10000 5.1 130 10:23 27.11.2019
3469 Clouds 34 1010 9 10000 6.7 110 09:45 27.11.2019
3470 Clouds 35 1010 10 10000 5.7 120 09:26 27.11.2019
3471 Clouds 35 1010 10 10000 5.7 130 08:58 27.11.2019
3472 Clouds 35 1010 10 10000 6.7 90 08:40 27.11.2019
3473 Clouds 35 1010 10 10000 6.7 90 08:40 27.11.2019
3474 Clouds 35 1010 10 10000 6.7 90 08:21 27.11.2019
3475 Clouds 35 1010 10 10000 6.7 170 07:46 27.11.2019
3476 Clouds 35 1011 12 10000 6.2 120 07:28 27.11.2019
3477 Clouds 35 1012 12 10000 6.7 120 06:48 27.11.2019
3478 Clouds 35 1012 12 10000 6.7 120 06:29 27.11.2019
3479 Clouds 33 1012 12 10000 6.2 60 05:43 27.11.2019
3480 Clouds 34 1013 12 10000 6.7 70 05:19 27.11.2019
3481 Clouds 34 1013 12 10000 6.7 110 04:41 27.11.2019
3482 Clouds 32 1014 12 10000 6.2 120 03:55 27.11.2019
3483 Clouds 32 1014 12 10000 5.7 80 03:23 27.11.2019
3484 Clouds 31 1015 12 10000 6.7 70 02:54 27.11.2019
3485 Clouds 27 1016 14 10000 7.2 80 01:39 27.11.2019
3486 Clouds 25 1016 16 10000 7.2 90 00:45 27.11.2019
3487 Clouds 25 1016 16 10000 7.2 90 00:26 27.11.2019
3488 Clouds 24 1016 19 10000 7.2 100 23:49 26.11.2019
3489 Clouds 24 1016 19 10000 7.2 100 23:27 26.11.2019
3490 Clouds 23 1015 18 10000 5.7 110 22:58 26.11.2019
3491 Clouds 23 1015 17 10000 3.6 130 22:38 26.11.2019
3492 Clouds 23 1015 17 10000 3.6 130 22:19 26.11.2019
3493 Clouds 23 1014 17 10000 3.1 160 21:58 26.11.2019
3494 Clouds 23 1014 17 10000 3.1 130 21:37 26.11.2019
3495 Clouds 23 1014 17 10000 3.1 130 21:19 26.11.2019
3496 Clouds 23 1014 17 10000 3.1 120 20:54 26.11.2019
3497 Clouds 23 1013 17 10000 3.6 110 20:36 26.11.2019
3498 Clouds 23 1013 17 10000 3.6 110 20:18 26.11.2019
3499 Clouds 24 1013 16 10000 4.6 100 19:54 26.11.2019
3500 Clouds 24 1013 16 10000 5.1 100 19:36 26.11.2019
3501 Clouds 24 1013 16 10000 5.1 110 19:18 26.11.2019
3502 Clouds 24 1013 16 10000 5.1 110 18:56 26.11.2019
3503 Clouds 25 1014 15 10000 5.1 110 18:37 26.11.2019
3504 Clouds 25 1014 15 10000 4.6 120 18:19 26.11.2019
3505 Clouds 25 1014 16 10000 4.6 120 17:43 26.11.2019
3506 Clouds 25 1014 16 10000 4.6 120 17:24 26.11.2019
3507 Clouds 25 1014 17 10000 4.6 120 16:58 26.11.2019
3508 Clouds 26 1014 16 10000 5.7 120 16:38 26.11.2019
3509 Clouds 26 1014 16 10000 5.7 120 16:20 26.11.2019
3510 Clouds 26 1015 16 10000 6.7 130 16:00 26.11.2019
3511 Clouds 26 1015 16 10000 6.7 130 16:00 26.11.2019
3512 Clouds 26 1015 16 10000 6.7 130 16:00 26.11.2019
3513 Clouds 26 1015 27 10000 5.7 130 15:39 26.11.2019
3514 Clouds 26 1015 27 10000 5.7 130 15:20 26.11.2019
3515 Clouds 27 1015 27 10000 6.7 140 14:59 26.11.2019
3516 Clouds 27 1015 19 10000 7.2 140 14:41 26.11.2019
3517 Clouds 27 1015 19 10000 7.2 140 14:22 26.11.2019
3518 Clouds 28 1015 18 10000 6.7 140 13:43 26.11.2019
3519 Clouds 28 1015 18 10000 6.7 140 13:23 26.11.2019
3520 Clouds 28 1015 18 10000 6.2 130 12:54 26.11.2019
3521 Clouds 28 1015 18 10000 5.1 130 12:36 26.11.2019
3522 Clouds 29 1014 17 10000 6.7 120 12:18 26.11.2019
3523 Clouds 29 1014 17 10000 6.7 120 11:54 26.11.2019
3524 Clouds 29 1014 17 10000 6.7 120 11:36 26.11.2019
3525 Clouds 30 1014 16 10000 5.7 130 11:18 26.11.2019
3526 Clouds 30 1013 16 10000 6.2 140 10:41 26.11.2019
3527 Clouds 30 1013 16 10000 6.2 140 10:21 26.11.2019
3528 Clouds 30 1013 16 10000 6.7 140 09:58 26.11.2019
3529 Clouds 31 1012 16 10000 7.2 120 09:40 26.11.2019
3530 Clouds 31 1012 16 10000 7.2 120 09:21 26.11.2019
3531 Clouds 32 1012 17 10000 6.7 120 08:46 26.11.2019
3532 Clouds 32 1012 17 10000 7.2 120 08:26 26.11.2019
3533 Clouds 32 1012 18 10000 8.2 140 07:51 26.11.2019
3534 Clouds 33 1012 16 10000 4.6 160 07:32 26.11.2019
3535 Clouds 32 1012 17 10000 6.7 120 06:59 26.11.2019
3536 Clouds 33 1012 16 10000 7.7 130 06:40 26.11.2019
3537 Clouds 33 1012 17 10000 8.7 140 05:54 26.11.2019
3538 Clouds 34 1013 17 10000 7.7 110 04:47 26.11.2019
3539 Clouds 33 1014 18 10000 4.1 120 02:53 26.11.2019
3540 Clouds 32 1015 21 10000 4.6 120 01:34 26.11.2019
3541 Clouds 30 1015 23 10000 6.2 160 00:53 26.11.2019
3542 Clouds 29 1015 26 10000 7.7 170 00:33 26.11.2019
3543 Clouds 29 1015 26 10000 6.7 170 23:56 25.11.2019
3544 Clouds 28 1014 28 10000 5.1 180 23:37 25.11.2019
3545 Clouds 28 1014 26 10000 7.2 170 23:18 25.11.2019
3546 Clouds 27 1013 30 10000 5.1 190 22:39 25.11.2019
3547 Clouds 27 1013 30 10000 5.1 190 22:19 25.11.2019
3548 Clouds 26 1013 31 10000 3.6 210 21:59 25.11.2019
3549 Clouds 26 1013 31 10000 3.1 220 21:40 25.11.2019
3550 Clouds 26 1013 31 10000 3.1 220 21:21 25.11.2019
3551 Clouds 26 1013 29 10000 3.6 230 20:57 25.11.2019
3552 Clouds 26 1013 29 10000 3.6 230 20:57 25.11.2019
3553 Clouds 26 1013 27 10000 3.1 220 20:39 25.11.2019
3554 Clouds 26 1013 27 10000 3.1 220 20:20 25.11.2019
3555 Clouds 27 1012 26 10000 3.6 220 19:56 25.11.2019
3556 Clouds 28 1012 23 10000 3.6 220 19:38 25.11.2019
3557 Clouds 28 1012 23 10000 3.6 220 19:19 25.11.2019
3558 Clouds 28 1012 23 10000 4.1 250 18:57 25.11.2019
3559 Clouds 27 1012 24 10000 4.1 200 18:39 25.11.2019
3560 Clouds 27 1011 26 10000 10.93 215 18:21 25.11.2019
3561 Clouds 27 1011 26 10000 10.93 215 17:58 25.11.2019
3562 Clouds 27 1011 24 10000 10.93 215 17:39 25.11.2019
3563 Clouds 27 1011 24 10000 2.1 130 17:20 25.11.2019
3564 Clouds 27 1011 24 10000 2.1 130 16:57 25.11.2019
3565 Clouds 29 1011 21 10000 2.1 240 16:39 25.11.2019
3566 Clouds 29 1011 21 10000 2.1 240 16:20 25.11.2019
3567 Clouds 29 1011 21 10000 2.6 240 15:55 25.11.2019
3568 Clouds 29 1011 20 10000 2.6 250 15:36 25.11.2019
3569 Clouds 29 1011 20 10000 2.6 250 15:18 25.11.2019
3570 Clouds 29 1011 20 10000 2.1 300 14:42 25.11.2019
3571 Clouds 30 1011 20 10000 3.1 300 14:22 25.11.2019
3572 Clouds 31 1011 19 10000 2.6 280 13:55 25.11.2019
3573 Clouds 32 1011 17 10000 4.1 240 13:36 25.11.2019
3574 Clouds 32 1011 17 10000 4.1 240 13:18 25.11.2019
3575 Clouds 32 1011 17 10000 4.1 240 13:18 25.11.2019
3576 Clouds 33 1010 16 3600 9.8 200 12:41 25.11.2019
3577 Clouds 33 1010 16 3600 9.8 200 12:22 25.11.2019
3578 Clouds 33 1009 16 6000 8.2 200 11:59 25.11.2019
3579 Clouds 34 1008 7 10000 2.6 290 11:40 25.11.2019
3580 Clouds 34 1008 7 10000 2.6 290 11:20 25.11.2019
3581 Clouds 36 1007 7 10000 2.6 290 10:46 25.11.2019
3582 Clouds 37 1007 6 10000 3.6 320 10:28 25.11.2019
3583 Clouds 38 1007 5 10000 3.6 310 09:59 25.11.2019
3584 Clouds 38 1007 5 10000 2.1 300 09:41 25.11.2019
3585 Clouds 38 1007 5 10000 2.1 300 09:41 25.11.2019
3586 Clouds 38 1007 5 10000 2.1 300 09:23 25.11.2019
3587 Clouds 38 1007 5 10000 2.6 290 08:41 25.11.2019
3588 Clouds 38 1007 5 10000 2.6 290 08:22 25.11.2019
3589 Clouds 40 1007 6 10000 2.1 270 07:45 25.11.2019
3590 Clouds 40 1007 6 10000 2.1 270 07:25 25.11.2019
3591 Clouds 40 1007 6 10000 2.1 270 07:25 25.11.2019
3592 Clouds 39 1008 6 10000 6.7 310 06:51 25.11.2019
3593 Clouds 39 1009 6 10000 6.2 290 06:22 25.11.2019
3594 Clouds 38 1009 5 10000 5.7 350 05:50 25.11.2019
3595 Clouds 38 1009 5 10000 5.7 350 05:29 25.11.2019
3596 Clear 38 1011 5 10000 1.5 0 03:49 25.11.2019
3597 Clear 37 1012 7 10000 5.1 360 02:32 25.11.2019
3598 Clouds 35 1013 6 10000 5.7 350 01:42 25.11.2019
3599 Clouds 35 1013 6 10000 5.7 350 01:23 25.11.2019
3600 Clouds 33 1013 9 10000 4.6 350 00:37 25.11.2019
3601 Clouds 31 1013 8 10000 4.1 30 00:18 25.11.2019
3602 Clouds 29 1013 10 10000 5.1 30 23:43 24.11.2019
3603 Clouds 24 1012 13 10000 2.6 70 23:20 24.11.2019
3604 Clouds 24 1012 13 10000 2.6 70 22:56 24.11.2019
3605 Clouds 24 1012 13 10000 2.6 70 22:56 24.11.2019
3606 Clouds 23 1012 13 10000 2.1 90 22:37 24.11.2019
3607 Clouds 23 1012 13 10000 2.1 90 22:19 24.11.2019
3608 Clouds 19 1012 17 10000 2.1 60 21:54 24.11.2019
3609 Clouds 18 1012 18 10000 7.37 40 21:36 24.11.2019
3610 Clouds 18 1012 18 10000 7.37 40 21:18 24.11.2019
3611 Clouds 19 1012 19 10000 7.37 40 20:54 24.11.2019
3612 Clouds 19 1012 17 10000 0.5 150 20:36 24.11.2019
3613 Clouds 22 1012 14 10000 1.5 80 20:18 24.11.2019
3614 Clouds 22 1012 14 10000 1.5 80 19:54 24.11.2019
3615 Clouds 24 1012 14 10000 2.6 50 19:36 24.11.2019
3616 Clouds 24 1012 14 10000 2.6 50 19:18 24.11.2019
3617 Clouds 24 1012 14 10000 2.6 50 18:54 24.11.2019
3618 Clouds 24 1012 14 10000 2.6 60 18:36 24.11.2019
3619 Clouds 25 1012 13 10000 3.6 40 18:18 24.11.2019
3620 Clouds 24 1012 14 10000 2.6 10 17:41 24.11.2019
3621 Clear 24 1012 14 10000 2.6 10 17:23 24.11.2019
3622 Clear 24 1012 13 10000 2.6 70 16:59 24.11.2019
3623 Clear 25 1013 13 10000 3.6 90 16:41 24.11.2019
3624 Clear 25 1013 13 10000 3.6 90 16:23 24.11.2019
3625 Clear 25 1013 13 10000 3.6 90 16:23 24.11.2019
3626 Clear 26 1013 12 10000 4.6 70 15:56 24.11.2019
3627 Clear 26 1013 12 10000 4.1 80 15:38 24.11.2019
3628 Clear 26 1013 12 10000 4.1 80 15:38 24.11.2019
3629 Clear 26 1013 12 10000 4.1 80 15:20 24.11.2019
3630 Clear 26 1014 11 10000 3.6 80 14:40 24.11.2019
3631 Clouds 27 1014 10 10000 3.6 80 14:20 24.11.2019
3632 Clouds 27 1014 10 10000 3.6 80 13:59 24.11.2019
3633 Clouds 28 1014 10 10000 3.1 70 13:38 24.11.2019
3634 Clear 28 1014 10 10000 3.1 70 13:20 24.11.2019
3635 Clear 30 1013 9 10000 5.1 100 12:56 24.11.2019
3636 Clear 30 1013 9 10000 4.6 120 12:38 24.11.2019
3637 Clear 31 1013 8 10000 4.1 120 12:18 24.11.2019
3638 Clear 32 1013 8 10000 3.1 110 11:38 24.11.2019
3639 Clear 33 1013 7 10000 3.1 120 11:19 24.11.2019
3640 Clear 33 1013 7 10000 3.1 120 10:57 24.11.2019
3641 Clear 34 1012 7 10000 3.6 110 10:38 24.11.2019
3642 Clear 34 1012 7 10000 3.6 110 10:20 24.11.2019
3643 Clear 34 1012 7 10000 4.6 100 09:39 24.11.2019
3644 Clear 34 1012 7 10000 4.6 100 09:20 24.11.2019
3645 Clear 35 1012 8 10000 3.1 70 08:57 24.11.2019
3646 Clear 35 1012 8 10000 3.1 70 08:57 24.11.2019
3647 Clear 35 1012 8 10000 3.6 120 08:39 24.11.2019
3648 Clouds 35 1012 8 10000 3.6 120 08:20 24.11.2019
3649 Clouds 35 1012 7 10000 5.1 100 07:47 24.11.2019
3650 Clouds 34 1013 7 10000 4.6 110 07:21 24.11.2019
3651 Clouds 35 1014 8 10000 4.6 100 06:51 24.11.2019
3652 Clouds 33 1015 8 10000 6.7 100 05:24 24.11.2019
3653 Clouds 33 1016 9 10000 5.7 80 04:40 24.11.2019
3654 Clouds 30 1017 9 10000 6.7 100 02:36 24.11.2019
3655 Clouds 30 1017 9 10000 6.2 100 01:55 24.11.2019
3656 Clouds 29 1017 11 10000 6.7 70 01:32 24.11.2019
3657 Clouds 27 1018 12 10000 6.7 90 00:50 24.11.2019
3658 Clouds 27 1018 12 10000 6.7 90 00:24 24.11.2019
3659 Clouds 26 1017 13 10000 4.6 90 23:56 23.11.2019
3660 Clouds 26 1017 13 10000 4.6 90 23:56 23.11.2019
3661 Clouds 24 1017 14 10000 3.1 100 23:38 23.11.2019
3662 Clear 24 1017 14 10000 3.1 100 23:19 23.11.2019
3663 Clear 22 1017 14 10000 0.5 40 22:55 23.11.2019
3664 Clear 18 1017 18 10000 6.8 108 22:37 23.11.2019
3665 Clear 18 1017 18 10000 6.8 108 22:18 23.11.2019
3666 Clear 16 1016 21 10000 1 320 21:43 23.11.2019
3667 Clear 15 1016 19 10000 6.8 108 21:23 23.11.2019
3668 Clear 16 1016 19 10000 0.5 10 20:59 23.11.2019
3669 Clear 16 1016 18 10000 6.8 108 20:38 23.11.2019
3670 Clear 17 1016 17 10000 4.68 116 20:19 23.11.2019
3671 Clear 17 1016 17 10000 4.68 116 19:56 23.11.2019
3672 Clear 17 1016 18 10000 4.68 116 19:38 23.11.2019
3673 Clear 18 1016 17 10000 4.68 116 19:18 23.11.2019
3674 Clear 18 1016 17 10000 4.68 116 18:55 23.11.2019
3675 Clear 18 1016 16 10000 4.68 116 18:36 23.11.2019
3676 Clear 18 1016 16 10000 4.68 116 18:18 23.11.2019
3677 Clear 19 1016 16 10000 4.68 116 17:41 23.11.2019
3678 Clear 20 1016 15 10000 1.5 30 17:21 23.11.2019
3679 Clear 20 1016 15 10000 1.5 30 16:56 23.11.2019
3680 Clear 20 1016 15 10000 1 140 16:38 23.11.2019
3681 Clear 20 1016 15 10000 1 140 16:20 23.11.2019
3682 Clear 21 1017 13 10000 1 160 15:57 23.11.2019
3683 Clear 22 1017 13 10000 2.6 150 15:38 23.11.2019
3684 Clear 22 1017 13 10000 2.6 150 15:18 23.11.2019
3685 Clear 23 1017 11 10000 2.6 150 14:55 23.11.2019
3686 Clear 23 1017 11 10000 2.6 150 14:37 23.11.2019
3687 Clear 23 1017 11 10000 2.6 150 14:18 23.11.2019
3688 Clear 25 1017 11 10000 3.1 150 13:42 23.11.2019
3689 Clear 25 1017 10 10000 3.6 160 13:19 23.11.2019
3690 Clear 25 1017 10 10000 3.6 160 12:55 23.11.2019
3691 Clear 27 1017 9 10000 3.1 150 12:37 23.11.2019
3692 Clear 28 1017 8 10000 3.1 140 12:18 23.11.2019
3693 Clear 30 1016 7 10000 4.1 140 11:41 23.11.2019
3694 Clear 31 1016 8 10000 5.7 140 11:19 23.11.2019
3695 Clear 32 1016 7 10000 6.7 140 10:43 23.11.2019
3696 Clear 32 1016 7 10000 6.7 140 10:21 23.11.2019
3697 Clear 33 1015 6 10000 7.7 140 09:41 23.11.2019
3698 Clear 33 1015 6 10000 7.7 140 09:20 23.11.2019
3699 Clear 33 1015 6 10000 7.7 140 09:20 23.11.2019
3700 Clear 34 1015 5 10000 7.7 150 08:42 23.11.2019
3701 Clear 34 1015 5 10000 7.7 150 08:19 23.11.2019
3702 Clear 34 1015 5 10000 7.7 160 07:52 23.11.2019
3703 Clear 34 1015 6 10000 5.7 130 07:34 23.11.2019
3704 Clear 34 1016 6 10000 7.7 130 06:45 23.11.2019
3705 Clear 34 1016 6 10000 7.2 110 06:19 23.11.2019
3706 Clear 32 1017 7 10000 8.2 110 05:48 23.11.2019
3707 Clear 32 1017 7 10000 8.2 110 05:28 23.11.2019
3708 Clear 33 1017 7 10000 7.7 150 04:48 23.11.2019
3709 Clear 32 1018 8 10000 6.7 130 04:27 23.11.2019
3710 Clear 30 1019 11 10000 6.7 130 02:45 23.11.2019
3711 Clouds 28 1019 15 10000 7.7 130 01:42 23.11.2019
3712 Clouds 28 1019 15 10000 8.2 130 01:21 23.11.2019
3713 Clouds 27 1019 16 10000 8.7 120 00:39 23.11.2019
3714 Clouds 26 1019 16 10000 6.7 130 00:18 23.11.2019
3715 Clouds 26 1019 16 10000 6.7 130 00:18 23.11.2019
3716 Clouds 25 1019 16 10000 4.6 120 23:39 22.11.2019
3717 Clouds 23 1019 20 10000 4.1 110 23:20 22.11.2019
3718 Clouds 23 1019 20 10000 4.1 110 22:57 22.11.2019
3719 Clouds 22 1018 19 10000 3.6 120 22:38 22.11.2019
3720 Clouds 22 1018 19 10000 3.6 120 22:20 22.11.2019
3721 Clouds 20 1018 22 10000 3.1 120 21:58 22.11.2019
3722 Clouds 21 1017 21 10000 3.6 130 21:39 22.11.2019
3723 Clouds 21 1017 21 10000 3.6 130 21:19 22.11.2019
3724 Clouds 21 1017 22 10000 3.6 130 20:43 22.11.2019
3725 Clouds 21 1017 22 10000 3.6 130 20:22 22.11.2019
3726 Clear 22 1017 21 10000 3.6 120 19:55 22.11.2019
3727 Clear 22 1016 21 10000 3.6 120 19:37 22.11.2019
3728 Clear 22 1016 21 10000 3.6 120 19:18 22.11.2019
3729 Clear 20 1016 22 10000 2.6 130 18:39 22.11.2019
3730 Clear 20 1016 22 10000 2.6 130 18:21 22.11.2019
3731 Clear 21 1016 22 10000 2.1 90 17:56 22.11.2019
3732 Clear 21 1016 22 10000 2.1 90 17:56 22.11.2019
3733 Clear 20 1016 24 10000 2.6 60 17:38 22.11.2019
3734 Clear 20 1016 24 10000 2.6 60 17:20 22.11.2019
3735 Clear 21 1016 22 10000 1.5 130 16:41 22.11.2019
3736 Clear 21 1016 22 10000 1.5 130 16:23 22.11.2019
3737 Clear 23 1016 20 10000 2.1 140 15:44 22.11.2019
3738 Clear 23 1016 20 10000 3.1 150 15:24 22.11.2019
3739 Clear 24 1016 19 10000 3.1 150 14:56 22.11.2019
3740 Clear 25 1017 17 10000 3.1 140 14:37 22.11.2019
3741 Clear 25 1017 17 10000 3.1 140 14:19 22.11.2019
3742 Clear 26 1016 16 10000 2.6 140 13:56 22.11.2019
3743 Clear 27 1016 14 10000 3.6 140 13:36 22.11.2019
3744 Clear 27 1016 14 10000 3.6 140 13:18 22.11.2019
3745 Clear 28 1015 14 10000 3.6 150 12:41 22.11.2019
3746 Clear 28 1015 14 10000 3.6 150 12:20 22.11.2019
3747 Clear 29 1015 13 10000 3.6 150 11:59 22.11.2019
3748 Clear 30 1015 13 10000 4.1 140 11:39 22.11.2019
3749 Clear 30 1015 13 10000 4.1 140 11:20 22.11.2019
3750 Clear 31 1015 11 10000 4.6 140 10:58 22.11.2019
3751 Clear 32 1014 11 10000 4.1 140 10:39 22.11.2019
3752 Clear 32 1014 11 10000 4.1 140 10:21 22.11.2019
3753 Clear 33 1014 10 10000 5.1 150 09:55 22.11.2019
3754 Clear 33 1014 11 10000 5.1 100 09:37 22.11.2019
3755 Clear 33 1014 11 10000 5.1 100 09:18 22.11.2019
3756 Clear 34 1014 10 10000 6.7 130 08:44 22.11.2019
3757 Clouds 34 1014 10 10000 5.1 140 08:25 22.11.2019
3758 Clouds 34 1014 10 10000 6.2 130 07:45 22.11.2019
3759 Clouds 34 1014 10 10000 6.2 130 07:45 22.11.2019
3760 Clouds 33 1014 16 10000 5.1 110 07:23 22.11.2019
3761 Clouds 33 1015 16 10000 5.1 130 06:49 22.11.2019
3762 Clouds 33 1015 13 10000 5.7 120 06:30 22.11.2019
3763 Clouds 33 1015 13 10000 5.1 130 05:45 22.11.2019
3764 Clouds 31 1016 15 10000 6.7 160 04:22 22.11.2019
3765 Clouds 28 1018 20 10000 5.1 130 02:53 22.11.2019
3766 Clouds 28 1018 21 10000 5.1 130 02:30 22.11.2019
3767 Rain 28 1018 23 10000 7.2 110 01:45 22.11.2019
3768 Clouds 26 1018 24 10000 6.7 110 01:19 22.11.2019
3769 Clouds 26 1018 24 10000 5.7 120 00:50 22.11.2019
3770 Clouds 25 1018 25 10000 7.2 100 00:23 22.11.2019
3771 Clouds 24 1018 29 10000 6.2 130 23:46 21.11.2019
3772 Clouds 23 1018 31 10000 5.7 130 23:28 21.11.2019
3773 Clouds 23 1016 28 10000 7.2 130 22:58 21.11.2019
3774 Clouds 22 1017 30 10000 1 150 22:39 21.11.2019
3775 Clouds 22 1017 30 10000 1 150 22:39 21.11.2019
3776 Clouds 22 1017 30 10000 1 150 22:39 21.11.2019
3777 Clouds 22 1017 30 10000 1 150 22:21 21.11.2019
3778 Clouds 21 1016 32 10000 3.1 140 21:56 21.11.2019
3779 Clouds 21 1016 30 10000 3.1 140 21:37 21.11.2019
3780 Clouds 21 1016 30 10000 3.1 140 21:19 21.11.2019
3781 Clouds 20 1016 30 10000 3.1 160 20:58 21.11.2019
3782 Clouds 21 1015 28 10000 3.1 140 20:38 21.11.2019
3783 Clouds 21 1015 28 10000 3.1 140 20:19 21.11.2019
3784 Clouds 21 1015 28 10000 3.6 150 19:59 21.11.2019
3785 Clouds 22 1015 28 10000 2.1 170 19:39 21.11.2019
3786 Clouds 22 1015 28 10000 2.1 170 19:21 21.11.2019
3787 Clouds 23 1014 27 10000 3.1 110 18:56 21.11.2019
3788 Clouds 23 1014 27 10000 3.1 130 18:37 21.11.2019
3789 Clouds 23 1014 27 10000 3.1 130 18:18 21.11.2019
3790 Clouds 24 1014 27 10000 3.1 140 17:55 21.11.2019
3791 Clouds 24 1015 27 10000 3.1 150 17:37 21.11.2019
3792 Clouds 24 1015 27 10000 3.1 150 17:19 21.11.2019
3793 Clouds 25 1015 25 10000 3.1 150 16:41 21.11.2019
3794 Clouds 25 1015 25 10000 3.1 150 16:21 21.11.2019
3795 Clouds 25 1015 27 10000 3.1 160 15:56 21.11.2019
3796 Clouds 26 1015 26 10000 2.6 140 15:38 21.11.2019
3797 Clouds 26 1015 26 10000 2.6 140 15:19 21.11.2019
3798 Clouds 27 1015 24 10000 3.1 140 14:39 21.11.2019
3799 Clouds 27 1015 24 10000 3.1 140 14:21 21.11.2019
3800 Clouds 28 1015 23 10000 3.6 140 13:59 21.11.2019
3801 Clouds 29 1014 21 10000 4.1 140 13:38 21.11.2019
3802 Clouds 29 1014 21 10000 4.1 140 13:19 21.11.2019
3803 Clouds 29 1014 21 10000 4.6 140 12:54 21.11.2019
3804 Clouds 29 1014 21 10000 4.6 140 12:54 21.11.2019
3805 Clouds 30 1014 20 10000 4.6 150 12:36 21.11.2019
3806 Clouds 30 1014 20 10000 4.6 150 12:18 21.11.2019
3807 Clouds 31 1013 19 10000 6.7 170 11:40 21.11.2019
3808 Clouds 31 1013 19 10000 6.7 170 11:21 21.11.2019
3809 Clouds 31 1012 18 10000 5.7 170 10:57 21.11.2019
3810 Clouds 31 1012 18 10000 5.7 170 10:57 21.11.2019
3811 Clouds 32 1012 17 10000 6.2 160 10:39 21.11.2019
3812 Clouds 32 1012 17 10000 6.2 160 10:20 21.11.2019
3813 Clouds 33 1011 16 10000 6.2 170 09:43 21.11.2019
3814 Clouds 33 1011 16 10000 7.7 170 09:23 21.11.2019
3815 Clouds 33 1011 16 10000 8.7 170 08:59 21.11.2019
3816 Clouds 33 1011 16 10000 8.7 180 08:40 21.11.2019
3817 Clouds 33 1011 16 10000 8.7 180 08:40 21.11.2019
3818 Clouds 33 1011 16 10000 8.7 180 08:18 21.11.2019
3819 Clouds 35 1011 14 10000 7.7 190 07:40 21.11.2019
3820 Clouds 35 1011 14 10000 7.7 190 07:18 21.11.2019
3821 Clouds 35 1011 14 10000 8.7 160 06:51 21.11.2019
3822 Clouds 35 1011 13 10000 5.7 150 06:33 21.11.2019
3823 Clouds 35 1012 13 10000 6.7 150 05:31 21.11.2019
3824 Dust 33 1013 16 6000 6.7 190 03:32 21.11.2019
3825 Clear 33 1013 17 10000 4.6 140 02:40 21.11.2019
3826 Clouds 32 1013 17 10000 7.7 150 01:53 21.11.2019
3827 Clouds 32 1013 17 10000 7.7 150 01:53 21.11.2019
3828 Clouds 32 1013 17 10000 8.2 190 01:26 21.11.2019
3829 Clouds 31 1013 18 10000 5.7 150 00:54 21.11.2019
3830 Clouds 31 1013 18 10000 5.7 150 00:54 21.11.2019
3831 Clouds 31 1013 16 10000 8.7 180 00:21 21.11.2019
3832 Clouds 31 1012 15 10000 6.2 180 23:55 20.11.2019
3833 Clouds 30 1012 13 10000 3.6 220 23:37 20.11.2019
3834 Clouds 30 1012 13 10000 3.6 220 23:19 20.11.2019
3835 Clouds 29 1011 11 10000 2.6 210 22:55 20.11.2019
3836 Clear 28 1010 12 10000 4.1 200 22:36 20.11.2019
3837 Clear 28 1010 12 10000 4.1 200 22:18 20.11.2019
3838 Clear 28 1010 12 10000 4.1 200 22:18 20.11.2019
3839 Clouds 27 1010 10 10000 7.7 210 21:54 20.11.2019
3840 Clear 23 1008 9 10000 2.1 30 21:36 20.11.2019
3841 Clear 23 1008 9 10000 2.1 30 21:18 20.11.2019
3842 Clear 24 1007 7 10000 6.8 203 20:54 20.11.2019
3843 Clear 25 1007 8 10000 1.5 290 20:36 20.11.2019
3844 Clouds 25 1007 8 10000 1.5 290 20:18 20.11.2019
3845 Clouds 23 1007 8 10000 1.5 140 19:37 20.11.2019
3846 Clouds 23 1007 8 10000 1.5 140 19:37 20.11.2019
3847 Clouds 23 1007 8 10000 1.5 140 19:19 20.11.2019
3848 Clouds 23 1007 8 10000 1.5 140 19:19 20.11.2019
3849 Clouds 27 1006 7 10000 2.6 300 18:59 20.11.2019
3850 Clouds 27 1006 6 10000 3.1 350 18:40 20.11.2019
3851 Clouds 27 1006 6 10000 3.1 350 18:22 20.11.2019
3852 Clouds 25 1007 7 10000 2.6 310 17:59 20.11.2019
3853 Clouds 24 1007 8 10000 3.1 10 17:39 20.11.2019
3854 Clouds 24 1007 8 10000 3.1 10 17:21 20.11.2019
3855 Clouds 27 1007 6 10000 1 250 16:57 20.11.2019
3856 Clouds 26 1007 6 10000 1 330 16:39 20.11.2019
3857 Clouds 26 1007 6 10000 1 330 16:19 20.11.2019
3858 Clouds 26 1007 6 10000 1 330 16:19 20.11.2019
3859 Clouds 29 1008 6 10000 1 90 15:57 20.11.2019
3860 Clouds 31 1008 6 10000 3.6 330 15:38 20.11.2019
3861 Clouds 31 1008 6 10000 3.6 330 15:19 20.11.2019
3862 Clouds 29 1008 6 10000 2.6 280 14:41 20.11.2019
3863 Clouds 32 1008 6 10000 3.6 360 14:22 20.11.2019
3864 Clouds 32 1008 6 10000 3.6 360 14:22 20.11.2019
3865 Clouds 32 1008 6 10000 3.6 360 14:22 20.11.2019
3866 Clouds 32 1008 6 10000 3.1 340 13:59 20.11.2019
3867 Clouds 33 1008 5 10000 3.1 330 13:39 20.11.2019
3868 Clouds 33 1008 5 10000 3.1 330 13:20 20.11.2019
3869 Clouds 32 1008 6 10000 2.6 340 12:58 20.11.2019
3870 Clouds 33 1008 6 10000 2.1 330 12:37 20.11.2019
3871 Clouds 33 1008 6 10000 2.1 330 12:19 20.11.2019
3872 Clouds 35 1007 4 10000 3.1 350 11:45 20.11.2019
3873 Clear 36 1007 4 10000 3.1 310 11:23 20.11.2019
3874 Clear 38 1007 4 10000 4.1 300 10:57 20.11.2019
3875 Clear 39 1006 4 10000 2.1 360 10:39 20.11.2019
3876 Clear 39 1006 4 10000 2.1 360 10:20 20.11.2019
3877 Clear 40 1006 3 10000 6.2 340 09:56 20.11.2019
3878 Clear 40 1006 4 10000 3.1 10 09:37 20.11.2019
3879 Clear 40 1006 4 10000 3.1 10 09:19 20.11.2019
3880 Clear 41 1006 2 10000 7.7 320 08:41 20.11.2019
3881 Clear 41 1006 2 10000 7.7 320 08:23 20.11.2019
3882 Clear 40 1006 4 10000 2.6 360 07:48 20.11.2019
3883 Clear 41 1006 4 10000 3.6 10 07:30 20.11.2019
3884 Clear 41 1006 2 10000 6.7 250 06:51 20.11.2019
3885 Clear 40 1007 3 10000 5.7 20 06:22 20.11.2019
3886 Clear 40 1007 4 10000 4.6 290 05:52 20.11.2019
3887 Clear 40 1009 3 10000 6.7 10 03:55 20.11.2019
3888 Clear 38 1010 5 10000 6.7 340 02:22 20.11.2019
3889 Clear 36 1011 5 10000 7.7 360 01:34 20.11.2019
3890 Clear 36 1011 4 10000 5.1 20 00:43 20.11.2019
3891 Clear 32 1012 7 10000 4.6 40 23:59 19.11.2019
3892 Clear 30 1012 6 10000 2.6 110 23:39 19.11.2019
3893 Clear 30 1012 6 10000 2.6 110 23:20 19.11.2019
3894 Clear 25 1012 9 10000 1 120 22:42 19.11.2019
3895 Clear 20 1011 11 10000 6.58 24 22:19 19.11.2019
3896 Clear 18 1011 10 10000 3.1 70 21:58 19.11.2019
3897 Clear 20 1011 11 10000 2.6 120 21:38 19.11.2019
3898 Clear 20 1011 11 10000 2.6 120 21:20 19.11.2019
3899 Clear 19 1011 12 10000 3.6 190 20:58 19.11.2019
3900 Clear 19 1011 11 10000 3.1 170 20:39 19.11.2019
3901 Clear 19 1011 11 10000 3.1 170 20:21 19.11.2019
3902 Clear 23 1010 9 10000 1.5 70 19:59 19.11.2019
3903 Clear 23 1010 8 10000 2.6 40 19:41 19.11.2019
3904 Clear 23 1010 8 10000 2.6 40 19:19 19.11.2019
3905 Clear 23 1010 8 10000 2.6 40 19:19 19.11.2019
3906 Clear 24 1010 8 10000 3.1 50 18:57 19.11.2019
3907 Clear 23 1010 10 10000 2.6 40 18:38 19.11.2019
3908 Clear 23 1010 10 10000 2.6 40 18:18 19.11.2019
3909 Clear 23 1010 9 10000 3.1 40 17:56 19.11.2019
3910 Clear 22 1011 10 10000 5.63 32 17:37 19.11.2019
3911 Clear 22 1011 10 10000 5.44 74 17:18 19.11.2019
3912 Clear 23 1011 10 10000 2.1 60 16:55 19.11.2019
3913 Clear 23 1012 8 10000 2.6 150 16:37 19.11.2019
3914 Clear 23 1012 8 10000 2.6 150 16:18 19.11.2019
3915 Clear 24 1012 10 10000 2.6 80 15:41 19.11.2019
3916 Clear 24 1012 10 10000 2.6 80 15:23 19.11.2019
3917 Clear 25 1012 9 10000 2.1 90 14:56 19.11.2019
3918 Clear 26 1012 7 10000 2.6 100 14:38 19.11.2019
3919 Clear 26 1012 7 10000 2.6 100 14:38 19.11.2019
3920 Clear 26 1012 7 10000 2.6 100 14:19 19.11.2019
3921 Clear 28 1012 8 10000 3.6 110 13:41 19.11.2019
3922 Clear 28 1012 8 10000 3.6 110 13:20 19.11.2019
3923 Clear 28 1012 8 10000 3.6 110 13:20 19.11.2019
3924 Clear 28 1012 8 10000 3.6 110 13:20 19.11.2019
3925 Clear 28 1012 8 10000 3.6 110 13:20 19.11.2019
3926 Clear 30 1012 6 10000 4.1 120 12:42 19.11.2019
3927 Clear 31 1011 6 10000 4.6 100 12:23 19.11.2019
3928 Clear 32 1011 7 10000 3.1 110 11:59 19.11.2019
3929 Clear 33 1011 6 10000 3.6 130 11:39 19.11.2019
3930 Clear 33 1011 6 10000 3.6 130 11:20 19.11.2019
3931 Clear 35 1010 5 10000 3.6 130 10:48 19.11.2019
3932 Clear 37 1010 5 10000 4.1 120 10:23 19.11.2019
3933 Clear 37 1010 5 10000 4.1 120 10:23 19.11.2019
3934 Clear 37 1010 4 10000 2.6 70 09:59 19.11.2019
3935 Clear 38 1010 4 10000 4.1 180 09:41 19.11.2019
3936 Clear 38 1010 4 10000 4.1 180 09:19 19.11.2019
3937 Clear 38 1010 4 10000 4.1 180 09:19 19.11.2019
3938 Clear 38 1010 5 10000 3.6 170 08:42 19.11.2019
3939 Clear 38 1010 5 10000 3.6 170 08:24 19.11.2019
3940 Clear 38 1010 5 10000 3.1 250 07:59 19.11.2019
3941 Clear 38 1010 5 10000 5.7 180 07:41 19.11.2019
3942 Clear 38 1010 5 10000 5.7 180 07:22 19.11.2019
3943 Clear 38 1010 5 10000 3.1 360 06:52 19.11.2019
3944 Clear 37 1011 5 10000 2.6 110 06:33 19.11.2019
3945 Clear 37 1012 5 10000 2.1 100 05:40 19.11.2019
3946 Clear 36 1013 6 10000 3.1 160 04:24 19.11.2019
3947 Clear 35 1014 5 10000 2.6 200 03:34 19.11.2019
3948 Clear 34 1014 6 10000 3.1 10 02:57 19.11.2019
3949 Clear 34 1015 6 10000 3.1 90 02:31 19.11.2019
3950 Clear 32 1016 7 10000 4.1 60 01:41 19.11.2019
3951 Clear 29 1016 7 10000 2.6 100 00:22 19.11.2019
3952 Clear 27 1016 9 10000 2.6 110 23:57 18.11.2019
3953 Clear 25 1016 11 10000 4.73 75 23:37 18.11.2019
3954 Clear 25 1016 11 10000 4.26 61 23:18 18.11.2019
3955 Clear 21 1016 13 10000 4.26 61 22:42 18.11.2019
3956 Clear 18 1015 16 10000 2.6 320 22:23 18.11.2019
3957 Clear 15 1015 19 10000 2.1 280 21:56 18.11.2019
3958 Clear 15 1015 18 10000 2.1 270 21:37 18.11.2019
3959 Clear 15 1015 18 10000 2.1 270 21:19 18.11.2019
3960 Clear 16 1015 17 10000 1.5 300 20:56 18.11.2019
3961 Clear 16 1014 17 10000 4.26 61 20:38 18.11.2019
3962 Clear 16 1014 17 10000 3.07 94 20:18 18.11.2019
3963 Clear 16 1014 17 10000 3.3 89 20:18 18.11.2019
3964 Clear 17 1014 17 10000 3.3 89 19:54 18.11.2019
3965 Clear 17 1014 16 10000 3.3 89 19:36 18.11.2019
3966 Clear 17 1014 16 10000 3.3 89 19:18 18.11.2019
3967 Clear 18 1014 16 10000 3.3 89 18:54 18.11.2019
3968 Clear 17 1014 14 10000 3.3 89 18:36 18.11.2019
3969 Clear 17 1014 14 10000 3.3 89 18:18 18.11.2019
3970 Clear 19 1014 14 10000 3.3 89 17:38 18.11.2019
3971 Clear 19 1014 14 10000 3.78 91 17:19 18.11.2019
3972 Clear 19 1014 14 10000 3.78 91 17:19 18.11.2019
3973 Clear 19 1015 14 10000 2.1 200 16:43 18.11.2019
3974 Clear 20 1015 12 10000 3.78 91 16:25 18.11.2019
3975 Clear 20 1015 12 10000 3.78 91 16:25 18.11.2019
3976 Clear 21 1015 12 10000 3.78 91 15:59 18.11.2019
3977 Clear 21 1015 12 10000 3.78 91 15:41 18.11.2019
3978 Clear 21 1015 12 10000 3.78 91 15:41 18.11.2019
3979 Clear 22 1016 12 10000 3.78 91 15:22 18.11.2019
3980 Clear 22 1016 12 10000 3.78 91 14:59 18.11.2019
3981 Clear 23 1016 11 10000 3.78 91 14:41 18.11.2019
3982 Clear 23 1016 11 10000 6.67 109 14:22 18.11.2019
3983 Clear 25 1016 11 10000 2.6 120 13:45 18.11.2019
3984 Clear 26 1016 9 10000 3.1 120 13:27 18.11.2019
3985 Clear 27 1016 10 10000 3.6 120 12:57 18.11.2019
3986 Clear 28 1015 9 10000 3.1 140 12:37 18.11.2019
3987 Clear 28 1015 9 10000 3.1 140 12:18 18.11.2019
3988 Clear 29 1015 9 10000 3.6 140 11:43 18.11.2019
3989 Clear 31 1015 8 10000 3.6 140 11:25 18.11.2019
3990 Clear 33 1014 7 10000 4.1 150 10:45 18.11.2019
3991 Clear 34 1014 7 10000 4.6 140 10:26 18.11.2019
3992 Clear 34 1014 6 10000 4.6 140 09:59 18.11.2019
3993 Clear 35 1014 6 10000 5.1 140 09:39 18.11.2019
3994 Clear 35 1014 6 10000 5.1 140 09:39 18.11.2019
3995 Clear 35 1014 6 10000 5.1 140 09:21 18.11.2019
3996 Clear 35 1014 6 10000 5.1 150 08:58 18.11.2019
3997 Clear 36 1014 6 10000 5.1 110 08:40 18.11.2019
3998 Clear 36 1014 6 10000 5.1 110 08:19 18.11.2019
3999 Clear 35 1014 6 10000 3.6 130 07:45 18.11.2019
4000 Clear 36 1014 7 10000 5.1 130 07:26 18.11.2019
4001 Clear 35 1014 6 10000 4.6 140 06:49 18.11.2019
4002 Clear 36 1015 6 10000 4.1 100 06:28 18.11.2019
4003 Clear 34 1015 7 10000 5.7 110 05:45 18.11.2019
4004 Clear 33 1017 9 10000 5.1 110 04:28 18.11.2019
4005 Clear 29 1019 12 10000 6.7 100 01:47 18.11.2019
4006 Clear 29 1019 12 10000 7.7 90 01:25 18.11.2019
4007 Clear 27 1020 13 10000 8.7 90 00:20 18.11.2019
4008 Clear 25 1020 16 10000 5.1 100 23:41 17.11.2019
4009 Clear 25 1020 16 10000 5.1 100 23:22 17.11.2019
4010 Clear 21 1020 18 10000 0.5 150 22:57 17.11.2019
4011 Clear 21 1020 18 10000 0.5 150 22:57 17.11.2019
4012 Clear 18 1019 20 10000 4.63 108 22:39 17.11.2019
4013 Clear 18 1019 20 10000 4.63 108 22:21 17.11.2019
4014 Clear 17 1019 25 10000 1.5 320 21:57 17.11.2019
4015 Clear 15 1018 24 10000 2.1 300 21:38 17.11.2019
4016 Clear 15 1018 24 10000 2.1 300 21:18 17.11.2019
4017 Clear 16 1018 23 10000 2.1 230 20:55 17.11.2019
4018 Clear 16 1018 23 10000 2.1 260 20:36 17.11.2019
4019 Clear 16 1018 23 10000 2.1 260 20:18 17.11.2019
4020 Clear 17 1018 23 10000 0.5 310 19:55 17.11.2019
4021 Clear 17 1017 23 10000 5.13 96 19:36 17.11.2019
4022 Clear 17 1017 23 10000 5.13 96 19:18 17.11.2019
4023 Clear 18 1017 22 10000 5.13 96 18:54 17.11.2019
4024 Clear 18 1017 20 10000 5.13 96 18:36 17.11.2019
4025 Clear 18 1017 20 10000 5.13 96 18:18 17.11.2019
4026 Clear 19 1017 19 10000 1 30 17:56 17.11.2019
4027 Clear 19 1018 19 10000 2.6 120 17:38 17.11.2019
4028 Clear 19 1018 19 10000 2.6 120 17:18 17.11.2019
4029 Clear 20 1018 19 10000 1.5 70 16:42 17.11.2019
4030 Clear 20 1018 19 10000 1.5 70 16:22 17.11.2019
4031 Clear 21 1019 14 10000 2.6 100 15:59 17.11.2019
4032 Clear 23 1019 17 10000 2.1 100 15:41 17.11.2019
4033 Clear 23 1019 17 10000 2.1 100 15:19 17.11.2019
4034 Clear 22 1019 17 10000 5.47 98 14:57 17.11.2019
4035 Clear 23 1019 15 10000 1.5 50 14:39 17.11.2019
4036 Clear 23 1019 15 10000 1.5 50 14:20 17.11.2019
4037 Clear 25 1019 13 10000 3.1 120 13:59 17.11.2019
4038 Clear 26 1019 13 10000 3.1 120 13:40 17.11.2019
4039 Clear 26 1019 13 10000 3.1 120 13:19 17.11.2019
4040 Clear 27 1019 12 10000 3.1 120 12:45 17.11.2019
4041 Clear 28 1018 12 10000 3.1 130 12:23 17.11.2019
4042 Clear 28 1018 12 10000 3.1 130 12:23 17.11.2019
4043 Clear 29 1018 10 10000 3.1 140 11:58 17.11.2019
4044 Clear 30 1018 9 10000 4.1 140 11:40 17.11.2019
4045 Clear 30 1018 9 10000 4.1 140 11:40 17.11.2019
4046 Clear 30 1018 9 10000 4.1 140 11:20 17.11.2019
4047 Clear 31 1017 10 10000 4.6 130 10:45 17.11.2019
4048 Clear 32 1017 10 10000 4.1 150 10:24 17.11.2019
4049 Clear 33 1016 9 10000 5.1 140 09:58 17.11.2019
4050 Clear 34 1016 8 10000 4.1 150 09:40 17.11.2019
4051 Clear 34 1016 8 10000 4.1 150 09:22 17.11.2019
4052 Clear 34 1016 8 10000 4.1 150 08:42 17.11.2019
4053 Clear 34 1016 7 10000 5.1 130 08:23 17.11.2019
4054 Clear 33 1016 9 10000 3.6 160 07:56 17.11.2019
4055 Clear 34 1016 9 10000 6.2 130 07:38 17.11.2019
4056 Clear 34 1016 9 10000 6.2 130 07:19 17.11.2019
4057 Clear 33 1017 9 10000 4.6 130 06:46 17.11.2019
4058 Clear 33 1017 9 10000 4.6 130 06:27 17.11.2019
4059 Clear 33 1018 9 10000 4.6 140 04:48 17.11.2019
4060 Clear 33 1019 9 10000 6.2 100 03:53 17.11.2019
4061 Clear 32 1019 9 10000 5.7 140 03:33 17.11.2019
4062 Clear 31 1020 10 10000 6.7 110 02:36 17.11.2019
4063 Clear 30 1020 9 10000 5.7 110 01:43 17.11.2019
4064 Clear 28 1021 11 10000 4.1 120 00:56 17.11.2019
4065 Clear 27 1021 10 10000 4.6 120 00:23 17.11.2019
4066 Clear 27 1020 10 10000 3.1 120 23:54 16.11.2019
4067 Clear 25 1020 11 10000 4.24 148 23:20 16.11.2019
4068 Clear 21 1020 14 10000 0.5 250 22:59 16.11.2019
4069 Clear 18 1020 16 10000 2.1 320 22:41 16.11.2019
4070 Clear 18 1020 16 10000 2.1 320 22:20 16.11.2019
4071 Clear 15 1020 18 10000 2.1 290 21:56 16.11.2019
4072 Clear 15 1019 18 10000 2.6 300 21:38 16.11.2019
4073 Clear 15 1019 18 10000 2.6 300 21:19 16.11.2019
4074 Clear 16 1019 18 10000 2.1 350 20:55 16.11.2019
4075 Clear 17 1019 16 10000 2.1 310 20:37 16.11.2019
4076 Clear 17 1019 16 10000 2.1 310 20:18 16.11.2019
4077 Clear 18 1018 16 10000 2.1 320 19:40 16.11.2019
4078 Clear 18 1018 16 10000 2.1 320 19:22 16.11.2019
4079 Clear 18 1018 15 10000 2.1 320 18:47 16.11.2019
4080 Clear 18 1018 15 10000 1.5 290 18:29 16.11.2019
4081 Clear 17 1018 14 10000 2.1 230 17:58 16.11.2019
4082 Clear 18 1018 12 10000 3.1 200 17:39 16.11.2019
4083 Clear 18 1018 12 10000 3.1 200 17:20 16.11.2019
4084 Clear 19 1018 14 10000 2.74 107 16:56 16.11.2019
4085 Clear 21 1018 13 10000 2.74 107 16:37 16.11.2019
4086 Clear 21 1018 13 10000 2.74 107 16:18 16.11.2019
4087 Clear 23 1019 11 10000 2.1 20 15:41 16.11.2019
4088 Clear 23 1019 11 10000 2.1 20 15:21 16.11.2019
4089 Clear 24 1019 12 10000 1 360 14:58 16.11.2019
4090 Clear 23 1019 11 10000 0.5 130 14:39 16.11.2019
4091 Clear 23 1019 11 10000 0.5 130 14:21 16.11.2019
4092 Clear 24 1019 10 10000 2.6 160 13:56 16.11.2019
4093 Clear 24 1019 10 10000 2.6 160 13:38 16.11.2019
4094 Clear 24 1019 10 10000 2.6 160 13:18 16.11.2019
4095 Clear 26 1019 9 10000 2.6 150 12:54 16.11.2019
4096 Clear 27 1018 8 10000 2.6 130 12:36 16.11.2019
4097 Clear 27 1018 8 10000 2.6 130 12:18 16.11.2019
4098 Clear 30 1017 7 10000 3.1 150 11:41 16.11.2019
4099 Clear 30 1017 7 10000 3.1 150 11:23 16.11.2019
4100 Clear 32 1017 7 10000 4.1 150 10:55 16.11.2019
4101 Clear 33 1017 6 10000 4.6 130 10:37 16.11.2019
4102 Clear 33 1017 6 10000 4.6 130 10:18 16.11.2019
4103 Clear 34 1016 6 10000 4.1 140 09:40 16.11.2019
4104 Clear 34 1016 6 10000 4.1 140 09:20 16.11.2019
4105 Clear 34 1016 6 10000 4.1 210 08:56 16.11.2019
4106 Clear 35 1016 6 10000 4.1 150 08:36 16.11.2019
4107 Clear 35 1016 6 10000 4.1 150 08:18 16.11.2019
4108 Clear 34 1016 5 10000 3.6 120 07:40 16.11.2019
4109 Clear 34 1016 5 10000 3.6 120 07:18 16.11.2019
4110 Clear 34 1016 6 10000 6.7 170 06:43 16.11.2019
4111 Clear 34 1017 6 10000 2.1 360 06:20 16.11.2019
4112 Clear 33 1018 7 10000 4.6 120 04:45 16.11.2019
4113 Clear 34 1019 6 10000 5.1 120 03:26 16.11.2019
4114 Clear 34 1019 6 10000 5.1 120 03:26 16.11.2019
4115 Clear 31 1019 8 10000 4.1 120 02:36 16.11.2019
4116 Clear 29 1020 7 10000 2.6 130 01:38 16.11.2019
4117 Clear 28 1020 8 10000 2.6 160 00:51 16.11.2019
4118 Clear 27 1020 9 10000 2.1 100 00:30 16.11.2019
4119 Clear 26 1019 9 10000 2.6 140 23:56 15.11.2019
4120 Clear 24 1019 11 10000 3.1 180 23:38 15.11.2019
4121 Clear 24 1019 11 10000 3.1 180 23:20 15.11.2019
4122 Clear 17 1018 13 10000 2.6 290 22:40 15.11.2019
4123 Clear 17 1018 13 10000 2.6 290 22:20 15.11.2019
4124 Clear 14 1018 16 10000 2.6 300 21:56 15.11.2019
4125 Clear 15 1017 15 10000 3.1 320 21:38 15.11.2019
4126 Clear 15 1017 15 10000 3.1 320 21:19 15.11.2019
4127 Clear 15 1017 14 10000 3.1 290 20:56 15.11.2019
4128 Clear 15 1016 14 10000 2.1 260 20:38 15.11.2019
4129 Clear 15 1016 14 10000 2.1 260 20:19 15.11.2019
4130 Clear 15 1016 14 10000 3.1 270 19:57 15.11.2019
4131 Clear 16 1016 13 10000 2.6 280 19:38 15.11.2019
4132 Clear 16 1016 13 10000 2.6 280 19:19 15.11.2019
4133 Clear 16 1016 13 10000 3.45 89 18:43 15.11.2019
4134 Clear 16 1016 13 10000 3.45 89 18:24 15.11.2019
4135 Clear 17 1016 12 10000 3.45 89 17:58 15.11.2019
4136 Clear 17 1016 12 10000 3.45 89 17:39 15.11.2019
4137 Clear 17 1016 12 10000 3.45 89 17:39 15.11.2019
4138 Clear 17 1016 12 10000 4.34 80 17:20 15.11.2019
4139 Clear 18 1017 11 10000 4.34 80 16:54 15.11.2019
4140 Clear 18 1017 11 10000 4.34 80 16:36 15.11.2019
4141 Clear 18 1017 11 10000 4.34 80 16:18 15.11.2019
4142 Clear 21 1017 11 10000 2.6 70 15:38 15.11.2019
4143 Clear 21 1017 11 10000 2.6 70 15:19 15.11.2019
4144 Clear 22 1018 10 10000 3.1 50 14:56 15.11.2019
4145 Clear 22 1018 10 10000 3.1 40 14:37 15.11.2019
4146 Clear 22 1018 10 10000 3.1 40 14:19 15.11.2019
4147 Clear 22 1018 10 10000 2.1 100 13:56 15.11.2019
4148 Clear 23 1018 9 10000 2.6 130 13:38 15.11.2019
4149 Clear 23 1018 9 10000 2.6 130 13:19 15.11.2019
4150 Clear 25 1017 7 10000 2.6 130 12:56 15.11.2019
4151 Clear 26 1017 7 10000 3.1 140 12:37 15.11.2019
4152 Clear 26 1017 7 10000 3.1 140 12:18 15.11.2019
4153 Clear 28 1016 7 10000 3.1 150 11:40 15.11.2019
4154 Clear 28 1016 7 10000 3.1 150 11:21 15.11.2019
4155 Clear 28 1016 7 10000 3.1 150 11:21 15.11.2019
4156 Clear 30 1016 6 10000 3.6 140 10:59 15.11.2019
4157 Clear 31 1016 5 10000 5.1 160 10:39 15.11.2019
4158 Clear 31 1016 5 10000 5.1 160 10:20 15.11.2019
4159 Clear 32 1015 6 10000 4.6 130 09:42 15.11.2019
4160 Clear 32 1015 6 10000 4.6 130 09:21 15.11.2019
4161 Clear 33 1015 5 10000 7.7 170 08:58 15.11.2019
4162 Clear 32 1015 6 10000 3.6 140 08:40 15.11.2019
4163 Clear 32 1015 6 10000 3.6 140 08:21 15.11.2019
4164 Clear 33 1015 6 10000 4.1 170 07:44 15.11.2019
4165 Clear 34 1015 5 10000 4.6 160 07:25 15.11.2019
4166 Clear 33 1015 6 10000 3.1 90 06:36 15.11.2019
4167 Clear 32 1016 6 10000 5.1 160 05:54 15.11.2019
4168 Clear 33 1016 6 10000 7.2 110 05:35 15.11.2019
4169 Clear 33 1016 6 10000 7.7 130 04:53 15.11.2019
4170 Clear 31 1017 6 10000 4.6 150 03:43 15.11.2019
4171 Clear 30 1018 7 10000 3.6 120 02:34 15.11.2019
4172 Clear 29 1018 8 10000 5.1 120 01:55 15.11.2019
4173 Clear 28 1018 8 10000 4.6 80 01:32 15.11.2019
4174 Clear 26 1018 9 10000 3.1 80 00:40 15.11.2019
4175 Clear 24 1018 9 10000 5.58 99 00:21 15.11.2019
4176 Clear 22 1018 10 10000 0.5 230 23:46 14.11.2019
4177 Clear 22 1018 10 10000 0.5 230 23:26 14.11.2019
4178 Clear 15 1017 14 10000 2.1 270 22:42 14.11.2019
4179 Clear 15 1017 14 10000 2.1 270 22:23 14.11.2019
4180 Clear 15 1017 14 10000 2.1 270 22:23 14.11.2019
4181 Clear 13 1017 15 10000 2.6 300 21:58 14.11.2019
4182 Clear 13 1017 15 10000 1.5 280 21:40 14.11.2019
4183 Clear 13 1017 15 10000 1.5 280 21:40 14.11.2019
4184 Clear 13 1017 15 10000 1.5 280 21:40 14.11.2019
4185 Clear 13 1017 15 10000 1.5 280 21:22 14.11.2019
4186 Clear 13 1016 15 10000 1.5 280 20:55 14.11.2019
4187 Clear 14 1016 14 10000 2.1 300 20:37 14.11.2019
4188 Clear 14 1016 14 10000 2.1 300 20:18 14.11.2019
4189 Clear 14 1016 14 10000 2.1 300 20:18 14.11.2019
4190 Clear 14 1016 15 10000 1.5 300 19:54 14.11.2019
4191 Clear 15 1016 13 10000 2.1 300 19:36 14.11.2019
4192 Clear 15 1016 13 10000 2.1 240 19:18 14.11.2019
4193 Clear 15 1016 13 10000 2.1 240 19:18 14.11.2019
4194 Clear 16 1016 12 10000 2.1 280 18:42 14.11.2019
4195 Clear 16 1016 12 10000 2.1 280 18:22 14.11.2019
4196 Clear 17 1016 11 10000 1.5 290 17:57 14.11.2019
4197 Clear 17 1016 11 10000 1.5 290 17:37 14.11.2019
4198 Clear 17 1017 12 10000 4.6 99 17:19 14.11.2019
4199 Clear 17 1017 12 10000 4.6 99 16:57 14.11.2019
4200 Clear 18 1017 11 10000 4.6 99 16:37 14.11.2019
4201 Clear 18 1017 11 10000 4.6 99 16:19 14.11.2019
4202 Clear 19 1017 12 10000 3.1 130 15:57 14.11.2019
4203 Clear 19 1017 11 10000 2.1 80 15:38 14.11.2019
4204 Clear 19 1017 11 10000 2.1 80 15:19 14.11.2019
4205 Clear 20 1018 10 10000 1.5 70 14:45 14.11.2019
4206 Clear 21 1018 9 10000 2.1 90 14:22 14.11.2019
4207 Clear 22 1018 10 10000 2.1 130 13:57 14.11.2019
4208 Clear 23 1017 8 10000 3.1 140 13:38 14.11.2019
4209 Clear 23 1017 8 10000 3.1 140 13:19 14.11.2019
4210 Clear 24 1017 8 10000 3.1 130 12:56 14.11.2019
4211 Clear 25 1017 8 10000 3.6 130 12:37 14.11.2019
4212 Clear 25 1017 8 10000 3.6 130 12:18 14.11.2019
4213 Clear 28 1016 7 10000 3.6 130 11:39 14.11.2019
4214 Clear 28 1016 7 10000 3.6 130 11:20 14.11.2019
4215 Clear 28 1016 7 10000 3.6 130 11:20 14.11.2019
4216 Clear 28 1016 7 10000 3.6 130 11:20 14.11.2019
4217 Clear 29 1016 7 10000 4.1 130 10:59 14.11.2019
4218 Clear 30 1016 6 10000 3.6 140 10:40 14.11.2019
4219 Clear 30 1016 6 10000 3.6 140 10:20 14.11.2019
4220 Clear 31 1015 5 10000 5.1 150 09:56 14.11.2019
4221 Clear 31 1015 5 10000 3.6 120 09:38 14.11.2019
4222 Clear 31 1015 5 10000 3.6 70 09:19 14.11.2019
4223 Clear 31 1015 5 10000 3.6 70 08:47 14.11.2019
4224 Clear 31 1015 5 10000 3.6 70 08:25 14.11.2019
4225 Clear 31 1016 5 10000 4.6 90 07:57 14.11.2019
4226 Clear 31 1016 5 10000 3.6 80 07:37 14.11.2019
4227 Clear 31 1016 5 10000 3.6 80 07:19 14.11.2019
4228 Clear 30 1016 6 10000 5.1 90 06:42 14.11.2019
4229 Clear 31 1017 5 10000 4.6 130 06:18 14.11.2019
4230 Clear 29 1016 8 0 6.35 114 04:42 14.11.2019
4231 Clear 27 1020 8 10000 6.2 130 04:22 14.11.2019
4232 Clear 27 1020 10 10000 6.2 110 02:47 14.11.2019
4233 Clear 25 1021 12 10000 5.7 130 01:51 14.11.2019
4234 Clear 24 1021 13 10000 6.2 130 01:32 14.11.2019
4235 Clear 23 1021 13 10000 6.2 90 00:49 14.11.2019
4236 Clear 22 1021 15 10000 6.7 110 00:29 14.11.2019
4237 Clear 20 1021 19 10000 5.7 90 23:41 13.11.2019
4238 Clear 20 1021 19 10000 5.7 90 23:22 13.11.2019
4239 Clear 18 1021 22 10000 2.6 110 22:57 13.11.2019
4240 Clear 15 1020 24 10000 1.5 110 22:39 13.11.2019
4241 Clear 15 1020 24 10000 1.5 110 22:21 13.11.2019
4242 Clear 13 1020 26 10000 1.5 120 21:56 13.11.2019
4243 Clear 14 1020 26 10000 1.5 120 21:37 13.11.2019
4244 Clear 14 1020 26 10000 1.5 120 21:19 13.11.2019
4245 Clear 14 1019 26 10000 1.5 120 20:56 13.11.2019
4246 Clear 14 1019 24 10000 2.1 110 20:37 13.11.2019
4247 -273 0 0 0 0 0 20:37 13.11.2019
4248 Clear 14 1019 24 10000 2.1 110 20:19 13.11.2019
4249 Clear 16 1019 23 10000 2.6 110 19:44 13.11.2019
4250 Clear 16 1019 25 10000 6.72 109 19:21 13.11.2019
4251 Clear 16 1019 23 10000 2.6 120 18:59 13.11.2019
4252 Clear 17 1019 23 10000 2.6 110 18:39 13.11.2019
4253 Clear 17 1019 23 10000 2.6 110 18:21 13.11.2019
4254 Clear 17 1019 21 10000 6.72 109 17:59 13.11.2019
4255 Clear 17 1019 21 10000 6.72 109 17:40 13.11.2019
4256 Clear 17 1019 21 10000 7.08 117 17:22 13.11.2019
4257 Clear 18 1020 22 10000 3.1 90 16:59 13.11.2019
4258 -273 0 0 0 0 0 16:59 13.11.2019
4259 Clear 18 1020 22 10000 3.1 90 16:59 13.11.2019
4260 Clear 19 1020 20 10000 2.1 110 16:40 13.11.2019
4261 Clear 19 1020 20 10000 2.1 110 16:21 13.11.2019
4262 Clear 19 1020 20 10000 2.1 110 16:21 13.11.2019
4263 Clear 19 1020 20 10000 2.6 110 15:58 13.11.2019
4264 Clear 20 1020 18 10000 3.1 130 15:39 13.11.2019
4265 Clear 20 1020 18 10000 3.1 130 15:20 13.11.2019
4266 Clear 21 1021 16 10000 2.6 120 14:43 13.11.2019
4267 Clear 21 1021 16 10000 2.6 120 14:23 13.11.2019
4268 Clear 22 1021 15 10000 3.1 140 13:58 13.11.2019
4269 Clear 23 1021 15 10000 3.6 130 13:36 13.11.2019
4270 Clear 23 1021 15 10000 3.6 130 13:18 13.11.2019
4271 Clear 24 1020 14 10000 4.1 130 12:55 13.11.2019
4272 Clear 24 1020 14 10000 4.1 130 12:37 13.11.2019
4273 Clear 24 1020 14 10000 4.1 130 12:19 13.11.2019
4274 Clear 26 1019 12 10000 4.1 140 11:40 13.11.2019
4275 Clear 26 1019 12 10000 4.1 140 11:20 13.11.2019
4276 Clear 26 1019 13 10000 5.7 140 10:58 13.11.2019
4277 Clear 27 1018 11 10000 5.7 140 10:40 13.11.2019
4278 Clear 27 1018 11 10000 5.7 140 10:20 13.11.2019
4279 Clear 28 1018 12 10000 5.7 120 09:55 13.11.2019
4280 Clear 28 1018 12 10000 5.7 120 09:55 13.11.2019
4281 Clear 28 1018 12 10000 5.1 120 09:37 13.11.2019
4282 Clear 28 1018 12 10000 5.1 120 09:19 13.11.2019
4283 Clear 29 1018 12 10000 5.7 120 08:39 13.11.2019
4284 Clouds 29 1018 12 10000 5.7 120 08:20 13.11.2019
4285 Clear 29 1018 12 10000 7.7 110 07:42 13.11.2019
4286 Clear 30 1018 11 10000 6.7 140 07:20 13.11.2019
4287 Clear 29 1018 12 10000 6.7 130 06:46 13.11.2019
4288 Clear 29 1019 12 10000 5.7 130 06:19 13.11.2019
4289 Clear 29 1019 12 10000 5.7 130 06:19 13.11.2019
4290 Clear 29 1019 12 10000 5.7 130 06:19 13.11.2019
4291 Clear 28 1019 12 10000 6.2 150 05:53 13.11.2019
4292 Clear 29 1019 11 10000 6.7 110 05:31 13.11.2019
4293 Clear 27 1020 12 10000 6.2 150 04:43 13.11.2019
4294 Clouds 25 1022 14 10000 6.2 130 02:19 13.11.2019
4295 Clouds 23 1022 17 10000 8.2 110 01:41 13.11.2019
4296 Clouds 22 1022 17 10000 7.7 120 00:44 13.11.2019
4297 Clouds 21 1022 19 10000 8.7 110 00:21 13.11.2019
4298 Clouds 21 1022 19 10000 8.2 120 23:42 12.11.2019
4299 Clouds 20 1022 20 10000 8.7 120 23:21 12.11.2019
4300 Clouds 20 1022 22 10000 7.7 120 22:54 12.11.2019
4301 Clouds 19 1022 25 10000 4.1 130 22:36 12.11.2019
4302 Clouds 19 1022 25 10000 4.1 130 22:18 12.11.2019
4303 Clouds 19 1022 25 10000 4.1 130 22:18 12.11.2019
4304 Clouds 18 1021 27 10000 4.1 140 21:43 12.11.2019
4305 Clouds 19 1020 30 10000 4.6 130 21:24 12.11.2019
4306 Clouds 19 1020 30 10000 5.7 130 20:57 12.11.2019
4307 Clouds 19 1020 30 10000 4.6 140 20:37 12.11.2019
4308 Clear 19 1020 32 10000 4.6 140 20:19 12.11.2019
4309 Clear 20 1020 32 10000 5.7 140 19:57 12.11.2019
4310 Clear 20 1020 32 10000 3.1 140 19:39 12.11.2019
4311 Clear 20 1020 32 10000 3.1 140 19:19 12.11.2019
4312 Clear 20 1020 32 10000 3.6 150 18:58 12.11.2019
4313 Clear 20 1020 32 10000 3.6 150 18:58 12.11.2019
4314 Clear 21 1019 22 10000 4.1 140 18:39 12.11.2019
4315 Clear 21 1019 22 10000 4.1 140 18:21 12.11.2019
4316 Clear 22 1019 21 10000 4.6 140 17:57 12.11.2019
4317 Clear 22 1019 21 10000 4.6 140 17:57 12.11.2019
4318 Clear 22 1020 32 10000 4.1 140 17:39 12.11.2019
4319 Clear 22 1020 22 10000 4.1 140 17:20 12.11.2019
4320 Clear 23 1020 22 10000 6.7 140 16:44 12.11.2019
4321 Clear 24 1020 19 10000 5.7 140 16:26 12.11.2019
4322 Clear 24 1020 22 10000 5.7 140 15:58 12.11.2019
4323 Clear 25 1020 22 10000 6.2 140 15:40 12.11.2019
4324 Clear 25 1020 22 10000 6.2 140 15:21 12.11.2019
4325 Clear 25 1020 17 10000 6.7 140 14:56 12.11.2019
4326 Clear 26 1020 22 10000 6.7 130 14:36 12.11.2019
4327 Clear 26 1020 17 10000 6.7 130 14:18 12.11.2019
4328 Clear 27 1019 17 10000 7.7 140 13:55 12.11.2019
4329 Clear 28 1018 15 10000 7.7 140 13:36 12.11.2019
4330 Clear 28 1018 15 10000 7.7 140 13:36 12.11.2019
4331 Clear 28 1018 15 10000 7.7 140 13:18 12.11.2019
4332 Clear 29 1017 13 10000 7.7 140 12:40 12.11.2019
4333 Clear 29 1017 13 10000 7.7 140 12:19 12.11.2019
4334 Clear 29 1017 13 10000 7.7 140 12:19 12.11.2019
4335 Clear 31 1016 11 10000 5.7 150 11:56 12.11.2019
4336 Clear 31 1016 12 10000 5.1 140 11:38 12.11.2019
4337 Clear 31 1016 12 10000 5.1 140 11:38 12.11.2019
4338 Clear 31 1016 12 10000 5.1 140 11:20 12.11.2019
4339 Clear 32 1015 11 10000 5.1 140 10:55 12.11.2019
4340 Clear 34 1014 9 10000 5.7 140 10:36 12.11.2019
4341 Clear 34 1014 9 10000 5.7 140 10:18 12.11.2019
4342 Clear 35 1014 8 10000 6.2 140 09:40 12.11.2019
4343 Clear 35 1014 8 10000 6.2 140 09:20 12.11.2019
4344 Clear 36 1014 8 10000 6.7 140 08:50 12.11.2019
4345 Clear 36 1013 7 10000 5.7 190 08:29 12.11.2019
4346 Clear 36 1013 7 10000 5.7 190 07:43 12.11.2019
4347 Clear 37 1013 6 10000 5.1 170 07:25 12.11.2019
4348 Clear 36 1013 7 10000 6.7 160 06:54 12.11.2019
4349 Clear 36 1014 7 10000 5.1 170 06:29 12.11.2019
4350 Clear 36 1014 7 10000 5.7 180 05:57 12.11.2019
4351 Clear 37 1014 6 10000 5.7 150 04:59 12.11.2019
4352 Clear 36 1015 6 10000 3.6 200 04:39 12.11.2019
4353 Clear 33 1016 5 10000 4.1 170 02:48 12.11.2019
4354 Clear 32 1016 6 10000 2.6 190 01:38 12.11.2019
4355 Clear 32 1016 6 10000 2.6 190 01:18 12.11.2019
4356 Clear 29 1016 7 10000 1 220 00:40 12.11.2019
4357 Clear 29 1016 7 10000 1 220 00:18 12.11.2019
4358 Clear 27 1015 8 10000 3.6 180 23:41 11.11.2019
4359 Clear 27 1015 8 10000 3.6 180 23:20 11.11.2019
4360 Clear 19 1014 10 10000 3.1 220 22:39 11.11.2019
4361 Clear 19 1014 10 10000 3.1 220 22:20 11.11.2019
4362 Clear 18 1013 10 10000 2.6 240 21:59 11.11.2019
4363 Clear 16 1012 11 10000 1 150 21:39 11.11.2019
4364 Clear 16 1012 11 10000 1 150 21:21 11.11.2019
4365 Clear 16 1012 9 10000 2.6 130 20:59 11.11.2019
4366 Clear 19 1011 10 10000 1 150 20:40 11.11.2019
4367 Clear 19 1011 10 10000 1 150 20:20 11.11.2019
4368 Clear 17 1011 10 10000 6.21 34 19:56 11.11.2019
4369 Clear 18 1011 10 10000 0.5 350 19:37 11.11.2019
4370 Clear 18 1011 10 10000 0.5 350 19:18 11.11.2019
4371 Clear 18 1011 10 10000 2.6 70 18:41 11.11.2019
4372 Clear 19 1011 9 10000 2.6 80 18:21 11.11.2019
4373 Clear 21 1012 9 10000 1.5 130 17:46 11.11.2019
4374 Clear 21 1012 9 10000 1.5 130 17:46 11.11.2019
4375 Clear 21 1012 9 10000 1.5 80 17:28 11.11.2019
4376 Clear 24 1012 7 10000 2.6 50 16:59 11.11.2019
4377 Clear 24 1012 7 10000 2.6 50 16:39 11.11.2019
4378 Clear 24 1012 8 10000 3.1 40 16:20 11.11.2019
4379 Clear 24 1013 8 10000 3.6 30 15:42 11.11.2019
4380 Clear 24 1013 8 10000 3.1 50 15:20 11.11.2019
4381 Clear 24 1013 6 10000 3.1 50 14:57 11.11.2019
4382 Clear 24 1013 6 10000 3.1 50 14:39 11.11.2019
4383 Clouds 25 1013 7 10000 3.1 60 14:21 11.11.2019
4384 Clouds 25 1013 6 10000 3.1 50 13:57 11.11.2019
4385 Clouds 25 1013 7 10000 3.6 90 13:37 11.11.2019
4386 Clouds 25 1013 7 10000 3.6 90 13:19 11.11.2019
4387 Clouds 26 1013 6 10000 3.1 110 12:55 11.11.2019
4388 Clouds 27 1012 6 10000 3.1 130 12:37 11.11.2019
4389 Clouds 27 1012 6 10000 3.1 130 12:19 11.11.2019
4390 Clouds 29 1012 5 10000 3.1 150 11:41 11.11.2019
4391 Clouds 30 1011 4 10000 3.6 150 11:21 11.11.2019
4392 Clouds 33 1011 3 10000 3.6 170 10:44 11.11.2019
4393 Clouds 35 1011 4 10000 3.6 200 10:20 11.11.2019
4394 Clouds 35 1011 4 10000 3.6 200 10:20 11.11.2019
4395 Clouds 35 1010 4 10000 4.1 160 09:59 11.11.2019
4396 Clouds 35 1010 4 10000 4.1 160 09:41 11.11.2019
4397 Clouds 36 1010 3 10000 3.1 230 09:20 11.11.2019
4398 Clouds 36 1010 4 10000 3.1 170 08:43 11.11.2019
4399 Clouds 37 1010 3 10000 1 30 08:23 11.11.2019
4400 Clouds 36 1010 4 10000 2.6 310 07:57 11.11.2019
4401 Clouds 36 1010 4 10000 2.6 310 07:38 11.11.2019
4402 Clouds 37 1011 4 10000 2.6 360 07:19 11.11.2019
4403 Clouds 36 1011 5 10000 2.6 170 06:55 11.11.2019
4404 Clouds 36 1011 4 10000 3.1 220 06:37 11.11.2019
4405 Clouds 36 1011 4 10000 3.1 220 06:18 11.11.2019
4406 Clouds 34 1012 5 10000 3.6 230 05:42 11.11.2019
4407 Clear 33 1014 5 10000 3.1 300 03:26 11.11.2019
4408 Clear 31 1015 6 10000 2.6 50 02:30 11.11.2019
4409 Clouds 31 1015 6 10000 3.1 30 01:57 11.11.2019
4410 Clouds 29 1016 7 10000 0.5 290 01:36 11.11.2019
4411 Clouds 28 1016 7 10000 2.6 20 00:53 11.11.2019
4412 Clouds 26 1016 9 10000 2.6 50 00:29 11.11.2019
4413 Clouds 25 1016 9 10000 3.1 70 23:56 10.11.2019
4414 Clouds 22 1016 10 10000 5.07 15 23:36 10.11.2019
4415 Clouds 22 1016 10 10000 4.7 32 23:18 10.11.2019
4416 Clouds 19 1015 13 10000 4.7 32 22:55 10.11.2019
4417 Clouds 15 1015 14 10000 4.7 32 22:36 10.11.2019
4418 Clouds 15 1015 14 10000 4.7 32 22:18 10.11.2019
4419 Clouds 13 1015 16 10000 1.5 320 21:40 10.11.2019
4420 Clouds 12 1015 17 10000 2.1 310 21:22 10.11.2019
4421 Clouds 12 1015 17 10000 1.5 310 20:59 10.11.2019
4422 Clouds 12 1015 17 10000 1.5 310 20:39 10.11.2019
4423 Clouds 13 1015 15 10000 2.1 320 20:21 10.11.2019
4424 Clouds 13 1015 15 10000 1.5 300 19:55 10.11.2019
4425 Clouds 14 1014 15 10000 2.1 280 19:37 10.11.2019
4426 Clouds 14 1014 15 10000 2.1 280 19:18 10.11.2019
4427 Clouds 14 1014 15 10000 2.1 280 19:18 10.11.2019
4428 Clouds 14 1015 14 10000 2.1 300 18:55 10.11.2019
4429 Clouds 14 1015 14 10000 0.5 270 18:37 10.11.2019
4430 Clouds 14 1015 14 10000 0.5 270 18:19 10.11.2019
4431 Clouds 14 1015 14 10000 0.5 270 18:19 10.11.2019
4432 Clouds 16 1015 13 10000 4.35 58 17:55 10.11.2019
4433 Clouds 17 1015 12 10000 4.35 58 17:37 10.11.2019
4434 Clouds 17 1015 12 10000 4.53 75 17:19 10.11.2019
4435 Clouds 16 1015 13 10000 4.53 75 16:44 10.11.2019
4436 Clouds 17 1016 11 10000 1.5 160 16:26 10.11.2019
4437 Clouds 18 1016 11 10000 1 90 15:57 10.11.2019
4438 Clouds 18 1016 11 10000 1 90 15:38 10.11.2019
4439 Clouds 19 1016 12 10000 2.1 50 15:19 10.11.2019
4440 Clouds 20 1016 11 10000 2.6 80 14:59 10.11.2019
4441 Clouds 20 1016 11 10000 2.6 80 14:39 10.11.2019
4442 Clouds 21 1016 11 10000 2.1 90 14:21 10.11.2019
4443 Clouds 22 1016 10 10000 3.1 90 13:56 10.11.2019
4444 Clouds 22 1016 10 10000 3.1 90 13:38 10.11.2019
4445 Clouds 24 1016 8 10000 4.1 110 13:19 10.11.2019
4446 Clouds 25 1016 9 10000 4.1 120 12:41 10.11.2019
4447 Clouds 26 1015 7 10000 4.1 120 12:20 10.11.2019
4448 Clouds 26 1015 7 10000 4.1 120 12:20 10.11.2019
4449 Clouds 27 1015 8 10000 3.6 130 11:56 10.11.2019
4450 Clouds 27 1015 7 10000 3.6 120 11:38 10.11.2019
4451 Clear 27 1015 7 10000 3.6 120 11:19 10.11.2019
4452 Clear 29 1014 6 10000 4.1 130 10:42 10.11.2019
4453 Clear 30 1014 6 10000 4.1 130 10:22 10.11.2019
4454 Clear 30 1014 6 10000 4.1 130 10:22 10.11.2019
4455 Clear 31 1014 6 10000 3.1 140 09:58 10.11.2019
4456 Clear 31 1014 6 10000 3.1 140 09:39 10.11.2019
4457 Clear 31 1014 5 10000 3.6 120 09:19 10.11.2019
4458 Clear 31 1014 6 10000 2.6 100 08:39 10.11.2019
4459 Clear 31 1014 6 10000 2.6 90 08:20 10.11.2019
4460 Clear 31 1014 6 10000 4.1 120 07:47 10.11.2019
4461 Clear 31 1014 6 10000 3.1 60 07:27 10.11.2019
4462 Clear 30 1014 7 10000 3.1 80 06:59 10.11.2019
4463 Clear 30 1015 7 10000 4.6 100 05:57 10.11.2019
4464 Clear 25 1019 11 10000 5.1 80 03:33 10.11.2019
4465 Clear 24 1020 13 10000 6.2 70 02:28 10.11.2019
4466 Clear 23 1020 13 10000 6.7 80 01:36 10.11.2019
4467 Clear 23 1020 13 10000 6.7 80 01:18 10.11.2019
4468 Clear 21 1021 15 10000 5.1 80 00:23 10.11.2019
4469 Clear 21 1021 15 10000 5.1 80 00:23 10.11.2019
4470 Clear 20 1020 18 10000 7.2 80 23:40 09.11.2019
4471 Clear 19 1020 19 10000 5.1 100 23:19 09.11.2019
4472 Clear 18 1020 20 10000 4.1 100 22:42 09.11.2019
4473 Clear 13 1020 28 10000 2.1 140 22:22 09.11.2019
4474 Clear 11 1019 29 10000 1.5 150 21:58 09.11.2019
4475 Clear 11 1019 29 10000 1.5 150 21:39 09.11.2019
4476 Clear 11 1019 29 10000 2.1 120 21:20 09.11.2019
4477 Clear 11 1019 27 10000 2.6 100 20:56 09.11.2019
4478 Clear 14 1019 26 10000 2.6 110 20:37 09.11.2019
4479 Clear 14 1019 26 10000 2.6 110 20:18 09.11.2019
4480 Clear 14 1019 26 10000 3.1 100 19:41 09.11.2019
4481 Clear 14 1019 28 10000 2.1 80 19:22 09.11.2019
4482 Clear 14 1019 26 10000 2.6 80 18:58 09.11.2019
4483 Clear 14 1019 28 10000 2.6 80 18:38 09.11.2019
4484 Clear 14 1019 28 10000 2.6 80 18:18 09.11.2019
4485 Clear 14 1019 26 10000 3.1 100 17:43 09.11.2019
4486 Clear 17 1019 23 10000 3.1 120 17:23 09.11.2019
4487 Clear 14 1020 24 10000 3.1 110 16:57 09.11.2019
4488 Clear 14 1020 24 10000 3.1 110 16:39 09.11.2019
4489 Clear 16 1020 23 10000 3.1 120 16:19 09.11.2019
4490 Clear 18 1020 20 10000 3.1 130 15:42 09.11.2019
4491 Clear 19 1020 20 10000 3.6 120 15:23 09.11.2019
4492 Clear 19 1020 20 10000 3.6 120 15:23 09.11.2019
4493 Clear 19 1021 20 10000 3.6 120 14:47 09.11.2019
4494 Clear 20 1021 19 10000 3.1 130 14:24 09.11.2019
4495 Clear 21 1021 18 10000 3.1 130 13:58 09.11.2019
4496 Clear 21 1021 18 10000 3.1 130 13:40 09.11.2019
4497 Clear 22 1020 17 10000 3.1 120 13:21 09.11.2019
4498 Clear 22 1020 18 10000 3.1 120 12:59 09.11.2019
4499 Clear 22 1020 18 10000 3.1 120 12:40 09.11.2019
4500 Clear 23 1020 16 10000 3.1 140 12:22 09.11.2019
4501 Clear 24 1020 15 10000 3.6 140 11:54 09.11.2019
4502 Clear 25 1019 13 10000 4.1 140 11:36 09.11.2019
4503 Clear 25 1019 13 10000 4.1 140 11:18 09.11.2019
4504 Clear 26 1018 13 10000 5.7 130 10:39 09.11.2019
4505 Clear 26 1018 13 10000 5.7 130 10:19 09.11.2019
4506 Clear 26 1018 13 10000 5.7 130 10:19 09.11.2019
4507 Clear 27 1018 12 10000 6.2 140 09:45 09.11.2019
4508 Clear 28 1018 12 10000 6.2 140 09:27 09.11.2019
4509 Clear 28 1017 12 10000 7.2 150 08:58 09.11.2019
4510 Clear 29 1018 11 10000 6.7 120 08:39 09.11.2019
4511 Clear 29 1018 11 10000 6.7 120 08:19 09.11.2019
4512 Clear 28 1018 12 10000 5.7 150 07:45 09.11.2019
4513 Clear 28 1018 12 10000 5.1 160 07:23 09.11.2019
4514 Clear 27 1018 12 10000 5.7 130 06:49 09.11.2019
4515 Clear 27 1019 13 10000 5.7 100 06:30 09.11.2019
4516 Clear 28 1019 14 10000 5.1 140 05:43 09.11.2019
4517 Clear 27 1019 14 10000 4.6 100 04:58 09.11.2019
4518 Clear 25 1021 19 10000 6.7 130 03:37 09.11.2019
4519 Clear 25 1021 20 10000 6.7 140 02:43 09.11.2019
4520 Clear 23 1022 25 10000 6.7 110 01:55 09.11.2019
4521 Clear 22 1022 26 10000 8.2 110 00:51 09.11.2019
4522 Clear 21 1022 28 10000 9.3 120 00:31 09.11.2019
4523 Clear 21 1022 30 10000 9.8 110 23:57 08.11.2019
4524 Clear 20 1022 32 10000 8.2 120 23:38 08.11.2019
4525 Clear 20 1022 32 10000 8.2 120 23:19 08.11.2019
4526 Clear 20 1022 32 10000 7.7 120 22:47 08.11.2019
4527 Clear 19 1021 37 10000 7.2 130 22:22 08.11.2019
4528 Clear 19 1021 37 10000 6.2 130 21:56 08.11.2019
4529 Clear 19 1020 37 10000 6.2 130 21:38 08.11.2019
4530 Clear 19 1020 37 10000 6.2 130 21:18 08.11.2019
4531 Clear 19 1020 34 10000 6.7 130 20:41 08.11.2019
4532 Clouds 20 1020 32 10000 7.7 120 20:21 08.11.2019
4533 Clear 20 1020 28 10000 4.6 130 19:58 08.11.2019
4534 Clear 20 1020 28 10000 4.6 130 19:58 08.11.2019
4535 Clear 20 1020 30 10000 3.6 140 19:38 08.11.2019
4536 Clear 20 1020 30 10000 3.6 140 19:18 08.11.2019
4537 Clear 21 1019 26 10000 5.1 130 18:55 08.11.2019
4538 Clear 22 1019 26 10000 5.7 120 18:37 08.11.2019
4539 Clear 22 1019 26 10000 5.7 120 18:19 08.11.2019
4540 Clear 22 1019 24 10000 4.6 130 17:55 08.11.2019
4541 Clear 22 1019 24 10000 4.6 130 17:55 08.11.2019
4542 Clear 23 1019 25 10000 5.7 120 17:36 08.11.2019
4543 Clear 23 1019 25 10000 5.7 120 17:18 08.11.2019
4544 Clear 22 1019 24 10000 3.6 130 16:57 08.11.2019
4545 Clear 23 1019 23 10000 3.6 130 16:39 08.11.2019
4546 Clear 23 1019 23 10000 3.6 130 16:19 08.11.2019
4547 Clear 24 1019 28 10000 5.7 130 15:56 08.11.2019
4548 Clear 25 1019 28 10000 6.2 130 15:38 08.11.2019
4549 Clear 25 1019 28 10000 6.2 130 15:38 08.11.2019
4550 Clear 25 1019 28 10000 6.2 130 15:19 08.11.2019
4551 Clear 26 1019 16 10000 6.2 130 14:55 08.11.2019
4552 Clear 26 1019 16 10000 6.2 130 14:36 08.11.2019
4553 Clear 26 1019 16 10000 6.2 130 14:36 08.11.2019
4554 Clear 26 1019 16 10000 6.2 130 14:18 08.11.2019
4555 Clear 26 1019 16 10000 6.2 130 14:18 08.11.2019
4556 Clear 26 1018 16 10000 4.1 140 13:42 08.11.2019
4557 Clear 27 1018 15 10000 4.6 150 13:22 08.11.2019
4558 Clear 27 1018 15 10000 4.6 150 13:22 08.11.2019
4559 Clear 27 1018 14 10000 3.6 130 12:57 08.11.2019
4560 Clear 28 1017 14 10000 3.1 130 12:39 08.11.2019
4561 Clear 28 1017 14 10000 3.1 130 12:21 08.11.2019
4562 Clear 28 1017 14 10000 2.6 130 11:55 08.11.2019
4563 Clear 29 1017 13 10000 3.6 150 11:37 08.11.2019
4564 Clear 29 1017 13 10000 3.6 150 11:37 08.11.2019
4565 Clear 29 1017 13 10000 3.6 150 11:18 08.11.2019
4566 Clear 30 1016 12 10000 4.6 150 10:42 08.11.2019
4567 Clear 32 1016 10 10000 5.1 160 10:22 08.11.2019
4568 Clear 32 1015 11 10000 5.1 180 09:58 08.11.2019
4569 Clear 33 1015 9 10000 5.7 180 09:39 08.11.2019
4570 Clear 33 1015 9 10000 5.7 180 09:19 08.11.2019
4571 Clear 33 1015 10 10000 5.1 190 08:46 08.11.2019
4572 Clear 33 1015 9 10000 3.6 180 08:23 08.11.2019
4573 Clear 33 1015 9 10000 5.7 180 07:56 08.11.2019
4574 Clear 34 1015 9 10000 4.1 150 07:37 08.11.2019
4575 Clear 34 1015 9 10000 4.1 150 07:19 08.11.2019
4576 Clear 33 1016 10 10000 2.6 230 06:38 08.11.2019
4577 Clear 33 1016 10 10000 2.6 230 06:19 08.11.2019
4578 Clear 32 1017 11 10000 4.6 210 05:36 08.11.2019
4579 Clear 32 1018 11 10000 3.6 70 04:29 08.11.2019
4580 Clear 31 1018 11 10000 3.6 90 03:43 08.11.2019
4581 Clear 30 1019 12 10000 4.1 100 03:19 08.11.2019
4582 Clear 29 1019 13 10000 6.7 140 01:57 08.11.2019
4583 Clear 28 1019 14 10000 6.7 120 01:37 08.11.2019
4584 Clear 27 1019 14 10000 6.7 130 00:49 08.11.2019
4585 Clear 27 1019 14 10000 6.2 120 00:23 08.11.2019
4586 Clear 26 1019 15 10000 5.7 130 23:52 07.11.2019
4587 Clear 23 1019 15 10000 3.1 160 23:33 07.11.2019
4588 Clear 21 1018 15 10000 3.1 230 22:58 07.11.2019
4589 Clear 18 1018 20 10000 2.6 310 22:40 07.11.2019
4590 Clear 18 1018 20 10000 2.6 310 22:20 07.11.2019
4591 Clear 16 1017 19 10000 2.6 300 21:40 07.11.2019
4592 Clear 16 1017 19 10000 2.6 300 21:21 07.11.2019
4593 Clear 17 1016 18 10000 2.1 270 20:59 07.11.2019
4594 Clear 17 1016 18 10000 2.6 290 20:41 07.11.2019
4595 Clear 17 1016 18 10000 2.6 290 20:23 07.11.2019
4596 Clear 18 1016 18 10000 2.1 290 19:59 07.11.2019
4597 Clear 19 1015 16 10000 0.5 260 19:40 07.11.2019
4598 Clear 19 1015 16 10000 0.5 260 19:21 07.11.2019
4599 Clear 19 1015 16 10000 2.1 200 18:58 07.11.2019
4600 Clear 19 1015 16 10000 2.1 200 18:58 07.11.2019
4601 Clear 18 1015 16 10000 1 0 18:39 07.11.2019
4602 Clear 18 1015 16 10000 1 0 18:19 07.11.2019
4603 Clear 18 1014 15 10000 1 140 17:57 07.11.2019
4604 Clear 18 1014 15 10000 1 140 17:38 07.11.2019
4605 Clear 20 1015 15 10000 1 360 17:20 07.11.2019
4606 Clear 20 1015 15 10000 1 360 16:55 07.11.2019
4607 Clear 20 1015 15 10000 1.5 330 16:37 07.11.2019
4608 Clear 20 1015 15 10000 1.5 330 16:19 07.11.2019
4609 Clear 21 1015 14 10000 2.6 50 15:42 07.11.2019
4610 Clear 21 1015 14 10000 2.6 50 15:21 07.11.2019
4611 Clear 23 1016 12 10000 2.6 60 14:58 07.11.2019
4612 Clear 24 1016 13 10000 2.6 60 14:38 07.11.2019
4613 Clear 24 1016 13 10000 2.6 60 14:20 07.11.2019
4614 Clear 24 1016 12 10000 2.6 80 13:55 07.11.2019
4615 Clear 25 1016 11 10000 3.1 60 13:37 07.11.2019
4616 Clear 25 1016 11 10000 3.1 60 13:37 07.11.2019
4617 Clear 25 1016 11 10000 3.1 60 13:19 07.11.2019
4618 Clear 27 1016 10 10000 3.1 100 12:56 07.11.2019
4619 Clear 27 1016 10 10000 3.6 150 12:38 07.11.2019
4620 Clear 27 1016 10 10000 3.6 150 12:18 07.11.2019
4621 Clear 30 1015 8 10000 3.6 140 11:42 07.11.2019
4622 Clear 30 1015 8 10000 3.6 140 11:23 07.11.2019
4623 Clear 33 1014 7 10000 3.6 150 10:42 07.11.2019
4624 Clear 33 1014 7 10000 3.6 150 10:19 07.11.2019
4625 Clear 33 1014 7 10000 3.6 150 10:19 07.11.2019
4626 Clear 34 1014 6 10000 3.6 180 09:56 07.11.2019
4627 Clear 34 1014 7 10000 4.6 180 09:38 07.11.2019
4628 Clear 34 1014 7 10000 4.6 180 09:20 07.11.2019
4629 Clear 34 1014 7 10000 4.6 180 09:20 07.11.2019
4630 Clear 34 1014 6 10000 5.1 190 08:45 07.11.2019
4631 Clear 34 1014 6 10000 5.1 190 08:24 07.11.2019
4632 -273 0 0 0 0 0 08:24 07.11.2019
4633 Clear 35 1014 6 10000 5.7 110 07:58 07.11.2019
4634 Clear 34 1014 6 10000 3.1 260 07:40 07.11.2019
4635 Clear 34 1014 6 10000 3.1 260 07:20 07.11.2019
4636 Clear 35 1014 6 10000 5.1 150 06:46 07.11.2019
4637 Clear 35 1014 6 10000 4.1 200 06:25 07.11.2019
4638 Clear 34 1015 6 10000 3.6 150 05:51 07.11.2019
4639 Clear 34 1015 6 10000 6.2 190 05:32 07.11.2019
4640 Clear 34 1015 6 10000 6.2 190 05:32 07.11.2019
4641 Clear 33 1016 7 10000 5.1 200 04:52 07.11.2019
4642 Clear 33 1016 7 10000 5.1 200 04:52 07.11.2019
4643 -273 0 0 0 0 0 04:52 07.11.2019
4644 Clear 33 1016 7 10000 3.1 70 04:29 07.11.2019
4645 Clear 29 1018 7 10000 2.6 120 01:29 07.11.2019
4646 Clear 29 1018 7 10000 2.6 120 01:29 07.11.2019
4647 Clear 27 1018 8 10000 3.6 170 00:32 07.11.2019
4648 Clear 25 1018 9 10000 3.3 151 23:59 06.11.2019
4649 Clear 22 1017 11 7000 3.3 151 23:40 06.11.2019
4650 Clear 22 1017 11 7000 3.28 49 23:20 06.11.2019
4651 Clear 17 1017 16 10000 2.6 270 22:40 06.11.2019
4652 Clear 15 1016 18 10000 2.6 270 22:21 06.11.2019
4653 Clear 15 1016 18 10000 2.6 270 21:57 06.11.2019
4654 Clear 15 1016 18 10000 2.1 290 21:39 06.11.2019
4655 Clear 15 1016 18 10000 2.1 290 21:39 06.11.2019
4656 Clear 15 1016 18 10000 2.1 290 21:20 06.11.2019
4657 Clear 15 1016 16 10000 1.5 240 20:57 06.11.2019
4658 Clear 15 1015 16 10000 1.5 240 20:39 06.11.2019
4659 Clear 15 1015 16 10000 1.5 240 20:39 06.11.2019
4660 Clear 15 1015 16 10000 1.5 240 20:20 06.11.2019
4661 Clear 15 1015 15 10000 2.1 240 19:56 06.11.2019
4662 Clear 16 1015 15 10000 1.5 270 19:36 06.11.2019
4663 Clear 16 1015 15 10000 1.5 270 19:18 06.11.2019
4664 Clear 16 1015 14 10000 0.5 290 18:55 06.11.2019
4665 Clear 16 1015 14 10000 3.99 47 18:36 06.11.2019
4666 Clear 16 1015 14 10000 3.99 47 18:18 06.11.2019
4667 Clear 17 1015 13 10000 3.99 47 17:42 06.11.2019
4668 Clear 17 1015 13 10000 4.23 73 17:23 06.11.2019
4669 Clear 18 1016 12 10000 4.23 73 16:57 06.11.2019
4670 Clear 18 1016 13 10000 4.23 73 16:39 06.11.2019
4671 Clear 18 1016 13 10000 4.23 73 16:39 06.11.2019
4672 Clear 18 1016 13 10000 4.23 73 16:20 06.11.2019
4673 Clear 19 1016 14 10000 4.23 73 15:57 06.11.2019
4674 Clear 19 1016 13 10000 4.23 73 15:37 06.11.2019
4675 Clear 19 1016 13 10000 4.23 73 15:19 06.11.2019
4676 Clear 21 1017 11 10000 1.5 100 14:57 06.11.2019
4677 Clear 22 1017 10 10000 2.6 70 14:39 06.11.2019
4678 Clear 22 1017 10 10000 2.6 70 14:20 06.11.2019
4679 Clear 22 1017 12 10000 2.1 30 13:58 06.11.2019
4680 Clear 23 1016 11 10000 2.6 130 13:37 06.11.2019
4681 Clear 23 1016 11 10000 2.6 130 13:18 06.11.2019
4682 Clear 24 1016 10 10000 2.6 130 12:54 06.11.2019
4683 Clear 26 1016 9 10000 3.1 130 12:36 06.11.2019
4684 Clear 26 1016 9 10000 3.1 130 12:18 06.11.2019
4685 Clear 27 1016 8 10000 3.6 130 11:54 06.11.2019
4686 Clear 28 1015 8 10000 3.6 130 11:36 06.11.2019
4687 Clear 28 1015 8 10000 3.6 130 11:18 06.11.2019
4688 Clear 30 1015 7 10000 3.6 140 10:42 06.11.2019
4689 Clear 31 1014 6 10000 4.6 150 10:24 06.11.2019
4690 Clear 31 1014 6 10000 4.6 150 10:24 06.11.2019
4691 Clear 32 1014 7 10000 5.7 150 09:58 06.11.2019
4692 Clear 32 1014 7 10000 4.6 130 09:39 06.11.2019
4693 Clear 32 1014 7 10000 4.6 130 09:20 06.11.2019
4694 Clear 33 1014 6 10000 5.7 130 08:55 06.11.2019
4695 Clear 32 1014 7 10000 5.7 160 08:37 06.11.2019
4696 Clear 32 1014 7 10000 5.7 160 08:37 06.11.2019
4697 Clear 32 1014 7 10000 5.7 160 08:37 06.11.2019
4698 Clouds 32 1014 7 10000 5.7 160 08:18 06.11.2019
4699 Clear 33 1014 6 10000 4.6 160 07:43 06.11.2019
4700 Clear 33 1014 6 10000 6.2 140 07:24 06.11.2019
4701 Clear 33 1014 6 10000 7.2 110 06:48 06.11.2019
4702 Clear 33 1015 6 10000 5.7 120 06:28 06.11.2019
4703 Clear 32 1015 7 10000 7.7 100 05:32 06.11.2019
4704 Clouds 30 1018 6 10000 4.1 90 03:22 06.11.2019
4705 Clear 28 1019 7 10000 5.1 50 01:41 06.11.2019
4706 Clear 26 1020 9 10000 5.7 30 00:46 06.11.2019
4707 Clear 26 1020 9 10000 5.7 30 00:46 06.11.2019
4708 Clear 24 1020 9 10000 5.7 70 23:59 05.11.2019
4709 Clear 22 1020 12 10000 3.98 78 23:40 05.11.2019
4710 Clear 22 1020 12 10000 3.78 62 23:21 05.11.2019
4711 Clear 16 1020 19 10000 0.5 340 22:55 05.11.2019
4712 Clear 13 1019 24 10000 1.5 340 22:37 05.11.2019
4713 Clear 13 1019 24 10000 1.5 340 22:18 05.11.2019
4714 Clear 11 1019 23 10000 2.1 350 21:42 05.11.2019
4715 Clear 12 1019 23 10000 2.1 330 21:21 05.11.2019
4716 Clear 11 1018 21 10000 2.1 320 20:59 05.11.2019
4717 Clear 13 1018 20 10000 2.1 300 20:39 05.11.2019
4718 Clear 13 1018 20 10000 2.1 300 20:20 05.11.2019
4719 Clear 13 1018 20 10000 2.1 310 19:58 05.11.2019
4720 Clear 12 1018 22 10000 2.1 310 19:38 05.11.2019
4721 Clear 12 1018 22 10000 2.1 310 19:20 05.11.2019
4722 Clear 14 1018 19 10000 2.1 310 18:57 05.11.2019
4723 Clear 13 1018 20 10000 2.6 300 18:39 05.11.2019
4724 Clear 13 1018 20 10000 2.6 300 18:39 05.11.2019
4725 Clear 13 1018 20 10000 2.6 300 18:20 05.11.2019
4726 Clear 13 1018 20 10000 2.6 300 18:20 05.11.2019
4727 Clear 14 1018 17 10000 2.6 300 17:58 05.11.2019
4728 Clear 14 1018 17 10000 2.1 260 17:38 05.11.2019
4729 Clear 14 1018 17 10000 2.1 260 17:18 05.11.2019
4730 Clear 14 1018 16 10000 1 310 16:55 05.11.2019
4731 Clear 15 1018 19 10000 3.09 104 16:37 05.11.2019
4732 Clear 15 1018 19 10000 3.09 104 16:18 05.11.2019
4733 Clear 17 1019 17 10000 2.1 360 15:37 05.11.2019
4734 Clear 17 1019 17 10000 2.1 360 15:19 05.11.2019
4735 Clear 17 1019 17 10000 2.1 360 15:19 05.11.2019
4736 Clear 18 1019 15 10000 3.09 104 14:57 05.11.2019
4737 Clear 19 1019 15 10000 3.09 104 14:38 05.11.2019
4738 Clear 19 1019 15 10000 3.09 104 14:38 05.11.2019
4739 Clouds 19 1019 15 10000 3.91 121 14:20 05.11.2019
4740 Clouds 19 1019 14 10000 2.6 140 13:43 05.11.2019
4741 Clouds 21 1019 12 10000 2.6 140 13:24 05.11.2019
4742 Clouds 21 1019 12 10000 3.1 140 12:59 05.11.2019
4743 Clouds 23 1019 11 10000 3.1 130 12:39 05.11.2019
4744 Clouds 23 1019 11 10000 3.1 130 12:19 05.11.2019
4745 Clouds 24 1018 11 10000 3.1 130 11:54 05.11.2019
4746 Clouds 25 1018 9 10000 3.6 130 11:36 05.11.2019
4747 Clouds 25 1018 9 10000 3.6 130 11:36 05.11.2019
4748 Clear 25 1018 9 10000 3.6 130 11:18 05.11.2019
4749 Clear 25 1018 9 10000 3.6 130 11:18 05.11.2019
4750 Clear 27 1018 8 10000 4.1 130 10:41 05.11.2019
4751 Clear 28 1018 8 10000 4.6 120 10:23 05.11.2019
4752 Clear 28 1018 8 10000 4.6 120 10:23 05.11.2019
4753 Clear 29 1017 7 10000 6.2 120 09:57 05.11.2019
4754 Clear 29 1017 8 10000 5.7 140 09:38 05.11.2019
4755 Clear 29 1017 8 10000 5.7 140 09:18 05.11.2019
4756 Clear 29 1017 9 10000 5.7 170 08:40 05.11.2019
4757 Clear 29 1017 9 10000 5.7 170 08:20 05.11.2019
4758 Clear 29 1017 9 10000 4.6 110 07:59 05.11.2019
4759 Clear 30 1018 8 10000 4.1 130 07:40 05.11.2019
4760 Clear 30 1018 8 10000 4.1 130 07:22 05.11.2019
4761 Clear 28 1018 10 10000 5.1 120 06:50 05.11.2019
4762 Clear 30 1019 8 10000 6.2 150 05:51 05.11.2019
4763 Clear 29 1019 9 10000 6.7 140 05:24 05.11.2019
4764 Clear 26 1021 11 10000 6.2 110 04:38 05.11.2019
4765 Clear 26 1022 13 10000 6.7 120 03:56 05.11.2019
4766 Clear 26 1022 12 10000 6.7 130 02:51 05.11.2019
4767 Clear 25 1023 15 10000 6.7 130 02:29 05.11.2019
4768 Clear 25 1023 15 10000 6.7 130 02:29 05.11.2019
4769 Clear 24 1024 17 10000 7.2 120 01:25 05.11.2019
4770 Clear 22 1024 19 10000 6.7 100 00:38 05.11.2019
4771 Clear 22 1024 19 10000 6.7 100 00:38 05.11.2019
4772 Clear 21 1024 21 10000 6.2 100 23:57 04.11.2019
4773 Clear 19 1024 19 10000 4.1 110 23:37 04.11.2019
4774 Clear 19 1024 19 10000 4.1 110 23:18 04.11.2019
4775 Clear 13 1023 24 10000 1 130 22:42 04.11.2019
4776 Clear 13 1023 24 10000 1 130 22:23 04.11.2019
4777 Clear 11 1023 25 10000 5.13 128 21:56 04.11.2019
4778 Clear 11 1023 25 10000 5.13 128 21:56 04.11.2019
4779 Clear 10 1023 27 10000 5.13 128 21:38 04.11.2019
4780 Clear 10 1023 27 10000 5.13 128 21:19 04.11.2019
4781 Clear 11 1022 25 10000 5.13 128 20:59 04.11.2019
4782 Clear 12 1022 23 10000 1.5 160 20:39 04.11.2019
4783 Clouds 12 1022 23 10000 1.5 160 20:21 04.11.2019
4784 Clouds 12 1022 22 10000 4.64 109 19:59 04.11.2019
4785 Clouds 14 1022 22 10000 4.64 109 19:40 04.11.2019
4786 Clouds 14 1022 22 10000 4.64 109 19:21 04.11.2019
4787 Clouds 14 1022 22 10000 4.64 109 18:57 04.11.2019
4788 Clouds 14 1022 22 10000 1.5 20 18:38 04.11.2019
4789 Clouds 14 1022 22 10000 1.5 20 18:19 04.11.2019
4790 Clouds 15 1022 21 10000 2.1 100 17:40 04.11.2019
4791 Clouds 15 1022 21 10000 2.1 100 17:21 04.11.2019
4792 Clouds 16 1023 19 10000 3.1 130 16:57 04.11.2019
4793 Clouds 16 1023 21 10000 2.6 120 16:39 04.11.2019
4794 Clouds 16 1023 21 10000 2.6 120 16:21 04.11.2019
4795 Clouds 17 1023 18 10000 2.1 60 15:56 04.11.2019
4796 Clouds 19 1023 16 10000 3.1 130 15:38 04.11.2019
4797 Clouds 19 1023 16 10000 3.1 130 15:19 04.11.2019
4798 Clouds 19 1023 16 10000 3.1 130 14:54 04.11.2019
4799 Clouds 19 1023 16 10000 3.1 130 14:54 04.11.2019
4800 Clouds 19 1023 16 10000 3.1 140 14:36 04.11.2019
4801 Clouds 19 1023 16 10000 3.1 140 14:18 04.11.2019
4802 Clouds 20 1023 14 10000 3.6 150 13:42 04.11.2019
4803 Clear 20 1023 15 10000 3.1 150 13:22 04.11.2019
4804 Clear 22 1022 13 10000 3.6 150 12:59 04.11.2019
4805 Clear 23 1022 12 10000 3.6 150 12:41 04.11.2019
4806 Clear 23 1022 12 10000 3.6 150 12:22 04.11.2019
4807 Clear 24 1022 12 10000 4.1 150 11:57 04.11.2019
4808 Clear 25 1021 11 10000 4.1 150 11:38 04.11.2019
4809 Clear 25 1021 11 10000 4.1 150 11:20 04.11.2019
4810 Clear 25 1021 12 10000 5.1 140 10:44 04.11.2019
4811 Clear 26 1021 12 10000 6.7 160 10:25 04.11.2019
4812 Clear 27 1020 11 10000 7.2 140 09:47 04.11.2019
4813 Clear 28 1020 12 10000 7.7 150 09:28 04.11.2019
4814 Clear 28 1020 11 10000 6.7 150 08:59 04.11.2019
4815 Clear 28 1020 11 10000 6.7 140 08:40 04.11.2019
4816 Clear 28 1020 11 10000 6.7 140 08:21 04.11.2019
4817 Clear 29 1020 10 10000 6.7 130 07:44 04.11.2019
4818 Clear 29 1020 10 10000 7.7 140 07:24 04.11.2019
4819 Clear 29 1020 10 10000 7.7 140 07:24 04.11.2019
4820 Clear 30 1020 9 10000 8.2 170 06:58 04.11.2019
4821 Clear 29 1021 12 10000 6.7 130 06:35 04.11.2019
4822 Clear 29 1021 13 10000 7.2 140 05:57 04.11.2019
4823 Clear 28 1022 13 10000 7.2 100 04:45 04.11.2019
4824 Clear 27 1022 12 10000 7.2 120 04:21 04.11.2019
4825 Clear 26 1023 13 10000 8.2 120 02:34 04.11.2019
4826 Clear 25 1023 14 10000 8.7 130 01:22 04.11.2019
4827 Clear 25 1023 15 10000 8.7 120 00:49 04.11.2019
4828 Clear 23 1023 18 10000 8.7 120 00:21 04.11.2019
4829 Clear 23 1023 18 10000 6.7 110 23:44 03.11.2019
4830 Clear 21 1023 22 10000 4.6 110 23:22 03.11.2019
4831 Clear 20 1022 24 10000 2.6 120 22:59 03.11.2019
4832 Clear 18 1022 27 10000 2.1 90 22:41 03.11.2019
4833 Clear 18 1022 27 10000 2.1 90 22:21 03.11.2019
4834 Clear 17 1022 27 10000 1.5 90 21:58 03.11.2019
4835 Clear 16 1021 29 10000 3.1 130 21:40 03.11.2019
4836 Clear 16 1021 29 10000 3.1 130 21:20 03.11.2019
4837 Clear 17 1021 27 10000 3.1 140 20:56 03.11.2019
4838 Clear 17 1020 27 10000 3.6 130 20:36 03.11.2019
4839 Clear 17 1020 27 10000 3.6 130 20:18 03.11.2019
4840 Clear 18 1020 27 10000 3.6 130 19:56 03.11.2019
4841 Clear 17 1019 33 10000 3.6 140 19:37 03.11.2019
4842 Clear 17 1019 33 10000 3.6 140 19:19 03.11.2019
4843 Clear 17 1018 33 10000 3.1 160 18:39 03.11.2019
4844 Clear 17 1018 33 10000 3.1 160 18:39 03.11.2019
4845 Clear 17 1018 33 10000 3.1 160 18:19 03.11.2019
4846 Clear 18 1018 31 10000 3.1 140 17:58 03.11.2019
4847 Clear 19 1018 29 10000 3.1 120 17:40 03.11.2019
4848 Clear 19 1018 29 10000 3.1 120 17:40 03.11.2019
4849 Clear 19 1018 29 10000 3.1 120 17:19 03.11.2019
4850 Clear 19 1018 32 10000 2.6 130 16:55 03.11.2019
4851 Clear 19 1018 32 10000 2.6 130 16:55 03.11.2019
4852 Clear 19 1018 32 10000 2.6 130 16:55 03.11.2019
4853 Clear 20 1019 30 10000 2.6 130 16:37 03.11.2019
4854 Clear 20 1019 30 10000 2.6 130 16:18 03.11.2019
4855 Clear 20 1019 30 10000 2.6 140 15:54 03.11.2019
4856 Clear 20 1019 30 10000 3.1 140 15:36 03.11.2019
4857 Clear 20 1019 30 10000 3.1 140 15:18 03.11.2019
4858 Clear 22 1019 28 10000 3.1 140 14:40 03.11.2019
4859 Clouds 22 1019 28 10000 3.1 140 14:18 03.11.2019
4860 Clouds 23 1019 27 10000 3.6 130 13:55 03.11.2019
4861 Clouds 24 1019 23 10000 3.6 120 13:36 03.11.2019
4862 Clouds 24 1019 23 10000 3.6 120 13:36 03.11.2019
4863 Clouds 24 1019 23 10000 3.6 120 13:18 03.11.2019
4864 Clouds 25 1018 22 10000 4.1 130 12:38 03.11.2019
4865 Clouds 25 1018 22 10000 4.1 130 12:19 03.11.2019
4866 Clouds 25 1018 23 10000 4.6 130 11:55 03.11.2019
4867 Clouds 26 1018 22 10000 4.6 140 11:37 03.11.2019
4868 Clouds 26 1018 22 10000 4.6 140 11:19 03.11.2019
4869 Clouds 27 1017 22 10000 5.1 140 10:40 03.11.2019
4870 Clouds 27 1017 22 10000 5.1 140 10:22 03.11.2019
4871 Clouds 27 1017 22 10000 5.1 140 10:22 03.11.2019
4872 Clouds 27 1017 22 10000 5.1 140 10:22 03.11.2019
4873 Clouds 27 1017 22 10000 5.1 140 10:22 03.11.2019
4874 Clouds 28 1016 20 10000 5.7 140 09:57 03.11.2019
4875 Clouds 29 1016 20 10000 7.2 160 09:39 03.11.2019
4876 Clouds 29 1016 20 10000 7.2 160 09:39 03.11.2019
4877 Clouds 29 1016 20 10000 7.2 160 09:21 03.11.2019
4878 Clouds 28 1015 20 10000 6.7 160 08:42 03.11.2019
4879 Clouds 29 1015 18 10000 7.2 160 08:24 03.11.2019
4880 Clear 30 1015 19 10000 7.2 130 07:46 03.11.2019
4881 Clear 28 1015 21 10000 7.7 130 07:28 03.11.2019
4882 Clear 30 1015 19 10000 6.7 130 06:52 03.11.2019
4883 Clear 28 1015 20 10000 7.2 160 06:33 03.11.2019
4884 Clear 29 1016 18 10000 6.7 130 05:40 03.11.2019
4885 Clear 28 1016 20 10000 7.7 130 04:58 03.11.2019
4886 Clear 27 1016 21 10000 7.7 130 04:37 03.11.2019
4887 Clear 26 1017 21 10000 7.7 150 03:35 03.11.2019
4888 Clear 27 1017 21 10000 8.7 150 02:42 03.11.2019
4889 Clouds 26 1017 21 9000 9.8 140 02:20 03.11.2019
4890 Clouds 26 1017 21 9000 9.8 140 02:20 03.11.2019
4891 Clouds 25 1018 20 10000 8.2 150 01:39 03.11.2019
4892 Clouds 25 1018 20 10000 8.2 150 01:20 03.11.2019
4893 Clouds 25 1018 22 10000 8.2 140 00:45 03.11.2019
4894 Clouds 24 1018 22 9000 8.7 150 00:26 03.11.2019
4895 Clouds 24 1017 23 4600 8.7 170 23:58 02.11.2019
4896 Clouds 24 1017 23 8000 10.8 180 23:38 02.11.2019
4897 Clouds 24 1017 23 8000 10.8 180 23:19 02.11.2019
4898 Clear 24 1016 23 10000 9.8 170 22:55 02.11.2019
4899 Clear 24 1015 38 10000 7.7 170 22:37 02.11.2019
4900 Clear 24 1015 38 10000 7.7 170 22:18 02.11.2019
4901 Clear 24 1014 38 10000 8.2 170 21:56 02.11.2019
4902 Clouds 24 1013 41 10000 9.8 170 21:37 02.11.2019
4903 Clouds 24 1013 41 10000 9.8 170 21:37 02.11.2019
4904 Clouds 24 1013 41 10000 9.8 170 21:18 02.11.2019
4905 Clouds 26 1012 27 10000 6.2 180 20:58 02.11.2019
4906 Clouds 26 1011 27 10000 3.6 240 20:39 02.11.2019
4907 Clouds 26 1011 27 10000 3.6 240 20:39 02.11.2019
4908 Clouds 26 1011 27 10000 3.6 240 20:19 02.11.2019
4909 Clouds 25 1010 29 10000 3.1 290 19:40 02.11.2019
4910 Clouds 25 1010 29 10000 3.1 290 19:22 02.11.2019
4911 Clouds 24 1009 29 10000 2.1 230 18:56 02.11.2019
4912 Clouds 25 1009 27 10000 2.6 220 18:37 02.11.2019
4913 Clouds 25 1009 27 10000 2.6 220 18:19 02.11.2019
4914 Clouds 25 1009 27 10000 2.05 204 17:56 02.11.2019
4915 Clouds 26 1009 26 10000 2.6 50 17:37 02.11.2019
4916 Clouds 26 1009 26 10000 2.6 50 17:19 02.11.2019
4917 Clouds 27 1009 24 10000 3.1 30 16:56 02.11.2019
4918 Clouds 27 1009 24 10000 2.6 30 16:36 02.11.2019
4919 Clouds 27 1009 24 10000 2.6 30 16:36 02.11.2019
4920 Clouds 27 1009 24 10000 2.6 30 16:18 02.11.2019
4921 Clouds 27 1009 24 10000 2.6 30 16:18 02.11.2019
4922 Clouds 27 1009 24 10000 2.6 30 16:18 02.11.2019
4923 Clouds 28 1010 21 10000 2.1 130 15:41 02.11.2019
4924 Clouds 28 1010 21 10000 2.1 130 15:19 02.11.2019
4925 Clouds 28 1010 23 9000 3.1 120 14:42 02.11.2019
4926 Clouds 28 1011 26 10000 2.1 80 14:23 02.11.2019
4927 Clouds 30 1010 22 10000 2.6 120 13:57 02.11.2019
4928 Clouds 30 1010 22 10000 2.6 120 13:57 02.11.2019
4929 Clouds 30 1010 23 10000 3.6 250 13:38 02.11.2019
4930 Clouds 30 1010 23 10000 3.6 250 13:18 02.11.2019
4931 Clouds 31 1010 18 9000 3.6 200 12:41 02.11.2019
4932 Clouds 31 1010 18 9000 3.6 200 12:22 02.11.2019
4933 Clouds 32 1009 15 5000 4.1 130 11:57 02.11.2019
4934 Clouds 32 1008 14 5000 4.1 140 11:39 02.11.2019
4935 Clouds 32 1008 14 5000 4.1 140 11:20 02.11.2019
4936 Clouds 32 1008 14 6000 5.1 130 10:46 02.11.2019
4937 Clouds 33 1007 14 10000 5.1 160 10:27 02.11.2019
4938 Clouds 34 1007 13 10000 3.1 210 09:57 02.11.2019
4939 Clouds 34 1007 14 10000 4.1 210 09:38 02.11.2019
4940 Clouds 34 1007 14 10000 4.1 210 09:38 02.11.2019
4941 Clouds 34 1007 14 10000 4.1 210 09:18 02.11.2019
4942 Clouds 34 1007 14 10000 3.6 240 08:42 02.11.2019
4943 Clouds 34 1007 13 10000 3.6 150 08:21 02.11.2019
4944 Clouds 35 1007 12 10000 3.6 170 07:47 02.11.2019
4945 Clouds 35 1007 12 10000 3.1 220 07:27 02.11.2019
4946 Clouds 34 1007 14 10000 3.6 210 06:54 02.11.2019
4947 Clouds 34 1007 14 10000 2.1 90 06:26 02.11.2019
4948 Clouds 33 1008 14 10000 4.6 110 05:55 02.11.2019
4949 Clouds 32 1009 14 10000 4.1 80 04:51 02.11.2019
4950 Clouds 32 1009 15 10000 4.1 80 04:19 02.11.2019
4951 Clouds 31 1009 16 10000 4.6 70 03:45 02.11.2019
4952 Clouds 29 1010 20 10000 6.7 110 02:38 02.11.2019
4953 Clouds 27 1010 22 10000 6.7 110 01:42 02.11.2019
4954 Clouds 26 1011 24 10000 6.7 130 01:20 02.11.2019
4955 Clouds 26 1011 24 10000 6.7 120 00:42 02.11.2019
4956 Clouds 25 1011 25 10000 6.7 140 00:23 02.11.2019
4957 Clouds 25 1011 27 10000 6.2 150 23:42 01.11.2019
4958 Clouds 24 1011 29 9000 6.7 170 23:20 01.11.2019
4959 Clouds 23 1010 31 8000 6.7 170 22:43 01.11.2019
4960 Clouds 23 1010 31 10000 7.2 190 22:22 01.11.2019
4961 Clouds 23 1010 31 10000 7.2 190 22:22 01.11.2019
4962 Clear 23 1009 31 10000 5.1 190 21:56 01.11.2019
4963 Clouds 23 1009 31 8000 5.7 200 21:38 01.11.2019
4964 Clouds 23 1009 31 8000 5.7 200 21:19 01.11.2019
4965 Clouds 24 1007 29 8000 6.2 170 20:42 01.11.2019
4966 Clouds 24 1007 29 5000 9.3 190 20:24 01.11.2019
4967 Clouds 26 1006 24 4400 9.3 190 19:59 01.11.2019
4968 Clouds 27 1005 14 6000 6.7 230 19:41 01.11.2019
4969 Clouds 27 1005 14 6000 6.7 230 19:22 01.11.2019
4970 Clouds 32 1003 8 10000 6.7 340 18:57 01.11.2019
4971 Clouds 32 1003 8 10000 4.6 310 18:38 01.11.2019
4972 Clouds 32 1003 8 10000 4.6 310 18:18 01.11.2019
4973 Clouds 32 1004 8 10000 3.6 320 17:41 01.11.2019
4974 Clear 32 1004 8 10000 3.6 320 17:23 01.11.2019
4975 Clear 33 1004 8 10000 5.7 320 16:58 01.11.2019
4976 Clear 33 1005 7 10000 5.1 340 16:36 01.11.2019
4977 Clear 33 1005 7 10000 5.1 340 16:18 01.11.2019
4978 Clear 33 1005 7 10000 5.1 340 16:18 01.11.2019
4979 Clear 33 1005 8 10000 5.1 300 15:40 01.11.2019
4980 Clear 33 1005 8 10000 5.1 300 15:40 01.11.2019
4981 Clear 33 1005 8 10000 5.1 300 15:22 01.11.2019
4982 Clear 34 1006 7 10000 5.1 330 14:55 01.11.2019
4983 Clear 35 1006 6 10000 5.7 330 14:36 01.11.2019
4984 Clear 35 1006 6 10000 5.7 330 14:36 01.11.2019
4985 Clear 35 1006 6 10000 5.7 330 14:18 01.11.2019
4986 Clear 34 1006 6 10000 5.1 320 13:41 01.11.2019
4987 Clear 34 1005 7 10000 6.2 320 13:22 01.11.2019
4988 Clear 35 1005 6 10000 6.2 330 12:56 01.11.2019
4989 Clear 35 1005 6 10000 6.2 330 12:56 01.11.2019
4990 Clear 35 1005 6 10000 5.1 330 12:37 01.11.2019
4991 Clear 35 1005 6 10000 5.1 330 12:19 01.11.2019
4992 Clear 35 1005 5 10000 6.2 330 11:42 01.11.2019
4993 Clear 35 1005 5 10000 6.2 330 11:24 01.11.2019
4994 Clear 36 1004 6 10000 6.7 330 10:56 01.11.2019
4995 Clear 37 1004 5 10000 7.2 320 10:37 01.11.2019
4996 Clear 37 1004 5 10000 7.2 320 10:18 01.11.2019
4997 Clear 38 1004 5 10000 7.7 320 09:42 01.11.2019
4998 Clear 38 1003 5 10000 5.7 320 09:23 01.11.2019
4999 Clear 39 1003 6 10000 9.3 340 08:55 01.11.2019
5000 Clear 39 1003 5 10000 11.8 340 08:37 01.11.2019
5001 Clear 39 1003 5 10000 11.8 340 08:37 01.11.2019
5002 Clear 39 1003 5 10000 11.8 340 08:18 01.11.2019
5003 Clear 39 1003 4 10000 9.3 330 07:46 01.11.2019
5004 Clear 39 1003 4 10000 8.2 340 07:22 01.11.2019
5005 Clear 40 1004 4 10000 10.3 300 06:54 01.11.2019
5006 Clear 38 1004 5 10000 7.7 330 06:23 01.11.2019
5007 Clear 39 1005 4 10000 7.7 340 05:57 01.11.2019
5008 Clear 38 1005 5 10000 7.7 300 05:35 01.11.2019
5009 Clear 37 1007 6 10000 9.3 330 03:32 01.11.2019
5010 Clouds 35 1008 6 10000 10.3 350 01:48 01.11.2019
5011 Clouds 33 1009 7 10000 9.3 350 00:58 01.11.2019
5012 Clouds 32 1009 8 10000 8.7 350 00:20 01.11.2019
5013 Clouds 30 1009 9 10000 6.7 350 23:44 31.10.2019
5014 Clouds 29 1008 10 10000 5.7 360 23:24 31.10.2019
5015 Clouds 27 1008 10 10000 3.6 360 22:58 31.10.2019
5016 Clouds 27 1008 10 10000 4.6 10 22:40 31.10.2019
5017 Clouds 27 1008 10 10000 4.6 10 22:21 31.10.2019
5018 Clouds 26 1008 11 10000 2.1 120 21:45 31.10.2019
5019 Clouds 26 1007 10 10000 3.1 40 21:22 31.10.2019
5020 Clouds 24 1007 13 10000 3.1 50 20:58 31.10.2019
5021 Clouds 23 1007 12 10000 5.1 30 20:40 31.10.2019
5022 Clear 23 1007 12 10000 5.1 30 20:22 31.10.2019
5023 Clear 25 1007 11 10000 4.6 10 19:43 31.10.2019
5024 Clear 25 1007 11 10000 5.7 10 19:23 31.10.2019
5025 Clear 23 1007 11 10000 3.1 340 18:58 31.10.2019
5026 Clear 22 1007 11 10000 7.9 4 18:39 31.10.2019
5027 Clear 22 1007 11 10000 7.9 4 18:20 31.10.2019
5028 Clear 24 1007 10 10000 2.6 90 17:43 31.10.2019
5029 Clear 24 1007 10 10000 2.6 90 17:43 31.10.2019
5030 Clear 24 1007 10 10000 3.1 70 17:24 31.10.2019
5031 Clear 25 1008 9 10000 3.1 70 16:59 31.10.2019
5032 Clear 26 1008 8 10000 3.6 40 16:40 31.10.2019
5033 Clear 26 1008 8 10000 3.6 40 16:20 31.10.2019
5034 Clear 26 1009 9 10000 3.1 50 15:57 31.10.2019
5035 Clear 25 1009 9 10000 3.6 50 15:38 31.10.2019
5036 Clear 25 1009 9 10000 3.6 50 15:19 31.10.2019
5037 Clear 24 1009 10 10000 3.1 60 14:56 31.10.2019
5038 Clear 24 1009 9 10000 2.6 50 14:38 31.10.2019
5039 Clear 24 1009 9 10000 2.6 50 14:38 31.10.2019
5040 Clear 24 1009 9 10000 2.6 50 14:20 31.10.2019
5041 Clear 27 1009 8 10000 3.1 50 13:56 31.10.2019
5042 Clear 27 1009 8 10000 3.1 50 13:37 31.10.2019
5043 Clear 27 1009 8 10000 3.1 50 13:19 31.10.2019
5044 Clear 27 1009 9 10000 3.1 50 12:43 31.10.2019
5045 Clear 28 1009 8 10000 3.1 80 12:24 31.10.2019
5046 Clear 30 1008 6 10000 2.6 90 11:58 31.10.2019
5047 Clear 31 1008 6 10000 2.6 90 11:40 31.10.2019
5048 Clear 31 1008 6 10000 2.6 90 11:19 31.10.2019
5049 Clear 33 1008 5 10000 2.6 80 10:57 31.10.2019
5050 Clear 33 1008 5 10000 2.6 80 10:57 31.10.2019
5051 Clear 35 1007 5 10000 1.5 150 10:38 31.10.2019
5052 Clear 35 1007 5 10000 1.5 150 10:19 31.10.2019
5053 Clear 36 1007 5 10000 2.6 240 09:42 31.10.2019
5054 Clear 37 1007 5 10000 2.1 230 09:18 31.10.2019
5055 Clear 37 1007 5 10000 2.1 230 09:18 31.10.2019
5056 Clear 36 1007 5 10000 3.1 140 08:49 31.10.2019
5057 Clear 37 1007 4 10000 3.1 250 08:31 31.10.2019
5058 Clear 36 1007 5 10000 3.6 230 07:56 31.10.2019
5059 Clear 36 1007 5 10000 3.6 230 07:56 31.10.2019
5060 Clear 35 1007 5 10000 3.6 260 07:38 31.10.2019
5061 Clear 35 1007 5 10000 3.6 260 07:19 31.10.2019
5062 Clear 36 1008 4 10000 2.6 180 06:38 31.10.2019
5063 Clear 36 1008 4 10000 2.6 180 06:19 31.10.2019
5064 Clear 35 1011 5 10000 3.1 260 04:35 31.10.2019
5065 Clear 33 1012 7 10000 3.6 300 02:44 31.10.2019
5066 Clear 32 1013 8 10000 2.6 320 01:53 31.10.2019
5067 Clear 27 1014 11 10000 2.6 20 00:39 31.10.2019
5068 Clear 27 1014 11 10000 2.6 20 00:20 31.10.2019
5069 Clear 23 1014 13 10000 5.67 354 23:30 30.10.2019
5070 Clear 19 1013 16 10000 5.63 17 22:44 30.10.2019
5071 Clear 15 1013 21 10000 2.6 290 22:23 30.10.2019
5072 Clear 13 1012 22 10000 5.63 17 21:57 30.10.2019
5073 Clear 13 1012 20 10000 5.63 17 21:38 30.10.2019
5074 Clear 13 1012 20 10000 5.63 17 21:19 30.10.2019
5075 Clear 14 1012 19 10000 1.5 230 20:59 30.10.2019
5076 Clear 14 1012 20 10000 1.5 220 20:41 30.10.2019
5077 Clear 14 1012 20 10000 1.5 220 20:22 30.10.2019
5078 Clear 14 1012 19 10000 2.1 200 19:58 30.10.2019
5079 Clear 14 1012 17 10000 5.31 19 19:39 30.10.2019
5080 Clear 14 1012 17 10000 5.31 19 19:20 30.10.2019
5081 Clear 15 1012 21 10000 5.31 19 18:58 30.10.2019
5082 Clear 16 1012 18 10000 2.1 50 18:37 30.10.2019
5083 Clear 16 1012 18 10000 2.1 50 18:37 30.10.2019
5084 Clear 16 1012 18 10000 2.1 50 18:18 30.10.2019
5085 Clear 17 1013 16 10000 0.5 340 17:41 30.10.2019
5086 Clear 17 1013 16 10000 0.5 340 17:19 30.10.2019
5087 Clear 17 1013 16 10000 4.56 47 16:56 30.10.2019
5088 Clear 18 1014 15 10000 2.1 280 16:38 30.10.2019
5089 Clear 18 1014 15 10000 2.1 280 16:20 30.10.2019
5090 Clear 19 1014 15 10000 1.5 340 15:57 30.10.2019
5091 Clear 21 1014 13 10000 4.56 47 15:38 30.10.2019
5092 Clear 21 1014 13 10000 4.56 47 15:19 30.10.2019
5093 Clear 21 1014 13 10000 4.56 47 14:55 30.10.2019
5094 Clear 22 1014 12 10000 1.5 130 14:36 30.10.2019
5095 Clear 22 1014 12 10000 1.5 130 14:18 30.10.2019
5096 Clear 24 1014 12 10000 3.1 80 13:42 30.10.2019
5097 Clear 24 1014 12 10000 3.1 80 13:20 30.10.2019
5098 Clear 25 1014 9 10000 3.1 110 12:58 30.10.2019
5099 Clear 26 1014 10 10000 3.1 120 12:40 30.10.2019
5100 Clear 26 1014 10 10000 3.1 120 12:22 30.10.2019
5101 Clear 27 1014 10 10000 3.1 130 11:43 30.10.2019
5102 Clear 28 1013 10 10000 3.6 120 11:25 30.10.2019
5103 Clear 30 1013 8 10000 3.1 130 10:46 30.10.2019
5104 Clear 31 1012 6 10000 3.6 130 10:28 30.10.2019
5105 Clear 32 1012 7 10000 4.1 130 09:59 30.10.2019
5106 Clear 33 1012 5 10000 5.1 150 09:40 30.10.2019
5107 Clear 33 1012 5 10000 5.1 150 09:22 30.10.2019
5108 Clear 33 1012 6 10000 3.6 120 08:54 30.10.2019
5109 Clear 33 1012 6 10000 5.1 120 08:36 30.10.2019
5110 Clear 33 1012 6 10000 5.1 120 08:18 30.10.2019
5111 Clear 33 1012 7 10000 5.7 120 07:42 30.10.2019
5112 Clear 33 1012 6 10000 5.1 120 06:48 30.10.2019
5113 Clear 34 1013 6 10000 3.1 90 06:29 30.10.2019
5114 Clear 34 1013 6 10000 5.7 140 05:55 30.10.2019
5115 Clear 32 1014 8 10000 4.6 210 05:37 30.10.2019
5116 Clear 32 1015 7 10000 4.6 120 03:50 30.10.2019
5117 Clear 31 1016 10 10000 4.1 70 03:21 30.10.2019
5118 Clear 31 1016 10 10000 4.1 190 02:48 30.10.2019
5119 Clear 30 1017 11 10000 3.6 80 01:42 30.10.2019
5120 Clear 26 1017 31 10000 5.1 340 00:36 30.10.2019
5121 Clear 26 1017 31 10000 5.1 340 00:18 30.10.2019
5122 Clear 22 1016 26 10000 1 280 23:38 29.10.2019
5123 Clear 22 1016 26 10000 1 280 23:18 29.10.2019
5124 Clear 16 1016 13 10000 2.1 140 22:41 29.10.2019
5125 Clear 16 1016 13 10000 2.1 140 22:19 29.10.2019
5126 Clear 12 1016 14 10000 2.6 190 21:55 29.10.2019
5127 Clear 12 1016 16 10000 2.1 170 21:36 29.10.2019
5128 Clear 12 1016 16 10000 2.1 170 21:18 29.10.2019
5129 Clear 14 1015 14 10000 0.5 330 20:41 29.10.2019
5130 Clear 14 1015 14 10000 0.5 330 20:22 29.10.2019
5131 Clear 14 1015 15 10000 2.1 290 19:58 29.10.2019
5132 Clear 14 1015 14 10000 2.6 300 19:39 29.10.2019
5133 Clear 14 1015 14 10000 2.6 300 19:20 29.10.2019
5134 Clear 15 1015 16 10000 2.6 330 18:57 29.10.2019
5135 Clear 16 1015 15 10000 2.1 360 18:38 29.10.2019
5136 Clear 16 1015 15 10000 2.1 360 18:19 29.10.2019
5137 Clear 14 1015 17 10000 1.5 360 17:56 29.10.2019
5138 Clear 16 1016 13 10000 0.5 360 17:37 29.10.2019
5139 Clear 16 1016 13 10000 0.5 360 17:18 29.10.2019
5140 Clear 17 1016 11 10000 1.5 360 16:40 29.10.2019
5141 Clear 17 1016 11 10000 1.5 360 16:21 29.10.2019
5142 Clear 17 1017 11 10000 2.6 270 15:57 29.10.2019
5143 Clear 17 1017 12 10000 1.5 210 15:39 29.10.2019
5144 Clear 17 1017 12 10000 1.5 210 15:20 29.10.2019
5145 Clear 18 1017 11 10000 2.6 150 14:55 29.10.2019
5146 Clear 21 1017 10 10000 2.87 94 14:37 29.10.2019
5147 Clear 21 1017 10 10000 3.48 147 14:19 29.10.2019
5148 Clear 22 1016 8 10000 3.1 140 13:40 29.10.2019
5149 Clear 22 1016 8 10000 3.1 140 13:22 29.10.2019
5150 Clear 23 1016 10 10000 3.1 130 12:55 29.10.2019
5151 Clear 24 1016 8 10000 3.6 120 12:36 29.10.2019
5152 Clear 24 1016 8 10000 3.6 120 12:18 29.10.2019
5153 Clear 26 1015 6 10000 3.1 150 11:42 29.10.2019
5154 Clear 26 1015 6 10000 3.1 150 11:22 29.10.2019
5155 Clear 28 1015 7 10000 3.1 140 10:58 29.10.2019
5156 Clear 30 1014 5 10000 4.1 150 10:39 29.10.2019
5157 Clear 30 1014 5 10000 4.1 150 10:20 29.10.2019
5158 Clear 31 1014 5 10000 5.1 140 09:57 29.10.2019
5159 Clear 31 1014 5 10000 4.6 150 09:39 29.10.2019
5160 Clear 31 1014 5 10000 4.6 150 09:21 29.10.2019
5161 Clear 32 1013 6 10000 5.1 150 08:44 29.10.2019
5162 Clear 32 1013 6 10000 5.7 140 08:25 29.10.2019
5163 Clear 32 1014 6 10000 4.6 150 07:55 29.10.2019
5164 Clear 32 1014 6 10000 3.6 180 07:36 29.10.2019
5165 Clear 32 1014 6 10000 3.6 180 07:18 29.10.2019
5166 Clear 32 1014 6 10000 3.6 180 07:18 29.10.2019
5167 Clear 31 1014 6 10000 3.6 100 06:43 29.10.2019
5168 Clear 31 1014 6 10000 5.7 90 06:21 29.10.2019
5169 Clear 31 1014 6 10000 5.1 140 05:50 29.10.2019
5170 Clear 31 1015 6 10000 4.1 130 05:19 29.10.2019
5171 Clear 30 1016 8 10000 3.6 90 03:55 29.10.2019
5172 Clear 28 1018 10 10000 3.6 110 02:32 29.10.2019
5173 Clear 28 1018 9 10000 5.1 90 01:46 29.10.2019
5174 Clear 27 1018 10 10000 4.6 110 01:18 29.10.2019
5175 Clear 24 1019 12 10000 5.18 91 00:31 29.10.2019
5176 Clear 22 1018 12 10000 5.18 91 23:43 28.10.2019
5177 Clear 20 1018 14 10000 1.5 300 23:20 28.10.2019
5178 Clear 17 1018 20 10000 1 320 22:57 28.10.2019
5179 Clear 14 1018 22 10000 2.6 340 22:37 28.10.2019
5180 Clear 14 1018 22 10000 2.6 340 22:18 28.10.2019
5181 Clear 12 1017 23 10000 2.6 310 21:54 28.10.2019
5182 Clear 12 1017 23 10000 2.6 310 21:54 28.10.2019
5183 Clear 13 1017 22 10000 2.6 260 21:36 28.10.2019
5184 Clear 13 1017 22 10000 2.6 260 21:18 28.10.2019
5185 Clear 13 1017 24 10000 2.6 310 20:42 28.10.2019
5186 Clouds 13 1017 22 10000 3.1 310 20:24 28.10.2019
5187 Clouds 13 1017 22 10000 3.1 310 20:24 28.10.2019
5188 Clouds 15 1016 21 10000 2.1 300 19:58 28.10.2019
5189 Clouds 14 1016 22 10000 2.6 310 19:39 28.10.2019
5190 Clouds 14 1016 22 10000 2.6 310 19:20 28.10.2019
5191 Clouds 15 1016 21 10000 2.6 280 18:58 28.10.2019
5192 Clouds 15 1017 19 10000 2.1 290 18:39 28.10.2019
5193 Clouds 15 1017 19 10000 2.1 310 18:21 28.10.2019
5194 Clouds 15 1017 19 10000 2.1 310 17:56 28.10.2019
5195 Clouds 15 1017 19 10000 2.1 310 17:56 28.10.2019
5196 Clouds 16 1017 18 10000 2.1 260 17:38 28.10.2019
5197 Clouds 16 1017 18 10000 2.1 260 17:19 28.10.2019
5198 Clouds 17 1017 17 10000 2.24 116 16:55 28.10.2019
5199 Clouds 18 1017 17 10000 2.24 116 16:37 28.10.2019
5200 Clouds 18 1017 17 10000 2.24 116 16:19 28.10.2019
5201 Clouds 18 1018 16 10000 2.24 116 15:56 28.10.2019
5202 Clouds 20 1018 15 10000 2.24 116 15:37 28.10.2019
5203 Clouds 20 1018 15 10000 2.24 116 15:18 28.10.2019
5204 Clouds 21 1018 13 10000 2.1 70 14:55 28.10.2019
5205 Clouds 21 1018 13 10000 2.1 100 14:36 28.10.2019
5206 Clouds 21 1018 13 10000 2.1 100 14:18 28.10.2019
5207 Clouds 21 1018 13 10000 2.1 100 14:18 28.10.2019
5208 Clouds 21 1018 13 10000 2.6 150 13:42 28.10.2019
5209 Clouds 22 1017 13 8000 3.1 160 13:19 28.10.2019
5210 Clouds 22 1017 12 6000 3.1 160 12:59 28.10.2019
5211 Clouds 23 1017 12 9000 3.6 140 12:40 28.10.2019
5212 Clouds 23 1017 12 9000 3.6 140 12:19 28.10.2019
5213 Clouds 26 1017 9 10000 3.1 140 11:38 28.10.2019
5214 Clear 26 1017 9 10000 3.1 140 11:20 28.10.2019
5215 Clear 28 1016 9 10000 4.1 130 10:43 28.10.2019
5216 Clear 28 1016 8 10000 4.6 120 10:24 28.10.2019
5217 Clear 29 1016 9 10000 5.7 130 09:59 28.10.2019
5218 Clear 30 1015 8 10000 5.7 130 09:41 28.10.2019
5219 Clear 30 1015 8 10000 5.7 130 09:20 28.10.2019
5220 Clear 30 1015 7 10000 5.7 130 08:58 28.10.2019
5221 Clouds 30 1015 7 10000 6.2 120 08:39 28.10.2019
5222 Clear 30 1015 7 10000 6.2 120 08:19 28.10.2019
5223 Clear 31 1015 8 10000 6.7 140 07:57 28.10.2019
5224 Clear 30 1015 9 10000 6.2 140 07:38 28.10.2019
5225 Clear 30 1015 9 10000 6.2 140 07:20 28.10.2019
5226 Clear 30 1016 9 10000 5.7 140 06:40 28.10.2019
5227 Clear 31 1016 8 10000 6.2 130 05:57 28.10.2019
5228 Clouds 30 1018 9 10000 6.7 90 04:25 28.10.2019
5229 Clouds 28 1019 11 10000 6.7 80 03:40 28.10.2019
5230 Clouds 28 1020 11 10000 6.2 110 02:45 28.10.2019
5231 Clear 26 1020 12 10000 8.2 110 01:19 28.10.2019
5232 Clear 25 1020 13 10000 7.2 110 00:42 28.10.2019
5233 Clear 23 1020 15 10000 5.1 110 00:20 28.10.2019
5234 Clear 22 1020 15 10000 4.6 110 23:42 27.10.2019
5235 Clear 20 1020 20 10000 3.1 100 23:19 27.10.2019
5236 Clear 17 1019 27 10000 0.5 350 22:43 27.10.2019
5237 Clear 14 1019 30 10000 2.1 350 22:23 27.10.2019
5238 Clear 12 1019 34 10000 2.1 340 21:58 27.10.2019
5239 Clear 12 1018 32 10000 5.49 112 21:39 27.10.2019
5240 Clear 12 1018 32 10000 5.49 112 21:21 27.10.2019
5241 Clear 13 1018 30 10000 5.49 112 20:58 27.10.2019
5242 Clear 13 1018 30 10000 5.61 117 20:58 27.10.2019
5243 Clear 13 1018 32 10000 5.61 117 20:40 27.10.2019
5244 Clear 13 1018 32 10000 5.18 101 20:22 27.10.2019
5245 Clear 14 1018 28 10000 5.18 101 19:56 27.10.2019
5246 Clear 15 1018 28 10000 1 130 19:36 27.10.2019
5247 Clear 15 1018 28 10000 1 130 19:18 27.10.2019
5248 Clear 15 1018 28 10000 3.1 120 18:55 27.10.2019
5249 Clear 16 1018 25 10000 2.1 110 18:37 27.10.2019
5250 Clear 16 1018 25 10000 2.1 110 18:19 27.10.2019
5251 Clear 18 1018 23 10000 0.5 140 17:40 27.10.2019
5252 Clouds 18 1018 23 10000 0.5 140 17:21 27.10.2019
5253 Clouds 19 1018 22 10000 2.6 130 16:59 27.10.2019
5254 Clouds 21 1019 21 10000 3.1 130 16:40 27.10.2019
5255 Clouds 21 1019 21 10000 3.1 130 16:22 27.10.2019
5256 Clouds 21 1019 19 10000 3.6 120 15:56 27.10.2019
5257 Clouds 21 1019 21 10000 2.6 140 15:38 27.10.2019
5258 Clouds 21 1019 21 10000 2.6 140 15:20 27.10.2019
5259 Clouds 23 1019 18 4200 3.6 130 14:43 27.10.2019
5260 Clouds 23 1019 18 4200 3.6 130 14:23 27.10.2019
5261 Clouds 24 1019 19 6000 3.6 140 13:58 27.10.2019
5262 Clouds 24 1019 19 4600 3.1 130 13:39 27.10.2019
5263 Clouds 24 1019 19 4600 3.1 130 13:21 27.10.2019
5264 Clouds 25 1019 17 8000 3.6 120 12:58 27.10.2019
5265 Clouds 25 1018 17 10000 4.6 120 12:38 27.10.2019
5266 Clouds 25 1018 17 10000 4.6 120 12:19 27.10.2019
5267 Clouds 26 1018 20 10000 4.1 120 11:41 27.10.2019
5268 Clouds 26 1018 17 10000 4.1 120 11:21 27.10.2019
5269 Clouds 26 1017 16 10000 5.1 110 10:45 27.10.2019
5270 Clouds 27 1017 14 10000 5.1 110 10:26 27.10.2019
5271 Clouds 27 1017 14 10000 5.7 110 09:58 27.10.2019
5272 Clouds 27 1017 13 10000 4.6 120 09:39 27.10.2019
5273 Clouds 27 1017 13 10000 4.6 120 09:18 27.10.2019
5274 Clouds 27 1017 13 10000 4.6 120 09:18 27.10.2019
5275 Clouds 28 1017 14 10000 6.2 140 08:56 27.10.2019
5276 Clouds 28 1016 14 10000 5.1 150 08:37 27.10.2019
5277 Clouds 28 1016 14 10000 5.1 150 08:18 27.10.2019
5278 Clouds 28 1017 14 10000 5.1 130 07:43 27.10.2019
5279 Clouds 28 1016 15 10000 7.7 120 07:24 27.10.2019
5280 Clouds 28 1017 15 10000 5.1 140 06:49 27.10.2019
5281 Clouds 28 1017 15 10000 7.2 110 06:26 27.10.2019
5282 Clouds 28 1018 15 10000 5.1 90 05:41 27.10.2019
5283 Clouds 28 1018 17 10000 6.2 150 04:54 27.10.2019
5284 Clouds 25 1019 22 10000 6.7 120 02:55 27.10.2019
5285 Clouds 25 1019 22 10000 6.7 120 02:55 27.10.2019
5286 Clouds 24 1019 22 10000 5.1 120 01:49 27.10.2019
5287 Clouds 23 1019 23 10000 4.6 120 01:20 27.10.2019
5288 Clouds 22 1018 22 10000 4.6 110 00:46 27.10.2019
5289 Clouds 21 1018 31 10000 3.1 150 00:22 27.10.2019
5290 Clouds 18 1018 27 10000 1.5 120 23:55 26.10.2019
5291 Clouds 16 1018 31 10000 6.13 124 23:37 26.10.2019
5292 Clouds 16 1018 31 10000 6.13 124 23:18 26.10.2019
5293 Clouds 16 1017 31 10000 2.1 180 22:40 26.10.2019
5294 Clouds 16 1017 31 10000 2.1 180 22:20 26.10.2019
5295 Clouds 17 1017 31 10000 1 360 21:59 26.10.2019
5296 Clouds 17 1017 30 10000 1 360 21:41 26.10.2019
5297 Clouds 17 1016 29 10000 1 90 21:21 26.10.2019
5298 Clouds 17 1016 27 10000 2.6 170 20:45 26.10.2019
5299 Clouds 18 1016 27 10000 2.1 170 20:20 26.10.2019
5300 Clouds 18 1016 27 10000 2.6 170 19:59 26.10.2019
5301 Clouds 19 1016 25 10000 2.1 170 19:40 26.10.2019
5302 Clouds 19 1016 25 10000 2.1 170 19:20 26.10.2019
5303 Clouds 19 1016 25 10000 2.1 170 19:20 26.10.2019
5304 Clouds 20 1016 24 10000 2.1 160 18:56 26.10.2019
5305 Clouds 21 1016 22 10000 3.1 140 18:37 26.10.2019
5306 Clouds 21 1016 22 10000 3.1 140 18:18 26.10.2019
5307 Clouds 21 1016 22 10000 3.1 140 18:18 26.10.2019
5308 Clouds 22 1016 21 10000 3.1 120 17:56 26.10.2019
5309 Clouds 22 1017 21 10000 3.6 110 17:36 26.10.2019
5310 Clouds 22 1017 21 10000 3.6 110 17:18 26.10.2019
5311 Clouds 23 1017 20 10000 4.6 100 16:42 26.10.2019
5312 Clouds 23 1017 20 10000 4.6 100 16:22 26.10.2019
5313 Clouds 22 1017 21 10000 3.1 120 15:43 26.10.2019
5314 Clouds 23 1017 20 10000 3.6 130 15:20 26.10.2019
5315 Clouds 24 1017 19 10000 4.1 130 14:54 26.10.2019
5316 Clouds 24 1017 17 10000 3.6 130 14:36 26.10.2019
5317 Clouds 24 1017 17 10000 3.6 130 14:18 26.10.2019
5318 Clouds 23 1016 23 0 8.17 124 13:41 26.10.2019
5319 Clouds 23 1016 23 0 8.17 124 13:21 26.10.2019
5320 Clouds 23 1016 23 0 8.17 124 12:49 26.10.2019
5321 Clouds 29 1014 13 10000 6.7 130 12:25 26.10.2019
5322 Clouds 29 1014 13 10000 6.7 130 11:50 26.10.2019
5323 Clouds 29 1014 13 10000 6.7 130 11:29 26.10.2019
5324 Clouds 29 1014 13 10000 7.2 130 10:57 26.10.2019
5325 Clouds 30 1014 12 10000 6.2 120 10:39 26.10.2019
5326 Clouds 30 1014 12 10000 6.2 120 10:21 26.10.2019
5327 Clouds 31 1014 11 10000 6.7 140 09:44 26.10.2019
5328 Clouds 30 1014 12 10000 5.7 130 09:26 26.10.2019
5329 Clouds 32 1014 10 10000 6.2 130 08:44 26.10.2019
5330 Clouds 31 1014 10 10000 6.2 150 08:25 26.10.2019
5331 Clouds 31 1014 10 10000 4.6 170 07:55 26.10.2019
5332 Clouds 32 1014 11 10000 5.7 110 07:31 26.10.2019
5333 Clouds 31 1015 10 10000 6.7 120 06:46 26.10.2019
5334 Clouds 31 1015 10 10000 7.7 110 06:27 26.10.2019
5335 Clouds 30 1016 10 10000 7.7 100 05:21 26.10.2019
5336 Clouds 29 1017 11 10000 7.7 130 04:32 26.10.2019
5337 Rain 27 1018 10 10000 7.7 130 02:57 26.10.2019
5338 Rain 26 1019 10 10000 7.7 120 01:57 26.10.2019
5339 Rain 25 1018 11 10000 7.7 120 01:34 26.10.2019
5340 Rain 23 1018 13 10000 5.1 130 00:26 26.10.2019
5341 Clouds 22 1017 19 10000 3.6 150 23:46 25.10.2019
5342 Clouds 20 1017 24 10000 3.1 170 23:21 25.10.2019
5343 Clouds 21 1016 19 10000 3.1 130 22:41 25.10.2019
5344 Clouds 21 1016 19 10000 3.1 130 22:23 25.10.2019
5345 Clouds 22 1015 18 10000 4.1 110 21:58 25.10.2019
5346 Clouds 22 1015 21 10000 3.6 130 21:40 25.10.2019
5347 Rain 22 1015 21 10000 3.6 130 21:21 25.10.2019
5348 Rain 22 1015 36 10000 3.6 120 20:56 25.10.2019
5349 Rain 23 1015 36 10000 4.1 130 20:38 25.10.2019
5350 Rain 23 1015 36 10000 4.1 130 20:19 25.10.2019
5351 Rain 23 1015 23 10000 3.6 150 19:44 25.10.2019
5352 Rain 24 1015 23 10000 3.1 150 19:25 25.10.2019
5353 Rain 24 1015 25 10000 3.6 130 18:46 25.10.2019
5354 Rain 25 1015 23 10000 2.6 130 18:24 25.10.2019
5355 Rain 26 1015 24 10000 4.1 150 17:42 25.10.2019
5356 Rain 26 1015 24 10000 4.1 150 17:42 25.10.2019
5357 Rain 26 1015 24 10000 4.1 150 17:22 25.10.2019
5358 Rain 26 1015 26 10000 3.6 130 16:56 25.10.2019
5359 Rain 27 1015 24 10000 4.6 130 16:37 25.10.2019
5360 Rain 27 1015 24 10000 4.6 130 16:19 25.10.2019
5361 Rain 28 1015 28 3300 4.1 130 15:41 25.10.2019
5362 Rain 28 1015 28 3300 4.1 130 15:22 25.10.2019
5363 Rain 27 1014 30 4300 3.6 120 14:58 25.10.2019
5364 Rain 28 1014 28 4700 2.1 350 14:39 25.10.2019
5365 Rain 28 1014 28 4700 2.1 350 14:20 25.10.2019
5366 Rain 29 1014 25 10000 3.1 340 13:42 25.10.2019
5367 Rain 28 1014 28 10000 2.6 340 13:24 25.10.2019
5368 Rain 28 1014 28 10000 2.6 340 12:56 25.10.2019
5369 Rain 28 1013 30 10000 3.6 350 12:38 25.10.2019
5370 Rain 28 1013 30 10000 3.6 350 12:19 25.10.2019
5371 Rain 30 1012 23 10000 6.7 360 11:41 25.10.2019
5372 Rain 30 1012 23 10000 6.7 360 11:22 25.10.2019
5373 Rain 32 1012 19 10000 4.6 140 10:57 25.10.2019
5374 Rain 32 1011 19 10000 5.1 120 10:39 25.10.2019
5375 Rain 32 1011 19 10000 5.1 120 10:19 25.10.2019
5376 Rain 33 1009 18 10000 6.2 130 09:42 25.10.2019
5377 Clear 33 1009 18 10000 6.2 130 09:21 25.10.2019
5378 Clear 34 1010 17 10000 5.7 120 08:59 25.10.2019
5379 Clear 34 1010 18 10000 5.7 130 08:41 25.10.2019
5380 Clear 34 1010 18 10000 5.7 130 08:22 25.10.2019
5381 Clear 34 1010 18 10000 5.1 130 07:47 25.10.2019
5382 Clear 34 1011 18 10000 4.6 130 07:28 25.10.2019
5383 Clear 33 1012 19 10000 4.1 120 06:38 25.10.2019
5384 Clouds 33 1013 19 10000 5.7 150 05:49 25.10.2019
5385 Dust 31 1013 22 8000 5.1 150 05:30 25.10.2019
5386 Dust 29 1015 25 8000 5.1 130 04:36 25.10.2019
5387 Dust 29 1016 26 6000 4.6 150 02:42 25.10.2019
5388 Dust 28 1016 28 6000 4.6 150 01:52 25.10.2019
5389 Clear 25 1015 33 10000 3.6 170 00:36 25.10.2019
5390 Clear 24 1014 33 10000 5.65 303 23:44 24.10.2019
5391 Clear 23 1013 35 10000 2.1 320 23:25 24.10.2019
5392 Clear 23 1013 33 10000 3.6 50 22:59 24.10.2019
5393 Clear 21 1013 35 10000 2.1 130 22:39 24.10.2019
5394 Clear 21 1013 35 10000 2.1 130 22:19 24.10.2019
5395 Clear 21 1013 35 10000 2.1 130 22:19 24.10.2019
5396 Clear 22 1012 35 10000 3.6 130 21:57 24.10.2019
5397 Clear 22 1012 35 10000 3.6 130 21:57 24.10.2019
5398 Clear 24 1012 33 10000 4.6 110 21:38 24.10.2019
5399 Rain 24 1012 33 10000 4.6 110 21:20 24.10.2019
5400 Rain 26 1011 29 10000 4.6 10 20:59 24.10.2019
5401 Rain 25 1010 29 10000 1.5 310 20:39 24.10.2019
5402 Rain 25 1010 29 10000 1.5 310 20:21 24.10.2019
5403 Rain 27 1010 28 10000 4.1 350 19:56 24.10.2019
5404 Rain 26 1010 27 10000 3.6 10 19:37 24.10.2019
5405 Rain 26 1010 27 10000 3.6 10 19:18 24.10.2019
5406 Rain 27 1011 26 10000 4.6 350 18:41 24.10.2019
5407 Clouds 27 1011 26 10000 4.6 350 18:23 24.10.2019
5408 Clouds 27 1012 26 10000 2.1 360 17:59 24.10.2019
5409 Clouds 27 1012 26 10000 2.6 260 17:40 24.10.2019
5410 Clouds 27 1012 26 10000 2.6 260 17:20 24.10.2019
5411 Clouds 29 1012 23 10000 2.6 10 16:56 24.10.2019
5412 Clouds 29 1012 21 10000 4.1 20 16:37 24.10.2019
5413 Clouds 29 1012 21 10000 4.1 20 16:19 24.10.2019
5414 Clouds 29 1012 21 10000 5.7 20 15:56 24.10.2019
5415 Clouds 29 1012 21 10000 5.7 20 15:56 24.10.2019
5416 Clouds 29 1012 23 10000 4.1 20 15:38 24.10.2019
5417 Rain 29 1012 23 10000 4.1 20 15:19 24.10.2019
5418 Rain 29 1012 23 10000 5.1 30 14:55 24.10.2019
5419 Clouds 29 1012 23 10000 4.1 30 14:36 24.10.2019
5420 Clouds 29 1012 23 10000 4.1 30 14:18 24.10.2019
5421 Clouds 30 1011 22 10000 6.2 50 13:40 24.10.2019
5422 Clouds 30 1011 22 10000 6.2 50 13:19 24.10.2019
5423 Clouds 30 1011 20 10000 7.7 70 12:57 24.10.2019
5424 Clouds 31 1011 18 10000 5.7 80 12:38 24.10.2019
5425 Clouds 31 1011 18 10000 5.7 80 12:19 24.10.2019
5426 Clouds 32 1011 18 10000 4.1 190 11:56 24.10.2019
5427 Clouds 34 1010 12 10000 2.1 310 11:37 24.10.2019
5428 Clouds 34 1010 12 10000 2.1 310 11:18 24.10.2019
5429 Clouds 34 1010 13 10000 3.1 250 10:42 24.10.2019
5430 Clouds 34 1010 13 10000 3.1 250 10:42 24.10.2019
5431 Clouds 35 1010 12 10000 7.2 320 10:23 24.10.2019
5432 Clouds 36 1009 11 10000 4.6 280 09:55 24.10.2019
5433 Rain 37 1009 58 10000 5.7 290 09:36 24.10.2019
5434 Clouds 37 1009 18 10000 5.7 290 09:18 24.10.2019
5435 Clouds 37 1009 18 10000 7.2 290 08:42 24.10.2019
5436 Clouds 36 1009 11 10000 4.6 300 08:20 24.10.2019
5437 Rain 36 1010 11 10000 3.1 270 07:48 24.10.2019
5438 Clouds 37 1010 12 10000 4.1 330 07:23 24.10.2019
5439 Clouds 37 1010 12 10000 4.1 330 07:23 24.10.2019
5440 Clouds 35 1011 14 10000 6.2 320 06:56 24.10.2019
5441 Clouds 36 1011 14 10000 7.2 330 06:36 24.10.2019
5442 Clouds 36 1012 14 10000 7.2 340 05:55 24.10.2019
5443 Clouds 35 1013 16 10000 8.2 350 05:33 24.10.2019
5444 Clouds 35 1014 19 10000 9.8 350 04:23 24.10.2019
5445 Clouds 32 1014 24 10000 9.8 350 03:35 24.10.2019
5446 Clear 31 1015 23 10000 9.3 360 02:39 24.10.2019
5447 Clouds 31 1015 23 10000 9.3 360 02:19 24.10.2019
5448 Clouds 30 1014 23 10000 7.7 360 01:31 24.10.2019
5449 Clouds 29 1014 26 10000 7.7 360 00:56 24.10.2019
5450 Clouds 27 1014 28 10000 7.2 360 00:27 24.10.2019
5451 Clear 27 1014 28 10000 8.2 360 23:57 23.10.2019
5452 Clear 26 1013 29 10000 6.7 360 23:38 23.10.2019
5453 Clear 26 1013 29 10000 6.7 360 23:18 23.10.2019
5454 Clear 24 1013 33 10000 3.1 360 22:54 23.10.2019
5455 Clear 24 1013 33 10000 3.1 360 22:54 23.10.2019
5456 Clear 19 1013 42 10000 1 140 22:36 23.10.2019
5457 Clear 19 1013 42 10000 1 140 22:18 23.10.2019
5458 Clear 22 1012 37 10000 2.6 310 21:55 23.10.2019
5459 Clear 21 1012 40 10000 9.3 1 21:36 23.10.2019
5460 Clouds 21 1012 40 10000 11.02 19 21:18 23.10.2019
5461 Clouds 24 1012 36 10000 2.1 360 20:54 23.10.2019
5462 Clouds 24 1012 36 10000 2.1 360 20:54 23.10.2019
5463 Clouds 23 1012 40 10000 11.02 19 20:36 23.10.2019
5464 Clouds 23 1012 40 10000 11.02 19 20:18 23.10.2019
5465 Clouds 23 1012 35 10000 2.1 220 19:42 23.10.2019
5466 Clouds 23 1012 35 10000 2.1 220 19:19 23.10.2019
5467 Clouds 23 1013 38 10000 11.02 19 18:57 23.10.2019
5468 Clouds 23 1013 38 10000 2.6 70 18:38 23.10.2019
5469 Clear 23 1013 38 10000 2.6 70 18:19 23.10.2019
5470 Clear 24 1013 36 10000 3.1 10 17:46 23.10.2019
5471 Clear 23 1014 33 10000 2.1 20 17:21 23.10.2019
5472 Clear 25 1014 31 10000 1.5 330 16:58 23.10.2019
5473 Clear 23 1015 25 10000 2.1 50 16:40 23.10.2019
5474 Clear 23 1015 25 10000 2.1 50 16:20 23.10.2019
5475 Clear 23 1015 25 10000 2.1 50 16:20 23.10.2019
5476 Clear 25 1015 27 10000 2.1 20 15:54 23.10.2019
5477 Clear 25 1015 22 10000 3.1 60 15:36 23.10.2019
5478 Clear 25 1015 22 10000 3.1 60 15:18 23.10.2019
5479 Clear 24 1015 10 10000 2.6 70 14:54 23.10.2019
5480 Clear 24 1014 10 10000 2.1 150 14:36 23.10.2019
5481 Clear 24 1014 10 10000 2.1 150 14:18 23.10.2019
5482 Clear 26 1014 9 10000 3.6 180 13:42 23.10.2019
5483 Clear 27 1014 10 10000 3.1 190 13:23 23.10.2019
5484 Clear 28 1013 8 10000 3.1 190 12:57 23.10.2019
5485 Clear 29 1013 9 10000 3.1 170 12:38 23.10.2019
5486 Clear 29 1013 9 10000 3.1 170 12:18 23.10.2019
5487 Clear 30 1013 7 10000 3.1 180 11:57 23.10.2019
5488 Clear 33 1012 6 10000 3.6 190 11:39 23.10.2019
5489 Clear 33 1012 6 10000 3.6 190 11:39 23.10.2019
5490 Clear 33 1012 6 10000 3.6 190 11:20 23.10.2019
5491 Clear 34 1012 6 10000 2.6 100 10:46 23.10.2019
5492 Clear 35 1012 6 10000 5.1 170 10:26 23.10.2019
5493 Clear 35 1011 6 10000 4.6 170 09:57 23.10.2019
5494 Clear 34 1011 7 10000 2.6 170 09:38 23.10.2019
5495 Clear 34 1011 7 10000 2.6 170 09:20 23.10.2019
5496 Clear 35 1012 6 10000 5.1 220 08:42 23.10.2019
5497 Clear 35 1012 6 10000 2.6 140 08:24 23.10.2019
5498 Clear 35 1012 6 10000 6.2 180 07:46 23.10.2019
5499 Clear 35 1012 6 10000 2.6 130 07:23 23.10.2019
5500 Clear 35 1013 6 10000 3.6 70 06:47 23.10.2019
5501 Clear 34 1014 6 10000 4.1 40 06:22 23.10.2019
5502 Clear 34 1014 7 10000 3.1 90 05:47 23.10.2019
5503 Clear 33 1015 6 10000 2.6 350 04:57 23.10.2019
5504 Clear 31 1017 8 10000 6.2 90 03:35 23.10.2019
5505 Clear 29 1017 7 10000 5.7 90 02:41 23.10.2019
5506 Clear 27 1018 8 10000 4.1 90 01:33 23.10.2019
5507 Clear 23 1018 9 10000 4.75 73 00:56 23.10.2019
5508 Clear 20 1018 11 10000 0.5 240 00:28 23.10.2019
5509 Clear 14 1018 16 10000 2.1 300 23:40 22.10.2019
5510 Clear 14 1018 16 10000 2.1 300 23:18 22.10.2019
5511 Clear 14 1017 16 10000 2.1 310 22:57 22.10.2019
5512 Clear 14 1017 16 10000 2.6 310 22:39 22.10.2019
5513 Clear 14 1017 16 10000 2.6 310 22:39 22.10.2019
5514 Clear 14 1017 16 10000 2.6 310 22:20 22.10.2019
5515 Clear 14 1017 15 10000 2.1 300 21:56 22.10.2019
5516 Clear 14 1016 15 10000 2.6 280 21:37 22.10.2019
5517 Clear 14 1016 15 10000 2.6 280 21:18 22.10.2019
5518 Clear 15 1016 14 10000 2.6 280 20:56 22.10.2019
5519 Clear 15 1016 14 10000 2.6 280 20:56 22.10.2019
5520 Clear 15 1016 18 10000 0.5 320 20:38 22.10.2019
5521 Clear 15 1016 18 10000 0.5 320 20:20 22.10.2019
5522 Clear 16 1016 15 10000 1.5 320 19:54 22.10.2019
5523 Clear 16 1016 15 10000 1.5 320 19:54 22.10.2019
5524 Clear 15 1016 15 10000 0.5 330 19:36 22.10.2019
5525 Clear 15 1016 15 10000 0.5 330 19:18 22.10.2019
5526 Clear 17 1017 13 10000 2.1 340 18:40 22.10.2019
5527 Clear 17 1017 13 10000 2.1 340 18:22 22.10.2019
5528 Clear 18 1017 11 10000 2.6 300 17:58 22.10.2019
5529 Clear 18 1017 11 10000 2.6 300 17:38 22.10.2019
5530 Clear 18 1017 11 10000 2.6 300 17:20 22.10.2019
5531 Clear 18 1017 11 10000 2.1 300 16:57 22.10.2019
5532 Clear 19 1017 11 10000 2.1 270 16:38 22.10.2019
5533 Clear 19 1017 11 10000 2.1 270 16:19 22.10.2019
5534 Clear 20 1018 11 10000 2.6 260 15:56 22.10.2019
5535 Clear 19 1018 11 10000 3.11 125 15:38 22.10.2019
5536 Clear 19 1018 11 10000 4.18 123 15:18 22.10.2019
5537 Clear 21 1018 10 10000 1.5 350 14:43 22.10.2019
5538 Clear 21 1017 10 10000 1.5 90 14:20 22.10.2019
5539 Clear 23 1017 8 10000 2.6 130 13:42 22.10.2019
5540 Clear 25 1017 7 10000 3.1 130 13:22 22.10.2019
5541 Clear 25 1017 8 10000 3.1 130 12:58 22.10.2019
5542 Clear 25 1017 8 10000 3.1 130 12:58 22.10.2019
5543 Clear 28 1016 7 10000 3.6 120 12:40 22.10.2019
5544 Clear 28 1016 7 10000 3.6 120 12:40 22.10.2019
5545 Clear 28 1016 7 10000 3.6 120 12:21 22.10.2019
5546 Clear 29 1016 7 10000 4.1 120 11:54 22.10.2019
5547 Clear 29 1016 7 10000 4.1 120 11:54 22.10.2019
5548 Clear 30 1015 7 10000 4.1 120 11:36 22.10.2019
5549 Clear 30 1015 7 10000 4.1 120 11:18 22.10.2019
5550 Clear 31 1015 6 10000 5.1 130 10:55 22.10.2019
5551 Clear 31 1015 6 10000 5.1 120 10:36 22.10.2019
5552 Clear 31 1015 6 10000 5.1 120 10:18 22.10.2019
5553 Clear 31 1015 6 10000 4.1 130 09:42 22.10.2019
5554 Clear 32 1015 7 10000 4.6 150 09:22 22.10.2019
5555 Clear 32 1015 7 10000 4.6 150 08:59 22.10.2019
5556 Clear 32 1015 7 10000 4.6 150 08:59 22.10.2019
5557 Clear 32 1015 6 10000 6.2 130 08:41 22.10.2019
5558 Clear 32 1015 6 10000 6.2 130 08:19 22.10.2019
5559 Clear 32 1015 6 10000 4.1 90 07:44 22.10.2019
5560 Clear 31 1016 5 10000 4.1 120 07:26 22.10.2019
5561 Clear 31 1016 6 10000 5.1 130 06:45 22.10.2019
5562 Clear 31 1017 6 10000 5.1 120 06:27 22.10.2019
5563 Clear 30 1017 5 10000 4.1 120 05:48 22.10.2019
5564 Clear 30 1017 5 10000 4.1 120 05:48 22.10.2019
5565 Clear 29 1018 7 10000 4.6 110 04:54 22.10.2019
5566 Clouds 26 1020 9 10000 7.2 80 02:32 22.10.2019
5567 Clouds 23 1020 11 10000 7.2 80 01:39 22.10.2019
5568 Clouds 23 1020 11 10000 7.2 80 01:21 22.10.2019
5569 Clouds 22 1020 12 10000 4.6 80 00:56 22.10.2019
5570 Clouds 20 1020 14 10000 3.1 110 00:38 22.10.2019
5571 Clouds 20 1020 14 10000 3.1 110 00:19 22.10.2019
5572 Clouds 13 1020 22 10000 5.33 87 23:39 21.10.2019
5573 Clouds 13 1020 22 10000 5.33 87 23:19 21.10.2019
5574 Clouds 12 1020 23 10000 5.33 87 22:59 21.10.2019
5575 Clouds 12 1020 22 10000 5.33 87 22:40 21.10.2019
5576 Clouds 12 1020 22 10000 5.33 87 22:40 21.10.2019
5577 Clouds 12 1020 22 10000 5.33 87 22:20 21.10.2019
5578 Clouds 13 1019 20 10000 5.33 87 21:58 21.10.2019
5579 Clouds 12 1019 23 10000 5.33 87 21:38 21.10.2019
5580 Clouds 12 1019 23 10000 5.22 102 21:20 21.10.2019
5581 Clouds 12 1019 23 10000 5.22 102 21:20 21.10.2019
5582 Clouds 14 1019 20 10000 5.22 102 20:58 21.10.2019
5583 Clouds 13 1019 22 10000 5.22 102 20:39 21.10.2019
5584 Clouds 13 1019 22 10000 5.22 102 20:20 21.10.2019
5585 Clouds 15 1019 18 10000 5.22 102 19:56 21.10.2019
5586 Clouds 15 1019 18 10000 5.22 102 19:37 21.10.2019
5587 Clouds 15 1019 18 10000 5.22 102 19:19 21.10.2019
5588 Clouds 16 1020 18 10000 1 140 18:55 21.10.2019
5589 Clouds 15 1020 16 10000 2.1 70 18:36 21.10.2019
5590 Clouds 15 1020 16 10000 2.1 70 18:18 21.10.2019
5591 Clouds 18 1020 15 10000 2.6 60 17:39 21.10.2019
5592 Clouds 18 1020 15 10000 2.6 60 17:20 21.10.2019
5593 Clouds 19 1021 15 10000 2.1 110 16:59 21.10.2019
5594 Clouds 18 1021 15 10000 2.6 110 16:40 21.10.2019
5595 Clouds 18 1021 15 10000 2.6 110 16:22 21.10.2019
5596 Clouds 19 1021 14 10000 2.1 90 15:58 21.10.2019
5597 Clouds 20 1021 13 10000 2.1 110 15:39 21.10.2019
5598 Clouds 20 1021 13 10000 2.1 110 15:20 21.10.2019
5599 Clouds 21 1021 12 10000 2.6 130 14:55 21.10.2019
5600 Clouds 23 1021 11 10000 3.1 130 14:36 21.10.2019
5601 Clouds 23 1021 11 10000 3.1 130 14:18 21.10.2019
5602 Clouds 24 1020 11 10000 3.6 120 13:42 21.10.2019
5603 Clouds 25 1020 9 10000 4.1 120 13:20 21.10.2019
5604 Clouds 25 1020 9 10000 3.6 120 12:58 21.10.2019
5605 Clouds 26 1020 9 10000 4.1 120 12:40 21.10.2019
5606 Clouds 26 1020 9 10000 4.1 120 12:20 21.10.2019
5607 Clouds 27 1019 8 10000 4.1 130 11:54 21.10.2019
5608 Clouds 27 1019 8 10000 4.1 130 11:54 21.10.2019
5609 Clouds 27 1019 8 10000 4.1 130 11:54 21.10.2019
5610 Clouds 28 1019 8 10000 5.1 130 11:36 21.10.2019
5611 Clouds 28 1019 8 10000 5.1 130 11:18 21.10.2019
5612 Clouds 29 1019 7 10000 5.7 120 10:54 21.10.2019
5613 Clouds 29 1019 7 10000 5.7 120 10:54 21.10.2019
5614 Clouds 29 1019 7 10000 5.7 120 10:54 21.10.2019
5615 Clouds 29 1018 7 10000 5.1 120 10:36 21.10.2019
5616 Clouds 29 1018 7 10000 5.1 120 10:18 21.10.2019
5617 Clouds 30 1018 5 10000 5.1 120 09:39 21.10.2019
5618 Clear 30 1018 5 10000 5.1 120 09:21 21.10.2019
5619 Clear 31 1018 5 10000 5.7 130 08:41 21.10.2019
5620 Clear 31 1018 5 10000 5.7 130 08:23 21.10.2019
5621 Clear 30 1019 6 10000 6.2 90 07:55 21.10.2019
5622 Clear 30 1019 6 10000 6.2 120 07:36 21.10.2019
5623 Clear 30 1019 6 10000 6.2 120 07:18 21.10.2019
5624 Clear 30 1020 7 10000 6.7 110 06:43 21.10.2019
5625 Clear 30 1020 7 10000 6.7 110 06:24 21.10.2019
5626 Clear 28 1021 8 10000 5.7 110 05:33 21.10.2019
5627 Clear 25 1023 12 10000 5.7 110 03:41 21.10.2019
5628 Clear 23 1024 13 10000 6.7 80 02:40 21.10.2019
5629 Clear 23 1024 13 10000 6.7 80 02:20 21.10.2019
5630 Clear 22 1024 13 10000 7.7 100 01:45 21.10.2019
5631 Clear 22 1024 13 10000 7.7 100 01:45 21.10.2019
5632 Clear 21 1024 15 10000 6.7 100 00:54 21.10.2019
5633 Clear 20 1024 16 10000 3.1 100 00:28 21.10.2019
5634 Clear 18 1024 20 10000 2.6 110 23:58 20.10.2019
5635 Clear 14 1023 24 10000 2.1 90 23:39 20.10.2019
5636 Clear 14 1023 24 10000 2.1 90 23:21 20.10.2019
5637 Clear 15 1023 24 10000 3.1 150 22:42 20.10.2019
5638 Clear 15 1023 22 10000 2.1 150 22:24 20.10.2019
5639 Clear 15 1023 22 10000 2.1 150 22:24 20.10.2019
5640 Clear 15 1023 22 10000 2.1 150 22:24 20.10.2019
5641 Clear 15 1022 22 10000 1 180 21:59 20.10.2019
5642 Clear 15 1022 21 10000 2.1 220 21:40 20.10.2019
5643 Clouds 15 1022 21 10000 2.1 220 21:21 20.10.2019
5644 Clouds 15 1022 21 10000 2.6 280 20:55 20.10.2019
5645 Clouds 17 1021 18 10000 0.5 100 20:37 20.10.2019
5646 Clouds 17 1021 18 10000 0.5 100 20:18 20.10.2019
5647 Clouds 19 1021 16 10000 2.6 110 19:55 20.10.2019
5648 Clouds 20 1021 14 10000 3.1 110 19:36 20.10.2019
5649 Clouds 20 1021 14 10000 3.1 110 19:18 20.10.2019
5650 Clouds 20 1022 14 10000 4.6 120 18:40 20.10.2019
5651 Clouds 20 1022 14 10000 4.6 120 18:20 20.10.2019
5652 Clouds 20 1022 14 10000 4.6 120 17:57 20.10.2019
5653 Clouds 20 1022 14 10000 5.1 120 17:38 20.10.2019
5654 Clouds 20 1022 14 10000 5.1 120 17:20 20.10.2019
5655 Clouds 23 1022 11 10000 5.7 120 16:43 20.10.2019
5656 Clouds 22 1023 12 10000 5.1 120 16:24 20.10.2019
5657 Clouds 22 1023 12 10000 5.1 120 16:24 20.10.2019
5658 Clouds 23 1023 12 10000 5.1 120 15:59 20.10.2019
5659 Clouds 24 1023 13 10000 4.6 120 15:39 20.10.2019
5660 Clouds 24 1023 13 10000 4.6 120 15:20 20.10.2019
5661 Clouds 24 1023 14 10000 4.1 120 14:58 20.10.2019
5662 Clouds 25 1023 13 10000 4.6 120 14:38 20.10.2019
5663 Clouds 25 1023 13 10000 4.6 120 14:19 20.10.2019
5664 Clouds 26 1022 12 10000 5.7 110 13:56 20.10.2019
5665 Clouds 27 1022 12 10000 4.6 120 13:37 20.10.2019
5666 Clouds 27 1022 12 10000 4.6 120 13:18 20.10.2019
5667 Clouds 27 1022 12 10000 4.6 120 13:18 20.10.2019
5668 Clouds 27 1022 11 10000 4.1 130 12:56 20.10.2019
5669 Clouds 27 1022 11 10000 4.1 130 12:56 20.10.2019
5670 Clouds 28 1021 12 10000 4.6 120 12:37 20.10.2019
5671 Clouds 28 1021 12 10000 4.6 120 12:19 20.10.2019
5672 Clouds 29 1020 10 10000 5.1 120 11:55 20.10.2019
5673 Clouds 30 1020 10 10000 6.2 120 11:37 20.10.2019
5674 Clouds 30 1020 10 10000 6.2 120 11:18 20.10.2019
5675 Clouds 32 1019 9 10000 5.7 120 10:41 20.10.2019
5676 Clouds 32 1019 9 10000 5.7 120 10:22 20.10.2019
5677 Clouds 31 1019 10 10000 5.7 120 09:57 20.10.2019
5678 Clouds 32 1019 9 10000 5.7 110 09:39 20.10.2019
5679 Clouds 32 1019 9 10000 5.7 110 09:21 20.10.2019
5680 Clear 32 1019 9 10000 5.1 90 08:45 20.10.2019
5681 Clear 32 1019 9 10000 5.7 110 08:22 20.10.2019
5682 Clear 32 1020 11 10000 5.7 110 07:50 20.10.2019
5683 Clear 32 1020 9 10000 3.6 50 07:30 20.10.2019
5684 Clear 32 1020 9 10000 3.6 50 07:30 20.10.2019
5685 Clear 32 1020 9 10000 3.6 50 07:30 20.10.2019
5686 Clear 30 1021 11 10000 5.7 90 06:34 20.10.2019
5687 Clear 31 1021 10 10000 5.1 100 05:58 20.10.2019
5688 Clear 28 1022 13 10000 6.7 90 04:25 20.10.2019
5689 Clear 28 1022 13 10000 6.7 90 04:25 20.10.2019
5690 Clear 28 1023 14 10000 7.2 90 03:41 20.10.2019
5691 Clouds 28 1023 14 10000 7.2 90 03:18 20.10.2019
5692 Clouds 26 1024 15 10000 8.2 100 02:33 20.10.2019
5693 Clouds 25 1024 15 10000 7.2 90 01:55 20.10.2019
5694 Clouds 25 1023 16 10000 9.3 90 01:23 20.10.2019
5695 Clouds 24 1023 16 10000 8.2 90 00:54 20.10.2019
5696 Clouds 23 1023 18 10000 5.1 100 00:21 20.10.2019
5697 Clouds 21 1023 19 10000 3.6 110 23:55 19.10.2019
5698 Clouds 21 1023 19 10000 3.6 100 23:37 19.10.2019
5699 Clouds 21 1023 19 10000 3.6 100 23:19 19.10.2019
5700 Clouds 19 1022 22 10000 3.1 90 22:55 19.10.2019
5701 Clouds 19 1022 22 10000 2.6 120 22:37 19.10.2019
5702 Clouds 19 1022 22 10000 2.6 120 22:18 19.10.2019
5703 Clouds 20 1021 20 10000 3.1 100 21:43 19.10.2019
5704 Clouds 22 1021 17 10000 3.6 120 21:20 19.10.2019
5705 Clouds 22 1021 19 10000 2.6 110 20:44 19.10.2019
5706 Clouds 22 1021 19 10000 2.6 110 20:44 19.10.2019
5707 Clouds 22 1021 18 10000 3.1 120 20:22 19.10.2019
5708 Clouds 23 1021 17 10000 3.6 110 19:56 19.10.2019
5709 Clouds 23 1021 18 10000 2.6 110 19:38 19.10.2019
5710 Clouds 23 1021 18 10000 2.6 110 19:20 19.10.2019
5711 Clouds 22 1021 21 10000 3.1 100 18:41 19.10.2019
5712 Clouds 22 1021 21 10000 3.1 100 18:23 19.10.2019
5713 Clouds 22 1021 28 10000 3.6 120 17:42 19.10.2019
5714 Clouds 24 1022 19 10000 3.1 120 17:23 19.10.2019
5715 Clouds 25 1022 17 10000 3.6 110 16:59 19.10.2019
5716 Clouds 25 1022 22 10000 3.1 160 16:38 19.10.2019
5717 Clouds 25 1022 22 10000 3.1 160 16:19 19.10.2019
5718 Clouds 26 1022 21 10000 3.1 160 15:44 19.10.2019
5719 Clouds 27 1022 22 10000 2.6 210 15:26 19.10.2019
5720 Clouds 28 1021 21 10000 1 310 14:40 19.10.2019
5721 Clouds 28 1021 21 10000 1 310 14:40 19.10.2019
5722 Clouds 28 1021 21 10000 1 310 14:21 19.10.2019
5723 Clouds 27 1021 22 10000 3.1 200 13:59 19.10.2019
5724 Clouds 28 1020 23 10000 4.1 190 13:41 19.10.2019
5725 Clouds 28 1020 23 10000 4.1 190 13:21 19.10.2019
5726 Clouds 29 1020 21 10000 2.6 190 12:58 19.10.2019
5727 Clouds 29 1019 21 10000 3.1 210 12:38 19.10.2019
5728 Rain 29 1019 21 10000 3.1 210 12:20 19.10.2019
5729 Rain 31 1018 19 10000 5.1 270 11:42 19.10.2019
5730 Rain 31 1018 19 10000 5.1 270 11:23 19.10.2019
5731 Rain 31 1018 19 10000 5.1 270 11:23 19.10.2019
5732 Rain 31 1018 19 10000 5.7 310 10:58 19.10.2019
5733 Clouds 31 1018 16 10000 7.2 310 10:40 19.10.2019
5734 Clouds 31 1018 16 10000 7.2 310 10:22 19.10.2019
5735 Clouds 32 1018 14 10000 8.7 350 09:56 19.10.2019
5736 Rain 31 1019 18 10000 10.3 320 09:37 19.10.2019
5737 Clouds 32 1018 19 10000 8.2 150 09:19 19.10.2019
5738 Rain 32 1016 24 10000 7.7 240 08:40 19.10.2019
5739 Rain 32 1016 24 10000 7.7 240 08:21 19.10.2019
5740 Clouds 35 1017 11 10000 2.6 240 07:46 19.10.2019
5741 Clouds 35 1017 11 10000 2.6 240 07:26 19.10.2019
5742 Clouds 35 1017 11 10000 2.6 240 07:26 19.10.2019
5743 Clouds 36 1018 11 10000 4.6 280 06:48 19.10.2019
5744 Clouds 36 1018 11 10000 4.6 280 06:28 19.10.2019
5745 Clouds 36 1019 11 10000 6.7 300 05:35 19.10.2019
5746 Clouds 34 1020 13 10000 3.1 290 04:26 19.10.2019
5747 Clear 32 1021 11 10000 4.6 10 02:50 19.10.2019
5748 Clear 29 1021 13 10000 3.6 30 01:55 19.10.2019
5749 Clear 29 1020 12 10000 4.1 20 01:36 19.10.2019
5750 Clouds 27 1020 14 10000 3.6 20 00:49 19.10.2019
5751 Clouds 26 1019 15 10000 2.1 330 00:28 19.10.2019
5752 Clear 24 1019 20 10000 1.5 350 23:56 18.10.2019
5753 Clear 24 1019 20 10000 1.5 350 23:56 18.10.2019
5754 Clear 22 1019 21 10000 0.5 40 23:37 18.10.2019
5755 Clear 22 1019 21 10000 0.5 40 23:19 18.10.2019
5756 Clear 20 1019 22 10000 4.79 15.886 22:43 18.10.2019
5757 Clear 20 1019 22 10000 4.79 15.886 22:43 18.10.2019
5758 Clear 20 1019 22 10000 2.1 350 22:21 18.10.2019
5759 Clear 21 1018 21 10000 2.6 90 21:59 18.10.2019
5760 Clear 21 1018 21 10000 2.6 90 21:59 18.10.2019
5761 Clear 20 1018 22 10000 3.1 20 21:39 18.10.2019
5762 Clear 20 1018 22 10000 3.1 20 21:20 18.10.2019
5763 Clear 20 1018 22 10000 2.6 60 20:58 18.10.2019
5764 Clear 21 1018 21 10000 3.1 90 20:40 18.10.2019
5765 Clear 21 1018 21 10000 3.1 90 20:21 18.10.2019
5766 Clear 21 1018 21 10000 3.1 90 20:21 18.10.2019
5767 Clear 21 1018 21 10000 2.6 80 19:57 18.10.2019
5768 Clear 22 1018 21 10000 1.5 120 19:39 18.10.2019
5769 Clear 22 1018 21 10000 1.5 120 19:20 18.10.2019
5770 Clear 22 1018 19 10000 2.1 150 18:56 18.10.2019
5771 Clear 23 1018 18 10000 2.6 130 18:38 18.10.2019
5772 Clear 23 1018 18 10000 2.6 130 18:20 18.10.2019
5773 Clear 26 1018 16 10000 2.6 120 17:39 18.10.2019
5774 Clear 26 1018 16 10000 2.6 120 17:20 18.10.2019
5775 Clear 26 1018 16 10000 3.6 80 16:58 18.10.2019
5776 Clear 27 1018 15 10000 3.1 60 16:37 18.10.2019
5777 Clear 27 1018 15 10000 3.1 60 16:19 18.10.2019
5778 Clear 27 1018 14 10000 3.6 80 15:41 18.10.2019
5779 Clouds 27 1018 14 10000 3.6 80 15:21 18.10.2019
5780 Clouds 28 1018 14 10000 3.6 60 14:59 18.10.2019
5781 Clouds 28 1018 14 10000 4.1 70 14:40 18.10.2019
5782 Clouds 28 1018 14 10000 4.1 70 14:22 18.10.2019
5783 Clouds 29 1018 13 10000 5.7 80 13:59 18.10.2019
5784 Clouds 29 1018 13 10000 5.7 80 13:59 18.10.2019
5785 Clouds 29 1018 13 10000 4.6 80 13:41 18.10.2019
5786 Clouds 29 1018 13 10000 4.6 80 13:23 18.10.2019
5787 Clouds 30 1017 12 10000 4.1 60 12:56 18.10.2019
5788 Clouds 30 1017 11 10000 4.1 100 12:38 18.10.2019
5789 Clouds 30 1017 11 10000 4.1 100 12:20 18.10.2019
5790 Clouds 31 1017 11 10000 4.1 110 11:56 18.10.2019
5791 Clouds 31 1016 11 10000 6.2 110 11:37 18.10.2019
5792 Clouds 31 1016 11 10000 6.2 110 11:18 18.10.2019
5793 Clouds 32 1016 11 10000 5.1 130 10:42 18.10.2019
5794 Clouds 33 1016 10 10000 5.1 130 10:22 18.10.2019
5795 Clouds 33 1016 11 10000 5.1 140 09:58 18.10.2019
5796 Clouds 33 1016 11 10000 4.1 140 09:40 18.10.2019
5797 Clouds 33 1016 11 10000 4.1 140 09:20 18.10.2019
5798 Clouds 34 1016 13 10000 5.1 130 08:57 18.10.2019
5799 Clear 34 1016 10 10000 5.1 130 08:39 18.10.2019
5800 Clear 34 1016 10 10000 5.1 130 08:20 18.10.2019
5801 Clouds 34 1016 13 10000 5.7 130 07:42 18.10.2019
5802 Clouds 34 1016 13 10000 5.7 130 07:20 18.10.2019
5803 Clear 33 1016 13 10000 4.6 70 06:39 18.10.2019
5804 Clear 33 1016 14 10000 4.6 70 06:20 18.10.2019
5805 Clear 32 1017 11 10000 5.7 100 05:54 18.10.2019
5806 Clear 31 1018 12 10000 4.1 100 05:21 18.10.2019
5807 Clear 26 1020 16 10000 6.2 80 03:43 18.10.2019
5808 Clear 27 1020 15 10000 6.7 100 03:23 18.10.2019
5809 Clear 24 1020 20 10000 7.7 100 02:33 18.10.2019
5810 Clear 23 1020 20 10000 7.2 110 01:43 18.10.2019
5811 Clear 22 1020 24 10000 5.1 120 01:25 18.10.2019
5812 Clear 20 1020 28 10000 3.6 110 00:44 18.10.2019
5813 Clear 18 1019 33 10000 1.5 120 00:20 18.10.2019
5814 Clear 16 1019 33 10000 2.6 120 23:42 17.10.2019
5815 Clear 12 1018 33 10000 4.43 37.909 23:21 17.10.2019
5816 Clear 11 1018 33 10000 4.43 37.909 22:58 17.10.2019
5817 Clear 12 1018 33 10000 1 280 22:39 17.10.2019
5818 Clear 12 1018 33 10000 1 280 22:20 17.10.2019
5819 Clear 12 1018 33 10000 2.1 290 21:58 17.10.2019
5820 Clear 12 1018 33 10000 2.1 300 21:39 17.10.2019
5821 Clear 12 1018 32 10000 2.1 300 21:20 17.10.2019
5822 Clear 12 1018 32 10000 1.5 270 20:58 17.10.2019
5823 Clear 13 1018 32 10000 2.1 330 20:39 17.10.2019
5824 Clear 13 1018 32 10000 2.1 330 20:19 17.10.2019
5825 Clear 13 1018 32 10000 4.66 50.754 19:59 17.10.2019
5826 Clear 13 1018 32 10000 2.1 130 19:39 17.10.2019
5827 Clear 13 1018 32 10000 2.1 130 19:19 17.10.2019
5828 Clear 14 1018 32 10000 2.1 110 18:58 17.10.2019
5829 Clear 14 1019 32 10000 3.6 130 18:38 17.10.2019
5830 Clear 14 1019 29 10000 3.6 130 18:19 17.10.2019
5831 Clouds 16 1020 29 10000 2.6 50 17:42 17.10.2019
5832 Clouds 16 1020 29 10000 2.6 50 17:23 17.10.2019
5833 Clouds 15 1020 29 10000 2.1 60 16:57 17.10.2019
5834 Clouds 16 1020 29 10000 2.6 90 16:38 17.10.2019
5835 Clouds 16 1020 29 10000 2.6 90 16:18 17.10.2019
5836 Clouds 17 1020 29 10000 2.1 120 15:55 17.10.2019
5837 Clouds 18 1020 29 10000 2.6 140 15:37 17.10.2019
5838 Clouds 18 1020 26 10000 2.6 140 15:19 17.10.2019
5839 Clouds 18 1020 26 10000 2.6 140 14:42 17.10.2019
5840 Clouds 20 1020 26 10000 3.1 130 14:23 17.10.2019
5841 Clouds 20 1020 26 10000 3.6 130 13:56 17.10.2019
5842 Clouds 21 1020 26 10000 3.6 120 13:38 17.10.2019
5843 Clouds 21 1020 26 10000 3.6 120 13:18 17.10.2019
5844 Clouds 21 1019 26 10000 3.6 130 12:41 17.10.2019
5845 Clouds 21 1019 20 10000 3.6 130 12:21 17.10.2019
5846 Clouds 22 1019 20 10000 3.6 130 11:59 17.10.2019
5847 Clouds 22 1019 20 10000 3.6 130 11:59 17.10.2019
5848 -273 0 0 0 0 0 11:40 17.10.2019
5849 Clouds 23 1018 20 10000 3.6 130 11:19 17.10.2019
5850 Clouds 23 1018 20 10000 3.6 130 11:19 17.10.2019
5851 Clouds 23 1018 20 10000 4.1 120 10:55 17.10.2019
5852 Clouds 24 1018 19 10000 4.1 120 10:37 17.10.2019
5853 Clouds 24 1018 19 10000 4.1 120 10:18 17.10.2019
5854 Clouds 24 1017 19 10000 5.1 120 09:42 17.10.2019
5855 Clouds 24 1017 19 10000 5.7 110 09:23 17.10.2019
5856 Clouds 23 1017 20 10000 5.7 110 08:59 17.10.2019
5857 Clouds 23 1017 20 10000 6.7 120 08:41 17.10.2019
5858 Clouds 23 1017 20 10000 6.7 120 08:21 17.10.2019
5859 Clouds 23 1018 18 10000 5.7 120 07:56 17.10.2019
5860 Clouds 23 1019 18 10000 4.1 120 07:37 17.10.2019
5861 Clouds 23 1019 18 10000 4.1 120 07:18 17.10.2019
5862 Clouds 23 1019 18 10000 4.1 120 07:18 17.10.2019
5863 Clouds 23 1019 18 10000 4.6 160 06:40 17.10.2019
5864 Clouds 23 1019 18 10000 4.6 160 06:21 17.10.2019
5865 Clouds 23 1019 18 10000 5.1 130 05:52 17.10.2019
5866 Clouds 23 1020 18 10000 4.6 160 05:32 17.10.2019
5867 Clouds 22 1020 21 10000 6.7 120 04:53 17.10.2019
5868 Clouds 23 1021 20 10000 5.7 140 03:55 17.10.2019
5869 Clouds 23 1020 23 10000 7.7 120 02:36 17.10.2019
5870 Clouds 22 1020 26 10000 7.7 120 00:57 17.10.2019
5871 Clouds 21 1019 30 10000 6.7 140 00:38 17.10.2019
5872 Clouds 21 1019 30 10000 6.7 140 00:18 17.10.2019
5873 Clouds 21 1019 30 10000 6.7 120 23:42 16.10.2019
5874 Clouds 20 1018 32 10000 5.7 130 23:21 16.10.2019
5875 Clouds 20 1018 32 10000 5.7 130 23:21 16.10.2019
5876 Clouds 20 1018 32 10000 6.2 110 22:56 16.10.2019
5877 Clouds 20 1018 34 10000 4.1 110 22:37 16.10.2019
5878 Clouds 20 1018 34 10000 4.1 110 22:18 16.10.2019
5879 Clouds 21 1017 35 10000 4.6 100 21:56 16.10.2019
5880 Clouds 21 1017 35 10000 4.1 110 21:37 16.10.2019
5881 Clouds 21 1017 35 10000 4.1 110 21:18 16.10.2019
5882 Clouds 21 1016 35 10000 5.7 120 20:57 16.10.2019
5883 Clouds 22 1016 33 10000 4.6 130 20:38 16.10.2019
5884 Clouds 22 1016 33 10000 4.6 130 20:20 16.10.2019
5885 Clouds 22 1016 35 10000 4.1 130 19:56 16.10.2019
5886 Clouds 23 1016 33 10000 5.7 120 19:38 16.10.2019
5887 Clouds 23 1016 33 10000 5.7 120 19:38 16.10.2019
5888 Clouds 23 1016 33 10000 5.7 120 19:19 16.10.2019
5889 Clouds 23 1016 33 10000 3.6 110 18:39 16.10.2019
5890 Clouds 23 1016 33 10000 3.6 110 18:39 16.10.2019
5891 Clear 23 1016 33 10000 3.6 110 18:19 16.10.2019
5892 Clear 23 1016 33 10000 3.1 110 17:56 16.10.2019
5893 Clear 24 1017 31 10000 4.1 140 17:38 16.10.2019
5894 Clear 24 1017 31 10000 4.1 140 17:38 16.10.2019
5895 Clear 24 1017 31 10000 4.1 140 17:19 16.10.2019
5896 Clear 24 1017 31 10000 3.1 150 16:58 16.10.2019
5897 Clear 24 1017 31 10000 3.1 150 16:58 16.10.2019
5898 Clear 25 1017 29 10000 3.6 130 16:39 16.10.2019
5899 Clear 25 1017 29 10000 3.6 130 16:20 16.10.2019
5900 Clear 26 1017 27 10000 4.1 130 15:55 16.10.2019
5901 Clear 27 1016 26 10000 5.1 130 15:36 16.10.2019
5902 Clouds 27 1016 26 10000 5.1 130 15:18 16.10.2019
5903 Clouds 27 1016 26 10000 5.1 130 15:18 16.10.2019
5904 Clouds 27 1016 26 10000 5.1 130 14:55 16.10.2019
5905 Clouds 27 1016 26 10000 5.1 130 14:37 16.10.2019
5906 Clouds 27 1016 26 10000 4.6 130 14:18 16.10.2019
5907 Clouds 28 1016 24 10000 4.1 140 13:55 16.10.2019
5908 Clouds 28 1016 24 10000 4.1 140 13:36 16.10.2019
5909 Clouds 28 1015 24 10000 4.6 150 13:18 16.10.2019
5910 Clouds 29 1015 21 10000 5.7 150 12:40 16.10.2019
5911 Clouds 29 1014 23 10000 5.7 150 12:18 16.10.2019
5912 Clouds 30 1014 22 10000 6.7 150 11:42 16.10.2019
5913 Clouds 30 1014 22 10000 6.7 150 11:42 16.10.2019
5914 Clouds 31 1013 18 10000 5.7 160 11:18 16.10.2019
5915 Clouds 31 1013 18 10000 5.7 160 11:18 16.10.2019
5916 Clouds 33 1012 16 10000 6.7 150 10:38 16.10.2019
5917 Clouds 33 1012 15 10000 6.2 160 10:20 16.10.2019
5918 Clouds 34 1012 14 10000 5.7 170 09:55 16.10.2019
5919 Clear 34 1012 14 10000 5.7 170 09:36 16.10.2019
5920 Clouds 34 1012 13 10000 6.7 200 09:18 16.10.2019
5921 Clouds 35 1012 12 10000 4.6 150 08:42 16.10.2019
5922 Dust 35 1012 13 10000 5.7 160 08:23 16.10.2019
5923 Dust 34 1012 12 10000 3.6 160 07:45 16.10.2019
5924 Clouds 34 1013 13 10000 2.6 230 07:25 16.10.2019
5925 Clouds 34 1013 13 10000 2.6 140 06:58 16.10.2019
5926 Clouds 34 1013 13 10000 2.6 140 06:39 16.10.2019
5927 Clouds 33 1013 13 10000 4.1 180 05:44 16.10.2019
5928 Clouds 31 1015 14 10000 4.1 180 02:58 16.10.2019
5929 Clouds 31 1015 14 10000 4.1 180 02:38 16.10.2019
5930 Clouds 29 1014 17 10000 7.2 140 01:19 16.10.2019
5931 Clouds 29 1014 16 10000 4.1 170 00:47 16.10.2019
5932 Clouds 27 1013 19 10000 0.5 280 00:27 16.10.2019
5933 Clouds 24 1013 23 10000 2.6 320 23:40 15.10.2019
5934 Clouds 24 1012 23 10000 2.1 290 23:22 15.10.2019
5935 Clouds 24 1012 23 10000 2.1 290 23:22 15.10.2019
5936 Clouds 23 1012 23 10000 3.91 204 22:56 15.10.2019
5937 Clouds 23 1012 23 10000 3.91 204 22:38 15.10.2019
5938 Clouds 25 1011 20 10000 3.91 204 22:19 15.10.2019
5939 Clouds 26 1011 19 10000 2.6 180 21:56 15.10.2019
5940 Clouds 26 1011 19 10000 2.6 180 21:38 15.10.2019
5941 Clouds 28 1011 17 10000 5.1 190 21:19 15.10.2019
5942 Clouds 28 1010 14 10000 6.2 220 20:57 15.10.2019
5943 Clouds 28 1010 14 10000 6.2 220 20:57 15.10.2019
5944 Clouds 28 1010 14 10000 6.2 220 20:39 15.10.2019
5945 Clouds 26 1009 16 10000 3.6 290 20:20 15.10.2019
5946 Clouds 26 1009 16 10000 4.1 290 19:57 15.10.2019
5947 Clouds 26 1009 16 10000 4.1 290 19:39 15.10.2019
5948 Clouds 27 1009 14 10000 3.1 290 19:19 15.10.2019
5949 Clouds 27 1009 15 10000 1.5 320 18:44 15.10.2019
5950 Clouds 27 1009 14 10000 3.1 320 18:26 15.10.2019
5951 Clear 27 1010 13 10000 4.1 290 17:57 15.10.2019
5952 Clear 27 1010 13 10000 4.1 290 17:38 15.10.2019
5953 Clear 28 1010 14 10000 3.6 270 17:19 15.10.2019
5954 Clear 27 1010 13 10000 3.1 310 16:46 15.10.2019
5955 Clear 28 1010 14 10000 2.6 290 16:23 15.10.2019
5956 Clear 29 1010 13 10000 3.1 280 15:58 15.10.2019
5957 Clear 29 1010 13 10000 3.1 280 15:40 15.10.2019
5958 Clouds 29 1010 13 10000 3.1 290 15:20 15.10.2019
5959 Clouds 29 1010 13 10000 2.6 310 14:57 15.10.2019
5960 Clouds 29 1010 13 10000 2.6 310 14:38 15.10.2019
5961 Clouds 30 1010 12 10000 2.6 330 14:19 15.10.2019
5962 Clouds 31 1010 11 10000 2.6 320 13:44 15.10.2019
5963 Clouds 31 1010 12 10000 2.1 300 13:21 15.10.2019
5964 Clouds 32 1010 11 10000 2.1 260 12:59 15.10.2019
5965 Clouds 32 1010 11 10000 2.1 260 12:59 15.10.2019
5966 Clouds 33 1009 11 10000 3.1 250 12:39 15.10.2019
5967 Clouds 33 1009 11 10000 3.1 250 12:20 15.10.2019
5968 Clouds 35 1009 10 10000 3.1 260 11:44 15.10.2019
5969 Clouds 37 1009 9 10000 5.1 270 11:21 15.10.2019
5970 Clouds 37 1008 8 10000 5.1 280 10:57 15.10.2019
5971 Clouds 37 1008 8 10000 5.1 280 10:39 15.10.2019
5972 Clouds 38 1008 8 10000 5.7 290 10:19 15.10.2019
5973 Clouds 38 1008 8 10000 6.7 260 09:56 15.10.2019
5974 Clouds 38 1008 8 10000 6.2 240 09:37 15.10.2019
5975 Clouds 38 1008 8 10000 6.2 240 09:19 15.10.2019
5976 Clear 38 1008 8 10000 7.2 270 08:41 15.10.2019
5977 Clear 38 1008 8 10000 7.2 270 08:21 15.10.2019
5978 Clouds 39 1009 7 10000 3.6 320 07:55 15.10.2019
5979 Dust 38 1009 8 10000 4.1 260 07:37 15.10.2019
5980 Dust 38 1009 8 10000 4.1 260 07:37 15.10.2019
5981 Dust 38 1009 8 10000 4.1 260 07:18 15.10.2019
5982 Clear 39 1009 7 10000 3.1 230 06:43 15.10.2019
5983 Clear 40 1010 7 10000 4.6 300 06:20 15.10.2019
5984 Clear 38 1010 8 10000 4.6 230 05:37 15.10.2019
5985 Clear 38 1011 8 10000 4.1 220 04:54 15.10.2019
5986 Clear 38 1011 8 10000 3.6 280 04:20 15.10.2019
5987 Clear 36 1012 9 10000 3.1 250 03:35 15.10.2019
5988 Clear 36 1012 9 10000 3.1 250 03:35 15.10.2019
5989 Clear 31 1013 13 10000 2.6 90 02:19 15.10.2019
5990 Clear 30 1013 13 10000 3.6 90 01:41 15.10.2019
5991 Clear 30 1013 13 10000 4.1 80 01:18 15.10.2019
5992 Clouds 27 1013 18 10000 4.6 80 00:26 15.10.2019
5993 Clouds 25 1013 20 10000 4.1 90 23:59 14.10.2019
5994 Clouds 25 1013 20 10000 4.1 90 23:39 14.10.2019
5995 Clouds 23 1012 23 10000 3.6 90 23:19 14.10.2019
5996 Clouds 22 1012 24 10000 3.6 80 22:40 14.10.2019
5997 Clouds 22 1012 24 10000 3.6 50 22:21 14.10.2019
5998 Clouds 23 1012 25 10000 4.1 90 21:59 14.10.2019
5999 Clouds 23 1012 25 10000 4.1 90 21:40 14.10.2019
6000 Clouds 22 1012 21 10000 3.6 160 21:21 14.10.2019
6001 Clouds 22 1012 21 10000 3.6 160 21:21 14.10.2019
6002 Clouds 23 1011 20 10000 2.1 100 20:58 14.10.2019
6003 Clouds 23 1011 20 10000 2.1 100 20:38 14.10.2019
6004 Clouds 23 1011 18 10000 2.6 80 20:19 14.10.2019
6005 Clouds 23 1011 18 10000 2.6 60 19:56 14.10.2019
6006 Clouds 23 1011 18 10000 2.6 60 19:37 14.10.2019
6007 Clouds 23 1012 20 10000 1 40 19:19 14.10.2019
6008 Clouds 23 1012 18 10000 2.1 80 18:57 14.10.2019
6009 Clouds 23 1012 18 10000 1.5 60 18:37 14.10.2019
6010 Clouds 23 1012 18 10000 1.5 60 18:18 14.10.2019
6011 Clouds 26 1013 13 10000 3.1 100 17:41 14.10.2019
6012 Clouds 26 1013 13 10000 3.1 100 17:23 14.10.2019
6013 Clouds 27 1013 13 10000 1.5 150 16:56 14.10.2019
6014 Clouds 27 1013 13 10000 2.1 230 16:38 14.10.2019
6015 Clouds 27 1013 13 10000 2.1 230 16:19 14.10.2019
6016 Clouds 30 1013 10 10000 3.6 110 15:41 14.10.2019
6017 Clouds 30 1013 10 10000 3.6 110 15:21 14.10.2019
6018 Clouds 29 1013 12 10000 4.1 190 14:44 14.10.2019
6019 Clouds 29 1013 12 10000 4.1 190 14:44 14.10.2019
6020 Clouds 30 1013 11 10000 2.6 170 14:25 14.10.2019
6021 Clouds 31 1012 10 10000 2.1 120 13:58 14.10.2019
6022 Clouds 32 1012 11 10000 3.1 150 13:40 14.10.2019
6023 Clouds 32 1012 11 10000 3.1 150 13:20 14.10.2019
6024 -273 0 0 0 0 0 12:42 14.10.2019
6025 Clouds 33 1011 9 10000 3.6 160 12:21 14.10.2019
6026 Clouds 34 1011 9 10000 2.1 50 11:55 14.10.2019
6027 Clouds 35 1011 8 10000 1.5 140 11:36 14.10.2019
6028 Clouds 35 1011 8 10000 1.5 140 11:18 14.10.2019
6029 Clouds 37 1010 7 10000 2.6 120 10:44 14.10.2019
6030 Clouds 37 1010 7 10000 2.6 120 10:44 14.10.2019
6031 Clouds 38 1010 6 10000 2.1 160 10:21 14.10.2019
6032 Clouds 38 1010 6 10000 3.1 170 09:59 14.10.2019
6033 Clouds 38 1010 6 10000 3.1 170 09:59 14.10.2019
6034 Clouds 38 1010 6 10000 3.6 50 09:38 14.10.2019
6035 Clouds 38 1010 6 10000 3.6 50 09:38 14.10.2019
6036 Clouds 38 1010 6 10000 3.6 50 09:19 14.10.2019
6037 Clouds 38 1010 7 10000 3.6 60 08:47 14.10.2019
6038 Clouds 38 1010 6 10000 4.1 110 08:23 14.10.2019
6039 Clear 38 1011 6 10000 2.1 210 07:44 14.10.2019
6040 Clear 38 1011 6 10000 2.6 210 07:21 14.10.2019
6041 Clear 39 1011 7 10000 2.6 240 06:55 14.10.2019
6042 Clear 38 1012 6 10000 6.2 30 06:27 14.10.2019
6043 Clear 38 1012 6 10000 3.1 50 05:52 14.10.2019
6044 Clouds 37 1013 7 10000 4.1 20 04:51 14.10.2019
6045 Clouds 35 1014 8 10000 6.7 70 03:48 14.10.2019
6046 Clouds 34 1015 9 10000 5.7 70 03:22 14.10.2019
6047 Clouds 31 1015 10 10000 7.7 70 01:46 14.10.2019
6048 Clouds 30 1015 9 10000 7.7 90 01:18 14.10.2019
6049 Clouds 27 1014 13 10000 4.6 80 00:23 14.10.2019
6050 Clouds 24 1014 16 10000 3.6 90 23:46 13.10.2019
6051 Clouds 21 1014 21 10000 1 40 23:21 13.10.2019
6052 Clouds 20 1014 20 10000 2.1 350 23:00 13.10.2019
6053 Clouds 21 1014 19 10000 0.5 150 22:41 13.10.2019
6054 Clouds 21 1014 19 10000 0.5 150 22:22 13.10.2019
6055 Clouds 21 1014 19 10000 0.5 150 22:22 13.10.2019
6056 Clouds 22 1013 18 10000 2.6 80 21:58 13.10.2019
6057 Clouds 22 1013 18 10000 3.6 60 21:38 13.10.2019
6058 Clouds 22 1013 18 10000 3.6 60 21:19 13.10.2019
6059 Clouds 22 1013 18 10000 3.1 90 20:58 13.10.2019
6060 Clouds 22 1013 18 10000 3.1 90 20:58 13.10.2019
6061 Clouds 22 1013 18 10000 3.1 90 20:58 13.10.2019
6062 Clouds 22 1012 19 10000 1.99 117.903 20:39 13.10.2019
6063 Clouds 22 1012 19 10000 1.99 117.903 20:39 13.10.2019
6064 Clouds 22 1012 19 10000 1.99 117.903 20:21 13.10.2019
6065 Clouds 22 1012 19 10000 1.99 117.903 20:21 13.10.2019
6066 Clouds 22 1012 18 10000 1.99 117.903 19:59 13.10.2019
6067 Clouds 23 1012 17 10000 1.5 90 19:39 13.10.2019
6068 Clouds 23 1012 17 10000 1.5 90 19:39 13.10.2019
6069 Clouds 23 1012 17 10000 1.5 90 19:21 13.10.2019
6070 -273 0 0 0 0 0 18:58 13.10.2019
6071 -273 0 0 0 0 0 18:58 13.10.2019
6072 Clouds 25 1013 14 10000 3.1 140 18:37 13.10.2019
6073 Clouds 25 1013 14 10000 3.1 140 18:19 13.10.2019
6074 Clouds 26 1013 13 10000 2.6 200 17:57 13.10.2019
6075 Clouds 27 1013 13 10000 2.6 220 17:39 13.10.2019
6076 Clouds 27 1013 13 10000 2.6 220 17:21 13.10.2019
6077 Clouds 29 1013 12 10000 2.6 120 16:43 13.10.2019
6078 Clouds 31 1013 10 10000 4.1 120 16:19 13.10.2019
6079 Clouds 31 1013 10 10000 3.1 180 15:57 13.10.2019
6080 -273 0 0 0 0 0 15:57 13.10.2019
6081 Clouds 31 1012 10 10000 3.1 160 15:38 13.10.2019
6082 Clouds 31 1012 10 10000 3.1 160 15:18 13.10.2019
6083 Clouds 33 1012 9 10000 6.2 120 14:57 13.10.2019
6084 Clouds 34 1012 8 10000 8.2 150 14:38 13.10.2019
6085 Clouds 34 1012 8 10000 8.2 150 14:19 13.10.2019
6086 Clouds 35 1011 8 10000 4.1 330 13:41 13.10.2019
6087 Clouds 35 1011 8 10000 4.1 330 13:23 13.10.2019
6088 Clouds 36 1011 7 10000 5.7 350 12:59 13.10.2019
6089 Clouds 35 1010 8 10000 3.6 300 12:39 13.10.2019
6090 Clouds 35 1010 8 10000 3.6 300 12:20 13.10.2019
6091 Clouds 35 1010 8 10000 2.1 300 11:58 13.10.2019
6092 Clouds 36 1009 7 10000 2.6 290 11:39 13.10.2019
6093 Clouds 36 1009 7 10000 2.6 290 11:20 13.10.2019
6094 Clouds 37 1009 7 10000 4.6 250 10:56 13.10.2019
6095 Clouds 38 1009 6 10000 3.1 250 10:38 13.10.2019
6096 Clouds 38 1009 6 10000 3.1 250 10:19 13.10.2019
6097 Clouds 39 1009 6 10000 4.6 270 09:39 13.10.2019
6098 Clouds 39 1009 6 10000 4.6 270 09:21 13.10.2019
6099 Clear 39 1009 6 10000 5.7 240 08:43 13.10.2019
6100 Clear 39 1009 6 10000 5.1 310 08:25 13.10.2019
6101 Clear 39 1009 6 10000 5.1 310 08:25 13.10.2019
6102 Clear 39 1009 6 10000 7.7 310 07:51 13.10.2019
6103 Clear 39 1009 6 10000 7.7 320 07:33 13.10.2019
6104 Clear 39 1010 6 10000 6.7 260 06:51 13.10.2019
6105 Clear 39 1010 6 10000 9.3 310 06:23 13.10.2019
6106 Clear 39 1010 6 10000 9.3 310 06:23 13.10.2019
6107 Clear 38 1012 7 10000 9.8 300 04:59 13.10.2019
6108 Clear 38 1012 6 10000 8.2 300 04:33 13.10.2019
6109 Clouds 36 1013 8 10000 6.2 280 02:53 13.10.2019
6110 Clouds 35 1013 8 10000 4.6 270 02:27 13.10.2019
6111 Clouds 33 1013 9 10000 6.7 310 01:34 13.10.2019
6112 Clouds 32 1013 9 10000 3.1 340 00:55 13.10.2019
6113 Clouds 29 1013 11 10000 2.6 350 00:37 13.10.2019
6114 Clouds 29 1013 11 10000 2.6 350 00:18 13.10.2019
6115 Clouds 26 1011 12 10000 2.1 350 23:41 12.10.2019
6116 Clouds 26 1011 12 10000 2.1 350 23:22 12.10.2019
6117 -273 0 0 0 0 0 22:58 12.10.2019
6118 Clouds 25 1010 12 10000 2.6 140 22:40 12.10.2019
6119 Clouds 25 1010 12 10000 2.6 140 22:21 12.10.2019
6120 -273 0 0 0 0 0 21:57 12.10.2019
6121 Clouds 29 1009 10 10000 5.1 310 21:38 12.10.2019
6122 Clouds 29 1009 10 10000 5.1 310 21:20 12.10.2019
6123 Clouds 29 1009 10 10000 5.1 310 21:20 12.10.2019
6124 Clear 30 1009 9 10000 4.1 330 20:45 12.10.2019
6125 Clear 29 1009 11 10000 2.6 330 20:27 12.10.2019
6126 Clear 26 1009 13 10000 3.6 350 19:42 12.10.2019
6127 Clear 26 1009 13 10000 3.6 350 19:23 12.10.2019
6128 Clear 24 1009 14 10000 3.1 340 18:59 12.10.2019
6129 Clear 24 1009 14 10000 2.6 320 18:41 12.10.2019
6130 Clear 24 1009 14 10000 2.6 320 18:23 12.10.2019
6131 Clear 26 1010 12 10000 2.6 300 17:45 12.10.2019
6132 Clear 26 1010 12 10000 2.6 300 17:21 12.10.2019
6133 Clear 26 1010 12 10000 5.24 308.511 16:56 12.10.2019
6134 Clear 26 1010 11 10000 1.5 290 16:38 12.10.2019
6135 Clear 26 1010 11 10000 1.5 290 16:19 12.10.2019
6136 Clear 27 1011 11 10000 1.5 290 15:44 12.10.2019
6137 Clear 25 1011 14 10000 1.5 230 15:25 12.10.2019
6138 Clear 25 1011 14 10000 1.5 230 15:25 12.10.2019
6139 Clear 26 1011 13 10000 0.5 290 14:57 12.10.2019
6140 Clear 29 1011 10 10000 2.1 310 14:38 12.10.2019
6141 Clear 29 1011 10 10000 2.1 310 14:19 12.10.2019
6142 Clear 29 1011 11 10000 2.6 310 13:44 12.10.2019
6143 Clear 31 1010 9 10000 3.1 330 13:26 12.10.2019
6144 Clear 32 1010 8 10000 3.1 290 12:40 12.10.2019
6145 Clear 32 1010 8 10000 3.1 290 12:40 12.10.2019
6146 Clear 32 1010 8 10000 3.1 290 12:22 12.10.2019
6147 Clear 33 1009 9 10000 4.1 280 11:59 12.10.2019
6148 Clear 36 1009 7 10000 4.1 270 11:40 12.10.2019
6149 Clear 36 1009 7 10000 4.1 270 11:22 12.10.2019
6150 Clear 37 1008 7 10000 4.6 270 10:56 12.10.2019
6151 Clear 37 1008 7 10000 6.7 260 10:36 12.10.2019
6152 Clear 37 1008 7 10000 6.7 260 10:18 12.10.2019
6153 -273 0 0 0 0 0 09:55 12.10.2019
6154 Clear 38 1008 6 10000 6.7 260 09:54 12.10.2019
6155 Clear 38 1008 6 10000 6.2 260 09:36 12.10.2019
6156 Clear 38 1008 6 10000 6.2 260 09:18 12.10.2019
6157 Clear 38 1008 6 10000 6.2 260 09:18 12.10.2019
6158 Clear 38 1008 6 10000 7.7 280 08:40 12.10.2019
6159 Clear 38 1008 6 10000 7.7 280 08:20 12.10.2019
6160 -273 0 0 0 0 0 08:20 12.10.2019
6161 Clear 38 1009 7 10000 8.2 280 07:35 12.10.2019
6162 Clear 38 1009 7 10000 8.2 280 07:35 12.10.2019
6163 Clear 38 1009 6 10000 8.2 300 06:57 12.10.2019
6164 Clear 37 1010 7 10000 7.7 290 05:48 12.10.2019
6165 Clear 36 1011 7 10000 9.8 310 05:24 12.10.2019
6166 Clear 35 1012 8 10000 9.8 310 04:24 12.10.2019
6167 Clear 33 1012 8 10000 10.3 320 03:33 12.10.2019
6168 Clouds 30 1013 9 10000 8.7 330 01:50 12.10.2019
6169 Clouds 29 1013 9 10000 8.7 330 01:24 12.10.2019
6170 Clouds 26 1013 10 10000 6.2 340 00:42 12.10.2019
6171 Clouds 26 1013 10 10000 6.2 340 00:19 12.10.2019
6172 Clouds 25 1012 12 10000 7.2 350 23:40 11.10.2019
6173 Clouds 25 1012 12 10000 7.2 350 23:20 11.10.2019
6174 Clouds 25 1012 13 10000 4.6 350 22:41 11.10.2019
6175 Clouds 25 1012 13 10000 4.6 350 22:22 11.10.2019
6176 Clouds 25 1011 13 10000 5.1 350 21:58 11.10.2019
6177 Clouds 25 1011 12 10000 2.6 350 21:39 11.10.2019
6178 Clear 25 1011 12 10000 2.6 350 21:20 11.10.2019
6179 Clear 25 1011 12 10000 3.1 360 20:44 11.10.2019
6180 Clear 25 1011 12 10000 5.1 10 20:26 11.10.2019
6181 Clear 26 1011 11 10000 5.7 10 19:58 11.10.2019
6182 Clear 26 1011 11 10000 5.7 10 19:39 11.10.2019
6183 Clear 26 1011 11 10000 5.7 10 19:39 11.10.2019
6184 Clear 26 1011 11 10000 5.7 10 19:18 11.10.2019
6185 Clear 26 1011 12 10000 4.6 10 18:58 11.10.2019
6186 Clear 27 1012 11 10000 4.6 10 18:38 11.10.2019
6187 Clear 27 1012 11 10000 4.6 10 18:19 11.10.2019
6188 Clear 26 1012 12 10000 5.7 10 17:58 11.10.2019
6189 Clear 26 1012 13 10000 5.1 360 17:38 11.10.2019
6190 Clear 26 1012 13 10000 5.1 360 17:19 11.10.2019
6191 Clear 28 1013 12 10000 4.6 20 16:56 11.10.2019
6192 Clear 26 1013 13 10000 3.1 30 16:37 11.10.2019
6193 Clear 26 1013 13 10000 3.1 30 16:18 11.10.2019
6194 Clear 24 1013 14 10000 3.6 30 15:41 11.10.2019
6195 Clouds 24 1013 14 10000 3.6 30 15:20 11.10.2019
6196 Clouds 24 1014 14 10000 3.6 50 14:58 11.10.2019
6197 Clouds 24 1014 14 10000 3.6 50 14:58 11.10.2019
6198 Clouds 25 1014 13 10000 2.6 40 14:37 11.10.2019
6199 Clouds 25 1014 13 10000 2.6 40 14:19 11.10.2019
6200 Clouds 26 1014 12 10000 3.6 50 13:43 11.10.2019
6201 Clouds 26 1014 13 10000 3.6 60 13:24 11.10.2019
6202 Clouds 27 1014 11 10000 3.1 50 12:56 11.10.2019
6203 Clouds 28 1014 12 10000 3.1 70 12:38 11.10.2019
6204 Clouds 28 1014 12 10000 3.1 70 12:20 11.10.2019
6205 Clouds 30 1013 9 10000 3.6 100 11:57 11.10.2019
6206 Clouds 32 1013 10 10000 2.6 130 11:38 11.10.2019
6207 Clouds 32 1013 10 10000 2.6 130 11:20 11.10.2019
6208 Clouds 33 1013 9 10000 3.1 150 10:42 11.10.2019
6209 Clouds 34 1013 8 10000 3.1 130 10:23 11.10.2019
6210 Clouds 34 1013 9 10000 2.6 200 09:59 11.10.2019
6211 Clouds 34 1013 8 10000 2.6 310 09:40 11.10.2019
6212 Clear 34 1013 8 10000 2.6 310 09:20 11.10.2019
6213 Clear 35 1013 8 10000 2.1 350 08:56 11.10.2019
6214 Clear 34 1013 8 10000 2.1 270 08:37 11.10.2019
6215 Clear 34 1013 8 10000 2.1 270 08:19 11.10.2019
6216 Clear 34 1014 8 10000 3.1 260 07:45 11.10.2019
6217 Clear 34 1014 7 10000 3.6 160 07:27 11.10.2019
6218 Clear 33 1015 9 10000 2.6 260 06:49 11.10.2019
6219 Clear 34 1015 7 10000 2.6 230 06:24 11.10.2019
6220 Clear 32 1016 8 10000 2.6 330 05:41 11.10.2019
6221 Clear 32 1016 8 10000 2.6 330 05:20 11.10.2019
6222 Clear 30 1017 9 10000 3.1 10 04:28 11.10.2019
6223 Clear 26 1018 9 10000 2.6 30 02:41 11.10.2019
6224 Clear 22 1018 12 10000 3.1 30 00:51 11.10.2019
6225 Clear 21 1018 13 10000 2.1 80 00:29 11.10.2019
6226 Clear 14 1018 20 10000 0.5 170 23:46 10.10.2019
6227 Clear 12 1018 25 10000 2.1 210 23:23 10.10.2019
6228 Clear 11 1018 25 10000 3.55 34.321 22:58 10.10.2019
6229 Clear 11 1018 25 10000 2.6 250 22:39 10.10.2019
6230 Clear 11 1018 25 10000 2.6 250 22:21 10.10.2019
6231 Clear 12 1017 23 10000 3.55 34.321 21:58 10.10.2019
6232 Clear 12 1017 22 10000 1.5 350 21:39 10.10.2019
6233 Clear 12 1017 22 10000 1.5 350 21:21 10.10.2019
6234 Clear 12 1018 23 10000 2.1 270 20:46 10.10.2019
6235 Clear 13 1018 22 10000 1 320 20:22 10.10.2019
6236 Clear 12 1018 23 10000 3.5 42.636 19:59 10.10.2019
6237 Clear 13 1018 22 10000 0.5 330 19:41 10.10.2019
6238 Clear 13 1018 22 10000 0.5 330 19:21 10.10.2019
6239 Clear 15 1019 18 10000 2.6 330 18:59 10.10.2019
6240 Clear 15 1019 18 10000 2.1 290 18:40 10.10.2019
6241 Clear 15 1019 18 10000 2.1 290 18:20 10.10.2019
6242 Clear 15 1020 18 10000 2.1 290 17:55 10.10.2019
6243 Clear 15 1020 18 10000 2.1 290 17:55 10.10.2019
6244 Clear 15 1020 18 10000 0.5 30 17:37 10.10.2019
6245 Clear 15 1020 18 10000 0.5 30 17:18 10.10.2019
6246 Clear 16 1020 17 10000 0.5 50 16:44 10.10.2019
6247 Clear 17 1020 14 10000 2.1 360 16:26 10.10.2019
6248 Clear 17 1021 14 10000 4.13 68.835 15:57 10.10.2019
6249 Clear 17 1021 13 10000 4.13 68.835 15:37 10.10.2019
6250 Clear 17 1021 13 10000 4.41 103.346 15:19 10.10.2019
6251 Clear 18 1021 13 10000 2.1 50 14:54 10.10.2019
6252 Clear 19 1020 12 10000 2.6 120 14:36 10.10.2019
6253 Clear 19 1020 12 10000 2.6 120 14:18 10.10.2019
6254 Clear 22 1020 10 10000 3.1 120 13:41 10.10.2019
6255 Clear 22 1020 10 10000 3.1 120 13:23 10.10.2019
6256 Clear 22 1020 10 10000 3.6 140 12:57 10.10.2019
6257 Clear 24 1019 8 10000 3.6 150 12:39 10.10.2019
6258 Clear 24 1019 8 10000 3.6 150 12:20 10.10.2019
6259 Clear 25 1019 7 10000 3.6 150 11:56 10.10.2019
6260 Clear 27 1018 6 10000 3.6 150 11:38 10.10.2019
6261 Clear 27 1018 6 10000 3.6 150 11:19 10.10.2019
6262 Clear 28 1018 7 10000 4.6 140 10:44 10.10.2019
6263 Clear 28 1018 7 10000 4.6 130 10:26 10.10.2019
6264 Clear 28 1018 7 10000 5.7 120 09:56 10.10.2019
6265 Clear 29 1018 7 10000 4.1 170 09:38 10.10.2019
6266 Clear 29 1018 7 10000 4.1 170 09:19 10.10.2019
6267 Clear 29 1018 7 10000 5.7 120 08:42 10.10.2019
6268 Clear 29 1018 7 10000 5.7 120 08:24 10.10.2019
6269 Clear 29 1018 6 10000 5.7 170 07:59 10.10.2019
6270 Clear 28 1019 8 10000 4.1 170 07:40 10.10.2019
6271 Clear 28 1019 8 10000 4.1 170 07:20 10.10.2019
6272 Clear 28 1019 8 10000 5.1 120 06:45 10.10.2019
6273 Clear 28 1020 7 10000 4.6 90 06:24 10.10.2019
6274 Clear 27 1021 10 10000 3.6 80 05:25 10.10.2019
6275 Clear 24 1022 12 10000 4.6 100 04:37 10.10.2019
6276 Clear 23 1022 12 10000 6.7 110 03:27 10.10.2019
6277 Clear 20 1022 15 10000 6.7 70 01:42 10.10.2019
6278 Clear 20 1022 15 10000 6.7 70 01:24 10.10.2019
6279 Clear 18 1022 17 10000 3.6 60 00:45 10.10.2019
6280 Clear 14 1023 24 10000 2.9 61.308 00:20 10.10.2019
6281 Clear 9 1022 34 10000 2.1 250 23:39 09.10.2019
6282 Clear 9 1022 34 10000 2.1 250 23:20 09.10.2019
6283 Clear 9 1022 34 10000 2.1 290 22:43 09.10.2019
6284 Clear 9 1022 31 10000 2.1 310 22:24 09.10.2019
6285 Clear 10 1022 31 10000 2.1 300 21:59 09.10.2019
6286 Clear 10 1022 31 10000 2.1 300 21:59 09.10.2019
6287 Clear 11 1021 27 10000 2.1 330 21:39 09.10.2019
6288 Clear 11 1021 27 10000 2.1 330 21:20 09.10.2019
6289 Clear 10 1021 29 10000 1.5 250 20:56 09.10.2019
6290 Clear 10 1021 29 10000 1.5 240 20:37 09.10.2019
6291 Clear 10 1021 29 10000 1.5 240 20:18 09.10.2019
6292 Clear 10 1021 29 10000 1.5 240 20:18 09.10.2019
6293 Clear 10 1021 29 10000 1.5 240 20:18 09.10.2019
6294 Clear 11 1021 27 10000 2.1 250 19:45 09.10.2019
6295 Clear 12 1021 27 10000 4.11 66.288 19:24 09.10.2019
6296 Clear 12 1021 27 10000 4.11 66.288 18:58 09.10.2019
6297 Clear 12 1021 27 10000 4.11 66.288 18:38 09.10.2019
6298 Clear 12 1021 27 10000 4.44 89.819 18:18 09.10.2019
6299 Clear 13 1022 24 10000 4.44 89.819 17:55 09.10.2019
6300 Clear 14 1022 24 10000 0.5 150 17:37 09.10.2019
6301 Clear 14 1022 24 10000 0.5 150 17:18 09.10.2019
6302 Clear 16 1022 21 10000 1.5 150 16:41 09.10.2019
6303 Clear 16 1022 21 10000 1.5 150 16:22 09.10.2019
6304 Clear 16 1022 19 10000 1.5 90 15:58 09.10.2019
6305 Clear 16 1023 19 10000 2.1 120 15:39 09.10.2019
6306 Clear 16 1023 19 10000 2.1 120 15:39 09.10.2019
6307 Clear 16 1023 19 10000 2.1 120 15:20 09.10.2019
6308 Clear 18 1023 17 10000 3.1 130 14:58 09.10.2019
6309 Clear 19 1023 16 10000 3.1 130 14:39 09.10.2019
6310 Clear 19 1023 16 10000 3.1 130 14:18 09.10.2019
6311 Clear 21 1022 13 10000 3.1 130 13:39 09.10.2019
6312 Clear 21 1022 13 10000 3.1 130 13:21 09.10.2019
6313 Clear 22 1022 12 10000 3.1 140 12:59 09.10.2019
6314 Clear 23 1021 11 10000 3.6 140 12:40 09.10.2019
6315 Clear 23 1021 11 10000 3.6 140 12:21 09.10.2019
6316 Clear 24 1021 12 10000 3.6 140 11:55 09.10.2019
6317 Clear 25 1021 11 10000 5.1 140 11:36 09.10.2019
6318 Clear 25 1021 11 10000 5.1 140 11:18 09.10.2019
6319 Clear 25 1021 11 10000 5.1 140 11:18 09.10.2019
6320 Clear 26 1020 9 10000 5.1 130 10:43 09.10.2019
6321 Clear 27 1020 10 10000 5.7 120 10:21 09.10.2019
6322 Clear 27 1020 10 10000 4.6 140 09:57 09.10.2019
6323 Clear 27 1020 10 10000 4.6 140 09:57 09.10.2019
6324 Clear 27 1020 10 10000 3.6 140 09:38 09.10.2019
6325 Clear 27 1020 10 10000 3.6 140 09:18 09.10.2019
6326 Clear 28 1020 10 10000 4.6 170 08:40 09.10.2019
6327 Clear 28 1020 10 10000 4.6 170 08:21 09.10.2019
6328 Clear 27 1020 10 10000 4.6 80 07:54 09.10.2019
6329 Clear 27 1021 11 10000 5.1 100 07:36 09.10.2019
6330 Clear 26 1021 11 10000 4.6 160 07:18 09.10.2019
6331 Clear 26 1021 11 10000 4.6 160 06:47 09.10.2019
6332 Clear 25 1022 14 10000 5.7 130 05:55 09.10.2019
6333 Clear 25 1023 13 10000 5.7 130 05:23 09.10.2019
6334 Clear 23 1024 16 10000 5.7 130 04:20 09.10.2019
6335 Clear 21 1024 19 10000 5.7 100 02:45 09.10.2019
6336 Clear 19 1025 24 10000 6.2 100 01:42 09.10.2019
6337 Clear 19 1025 24 10000 6.2 100 01:19 09.10.2019
6338 Clear 18 1025 23 10000 4.1 90 00:56 09.10.2019
6339 Clear 17 1024 27 10000 3.6 100 00:37 09.10.2019
6340 Clear 17 1024 27 10000 3.6 100 00:37 09.10.2019
6341 Clear 17 1024 27 10000 3.6 100 00:19 09.10.2019
6342 Clear 12 1024 37 10000 3.1 140 23:39 08.10.2019
6343 Clear 12 1024 37 10000 3.1 140 23:18 08.10.2019
6344 Clear 12 1023 37 10000 2.1 150 22:56 08.10.2019
6345 Clear 12 1023 37 10000 2.6 100 22:37 08.10.2019
6346 Clear 12 1023 37 10000 2.6 100 22:18 08.10.2019
6347 Clear 13 1022 35 10000 2.6 70 21:56 08.10.2019
6348 Clear 13 1022 32 10000 2.6 130 21:37 08.10.2019
6349 Clear 13 1022 32 10000 2.6 130 21:18 08.10.2019
6350 Clear 15 1022 30 10000 2.6 120 20:55 08.10.2019
6351 Clear 16 1022 29 10000 3.1 120 20:37 08.10.2019
6352 Clear 16 1022 29 10000 3.1 120 20:18 08.10.2019
6353 Clear 17 1022 27 10000 3.6 120 19:55 08.10.2019
6354 Clear 16 1022 29 10000 3.6 120 19:36 08.10.2019
6355 Clear 16 1022 29 10000 3.6 120 19:36 08.10.2019
6356 Clear 16 1022 29 10000 3.6 120 19:18 08.10.2019
6357 Clear 15 1022 30 10000 3.1 160 18:42 08.10.2019
6358 Clear 15 1022 30 10000 3.1 160 18:24 08.10.2019
6359 Clear 16 1022 29 10000 2.6 130 17:57 08.10.2019
6360 Clear 16 1022 29 10000 2.6 130 17:57 08.10.2019
6361 Clear 16 1022 29 10000 2.6 130 17:57 08.10.2019
6362 Clear 16 1023 29 10000 3.1 150 17:39 08.10.2019
6363 Clear 16 1023 29 10000 3.1 150 17:19 08.10.2019
6364 Clear 18 1023 25 10000 3.1 130 16:56 08.10.2019
6365 Clear 18 1023 25 10000 3.6 130 16:37 08.10.2019
6366 Clear 18 1023 25 10000 3.6 130 16:18 08.10.2019
6367 Clear 19 1023 24 10000 3.6 130 15:38 08.10.2019
6368 Clear 19 1023 24 10000 3.6 130 15:20 08.10.2019
6369 Clear 20 1023 22 10000 3.6 130 14:56 08.10.2019
6370 Clear 21 1023 21 10000 3.6 130 14:37 08.10.2019
6371 Clear 21 1023 21 10000 3.6 130 14:19 08.10.2019
6372 -273 0 0 0 0 0 13:55 08.10.2019
6373 Clear 22 1022 21 10000 4.1 120 13:37 08.10.2019
6374 Clear 22 1022 21 10000 4.1 120 13:18 08.10.2019
6375 Clear 22 1022 21 10000 4.1 120 13:18 08.10.2019
6376 Clear 23 1022 28 10000 4.6 130 12:40 08.10.2019
6377 Clear 23 1022 26 10000 4.6 130 12:20 08.10.2019
6378 Clear 24 1021 22 10000 5.1 130 11:57 08.10.2019
6379 Clear 24 1021 22 10000 5.1 130 11:57 08.10.2019
6380 Clear 25 1021 20 10000 6.2 130 11:38 08.10.2019
6381 Clear 25 1021 20 10000 6.2 130 11:20 08.10.2019
6382 Clear 26 1020 21 10000 6.2 130 10:42 08.10.2019
6383 Clear 26 1020 21 10000 6.2 120 10:23 08.10.2019
6384 Clear 27 1020 19 10000 6.7 140 09:59 08.10.2019
6385 Clear 27 1020 19 10000 6.7 110 09:40 08.10.2019
6386 Clear 27 1020 19 10000 6.7 110 09:40 08.10.2019
6387 Clear 27 1020 19 10000 6.7 110 09:22 08.10.2019
6388 Clear 27 1020 21 10000 7.2 110 08:45 08.10.2019
6389 Clear 27 1020 21 10000 5.7 110 08:25 08.10.2019
6390 Clear 26 1020 22 10000 6.7 110 07:48 08.10.2019
6391 Clear 27 1021 22 10000 6.7 130 07:23 08.10.2019
6392 Clear 26 1021 24 10000 6.7 130 06:59 08.10.2019
6393 Clear 26 1022 26 10000 6.7 120 06:39 08.10.2019
6394 Clear 26 1022 26 10000 6.7 120 06:21 08.10.2019
6395 Clear 25 1022 27 10000 6.7 130 05:40 08.10.2019
6396 Clear 25 1023 27 10000 7.2 120 04:56 08.10.2019
6397 Clear 23 1024 28 10000 8.2 130 03:31 08.10.2019
6398 Clear 22 1024 33 10000 8.7 110 02:41 08.10.2019
6399 Clear 21 1025 35 10000 8.7 110 01:56 08.10.2019
6400 Clear 21 1024 35 10000 8.2 120 01:38 08.10.2019
6401 Clear 20 1024 37 10000 8.7 110 00:55 08.10.2019
6402 Clouds 20 1024 37 10000 7.7 120 00:23 08.10.2019
6403 Clouds 19 1023 39 10000 5.1 130 23:44 07.10.2019
6404 Clouds 19 1023 37 10000 5.1 120 23:21 07.10.2019
6405 Clouds 19 1023 37 10000 5.1 120 23:21 07.10.2019
6406 Clouds 19 1023 39 10000 4.6 130 22:59 07.10.2019
6407 Clouds 19 1022 39 10000 4.6 130 22:40 07.10.2019
6408 Clouds 19 1022 39 10000 4.6 130 22:21 07.10.2019
6409 Clouds 20 1021 37 10000 6.2 130 21:59 07.10.2019
6410 Clouds 20 1021 40 10000 5.7 130 21:40 07.10.2019
6411 Clear 20 1021 40 10000 5.7 130 21:20 07.10.2019
6412 Clear 21 1020 37 10000 5.7 130 20:58 07.10.2019
6413 Clear 21 1020 37 10000 5.1 130 20:39 07.10.2019
6414 Clear 21 1020 37 10000 5.1 130 20:39 07.10.2019
6415 Clear 21 1020 37 10000 5.1 130 20:21 07.10.2019
6416 Clear 21 1020 35 10000 4.1 140 19:59 07.10.2019
6417 Clear 22 1020 33 10000 3.1 120 19:41 07.10.2019
6418 Clear 22 1020 33 10000 3.1 120 19:20 07.10.2019
6419 Clear 22 1020 33 10000 5.1 110 18:58 07.10.2019
6420 Clear 23 1020 31 10000 4.6 120 18:39 07.10.2019
6421 Clear 23 1020 31 10000 4.6 120 18:19 07.10.2019
6422 Clear 21 1020 32 10000 3.1 110 17:43 07.10.2019
6423 Clear 20 1020 32 10000 2.6 150 17:23 07.10.2019
6424 Clear 21 1020 30 10000 2.1 120 16:59 07.10.2019
6425 Clear 23 1020 27 10000 3.1 130 16:41 07.10.2019
6426 Clear 23 1020 27 10000 3.1 130 16:22 07.10.2019
6427 Clear 24 1020 25 10000 3.1 140 15:46 07.10.2019
6428 Clear 23 1020 27 10000 3.6 150 15:26 07.10.2019
6429 Clear 24 1019 23 10000 3.1 140 14:58 07.10.2019
6430 Clear 25 1019 23 10000 3.1 150 14:40 07.10.2019
6431 Clear 25 1019 23 10000 3.1 150 14:21 07.10.2019
6432 Clear 26 1019 21 10000 3.1 140 13:43 07.10.2019
6433 Clear 28 1018 18 10000 3.6 150 13:21 07.10.2019
6434 Clear 28 1018 18 10000 3.6 150 12:57 07.10.2019
6435 Clear 29 1018 16 10000 4.6 150 12:39 07.10.2019
6436 Clear 29 1018 16 10000 4.6 150 12:19 07.10.2019
6437 Clear 30 1017 15 10000 5.1 150 11:57 07.10.2019
6438 Clear 31 1017 15 10000 6.2 150 11:38 07.10.2019
6439 Clear 31 1017 15 10000 6.2 150 11:20 07.10.2019
6440 Clear 33 1016 11 10000 5.7 130 10:42 07.10.2019
6441 Clear 33 1016 11 10000 5.7 130 10:21 07.10.2019
6442 Clear 33 1016 11 10000 5.1 130 09:43 07.10.2019
6443 Clear 33 1015 11 10000 4.6 130 09:25 07.10.2019
6444 Clear 34 1015 10 10000 5.1 160 08:58 07.10.2019
6445 Clear 34 1015 9 10000 3.1 170 08:39 07.10.2019
6446 Clear 34 1015 9 10000 3.1 170 08:20 07.10.2019
6447 Clear 35 1015 10 10000 5.1 140 07:43 07.10.2019
6448 Clear 34 1016 9 10000 5.1 130 07:25 07.10.2019
6449 Clear 34 1016 9 10000 4.1 190 06:55 07.10.2019
6450 Clear 33 1017 10 10000 4.1 110 06:37 07.10.2019
6451 Clear 33 1017 11 10000 3.1 160 05:50 07.10.2019
6452 Clear 33 1018 11 10000 3.1 130 05:24 07.10.2019
6453 Clear 32 1018 14 10000 2.6 170 04:42 07.10.2019
6454 Clear 30 1019 14 10000 3.6 190 03:45 07.10.2019
6455 Clear 30 1019 14 10000 3.6 190 03:45 07.10.2019
6456 Clear 29 1019 16 10000 4.1 170 03:23 07.10.2019
6457 Clear 29 1019 16 10000 4.1 170 03:23 07.10.2019
6458 Clear 28 1020 18 10000 3.6 130 02:23 07.10.2019
6459 Clear 28 1020 18 10000 3.6 130 02:23 07.10.2019
6460 Clear 26 1020 21 10000 3.6 160 01:57 07.10.2019
6461 Clear 26 1020 22 10000 4.1 120 01:22 07.10.2019
6462 Clear 25 1019 23 10000 3.1 130 00:44 07.10.2019
6463 Clear 23 1019 25 10000 1.5 260 00:22 07.10.2019
6464 Clear 20 1019 30 10000 2.1 310 23:56 06.10.2019
6465 Clear 18 1018 31 10000 2.6 300 23:38 06.10.2019
6466 Clear 18 1018 31 10000 2.6 300 23:18 06.10.2019
6467 Clear 18 1018 31 10000 2.1 300 22:42 06.10.2019
6468 Clear 18 1017 34 10000 2.1 280 22:22 06.10.2019
6469 Clear 19 1017 29 10000 3.1 310 21:58 06.10.2019
6470 Clear 18 1016 27 10000 2.1 320 21:38 06.10.2019
6471 Clear 18 1016 27 10000 2.1 320 21:19 06.10.2019
6472 Clear 19 1016 25 10000 2.6 300 20:58 06.10.2019
6473 Clear 21 1016 19 10000 2.6 340 20:40 06.10.2019
6474 Clear 21 1016 19 10000 2.6 340 20:21 06.10.2019
6475 Clear 20 1016 20 10000 4.1 310 19:58 06.10.2019
6476 Clear 20 1015 19 10000 2.6 270 19:38 06.10.2019
6477 Clear 20 1015 19 10000 2.6 270 19:19 06.10.2019
6478 Clear 19 1015 20 10000 3.1 270 18:57 06.10.2019
6479 Clear 22 1015 15 10000 3.6 350 18:39 06.10.2019
6480 Clear 22 1015 15 10000 3.6 350 18:19 06.10.2019
6481 Clear 22 1015 15 10000 3.6 350 18:19 06.10.2019
6482 Clear 22 1015 15 10000 3.6 350 18:19 06.10.2019
6483 Clear 21 1015 16 10000 1 190 17:57 06.10.2019
6484 Clear 22 1015 17 10000 4.1 240 17:39 06.10.2019
6485 Clear 22 1015 17 10000 4.1 240 17:19 06.10.2019
6486 Clear 20 1015 19 10000 2.1 50 16:42 06.10.2019
6487 Clear 23 1015 15 10000 1.5 140 16:23 06.10.2019
6488 Clear 22 1015 17 10000 3.1 160 15:54 06.10.2019
6489 Clear 24 1016 13 10000 1.5 60 15:36 06.10.2019
6490 Clear 24 1016 13 10000 1.5 60 15:18 06.10.2019
6491 Clear 24 1016 13 10000 2.6 50 14:42 06.10.2019
6492 Clear 26 1016 11 10000 3.6 70 14:24 06.10.2019
6493 Clear 27 1016 11 10000 2.6 90 13:56 06.10.2019
6494 Clear 27 1016 11 10000 2.6 90 13:56 06.10.2019
6495 Clear 28 1015 11 10000 2.6 90 13:37 06.10.2019
6496 Clear 28 1015 11 10000 2.6 90 13:19 06.10.2019
6497 Clear 29 1015 9 10000 2.6 100 12:56 06.10.2019
6498 Clear 31 1015 9 10000 2.6 110 12:37 06.10.2019
6499 Clear 31 1015 9 10000 2.6 110 12:19 06.10.2019
6500 Clear 32 1014 8 10000 2.6 110 11:43 06.10.2019
6501 Clear 34 1014 7 10000 2.6 130 11:25 06.10.2019
6502 Clear 34 1014 7 10000 2.6 130 11:25 06.10.2019
6503 Clear 35 1014 6 10000 2.1 130 10:58 06.10.2019
6504 Clear 36 1014 6 10000 3.1 130 10:39 06.10.2019
6505 Clear 36 1014 6 10000 3.1 130 10:21 06.10.2019
6506 Clear 36 1014 7 10000 2.6 320 09:42 06.10.2019
6507 Clear 36 1014 7 10000 2.6 320 09:42 06.10.2019
6508 Clear 36 1014 7 10000 2.6 70 09:21 06.10.2019
6509 Clear 36 1014 7 10000 2.6 70 09:21 06.10.2019
6510 Clear 36 1014 7 10000 5.1 90 08:59 06.10.2019
6511 Clear 36 1014 7 10000 3.1 170 08:39 06.10.2019
6512 Clear 36 1014 7 10000 3.1 170 08:19 06.10.2019
6513 Clear 36 1015 7 10000 4.6 130 07:41 06.10.2019
6514 Clear 35 1015 6 10000 3.6 240 06:59 06.10.2019
6515 Clear 35 1016 7 10000 3.6 210 05:57 06.10.2019
6516 Clear 34 1017 7 10000 4.1 290 04:44 06.10.2019
6517 Clear 31 1018 9 10000 7.2 350 02:56 06.10.2019
6518 Clear 31 1018 8 10000 6.7 340 02:37 06.10.2019
6519 Clear 30 1018 9 10000 7.2 350 01:50 06.10.2019
6520 Clear 29 1018 9 10000 5.1 350 01:31 06.10.2019
6521 Clear 28 1018 9 10000 3.6 340 00:59 06.10.2019
6522 Clear 28 1018 9 10000 3.6 340 00:59 06.10.2019
6523 Clear 27 1017 10 10000 3.6 360 00:40 06.10.2019
6524 Clear 27 1017 10 10000 3.6 360 00:20 06.10.2019
6525 Clear 26 1017 10 10000 2.1 360 23:42 05.10.2019
6526 Clear 25 1016 11 10000 2.6 360 23:20 05.10.2019
6527 Clear 24 1016 12 10000 4.1 360 22:56 05.10.2019
6528 Clear 25 1015 11 10000 5.7 10 22:37 05.10.2019
6529 Clear 25 1015 11 10000 5.7 10 22:19 05.10.2019
6530 Clear 25 1015 10 10000 5.7 10 21:42 05.10.2019
6531 Clear 25 1015 12 10000 4.6 10 21:22 05.10.2019
6532 Clear 24 1015 13 10000 1.5 10 20:58 05.10.2019
6533 Clear 24 1015 13 10000 0.5 340 20:39 05.10.2019
6534 Clear 24 1015 13 10000 0.5 340 20:19 05.10.2019
6535 Clear 24 1015 13 10000 0.5 340 20:19 05.10.2019
6536 Clear 24 1015 13 10000 2.1 50 19:56 05.10.2019
6537 Clear 25 1016 13 10000 3.6 30 19:36 05.10.2019
6538 Clear 25 1016 13 10000 3.6 30 19:18 05.10.2019
6539 Clear 26 1016 13 10000 3.6 10 18:54 05.10.2019
6540 Clear 26 1016 13 10000 4.1 20 18:36 05.10.2019
6541 Clear 26 1016 13 10000 4.1 20 18:18 05.10.2019
6542 Clear 26 1016 13 10000 4.1 20 18:18 05.10.2019
6543 Clear 26 1017 15 10000 2.6 30 17:41 05.10.2019
6544 Clear 26 1017 15 10000 2.6 30 17:21 05.10.2019
6545 Clear 24 1017 17 10000 4.1 20 16:55 05.10.2019
6546 Clear 23 1017 18 10000 2.6 30 16:36 05.10.2019
6547 Clear 23 1017 18 10000 2.6 30 16:18 05.10.2019
6548 Clear 25 1017 16 10000 3.1 110 15:55 05.10.2019
6549 Clear 25 1017 16 10000 3.1 110 15:55 05.10.2019
6550 Clear 22 1017 18 10000 2.1 360 15:36 05.10.2019
6551 Clear 22 1017 18 10000 2.1 360 15:18 05.10.2019
6552 Clear 26 1017 15 10000 1.63 341.798 14:41 05.10.2019
6553 Clear 26 1017 15 10000 1.63 341.798 14:20 05.10.2019
6554 Clear 25 1017 16 10000 0.5 330 13:43 05.10.2019
6555 Clear 25 1017 16 10000 0.5 330 13:24 05.10.2019
6556 Clear 27 1016 13 10000 2.1 350 12:58 05.10.2019
6557 Clear 28 1016 12 10000 1.41 22.148 12:40 05.10.2019
6558 Clear 28 1016 12 10000 1.91 39.955 12:18 05.10.2019
6559 Clear 32 1015 10 10000 2.6 340 11:39 05.10.2019
6560 Clear 32 1015 10 10000 2.6 340 11:19 05.10.2019
6561 Clear 34 1015 8 10000 3.1 320 10:54 05.10.2019
6562 Clear 34 1015 9 10000 2.6 300 10:36 05.10.2019
6563 Clear 34 1015 9 10000 2.6 300 10:18 05.10.2019
6564 Clear 34 1015 9 10000 3.6 110 09:39 05.10.2019
6565 Clear 34 1015 9 10000 3.6 110 09:21 05.10.2019
6566 Clear 34 1015 9 10000 5.1 340 08:41 05.10.2019
6567 Clear 34 1015 9 10000 5.1 340 08:21 05.10.2019
6568 Clear 34 1015 9 10000 5.1 340 08:21 05.10.2019
6569 Clear 35 1015 8 10000 4.6 10 07:58 05.10.2019
6570 Clear 34 1016 9 10000 3.1 350 07:37 05.10.2019
6571 Clear 34 1016 9 10000 3.1 350 07:19 05.10.2019
6572 Clear 33 1017 10 10000 5.1 30 06:28 05.10.2019
6573 Clear 34 1017 8 10000 4.1 10 05:59 05.10.2019
6574 Clear 32 1019 10 10000 6.2 10 04:42 05.10.2019
6575 Clear 32 1020 10 10000 6.7 40 03:29 05.10.2019
6576 Clear 30 1020 12 10000 4.6 40 01:55 05.10.2019
6577 Clear 28 1020 14 10000 4.6 40 01:23 05.10.2019
6578 Clear 27 1020 14 10000 5.1 30 00:45 05.10.2019
6579 Clear 26 1020 16 10000 3.1 30 00:26 05.10.2019
6580 Clear 19 1019 29 10000 1.5 40 23:45 04.10.2019
6581 Clear 18 1019 27 10000 5.83 20.232 23:26 04.10.2019
6582 Clear 17 1019 29 10000 3.1 60 22:59 04.10.2019
6583 Clear 17 1018 29 10000 2.1 70 22:40 04.10.2019
6584 Clear 17 1018 29 10000 2.1 70 22:22 04.10.2019
6585 Clear 18 1018 27 10000 5.83 20.232 21:57 04.10.2019
6586 Clear 17 1018 29 10000 2.6 60 21:39 04.10.2019
6587 Clear 17 1018 29 10000 2.6 60 21:20 04.10.2019
6588 Clear 18 1018 27 10000 3.1 60 20:57 04.10.2019
6589 Clear 18 1018 27 10000 3.1 60 20:38 04.10.2019
6590 Clear 18 1018 27 10000 3.1 60 20:20 04.10.2019
6591 Clear 18 1018 18 10000 3.1 70 19:48 04.10.2019
6592 Clear 18 1018 18 10000 3.1 70 19:29 04.10.2019
6593 Clear 18 1019 18 10000 2.6 90 18:59 04.10.2019
6594 Clear 20 1019 22 10000 2.6 80 18:39 04.10.2019
6595 Clear 20 1019 22 10000 2.6 80 18:19 04.10.2019
6596 Clear 20 1019 22 10000 3.1 70 17:55 04.10.2019
6597 Clear 21 1019 21 10000 2.6 70 17:36 04.10.2019
6598 Clear 21 1019 21 10000 2.6 70 17:18 04.10.2019
6599 Clear 22 1019 21 10000 2.6 60 16:42 04.10.2019
6600 Clear 22 1019 19 10000 3.1 50 16:19 04.10.2019
6601 Clear 23 1020 18 10000 3.1 80 15:59 04.10.2019
6602 Clear 23 1020 17 10000 3.1 70 15:40 04.10.2019
6603 Clear 23 1020 17 10000 3.1 70 15:21 04.10.2019
6604 Clear 23 1020 17 10000 3.1 70 14:59 04.10.2019
6605 Clear 24 1019 17 10000 3.1 70 14:41 04.10.2019
6606 Clear 24 1019 17 10000 3.1 70 14:22 04.10.2019
6607 Clear 25 1019 15 10000 3.1 80 13:54 04.10.2019
6608 Clear 26 1019 14 10000 4.1 100 13:36 04.10.2019
6609 Clear 26 1019 14 10000 4.1 100 13:18 04.10.2019
6610 Clear 28 1018 13 10000 3.6 100 12:42 04.10.2019
6611 Clear 28 1018 13 10000 3.6 100 12:24 04.10.2019
6612 Clear 30 1018 10 10000 3.6 100 11:43 04.10.2019
6613 Clear 30 1018 10 10000 3.6 100 11:43 04.10.2019
6614 Clear 30 1018 10 10000 3.6 100 11:43 04.10.2019
6615 Clear 30 1018 10 10000 3.6 100 11:43 04.10.2019
6616 Clear 31 1018 10 10000 5.1 90 11:22 04.10.2019
6617 Clear 32 1017 10 10000 6.7 80 10:56 04.10.2019
6618 Clear 33 1017 9 10000 7.2 90 10:37 04.10.2019
6619 Clear 33 1017 9 10000 7.2 90 10:19 04.10.2019
6620 Clear 34 1017 8 10000 7.2 100 09:43 04.10.2019
6621 Clear 34 1017 9 10000 8.7 110 09:25 04.10.2019
6622 Clear 34 1017 7 10000 6.7 90 08:46 04.10.2019
6623 Clear 34 1017 9 10000 7.7 100 08:27 04.10.2019
6624 Clear 35 1017 8 10000 8.7 90 07:48 04.10.2019
6625 Clear 35 1017 8 10000 7.7 70 07:26 04.10.2019
6626 Clear 35 1018 8 10000 9.8 90 06:59 04.10.2019
6627 Clear 35 1018 8 10000 8.2 80 06:40 04.10.2019
6628 Clear 35 1018 8 10000 8.2 80 06:21 04.10.2019
6629 Clear 35 1018 8 10000 8.2 80 06:21 04.10.2019
6630 Clear 34 1020 9 10000 7.7 80 05:21 04.10.2019
6631 Clear 34 1020 9 10000 8.2 60 04:39 04.10.2019
6632 Clear 33 1021 10 10000 8.2 60 03:32 04.10.2019
6633 Clear 32 1021 11 10000 9.3 70 02:45 04.10.2019
6634 Clear 30 1022 12 10000 5.7 60 01:54 04.10.2019
6635 Clear 30 1022 12 10000 5.7 60 01:54 04.10.2019
6636 Clear 29 1022 13 10000 3.6 60 01:26 04.10.2019
6637 Clear 21 1021 28 10000 8.75 49.568 00:34 04.10.2019
6638 Clear 16 1021 38 10000 5.72 45.333 23:41 03.10.2019
6639 Clear 16 1021 38 10000 5.72 45.333 23:22 03.10.2019
6640 Clear 16 1020 38 10000 5.72 45.333 22:58 03.10.2019
6641 Clear 16 1020 38 10000 5.72 45.333 22:58 03.10.2019
6642 Clear 16 1020 36 10000 5.72 45.333 22:39 03.10.2019
6643 Clear 16 1020 36 10000 5.72 45.333 22:39 03.10.2019
6644 Clear 16 1020 36 10000 5.72 45.333 22:39 03.10.2019
6645 Clear 16 1020 36 10000 5.72 45.333 22:21 03.10.2019
6646 Clear 15 1020 41 10000 5.72 45.333 21:58 03.10.2019
6647 Clear 16 1019 38 10000 5.72 45.333 21:40 03.10.2019
6648 Clear 16 1019 38 10000 6.3 46.011 21:20 03.10.2019
6649 Clear 16 1019 38 10000 0.5 320 20:58 03.10.2019
6650 Clear 18 1019 31 10000 2.1 330 20:39 03.10.2019
6651 Clear 18 1019 31 10000 2.1 330 20:20 03.10.2019
6652 Clear 18 1019 31 10000 2.6 260 19:56 03.10.2019
6653 Clear 18 1020 31 10000 1 60 19:37 03.10.2019
6654 Clear 18 1020 31 10000 1 60 19:19 03.10.2019
6655 Clear 19 1020 32 10000 5.65 46.112 18:56 03.10.2019
6656 Clear 20 1020 28 10000 5.65 46.112 18:37 03.10.2019
6657 Clear 20 1020 28 10000 4.36 55.938 18:18 03.10.2019
6658 Clear 21 1020 19 10000 2.6 60 17:42 03.10.2019
6659 Clear 21 1020 19 10000 2.6 60 17:42 03.10.2019
6660 Clear 21 1020 19 10000 2.6 60 17:21 03.10.2019
6661 Clear 22 1020 19 10000 2.6 50 16:55 03.10.2019
6662 Clear 24 1021 19 10000 2.6 50 16:37 03.10.2019
6663 Clear 24 1021 19 10000 2.6 50 16:19 03.10.2019
6664 Clear 25 1021 17 10000 3.1 70 15:43 03.10.2019
6665 Clear 25 1021 17 10000 3.1 70 15:43 03.10.2019
6666 Clear 25 1020 16 10000 4.1 80 15:23 03.10.2019
6667 Clear 26 1020 15 10000 3.6 80 14:57 03.10.2019
6668 Clear 27 1020 13 10000 3.6 80 14:36 03.10.2019
6669 Clear 27 1020 13 10000 3.6 80 14:36 03.10.2019
6670 Clear 27 1020 13 10000 3.6 80 14:36 03.10.2019
6671 Clear 27 1020 13 10000 3.6 80 14:18 03.10.2019
6672 Clear 27 1020 13 10000 3.6 90 13:43 03.10.2019
6673 Clear 27 1020 12 10000 3.1 90 13:22 03.10.2019
6674 Clear 27 1020 12 10000 3.1 90 13:22 03.10.2019
6675 Clear 28 1019 13 10000 3.1 90 12:58 03.10.2019
6676 Clear 29 1019 12 10000 4.6 90 12:39 03.10.2019
6677 Clear 29 1019 12 10000 4.6 90 12:39 03.10.2019
6678 Clear 29 1019 12 10000 4.6 90 12:19